<?xml version="1.0" encoding="UTF-8" standalone="no" ?>
<gpx xmlns="http://www.topografix.com/GPX/1/1" xmlns:xsi="http://www.w3.org/2001/XMLSchema-instance" xsi:schemaLocation="http://www.topografix.com/GPX/1/1 http://www.topografix.com/GPX/1/1/gpx.xsd" version="1.1" creator="VisuGPX - https://www.visugpx.com">
  <metadata>
    <name>[17/12/2017] Dernière rando SpeedEure 2017</name>
    <desc><![CDATA[boucle de 37 km au départ d'Evreux]]></desc>
  </metadata>
  <trk>
    <name><![CDATA[[17/12/2017] Dernière rando SpeedEure 2017_1]]></name>
    <trkseg>
      <trkpt lat="49.02226" lon="1.14077">
        <ele>73</ele>
        <time>2017-12-17T07:50:34Z</time>
      </trkpt>
      <trkpt lat="49.0222" lon="1.1409">
        <ele>73.199997</ele>
        <time>2017-12-17T07:57:50Z</time>
      </trkpt>
      <trkpt lat="49.02211" lon="1.14094">
        <ele>73.300003</ele>
        <time>2017-12-17T07:57:55Z</time>
      </trkpt>
      <trkpt lat="49.02201" lon="1.14098">
        <ele>73.300003</ele>
        <time>2017-12-17T07:57:59Z</time>
      </trkpt>
      <trkpt lat="49.02191" lon="1.14102">
        <ele>73</ele>
        <time>2017-12-17T07:58:03Z</time>
      </trkpt>
      <trkpt lat="49.0218" lon="1.14107">
        <ele>73.099998</ele>
        <time>2017-12-17T07:58:07Z</time>
      </trkpt>
      <trkpt lat="49.0217" lon="1.14111">
        <ele>73.099998</ele>
        <time>2017-12-17T07:58:10Z</time>
      </trkpt>
      <trkpt lat="49.02161" lon="1.14114">
        <ele>73.099998</ele>
        <time>2017-12-17T07:58:13Z</time>
      </trkpt>
      <trkpt lat="49.02152" lon="1.14117">
        <ele>73</ele>
        <time>2017-12-17T07:58:16Z</time>
      </trkpt>
      <trkpt lat="49.02143" lon="1.1412">
        <ele>73.099998</ele>
        <time>2017-12-17T07:58:19Z</time>
      </trkpt>
      <trkpt lat="49.02133" lon="1.14124">
        <ele>73.199997</ele>
        <time>2017-12-17T07:58:22Z</time>
      </trkpt>
      <trkpt lat="49.02124" lon="1.14127">
        <ele>73.199997</ele>
        <time>2017-12-17T07:58:25Z</time>
      </trkpt>
      <trkpt lat="49.02115" lon="1.14131">
        <ele>73.099998</ele>
        <time>2017-12-17T07:58:28Z</time>
      </trkpt>
      <trkpt lat="49.02105" lon="1.14134">
        <ele>73.199997</ele>
        <time>2017-12-17T07:58:31Z</time>
      </trkpt>
      <trkpt lat="49.02096" lon="1.14138">
        <ele>73.5</ele>
        <time>2017-12-17T07:58:34Z</time>
      </trkpt>
      <trkpt lat="49.02086" lon="1.14142">
        <ele>73.400002</ele>
        <time>2017-12-17T07:58:37Z</time>
      </trkpt>
      <trkpt lat="49.02077" lon="1.14146">
        <ele>73.400002</ele>
        <time>2017-12-17T07:58:40Z</time>
      </trkpt>
      <trkpt lat="49.02066" lon="1.14151">
        <ele>73.400002</ele>
        <time>2017-12-17T07:58:43Z</time>
      </trkpt>
      <trkpt lat="49.02055" lon="1.14155">
        <ele>73.5</ele>
        <time>2017-12-17T07:58:46Z</time>
      </trkpt>
      <trkpt lat="49.02044" lon="1.14159">
        <ele>73.699997</ele>
        <time>2017-12-17T07:58:49Z</time>
      </trkpt>
      <trkpt lat="49.02033" lon="1.14163">
        <ele>73.699997</ele>
        <time>2017-12-17T07:58:52Z</time>
      </trkpt>
      <trkpt lat="49.02023" lon="1.14168">
        <ele>73.800003</ele>
        <time>2017-12-17T07:58:55Z</time>
      </trkpt>
      <trkpt lat="49.02012" lon="1.14172">
        <ele>73.800003</ele>
        <time>2017-12-17T07:58:58Z</time>
      </trkpt>
      <trkpt lat="49.02" lon="1.14176">
        <ele>73.900002</ele>
        <time>2017-12-17T07:59:01Z</time>
      </trkpt>
      <trkpt lat="49.0199" lon="1.14181">
        <ele>73.800003</ele>
        <time>2017-12-17T07:59:04Z</time>
      </trkpt>
      <trkpt lat="49.01979" lon="1.14185">
        <ele>74</ele>
        <time>2017-12-17T07:59:07Z</time>
      </trkpt>
      <trkpt lat="49.01969" lon="1.14189">
        <ele>74.300003</ele>
        <time>2017-12-17T07:59:10Z</time>
      </trkpt>
      <trkpt lat="49.01959" lon="1.14193">
        <ele>74.5</ele>
        <time>2017-12-17T07:59:13Z</time>
      </trkpt>
      <trkpt lat="49.01949" lon="1.14197">
        <ele>74.699997</ele>
        <time>2017-12-17T07:59:16Z</time>
      </trkpt>
      <trkpt lat="49.01939" lon="1.14201">
        <ele>75</ele>
        <time>2017-12-17T07:59:19Z</time>
      </trkpt>
      <trkpt lat="49.01928" lon="1.14206">
        <ele>75.199997</ele>
        <time>2017-12-17T07:59:22Z</time>
      </trkpt>
      <trkpt lat="49.01918" lon="1.14211">
        <ele>75.400002</ele>
        <time>2017-12-17T07:59:25Z</time>
      </trkpt>
      <trkpt lat="49.01909" lon="1.14217">
        <ele>75.400002</ele>
        <time>2017-12-17T07:59:28Z</time>
      </trkpt>
      <trkpt lat="49.01901" lon="1.14223">
        <ele>76</ele>
        <time>2017-12-17T07:59:31Z</time>
      </trkpt>
      <trkpt lat="49.01891" lon="1.1423">
        <ele>76.5</ele>
        <time>2017-12-17T07:59:35Z</time>
      </trkpt>
      <trkpt lat="49.01882" lon="1.14234">
        <ele>77.300003</ele>
        <time>2017-12-17T08:00:04Z</time>
      </trkpt>
      <trkpt lat="49.01872" lon="1.14239">
        <ele>77.199997</ele>
        <time>2017-12-17T08:00:09Z</time>
      </trkpt>
      <trkpt lat="49.01864" lon="1.14245">
        <ele>77.199997</ele>
        <time>2017-12-17T08:00:12Z</time>
      </trkpt>
      <trkpt lat="49.01855" lon="1.1425">
        <ele>77.5</ele>
        <time>2017-12-17T08:00:15Z</time>
      </trkpt>
      <trkpt lat="49.01845" lon="1.14256">
        <ele>77.5</ele>
        <time>2017-12-17T08:00:18Z</time>
      </trkpt>
      <trkpt lat="49.01835" lon="1.14263">
        <ele>77.599998</ele>
        <time>2017-12-17T08:00:21Z</time>
      </trkpt>
      <trkpt lat="49.01824" lon="1.14266">
        <ele>77.800003</ele>
        <time>2017-12-17T08:00:24Z</time>
      </trkpt>
      <trkpt lat="49.01815" lon="1.14257">
        <ele>78.099998</ele>
        <time>2017-12-17T08:00:27Z</time>
      </trkpt>
      <trkpt lat="49.01812" lon="1.14241">
        <ele>78.5</ele>
        <time>2017-12-17T08:00:30Z</time>
      </trkpt>
      <trkpt lat="49.01809" lon="1.14225">
        <ele>78.800003</ele>
        <time>2017-12-17T08:00:33Z</time>
      </trkpt>
      <trkpt lat="49.01806" lon="1.14208">
        <ele>79.099998</ele>
        <time>2017-12-17T08:00:36Z</time>
      </trkpt>
      <trkpt lat="49.01803" lon="1.14191">
        <ele>79.300003</ele>
        <time>2017-12-17T08:00:39Z</time>
      </trkpt>
      <trkpt lat="49.018" lon="1.14173">
        <ele>79.599998</ele>
        <time>2017-12-17T08:00:42Z</time>
      </trkpt>
      <trkpt lat="49.01796" lon="1.14156">
        <ele>79.699997</ele>
        <time>2017-12-17T08:00:45Z</time>
      </trkpt>
      <trkpt lat="49.01793" lon="1.14138">
        <ele>79.800003</ele>
        <time>2017-12-17T08:00:48Z</time>
      </trkpt>
      <trkpt lat="49.01789" lon="1.14119">
        <ele>79.900002</ele>
        <time>2017-12-17T08:00:51Z</time>
      </trkpt>
      <trkpt lat="49.01786" lon="1.141">
        <ele>79.900002</ele>
        <time>2017-12-17T08:00:54Z</time>
      </trkpt>
      <trkpt lat="49.01782" lon="1.14082">
        <ele>80.099998</ele>
        <time>2017-12-17T08:00:57Z</time>
      </trkpt>
      <trkpt lat="49.01779" lon="1.14063">
        <ele>80.300003</ele>
        <time>2017-12-17T08:01:00Z</time>
      </trkpt>
      <trkpt lat="49.01775" lon="1.14045">
        <ele>80.400002</ele>
        <time>2017-12-17T08:01:03Z</time>
      </trkpt>
      <trkpt lat="49.01771" lon="1.14026">
        <ele>80.5</ele>
        <time>2017-12-17T08:01:06Z</time>
      </trkpt>
      <trkpt lat="49.01768" lon="1.14007">
        <ele>80.400002</ele>
        <time>2017-12-17T08:01:09Z</time>
      </trkpt>
      <trkpt lat="49.01763" lon="1.13988">
        <ele>80.5</ele>
        <time>2017-12-17T08:01:12Z</time>
      </trkpt>
      <trkpt lat="49.0176" lon="1.13969">
        <ele>80.599998</ele>
        <time>2017-12-17T08:01:15Z</time>
      </trkpt>
      <trkpt lat="49.01756" lon="1.1395">
        <ele>80.599998</ele>
        <time>2017-12-17T08:01:18Z</time>
      </trkpt>
      <trkpt lat="49.01752" lon="1.13931">
        <ele>80.699997</ele>
        <time>2017-12-17T08:01:21Z</time>
      </trkpt>
      <trkpt lat="49.01748" lon="1.13912">
        <ele>80.800003</ele>
        <time>2017-12-17T08:01:24Z</time>
      </trkpt>
      <trkpt lat="49.01745" lon="1.13898">
        <ele>80.900002</ele>
        <time>2017-12-17T08:01:26Z</time>
      </trkpt>
      <trkpt lat="49.01743" lon="1.13885">
        <ele>81.099998</ele>
        <time>2017-12-17T08:01:28Z</time>
      </trkpt>
      <trkpt lat="49.01739" lon="1.13866">
        <ele>81.400002</ele>
        <time>2017-12-17T08:01:31Z</time>
      </trkpt>
      <trkpt lat="49.01735" lon="1.13847">
        <ele>81.400002</ele>
        <time>2017-12-17T08:01:34Z</time>
      </trkpt>
      <trkpt lat="49.01731" lon="1.13828">
        <ele>81.400002</ele>
        <time>2017-12-17T08:01:37Z</time>
      </trkpt>
      <trkpt lat="49.01727" lon="1.13808">
        <ele>81.599998</ele>
        <time>2017-12-17T08:01:40Z</time>
      </trkpt>
      <trkpt lat="49.01723" lon="1.13789">
        <ele>81.699997</ele>
        <time>2017-12-17T08:01:43Z</time>
      </trkpt>
      <trkpt lat="49.0172" lon="1.1377">
        <ele>81.699997</ele>
        <time>2017-12-17T08:01:46Z</time>
      </trkpt>
      <trkpt lat="49.01716" lon="1.13753">
        <ele>81.599998</ele>
        <time>2017-12-17T08:01:49Z</time>
      </trkpt>
      <trkpt lat="49.0171" lon="1.13742">
        <ele>81.800003</ele>
        <time>2017-12-17T08:03:01Z</time>
      </trkpt>
      <trkpt lat="49.01701" lon="1.13734">
        <ele>82.5</ele>
        <time>2017-12-17T08:03:10Z</time>
      </trkpt>
      <trkpt lat="49.01692" lon="1.13729">
        <ele>83.099998</ele>
        <time>2017-12-17T08:03:15Z</time>
      </trkpt>
      <trkpt lat="49.01682" lon="1.13724">
        <ele>84.300003</ele>
        <time>2017-12-17T08:03:20Z</time>
      </trkpt>
      <trkpt lat="49.01673" lon="1.1372">
        <ele>85.5</ele>
        <time>2017-12-17T08:03:25Z</time>
      </trkpt>
      <trkpt lat="49.01663" lon="1.13715">
        <ele>86.599998</ele>
        <time>2017-12-17T08:03:30Z</time>
      </trkpt>
      <trkpt lat="49.01655" lon="1.1371">
        <ele>88.199997</ele>
        <time>2017-12-17T08:03:37Z</time>
      </trkpt>
      <trkpt lat="49.01646" lon="1.13707">
        <ele>89.099998</ele>
        <time>2017-12-17T08:03:41Z</time>
      </trkpt>
      <trkpt lat="49.01635" lon="1.13701">
        <ele>90.199997</ele>
        <time>2017-12-17T08:03:45Z</time>
      </trkpt>
      <trkpt lat="49.01625" lon="1.13698">
        <ele>91.300003</ele>
        <time>2017-12-17T08:03:49Z</time>
      </trkpt>
      <trkpt lat="49.01615" lon="1.13691">
        <ele>92.800003</ele>
        <time>2017-12-17T08:03:54Z</time>
      </trkpt>
      <trkpt lat="49.01604" lon="1.13688">
        <ele>94.099998</ele>
        <time>2017-12-17T08:03:59Z</time>
      </trkpt>
      <trkpt lat="49.01594" lon="1.13685">
        <ele>95.199997</ele>
        <time>2017-12-17T08:04:04Z</time>
      </trkpt>
      <trkpt lat="49.01584" lon="1.13677">
        <ele>96.599998</ele>
        <time>2017-12-17T08:04:10Z</time>
      </trkpt>
      <trkpt lat="49.01575" lon="1.13678">
        <ele>97.5</ele>
        <time>2017-12-17T08:04:13Z</time>
      </trkpt>
      <trkpt lat="49.01565" lon="1.13685">
        <ele>98.699997</ele>
        <time>2017-12-17T08:04:17Z</time>
      </trkpt>
      <trkpt lat="49.01559" lon="1.13699">
        <ele>99.5</ele>
        <time>2017-12-17T08:04:22Z</time>
      </trkpt>
      <trkpt lat="49.01558" lon="1.13713">
        <ele>100.300003</ele>
        <time>2017-12-17T08:04:26Z</time>
      </trkpt>
      <trkpt lat="49.01561" lon="1.1373">
        <ele>101.099998</ele>
        <time>2017-12-17T08:04:31Z</time>
      </trkpt>
      <trkpt lat="49.01566" lon="1.13745">
        <ele>101.599998</ele>
        <time>2017-12-17T08:04:35Z</time>
      </trkpt>
      <trkpt lat="49.01571" lon="1.13757">
        <ele>102.199997</ele>
        <time>2017-12-17T08:04:39Z</time>
      </trkpt>
      <trkpt lat="49.01576" lon="1.13769">
        <ele>102.699997</ele>
        <time>2017-12-17T08:04:43Z</time>
      </trkpt>
      <trkpt lat="49.01582" lon="1.13783">
        <ele>103.400002</ele>
        <time>2017-12-17T08:04:47Z</time>
      </trkpt>
      <trkpt lat="49.01587" lon="1.13797">
        <ele>104.099998</ele>
        <time>2017-12-17T08:04:51Z</time>
      </trkpt>
      <trkpt lat="49.01592" lon="1.13811">
        <ele>104.699997</ele>
        <time>2017-12-17T08:04:55Z</time>
      </trkpt>
      <trkpt lat="49.01595" lon="1.13828">
        <ele>105.300003</ele>
        <time>2017-12-17T08:04:59Z</time>
      </trkpt>
      <trkpt lat="49.01597" lon="1.13847">
        <ele>105.800003</ele>
        <time>2017-12-17T08:05:03Z</time>
      </trkpt>
      <trkpt lat="49.01598" lon="1.13861">
        <ele>106.099998</ele>
        <time>2017-12-17T08:05:06Z</time>
      </trkpt>
      <trkpt lat="49.01601" lon="1.13876">
        <ele>106.400002</ele>
        <time>2017-12-17T08:05:09Z</time>
      </trkpt>
      <trkpt lat="49.01603" lon="1.13891">
        <ele>106.5</ele>
        <time>2017-12-17T08:05:12Z</time>
      </trkpt>
      <trkpt lat="49.01605" lon="1.13908">
        <ele>106.699997</ele>
        <time>2017-12-17T08:05:15Z</time>
      </trkpt>
      <trkpt lat="49.01607" lon="1.13924">
        <ele>106.900002</ele>
        <time>2017-12-17T08:05:18Z</time>
      </trkpt>
      <trkpt lat="49.0161" lon="1.13941">
        <ele>107</ele>
        <time>2017-12-17T08:05:21Z</time>
      </trkpt>
      <trkpt lat="49.01613" lon="1.13958">
        <ele>107.199997</ele>
        <time>2017-12-17T08:05:24Z</time>
      </trkpt>
      <trkpt lat="49.01615" lon="1.13974">
        <ele>107.400002</ele>
        <time>2017-12-17T08:05:27Z</time>
      </trkpt>
      <trkpt lat="49.01618" lon="1.13991">
        <ele>107.300003</ele>
        <time>2017-12-17T08:05:30Z</time>
      </trkpt>
      <trkpt lat="49.01622" lon="1.14008">
        <ele>107.300003</ele>
        <time>2017-12-17T08:05:33Z</time>
      </trkpt>
      <trkpt lat="49.01624" lon="1.14024">
        <ele>107.5</ele>
        <time>2017-12-17T08:05:36Z</time>
      </trkpt>
      <trkpt lat="49.01627" lon="1.14042">
        <ele>107.800003</ele>
        <time>2017-12-17T08:05:39Z</time>
      </trkpt>
      <trkpt lat="49.0163" lon="1.14059">
        <ele>107.900002</ele>
        <time>2017-12-17T08:05:42Z</time>
      </trkpt>
      <trkpt lat="49.01632" lon="1.14076">
        <ele>107.900002</ele>
        <time>2017-12-17T08:05:45Z</time>
      </trkpt>
      <trkpt lat="49.01633" lon="1.14095">
        <ele>108.300003</ele>
        <time>2017-12-17T08:05:48Z</time>
      </trkpt>
      <trkpt lat="49.01633" lon="1.14113">
        <ele>108.300003</ele>
        <time>2017-12-17T08:05:51Z</time>
      </trkpt>
      <trkpt lat="49.01633" lon="1.14131">
        <ele>108.599998</ele>
        <time>2017-12-17T08:05:54Z</time>
      </trkpt>
      <trkpt lat="49.01634" lon="1.1415">
        <ele>108.900002</ele>
        <time>2017-12-17T08:05:57Z</time>
      </trkpt>
      <trkpt lat="49.01636" lon="1.14169">
        <ele>109.099998</ele>
        <time>2017-12-17T08:06:00Z</time>
      </trkpt>
      <trkpt lat="49.01632" lon="1.14183">
        <ele>109.099998</ele>
        <time>2017-12-17T08:06:03Z</time>
      </trkpt>
      <trkpt lat="49.01624" lon="1.14192">
        <ele>109.400002</ele>
        <time>2017-12-17T08:06:06Z</time>
      </trkpt>
      <trkpt lat="49.01616" lon="1.14199">
        <ele>110</ele>
        <time>2017-12-17T08:06:09Z</time>
      </trkpt>
      <trkpt lat="49.01605" lon="1.14203">
        <ele>110.800003</ele>
        <time>2017-12-17T08:06:13Z</time>
      </trkpt>
      <trkpt lat="49.01596" lon="1.14193">
        <ele>111.699997</ele>
        <time>2017-12-17T08:06:17Z</time>
      </trkpt>
      <trkpt lat="49.01597" lon="1.14177">
        <ele>112.800003</ele>
        <time>2017-12-17T08:06:21Z</time>
      </trkpt>
      <trkpt lat="49.016" lon="1.1416">
        <ele>113.699997</ele>
        <time>2017-12-17T08:06:25Z</time>
      </trkpt>
      <trkpt lat="49.01597" lon="1.14145">
        <ele>114.199997</ele>
        <time>2017-12-17T08:06:29Z</time>
      </trkpt>
      <trkpt lat="49.01586" lon="1.14143">
        <ele>114.599998</ele>
        <time>2017-12-17T08:06:33Z</time>
      </trkpt>
      <trkpt lat="49.01576" lon="1.14144">
        <ele>115</ele>
        <time>2017-12-17T08:06:36Z</time>
      </trkpt>
      <trkpt lat="49.01567" lon="1.14145">
        <ele>115.800003</ele>
        <time>2017-12-17T08:06:39Z</time>
      </trkpt>
      <trkpt lat="49.01557" lon="1.14149">
        <ele>117.199997</ele>
        <time>2017-12-17T08:06:43Z</time>
      </trkpt>
      <trkpt lat="49.01547" lon="1.1415">
        <ele>118.199997</ele>
        <time>2017-12-17T08:06:47Z</time>
      </trkpt>
      <trkpt lat="49.0154" lon="1.14138">
        <ele>119.400002</ele>
        <time>2017-12-17T08:06:53Z</time>
      </trkpt>
      <trkpt lat="49.01535" lon="1.14124">
        <ele>120.099998</ele>
        <time>2017-12-17T08:06:57Z</time>
      </trkpt>
      <trkpt lat="49.0153" lon="1.14112">
        <ele>120.400002</ele>
        <time>2017-12-17T08:07:01Z</time>
      </trkpt>
      <trkpt lat="49.01524" lon="1.14098">
        <ele>121.199997</ele>
        <time>2017-12-17T08:07:05Z</time>
      </trkpt>
      <trkpt lat="49.01521" lon="1.14082">
        <ele>121.5</ele>
        <time>2017-12-17T08:07:09Z</time>
      </trkpt>
      <trkpt lat="49.01519" lon="1.14067">
        <ele>122</ele>
        <time>2017-12-17T08:07:13Z</time>
      </trkpt>
      <trkpt lat="49.01528" lon="1.14068">
        <ele>122.5</ele>
        <time>2017-12-17T08:07:20Z</time>
      </trkpt>
      <trkpt lat="49.01537" lon="1.14066">
        <ele>122.300003</ele>
        <time>2017-12-17T08:07:25Z</time>
      </trkpt>
      <trkpt lat="49.01541" lon="1.14051">
        <ele>121.900002</ele>
        <time>2017-12-17T08:07:29Z</time>
      </trkpt>
      <trkpt lat="49.01545" lon="1.14039">
        <ele>121.800003</ele>
        <time>2017-12-17T08:07:32Z</time>
      </trkpt>
      <trkpt lat="49.01551" lon="1.14026">
        <ele>121.599998</ele>
        <time>2017-12-17T08:07:35Z</time>
      </trkpt>
      <trkpt lat="49.01557" lon="1.14012">
        <ele>121.5</ele>
        <time>2017-12-17T08:07:38Z</time>
      </trkpt>
      <trkpt lat="49.0156" lon="1.13995">
        <ele>121.400002</ele>
        <time>2017-12-17T08:07:41Z</time>
      </trkpt>
      <trkpt lat="49.0156" lon="1.13977">
        <ele>120.900002</ele>
        <time>2017-12-17T08:07:44Z</time>
      </trkpt>
      <trkpt lat="49.0156" lon="1.13959">
        <ele>120.599998</ele>
        <time>2017-12-17T08:07:47Z</time>
      </trkpt>
      <trkpt lat="49.01557" lon="1.13943">
        <ele>120.099998</ele>
        <time>2017-12-17T08:07:50Z</time>
      </trkpt>
      <trkpt lat="49.01553" lon="1.13927">
        <ele>120.099998</ele>
        <time>2017-12-17T08:07:53Z</time>
      </trkpt>
      <trkpt lat="49.01549" lon="1.13914">
        <ele>120.199997</ele>
        <time>2017-12-17T08:07:56Z</time>
      </trkpt>
      <trkpt lat="49.01545" lon="1.13896">
        <ele>120.800003</ele>
        <time>2017-12-17T08:08:00Z</time>
      </trkpt>
      <trkpt lat="49.0154" lon="1.13879">
        <ele>121</ele>
        <time>2017-12-17T08:08:03Z</time>
      </trkpt>
      <trkpt lat="49.01536" lon="1.13864">
        <ele>121.099998</ele>
        <time>2017-12-17T08:08:06Z</time>
      </trkpt>
      <trkpt lat="49.01531" lon="1.13849">
        <ele>121.199997</ele>
        <time>2017-12-17T08:08:09Z</time>
      </trkpt>
      <trkpt lat="49.01527" lon="1.13833">
        <ele>121.5</ele>
        <time>2017-12-17T08:08:12Z</time>
      </trkpt>
      <trkpt lat="49.01523" lon="1.13818">
        <ele>121.5</ele>
        <time>2017-12-17T08:08:15Z</time>
      </trkpt>
      <trkpt lat="49.01518" lon="1.13801">
        <ele>121.5</ele>
        <time>2017-12-17T08:08:18Z</time>
      </trkpt>
      <trkpt lat="49.01515" lon="1.13786">
        <ele>121.5</ele>
        <time>2017-12-17T08:08:21Z</time>
      </trkpt>
      <trkpt lat="49.01511" lon="1.1377">
        <ele>121.800003</ele>
        <time>2017-12-17T08:08:24Z</time>
      </trkpt>
      <trkpt lat="49.01506" lon="1.13754">
        <ele>121.900002</ele>
        <time>2017-12-17T08:08:27Z</time>
      </trkpt>
      <trkpt lat="49.015" lon="1.1374">
        <ele>122</ele>
        <time>2017-12-17T08:08:30Z</time>
      </trkpt>
      <trkpt lat="49.01492" lon="1.13727">
        <ele>122</ele>
        <time>2017-12-17T08:08:33Z</time>
      </trkpt>
      <trkpt lat="49.01486" lon="1.13716">
        <ele>122.199997</ele>
        <time>2017-12-17T08:08:36Z</time>
      </trkpt>
      <trkpt lat="49.01478" lon="1.13703">
        <ele>122.599998</ele>
        <time>2017-12-17T08:08:39Z</time>
      </trkpt>
      <trkpt lat="49.01472" lon="1.13693">
        <ele>122.800003</ele>
        <time>2017-12-17T08:08:42Z</time>
      </trkpt>
      <trkpt lat="49.01464" lon="1.13682">
        <ele>123.300003</ele>
        <time>2017-12-17T08:08:45Z</time>
      </trkpt>
      <trkpt lat="49.01457" lon="1.1367">
        <ele>123.800003</ele>
        <time>2017-12-17T08:08:48Z</time>
      </trkpt>
      <trkpt lat="49.01449" lon="1.13658">
        <ele>124</ele>
        <time>2017-12-17T08:08:51Z</time>
      </trkpt>
      <trkpt lat="49.01441" lon="1.13646">
        <ele>124.199997</ele>
        <time>2017-12-17T08:08:55Z</time>
      </trkpt>
      <trkpt lat="49.01434" lon="1.13636">
        <ele>124.5</ele>
        <time>2017-12-17T08:08:58Z</time>
      </trkpt>
      <trkpt lat="49.01426" lon="1.13626">
        <ele>124.699997</ele>
        <time>2017-12-17T08:09:01Z</time>
      </trkpt>
      <trkpt lat="49.01422" lon="1.13609">
        <ele>124.5</ele>
        <time>2017-12-17T08:09:04Z</time>
      </trkpt>
      <trkpt lat="49.01429" lon="1.13594">
        <ele>124.300003</ele>
        <time>2017-12-17T08:09:08Z</time>
      </trkpt>
      <trkpt lat="49.01424" lon="1.13581">
        <ele>124.5</ele>
        <time>2017-12-17T08:09:14Z</time>
      </trkpt>
      <trkpt lat="49.01415" lon="1.13576">
        <ele>125</ele>
        <time>2017-12-17T08:09:18Z</time>
      </trkpt>
      <trkpt lat="49.01409" lon="1.13588">
        <ele>125.099998</ele>
        <time>2017-12-17T08:09:25Z</time>
      </trkpt>
      <trkpt lat="49.01399" lon="1.13587">
        <ele>124.699997</ele>
        <time>2017-12-17T08:09:30Z</time>
      </trkpt>
      <trkpt lat="49.01389" lon="1.13581">
        <ele>124.400002</ele>
        <time>2017-12-17T08:09:34Z</time>
      </trkpt>
      <trkpt lat="49.0139" lon="1.13566">
        <ele>125.699997</ele>
        <time>2017-12-17T08:09:40Z</time>
      </trkpt>
      <trkpt lat="49.0139" lon="1.1355">
        <ele>125.900002</ele>
        <time>2017-12-17T08:09:44Z</time>
      </trkpt>
      <trkpt lat="49.0139" lon="1.13532">
        <ele>126.400002</ele>
        <time>2017-12-17T08:09:48Z</time>
      </trkpt>
      <trkpt lat="49.01387" lon="1.13517">
        <ele>126.900002</ele>
        <time>2017-12-17T08:09:51Z</time>
      </trkpt>
      <trkpt lat="49.01383" lon="1.13505">
        <ele>127.099998</ele>
        <time>2017-12-17T08:09:54Z</time>
      </trkpt>
      <trkpt lat="49.01379" lon="1.13492">
        <ele>127.400002</ele>
        <time>2017-12-17T08:09:57Z</time>
      </trkpt>
      <trkpt lat="49.01374" lon="1.13479">
        <ele>127.800003</ele>
        <time>2017-12-17T08:10:00Z</time>
      </trkpt>
      <trkpt lat="49.0137" lon="1.13465">
        <ele>128</ele>
        <time>2017-12-17T08:10:03Z</time>
      </trkpt>
      <trkpt lat="49.01367" lon="1.13451">
        <ele>128</ele>
        <time>2017-12-17T08:10:06Z</time>
      </trkpt>
      <trkpt lat="49.01362" lon="1.13436">
        <ele>128.100006</ele>
        <time>2017-12-17T08:10:09Z</time>
      </trkpt>
      <trkpt lat="49.01356" lon="1.1342">
        <ele>128</ele>
        <time>2017-12-17T08:10:12Z</time>
      </trkpt>
      <trkpt lat="49.01352" lon="1.13404">
        <ele>128</ele>
        <time>2017-12-17T08:10:15Z</time>
      </trkpt>
      <trkpt lat="49.01346" lon="1.13388">
        <ele>128.100006</ele>
        <time>2017-12-17T08:10:18Z</time>
      </trkpt>
      <trkpt lat="49.0134" lon="1.13372">
        <ele>128.5</ele>
        <time>2017-12-17T08:10:21Z</time>
      </trkpt>
      <trkpt lat="49.01336" lon="1.13357">
        <ele>128.600006</ele>
        <time>2017-12-17T08:10:24Z</time>
      </trkpt>
      <trkpt lat="49.0133" lon="1.13343">
        <ele>128.899994</ele>
        <time>2017-12-17T08:10:27Z</time>
      </trkpt>
      <trkpt lat="49.01325" lon="1.13328">
        <ele>129</ele>
        <time>2017-12-17T08:10:30Z</time>
      </trkpt>
      <trkpt lat="49.0132" lon="1.13313">
        <ele>129.300003</ele>
        <time>2017-12-17T08:10:33Z</time>
      </trkpt>
      <trkpt lat="49.01314" lon="1.13297">
        <ele>129.5</ele>
        <time>2017-12-17T08:10:36Z</time>
      </trkpt>
      <trkpt lat="49.01309" lon="1.13281">
        <ele>129.5</ele>
        <time>2017-12-17T08:10:39Z</time>
      </trkpt>
      <trkpt lat="49.01303" lon="1.13266">
        <ele>129.5</ele>
        <time>2017-12-17T08:10:42Z</time>
      </trkpt>
      <trkpt lat="49.01297" lon="1.13249">
        <ele>129.5</ele>
        <time>2017-12-17T08:10:45Z</time>
      </trkpt>
      <trkpt lat="49.01291" lon="1.13231">
        <ele>129.399994</ele>
        <time>2017-12-17T08:10:48Z</time>
      </trkpt>
      <trkpt lat="49.01292" lon="1.13215">
        <ele>129</ele>
        <time>2017-12-17T08:10:51Z</time>
      </trkpt>
      <trkpt lat="49.01283" lon="1.13204">
        <ele>129.199997</ele>
        <time>2017-12-17T08:10:54Z</time>
      </trkpt>
      <trkpt lat="49.01278" lon="1.13186">
        <ele>129</ele>
        <time>2017-12-17T08:10:57Z</time>
      </trkpt>
      <trkpt lat="49.01273" lon="1.13169">
        <ele>129</ele>
        <time>2017-12-17T08:11:00Z</time>
      </trkpt>
      <trkpt lat="49.01267" lon="1.13152">
        <ele>129</ele>
        <time>2017-12-17T08:11:03Z</time>
      </trkpt>
      <trkpt lat="49.01262" lon="1.13136">
        <ele>129.399994</ele>
        <time>2017-12-17T08:11:06Z</time>
      </trkpt>
      <trkpt lat="49.01256" lon="1.13119">
        <ele>129.5</ele>
        <time>2017-12-17T08:11:09Z</time>
      </trkpt>
      <trkpt lat="49.01247" lon="1.13104">
        <ele>129.199997</ele>
        <time>2017-12-17T08:11:12Z</time>
      </trkpt>
      <trkpt lat="49.01236" lon="1.13091">
        <ele>128.800003</ele>
        <time>2017-12-17T08:11:15Z</time>
      </trkpt>
      <trkpt lat="49.01227" lon="1.13082">
        <ele>128.199997</ele>
        <time>2017-12-17T08:11:19Z</time>
      </trkpt>
      <trkpt lat="49.01218" lon="1.13085">
        <ele>127.800003</ele>
        <time>2017-12-17T08:11:22Z</time>
      </trkpt>
      <trkpt lat="49.01209" lon="1.13092">
        <ele>127.5</ele>
        <time>2017-12-17T08:11:26Z</time>
      </trkpt>
      <trkpt lat="49.012" lon="1.13101">
        <ele>128</ele>
        <time>2017-12-17T08:11:31Z</time>
      </trkpt>
      <trkpt lat="49.01198" lon="1.13116">
        <ele>128.199997</ele>
        <time>2017-12-17T08:11:36Z</time>
      </trkpt>
      <trkpt lat="49.01194" lon="1.13128">
        <ele>129.100006</ele>
        <time>2017-12-17T08:11:42Z</time>
      </trkpt>
      <trkpt lat="49.01192" lon="1.13143">
        <ele>129.399994</ele>
        <time>2017-12-17T08:11:49Z</time>
      </trkpt>
      <trkpt lat="49.01191" lon="1.13158">
        <ele>129.800003</ele>
        <time>2017-12-17T08:11:56Z</time>
      </trkpt>
      <trkpt lat="49.01194" lon="1.13172">
        <ele>130</ele>
        <time>2017-12-17T08:12:07Z</time>
      </trkpt>
      <trkpt lat="49.01185" lon="1.13178">
        <ele>129.800003</ele>
        <time>2017-12-17T08:12:23Z</time>
      </trkpt>
      <trkpt lat="49.01174" lon="1.13175">
        <ele>130.100006</ele>
        <time>2017-12-17T08:12:30Z</time>
      </trkpt>
      <trkpt lat="49.01172" lon="1.13162">
        <ele>130.300003</ele>
        <time>2017-12-17T08:12:37Z</time>
      </trkpt>
      <trkpt lat="49.01163" lon="1.13152">
        <ele>130.100006</ele>
        <time>2017-12-17T08:12:43Z</time>
      </trkpt>
      <trkpt lat="49.01158" lon="1.1314">
        <ele>130</ele>
        <time>2017-12-17T08:12:49Z</time>
      </trkpt>
      <trkpt lat="49.01153" lon="1.13125">
        <ele>129.800003</ele>
        <time>2017-12-17T08:12:54Z</time>
      </trkpt>
      <trkpt lat="49.01144" lon="1.13116">
        <ele>129.699997</ele>
        <time>2017-12-17T08:12:58Z</time>
      </trkpt>
      <trkpt lat="49.01134" lon="1.13107">
        <ele>129.399994</ele>
        <time>2017-12-17T08:13:03Z</time>
      </trkpt>
      <trkpt lat="49.01127" lon="1.13095">
        <ele>129.5</ele>
        <time>2017-12-17T08:13:08Z</time>
      </trkpt>
      <trkpt lat="49.0112" lon="1.13084">
        <ele>129.800003</ele>
        <time>2017-12-17T08:13:13Z</time>
      </trkpt>
      <trkpt lat="49.0111" lon="1.13077">
        <ele>130</ele>
        <time>2017-12-17T08:13:18Z</time>
      </trkpt>
      <trkpt lat="49.011" lon="1.13077">
        <ele>130.199997</ele>
        <time>2017-12-17T08:13:23Z</time>
      </trkpt>
      <trkpt lat="49.011" lon="1.13092">
        <ele>130.300003</ele>
        <time>2017-12-17T08:13:28Z</time>
      </trkpt>
      <trkpt lat="49.01099" lon="1.13108">
        <ele>130.300003</ele>
        <time>2017-12-17T08:13:33Z</time>
      </trkpt>
      <trkpt lat="49.011" lon="1.13123">
        <ele>130.399994</ele>
        <time>2017-12-17T08:13:37Z</time>
      </trkpt>
      <trkpt lat="49.01101" lon="1.13137">
        <ele>130.5</ele>
        <time>2017-12-17T08:13:41Z</time>
      </trkpt>
      <trkpt lat="49.01111" lon="1.13138">
        <ele>130.899994</ele>
        <time>2017-12-17T08:13:49Z</time>
      </trkpt>
      <trkpt lat="49.0112" lon="1.13127">
        <ele>130.5</ele>
        <time>2017-12-17T08:13:53Z</time>
      </trkpt>
      <trkpt lat="49.01127" lon="1.13114">
        <ele>129.899994</ele>
        <time>2017-12-17T08:13:57Z</time>
      </trkpt>
      <trkpt lat="49.01122" lon="1.131">
        <ele>129.5</ele>
        <time>2017-12-17T08:14:02Z</time>
      </trkpt>
      <trkpt lat="49.01115" lon="1.13087">
        <ele>129.699997</ele>
        <time>2017-12-17T08:14:06Z</time>
      </trkpt>
      <trkpt lat="49.01103" lon="1.13077">
        <ele>129.800003</ele>
        <time>2017-12-17T08:14:10Z</time>
      </trkpt>
      <trkpt lat="49.01097" lon="1.13066">
        <ele>129.800003</ele>
        <time>2017-12-17T08:14:13Z</time>
      </trkpt>
      <trkpt lat="49.01091" lon="1.13051">
        <ele>130.399994</ele>
        <time>2017-12-17T08:14:17Z</time>
      </trkpt>
      <trkpt lat="49.01088" lon="1.13035">
        <ele>131</ele>
        <time>2017-12-17T08:14:21Z</time>
      </trkpt>
      <trkpt lat="49.01082" lon="1.13023">
        <ele>131.199997</ele>
        <time>2017-12-17T08:14:26Z</time>
      </trkpt>
      <trkpt lat="49.01076" lon="1.1301">
        <ele>131.600006</ele>
        <time>2017-12-17T08:14:30Z</time>
      </trkpt>
      <trkpt lat="49.01071" lon="1.12997">
        <ele>132</ele>
        <time>2017-12-17T08:14:33Z</time>
      </trkpt>
      <trkpt lat="49.01066" lon="1.12981">
        <ele>132.399994</ele>
        <time>2017-12-17T08:14:37Z</time>
      </trkpt>
      <trkpt lat="49.01061" lon="1.12968">
        <ele>132.600006</ele>
        <time>2017-12-17T08:14:41Z</time>
      </trkpt>
      <trkpt lat="49.01059" lon="1.12953">
        <ele>133</ele>
        <time>2017-12-17T08:14:46Z</time>
      </trkpt>
      <trkpt lat="49.01068" lon="1.12953">
        <ele>133.300003</ele>
        <time>2017-12-17T08:14:55Z</time>
      </trkpt>
      <trkpt lat="49.01077" lon="1.12953">
        <ele>133.399994</ele>
        <time>2017-12-17T08:15:00Z</time>
      </trkpt>
      <trkpt lat="49.01088" lon="1.12959">
        <ele>133.5</ele>
        <time>2017-12-17T08:15:07Z</time>
      </trkpt>
      <trkpt lat="49.01097" lon="1.12967">
        <ele>133.300003</ele>
        <time>2017-12-17T08:15:14Z</time>
      </trkpt>
      <trkpt lat="49.01105" lon="1.1296">
        <ele>133.300003</ele>
        <time>2017-12-17T08:15:18Z</time>
      </trkpt>
      <trkpt lat="49.01113" lon="1.12957">
        <ele>133.300003</ele>
        <time>2017-12-17T08:15:22Z</time>
      </trkpt>
      <trkpt lat="49.01122" lon="1.12949">
        <ele>133.399994</ele>
        <time>2017-12-17T08:15:27Z</time>
      </trkpt>
      <trkpt lat="49.01129" lon="1.12938">
        <ele>133.699997</ele>
        <time>2017-12-17T08:15:32Z</time>
      </trkpt>
      <trkpt lat="49.01121" lon="1.12928">
        <ele>133.600006</ele>
        <time>2017-12-17T08:17:22Z</time>
      </trkpt>
      <trkpt lat="49.01113" lon="1.12916">
        <ele>133.600006</ele>
        <time>2017-12-17T08:17:27Z</time>
      </trkpt>
      <trkpt lat="49.01104" lon="1.12903">
        <ele>133.699997</ele>
        <time>2017-12-17T08:17:31Z</time>
      </trkpt>
      <trkpt lat="49.01097" lon="1.12893">
        <ele>133.800003</ele>
        <time>2017-12-17T08:17:34Z</time>
      </trkpt>
      <trkpt lat="49.0109" lon="1.12882">
        <ele>134.100006</ele>
        <time>2017-12-17T08:17:37Z</time>
      </trkpt>
      <trkpt lat="49.01082" lon="1.1287">
        <ele>134.399994</ele>
        <time>2017-12-17T08:17:40Z</time>
      </trkpt>
      <trkpt lat="49.01073" lon="1.12858">
        <ele>134.399994</ele>
        <time>2017-12-17T08:17:43Z</time>
      </trkpt>
      <trkpt lat="49.01066" lon="1.12846">
        <ele>134.600006</ele>
        <time>2017-12-17T08:17:46Z</time>
      </trkpt>
      <trkpt lat="49.01057" lon="1.12833">
        <ele>134.699997</ele>
        <time>2017-12-17T08:17:49Z</time>
      </trkpt>
      <trkpt lat="49.01049" lon="1.12821">
        <ele>134.899994</ele>
        <time>2017-12-17T08:17:52Z</time>
      </trkpt>
      <trkpt lat="49.01042" lon="1.12808">
        <ele>135.100006</ele>
        <time>2017-12-17T08:17:55Z</time>
      </trkpt>
      <trkpt lat="49.01034" lon="1.12796">
        <ele>135.199997</ele>
        <time>2017-12-17T08:17:58Z</time>
      </trkpt>
      <trkpt lat="49.01025" lon="1.12785">
        <ele>135.399994</ele>
        <time>2017-12-17T08:18:01Z</time>
      </trkpt>
      <trkpt lat="49.01017" lon="1.12772">
        <ele>135.600006</ele>
        <time>2017-12-17T08:18:04Z</time>
      </trkpt>
      <trkpt lat="49.0101" lon="1.1276">
        <ele>135.600006</ele>
        <time>2017-12-17T08:18:07Z</time>
      </trkpt>
      <trkpt lat="49.01002" lon="1.12747">
        <ele>135.899994</ele>
        <time>2017-12-17T08:18:10Z</time>
      </trkpt>
      <trkpt lat="49.00993" lon="1.12735">
        <ele>136.100006</ele>
        <time>2017-12-17T08:18:13Z</time>
      </trkpt>
      <trkpt lat="49.00984" lon="1.12722">
        <ele>136.300003</ele>
        <time>2017-12-17T08:18:16Z</time>
      </trkpt>
      <trkpt lat="49.00977" lon="1.1271">
        <ele>136.5</ele>
        <time>2017-12-17T08:18:19Z</time>
      </trkpt>
      <trkpt lat="49.00969" lon="1.12699">
        <ele>136.899994</ele>
        <time>2017-12-17T08:18:22Z</time>
      </trkpt>
      <trkpt lat="49.00962" lon="1.12688">
        <ele>136.899994</ele>
        <time>2017-12-17T08:18:25Z</time>
      </trkpt>
      <trkpt lat="49.00954" lon="1.12676">
        <ele>137.300003</ele>
        <time>2017-12-17T08:18:28Z</time>
      </trkpt>
      <trkpt lat="49.00945" lon="1.12663">
        <ele>137.699997</ele>
        <time>2017-12-17T08:18:31Z</time>
      </trkpt>
      <trkpt lat="49.00935" lon="1.12651">
        <ele>137.899994</ele>
        <time>2017-12-17T08:18:34Z</time>
      </trkpt>
      <trkpt lat="49.00928" lon="1.12639">
        <ele>138</ele>
        <time>2017-12-17T08:18:37Z</time>
      </trkpt>
      <trkpt lat="49.00919" lon="1.12626">
        <ele>138.100006</ele>
        <time>2017-12-17T08:18:40Z</time>
      </trkpt>
      <trkpt lat="49.0091" lon="1.12613">
        <ele>138.300003</ele>
        <time>2017-12-17T08:18:43Z</time>
      </trkpt>
      <trkpt lat="49.00901" lon="1.126">
        <ele>138.199997</ele>
        <time>2017-12-17T08:18:46Z</time>
      </trkpt>
      <trkpt lat="49.00893" lon="1.12587">
        <ele>138.399994</ele>
        <time>2017-12-17T08:18:49Z</time>
      </trkpt>
      <trkpt lat="49.00885" lon="1.12577">
        <ele>138.899994</ele>
        <time>2017-12-17T08:18:52Z</time>
      </trkpt>
      <trkpt lat="49.00876" lon="1.12567">
        <ele>139</ele>
        <time>2017-12-17T08:18:55Z</time>
      </trkpt>
      <trkpt lat="49.00868" lon="1.12554">
        <ele>139.300003</ele>
        <time>2017-12-17T08:18:58Z</time>
      </trkpt>
      <trkpt lat="49.0086" lon="1.1254">
        <ele>139.600006</ele>
        <time>2017-12-17T08:19:01Z</time>
      </trkpt>
      <trkpt lat="49.0085" lon="1.12527">
        <ele>139.5</ele>
        <time>2017-12-17T08:19:04Z</time>
      </trkpt>
      <trkpt lat="49.0084" lon="1.12516">
        <ele>139.5</ele>
        <time>2017-12-17T08:19:07Z</time>
      </trkpt>
      <trkpt lat="49.00831" lon="1.12507">
        <ele>139.399994</ele>
        <time>2017-12-17T08:19:09Z</time>
      </trkpt>
      <trkpt lat="49.00822" lon="1.125">
        <ele>139.199997</ele>
        <time>2017-12-17T08:19:11Z</time>
      </trkpt>
      <trkpt lat="49.00814" lon="1.12493">
        <ele>139.100006</ele>
        <time>2017-12-17T08:19:13Z</time>
      </trkpt>
      <trkpt lat="49.00806" lon="1.12484">
        <ele>139</ele>
        <time>2017-12-17T08:19:16Z</time>
      </trkpt>
      <trkpt lat="49.00796" lon="1.12476">
        <ele>139.300003</ele>
        <time>2017-12-17T08:19:19Z</time>
      </trkpt>
      <trkpt lat="49.00788" lon="1.12468">
        <ele>138.899994</ele>
        <time>2017-12-17T08:19:22Z</time>
      </trkpt>
      <trkpt lat="49.0078" lon="1.1246">
        <ele>138.699997</ele>
        <time>2017-12-17T08:19:25Z</time>
      </trkpt>
      <trkpt lat="49.0077" lon="1.1245">
        <ele>138.300003</ele>
        <time>2017-12-17T08:19:29Z</time>
      </trkpt>
      <trkpt lat="49.00761" lon="1.12442">
        <ele>138.199997</ele>
        <time>2017-12-17T08:19:33Z</time>
      </trkpt>
      <trkpt lat="49.0075" lon="1.12437">
        <ele>138.199997</ele>
        <time>2017-12-17T08:19:36Z</time>
      </trkpt>
      <trkpt lat="49.00738" lon="1.12433">
        <ele>138</ele>
        <time>2017-12-17T08:19:39Z</time>
      </trkpt>
      <trkpt lat="49.00725" lon="1.12428">
        <ele>137.699997</ele>
        <time>2017-12-17T08:19:42Z</time>
      </trkpt>
      <trkpt lat="49.00713" lon="1.12425">
        <ele>137.5</ele>
        <time>2017-12-17T08:19:45Z</time>
      </trkpt>
      <trkpt lat="49.00701" lon="1.12419">
        <ele>137.199997</ele>
        <time>2017-12-17T08:19:48Z</time>
      </trkpt>
      <trkpt lat="49.0069" lon="1.12415">
        <ele>137.100006</ele>
        <time>2017-12-17T08:19:51Z</time>
      </trkpt>
      <trkpt lat="49.00677" lon="1.1241">
        <ele>136.899994</ele>
        <time>2017-12-17T08:19:54Z</time>
      </trkpt>
      <trkpt lat="49.00667" lon="1.12406">
        <ele>136.800003</ele>
        <time>2017-12-17T08:19:56Z</time>
      </trkpt>
      <trkpt lat="49.00657" lon="1.12404">
        <ele>136.699997</ele>
        <time>2017-12-17T08:19:58Z</time>
      </trkpt>
      <trkpt lat="49.00647" lon="1.12402">
        <ele>136.5</ele>
        <time>2017-12-17T08:20:00Z</time>
      </trkpt>
      <trkpt lat="49.00638" lon="1.12399">
        <ele>136.399994</ele>
        <time>2017-12-17T08:20:02Z</time>
      </trkpt>
      <trkpt lat="49.00629" lon="1.12395">
        <ele>136</ele>
        <time>2017-12-17T08:20:04Z</time>
      </trkpt>
      <trkpt lat="49.00617" lon="1.12392">
        <ele>135.600006</ele>
        <time>2017-12-17T08:20:07Z</time>
      </trkpt>
      <trkpt lat="49.00608" lon="1.12388">
        <ele>135.5</ele>
        <time>2017-12-17T08:20:09Z</time>
      </trkpt>
      <trkpt lat="49.00595" lon="1.12379">
        <ele>135.300003</ele>
        <time>2017-12-17T08:20:12Z</time>
      </trkpt>
      <trkpt lat="49.00586" lon="1.12371">
        <ele>135</ele>
        <time>2017-12-17T08:20:14Z</time>
      </trkpt>
      <trkpt lat="49.00579" lon="1.12362">
        <ele>134.699997</ele>
        <time>2017-12-17T08:20:16Z</time>
      </trkpt>
      <trkpt lat="49.00568" lon="1.12352">
        <ele>134.399994</ele>
        <time>2017-12-17T08:20:19Z</time>
      </trkpt>
      <trkpt lat="49.0056" lon="1.12345">
        <ele>134.300003</ele>
        <time>2017-12-17T08:20:21Z</time>
      </trkpt>
      <trkpt lat="49.00552" lon="1.12337">
        <ele>133.800003</ele>
        <time>2017-12-17T08:20:23Z</time>
      </trkpt>
      <trkpt lat="49.00544" lon="1.12328">
        <ele>133.300003</ele>
        <time>2017-12-17T08:20:25Z</time>
      </trkpt>
      <trkpt lat="49.00535" lon="1.12319">
        <ele>132.899994</ele>
        <time>2017-12-17T08:20:27Z</time>
      </trkpt>
      <trkpt lat="49.00526" lon="1.12309">
        <ele>132.600006</ele>
        <time>2017-12-17T08:20:29Z</time>
      </trkpt>
      <trkpt lat="49.00519" lon="1.12301">
        <ele>132.399994</ele>
        <time>2017-12-17T08:20:31Z</time>
      </trkpt>
      <trkpt lat="49.00509" lon="1.12289">
        <ele>132.100006</ele>
        <time>2017-12-17T08:20:34Z</time>
      </trkpt>
      <trkpt lat="49.00499" lon="1.12281">
        <ele>131.699997</ele>
        <time>2017-12-17T08:20:36Z</time>
      </trkpt>
      <trkpt lat="49.00489" lon="1.12278">
        <ele>131.399994</ele>
        <time>2017-12-17T08:20:38Z</time>
      </trkpt>
      <trkpt lat="49.00478" lon="1.12275">
        <ele>131.100006</ele>
        <time>2017-12-17T08:20:40Z</time>
      </trkpt>
      <trkpt lat="49.00468" lon="1.12272">
        <ele>130.600006</ele>
        <time>2017-12-17T08:20:42Z</time>
      </trkpt>
      <trkpt lat="49.00458" lon="1.12269">
        <ele>130.300003</ele>
        <time>2017-12-17T08:20:44Z</time>
      </trkpt>
      <trkpt lat="49.00449" lon="1.12265">
        <ele>129.899994</ele>
        <time>2017-12-17T08:20:46Z</time>
      </trkpt>
      <trkpt lat="49.00439" lon="1.12264">
        <ele>129.5</ele>
        <time>2017-12-17T08:20:48Z</time>
      </trkpt>
      <trkpt lat="49.00428" lon="1.12263">
        <ele>129.100006</ele>
        <time>2017-12-17T08:20:50Z</time>
      </trkpt>
      <trkpt lat="49.00418" lon="1.12261">
        <ele>128.5</ele>
        <time>2017-12-17T08:20:52Z</time>
      </trkpt>
      <trkpt lat="49.00406" lon="1.12256">
        <ele>127.699997</ele>
        <time>2017-12-17T08:20:54Z</time>
      </trkpt>
      <trkpt lat="49.00396" lon="1.1225">
        <ele>126.900002</ele>
        <time>2017-12-17T08:20:56Z</time>
      </trkpt>
      <trkpt lat="49.00387" lon="1.12241">
        <ele>126</ele>
        <time>2017-12-17T08:20:58Z</time>
      </trkpt>
      <trkpt lat="49.00375" lon="1.12232">
        <ele>124.900002</ele>
        <time>2017-12-17T08:21:00Z</time>
      </trkpt>
      <trkpt lat="49.00363" lon="1.12224">
        <ele>123.800003</ele>
        <time>2017-12-17T08:21:02Z</time>
      </trkpt>
      <trkpt lat="49.00351" lon="1.12226">
        <ele>122.300003</ele>
        <time>2017-12-17T08:21:05Z</time>
      </trkpt>
      <trkpt lat="49.00341" lon="1.12234">
        <ele>121.5</ele>
        <time>2017-12-17T08:21:08Z</time>
      </trkpt>
      <trkpt lat="49.00331" lon="1.12242">
        <ele>121.800003</ele>
        <time>2017-12-17T08:21:11Z</time>
      </trkpt>
      <trkpt lat="49.00321" lon="1.12249">
        <ele>123</ele>
        <time>2017-12-17T08:21:15Z</time>
      </trkpt>
      <trkpt lat="49.00311" lon="1.12253">
        <ele>123.599998</ele>
        <time>2017-12-17T08:21:18Z</time>
      </trkpt>
      <trkpt lat="49.00298" lon="1.12254">
        <ele>124.400002</ele>
        <time>2017-12-17T08:21:21Z</time>
      </trkpt>
      <trkpt lat="49.00288" lon="1.12253">
        <ele>124.599998</ele>
        <time>2017-12-17T08:21:24Z</time>
      </trkpt>
      <trkpt lat="49.00276" lon="1.1225">
        <ele>124.800003</ele>
        <time>2017-12-17T08:21:27Z</time>
      </trkpt>
      <trkpt lat="49.00265" lon="1.12246">
        <ele>125.099998</ele>
        <time>2017-12-17T08:21:30Z</time>
      </trkpt>
      <trkpt lat="49.00254" lon="1.12238">
        <ele>125.400002</ele>
        <time>2017-12-17T08:21:33Z</time>
      </trkpt>
      <trkpt lat="49.00245" lon="1.12226">
        <ele>125.199997</ele>
        <time>2017-12-17T08:21:36Z</time>
      </trkpt>
      <trkpt lat="49.00233" lon="1.12217">
        <ele>125</ele>
        <time>2017-12-17T08:21:39Z</time>
      </trkpt>
      <trkpt lat="49.00222" lon="1.12206">
        <ele>124.099998</ele>
        <time>2017-12-17T08:21:42Z</time>
      </trkpt>
      <trkpt lat="49.00215" lon="1.12196">
        <ele>123.599998</ele>
        <time>2017-12-17T08:21:44Z</time>
      </trkpt>
      <trkpt lat="49.00207" lon="1.12188">
        <ele>123</ele>
        <time>2017-12-17T08:21:46Z</time>
      </trkpt>
      <trkpt lat="49.00195" lon="1.12177">
        <ele>122.099998</ele>
        <time>2017-12-17T08:21:48Z</time>
      </trkpt>
      <trkpt lat="49.00183" lon="1.12167">
        <ele>121.199997</ele>
        <time>2017-12-17T08:21:50Z</time>
      </trkpt>
      <trkpt lat="49.00172" lon="1.12157">
        <ele>120.5</ele>
        <time>2017-12-17T08:21:52Z</time>
      </trkpt>
      <trkpt lat="49.00163" lon="1.12149">
        <ele>120.199997</ele>
        <time>2017-12-17T08:21:54Z</time>
      </trkpt>
      <trkpt lat="49.00154" lon="1.12141">
        <ele>119.800003</ele>
        <time>2017-12-17T08:21:56Z</time>
      </trkpt>
      <trkpt lat="49.00146" lon="1.12134">
        <ele>119.5</ele>
        <time>2017-12-17T08:21:58Z</time>
      </trkpt>
      <trkpt lat="49.00137" lon="1.12125">
        <ele>119.199997</ele>
        <time>2017-12-17T08:22:01Z</time>
      </trkpt>
      <trkpt lat="49.00133" lon="1.12111">
        <ele>118.300003</ele>
        <time>2017-12-17T08:22:06Z</time>
      </trkpt>
      <trkpt lat="49.00135" lon="1.12094">
        <ele>117.199997</ele>
        <time>2017-12-17T08:22:11Z</time>
      </trkpt>
      <trkpt lat="49.00136" lon="1.1208">
        <ele>116.300003</ele>
        <time>2017-12-17T08:22:16Z</time>
      </trkpt>
      <trkpt lat="49.00134" lon="1.12066">
        <ele>115.5</ele>
        <time>2017-12-17T08:22:19Z</time>
      </trkpt>
      <trkpt lat="49.00124" lon="1.12053">
        <ele>114.199997</ele>
        <time>2017-12-17T08:22:22Z</time>
      </trkpt>
      <trkpt lat="49.00117" lon="1.12044">
        <ele>113.5</ele>
        <time>2017-12-17T08:22:24Z</time>
      </trkpt>
      <trkpt lat="49.00112" lon="1.12026">
        <ele>111.900002</ele>
        <time>2017-12-17T08:22:27Z</time>
      </trkpt>
      <trkpt lat="49.00112" lon="1.12008">
        <ele>110</ele>
        <time>2017-12-17T08:22:30Z</time>
      </trkpt>
      <trkpt lat="49.00111" lon="1.11993">
        <ele>107.900002</ele>
        <time>2017-12-17T08:22:33Z</time>
      </trkpt>
      <trkpt lat="49.00103" lon="1.11985">
        <ele>105.800003</ele>
        <time>2017-12-17T08:22:39Z</time>
      </trkpt>
      <trkpt lat="49.00095" lon="1.11975">
        <ele>105.400002</ele>
        <time>2017-12-17T08:22:45Z</time>
      </trkpt>
      <trkpt lat="49.00086" lon="1.11968">
        <ele>105.400002</ele>
        <time>2017-12-17T08:22:50Z</time>
      </trkpt>
      <trkpt lat="49.00076" lon="1.11962">
        <ele>105.900002</ele>
        <time>2017-12-17T08:22:55Z</time>
      </trkpt>
      <trkpt lat="49.00066" lon="1.11958">
        <ele>106.199997</ele>
        <time>2017-12-17T08:22:59Z</time>
      </trkpt>
      <trkpt lat="49.00056" lon="1.11951">
        <ele>106.300003</ele>
        <time>2017-12-17T08:23:03Z</time>
      </trkpt>
      <trkpt lat="49.00046" lon="1.11945">
        <ele>106.400002</ele>
        <time>2017-12-17T08:23:08Z</time>
      </trkpt>
      <trkpt lat="49.00036" lon="1.1194">
        <ele>106.900002</ele>
        <time>2017-12-17T08:23:12Z</time>
      </trkpt>
      <trkpt lat="49.00026" lon="1.11932">
        <ele>107.5</ele>
        <time>2017-12-17T08:23:16Z</time>
      </trkpt>
      <trkpt lat="49.00015" lon="1.11926">
        <ele>107.900002</ele>
        <time>2017-12-17T08:23:20Z</time>
      </trkpt>
      <trkpt lat="49.00004" lon="1.1192">
        <ele>108.400002</ele>
        <time>2017-12-17T08:23:24Z</time>
      </trkpt>
      <trkpt lat="48.99995" lon="1.11915">
        <ele>108.800003</ele>
        <time>2017-12-17T08:23:28Z</time>
      </trkpt>
      <trkpt lat="48.99984" lon="1.1191">
        <ele>109.199997</ele>
        <time>2017-12-17T08:23:32Z</time>
      </trkpt>
      <trkpt lat="48.99974" lon="1.11907">
        <ele>109.699997</ele>
        <time>2017-12-17T08:23:36Z</time>
      </trkpt>
      <trkpt lat="48.99962" lon="1.11901">
        <ele>110.199997</ele>
        <time>2017-12-17T08:23:40Z</time>
      </trkpt>
      <trkpt lat="48.99953" lon="1.11895">
        <ele>110.599998</ele>
        <time>2017-12-17T08:23:43Z</time>
      </trkpt>
      <trkpt lat="48.99944" lon="1.11889">
        <ele>110.900002</ele>
        <time>2017-12-17T08:23:46Z</time>
      </trkpt>
      <trkpt lat="48.99934" lon="1.11884">
        <ele>111.199997</ele>
        <time>2017-12-17T08:23:49Z</time>
      </trkpt>
      <trkpt lat="48.99925" lon="1.11877">
        <ele>111.400002</ele>
        <time>2017-12-17T08:23:52Z</time>
      </trkpt>
      <trkpt lat="48.99915" lon="1.1187">
        <ele>111.699997</ele>
        <time>2017-12-17T08:23:56Z</time>
      </trkpt>
      <trkpt lat="48.99905" lon="1.11864">
        <ele>112.099998</ele>
        <time>2017-12-17T08:23:58Z</time>
      </trkpt>
      <trkpt lat="48.99895" lon="1.1186">
        <ele>112.300003</ele>
        <time>2017-12-17T08:24:01Z</time>
      </trkpt>
      <trkpt lat="48.99883" lon="1.11857">
        <ele>112.699997</ele>
        <time>2017-12-17T08:24:04Z</time>
      </trkpt>
      <trkpt lat="48.99872" lon="1.11856">
        <ele>112.800003</ele>
        <time>2017-12-17T08:24:07Z</time>
      </trkpt>
      <trkpt lat="48.99861" lon="1.11856">
        <ele>113.199997</ele>
        <time>2017-12-17T08:24:10Z</time>
      </trkpt>
      <trkpt lat="48.9985" lon="1.11856">
        <ele>113.599998</ele>
        <time>2017-12-17T08:24:13Z</time>
      </trkpt>
      <trkpt lat="48.9984" lon="1.11856">
        <ele>113.800003</ele>
        <time>2017-12-17T08:24:16Z</time>
      </trkpt>
      <trkpt lat="48.9983" lon="1.11856">
        <ele>114.199997</ele>
        <time>2017-12-17T08:24:19Z</time>
      </trkpt>
      <trkpt lat="48.9982" lon="1.11855">
        <ele>114.599998</ele>
        <time>2017-12-17T08:24:22Z</time>
      </trkpt>
      <trkpt lat="48.99809" lon="1.11856">
        <ele>114.900002</ele>
        <time>2017-12-17T08:24:25Z</time>
      </trkpt>
      <trkpt lat="48.99797" lon="1.11855">
        <ele>115.199997</ele>
        <time>2017-12-17T08:24:29Z</time>
      </trkpt>
      <trkpt lat="48.99788" lon="1.11851">
        <ele>115.400002</ele>
        <time>2017-12-17T08:24:32Z</time>
      </trkpt>
      <trkpt lat="48.99779" lon="1.11845">
        <ele>116.099998</ele>
        <time>2017-12-17T08:24:35Z</time>
      </trkpt>
      <trkpt lat="48.99774" lon="1.11831">
        <ele>117.5</ele>
        <time>2017-12-17T08:24:39Z</time>
      </trkpt>
      <trkpt lat="48.9977" lon="1.11816">
        <ele>118.599998</ele>
        <time>2017-12-17T08:24:43Z</time>
      </trkpt>
      <trkpt lat="48.99766" lon="1.118">
        <ele>119.699997</ele>
        <time>2017-12-17T08:24:47Z</time>
      </trkpt>
      <trkpt lat="48.99763" lon="1.11782">
        <ele>121.099998</ele>
        <time>2017-12-17T08:24:51Z</time>
      </trkpt>
      <trkpt lat="48.99759" lon="1.11766">
        <ele>122.199997</ele>
        <time>2017-12-17T08:24:55Z</time>
      </trkpt>
      <trkpt lat="48.99757" lon="1.11749">
        <ele>123.199997</ele>
        <time>2017-12-17T08:24:59Z</time>
      </trkpt>
      <trkpt lat="48.99754" lon="1.11732">
        <ele>124.099998</ele>
        <time>2017-12-17T08:25:03Z</time>
      </trkpt>
      <trkpt lat="48.9975" lon="1.11716">
        <ele>124.800003</ele>
        <time>2017-12-17T08:25:07Z</time>
      </trkpt>
      <trkpt lat="48.99748" lon="1.11698">
        <ele>125.599998</ele>
        <time>2017-12-17T08:25:11Z</time>
      </trkpt>
      <trkpt lat="48.99746" lon="1.11682">
        <ele>126.400002</ele>
        <time>2017-12-17T08:25:15Z</time>
      </trkpt>
      <trkpt lat="48.99749" lon="1.11666">
        <ele>127</ele>
        <time>2017-12-17T08:25:19Z</time>
      </trkpt>
      <trkpt lat="48.99753" lon="1.11651">
        <ele>127.699997</ele>
        <time>2017-12-17T08:25:23Z</time>
      </trkpt>
      <trkpt lat="48.99756" lon="1.11637">
        <ele>128.300003</ele>
        <time>2017-12-17T08:25:27Z</time>
      </trkpt>
      <trkpt lat="48.99763" lon="1.11626">
        <ele>129.199997</ele>
        <time>2017-12-17T08:25:33Z</time>
      </trkpt>
      <trkpt lat="48.99773" lon="1.11622">
        <ele>129.600006</ele>
        <time>2017-12-17T08:25:38Z</time>
      </trkpt>
      <trkpt lat="48.99782" lon="1.11616">
        <ele>130</ele>
        <time>2017-12-17T08:25:45Z</time>
      </trkpt>
      <trkpt lat="48.99787" lon="1.11605">
        <ele>130.399994</ele>
        <time>2017-12-17T08:26:23Z</time>
      </trkpt>
      <trkpt lat="48.99786" lon="1.1159">
        <ele>130.399994</ele>
        <time>2017-12-17T08:27:05Z</time>
      </trkpt>
      <trkpt lat="48.99786" lon="1.11572">
        <ele>130.600006</ele>
        <time>2017-12-17T08:27:09Z</time>
      </trkpt>
      <trkpt lat="48.99786" lon="1.11556">
        <ele>130.800003</ele>
        <time>2017-12-17T08:27:12Z</time>
      </trkpt>
      <trkpt lat="48.99788" lon="1.11538">
        <ele>131.100006</ele>
        <time>2017-12-17T08:27:15Z</time>
      </trkpt>
      <trkpt lat="48.99788" lon="1.11519">
        <ele>131</ele>
        <time>2017-12-17T08:27:18Z</time>
      </trkpt>
      <trkpt lat="48.99785" lon="1.11499">
        <ele>131</ele>
        <time>2017-12-17T08:27:21Z</time>
      </trkpt>
      <trkpt lat="48.99783" lon="1.11481">
        <ele>131</ele>
        <time>2017-12-17T08:27:24Z</time>
      </trkpt>
      <trkpt lat="48.99785" lon="1.11463">
        <ele>130.5</ele>
        <time>2017-12-17T08:27:27Z</time>
      </trkpt>
      <trkpt lat="48.99791" lon="1.11447">
        <ele>130.600006</ele>
        <time>2017-12-17T08:27:30Z</time>
      </trkpt>
      <trkpt lat="48.99797" lon="1.1143">
        <ele>130.699997</ele>
        <time>2017-12-17T08:27:33Z</time>
      </trkpt>
      <trkpt lat="48.99802" lon="1.11411">
        <ele>130.699997</ele>
        <time>2017-12-17T08:27:36Z</time>
      </trkpt>
      <trkpt lat="48.99806" lon="1.11399">
        <ele>130.600006</ele>
        <time>2017-12-17T08:27:38Z</time>
      </trkpt>
      <trkpt lat="48.99812" lon="1.11381">
        <ele>130.300003</ele>
        <time>2017-12-17T08:27:41Z</time>
      </trkpt>
      <trkpt lat="48.99821" lon="1.11369">
        <ele>130.100006</ele>
        <time>2017-12-17T08:27:44Z</time>
      </trkpt>
      <trkpt lat="48.99831" lon="1.11362">
        <ele>129.899994</ele>
        <time>2017-12-17T08:27:47Z</time>
      </trkpt>
      <trkpt lat="48.99842" lon="1.11358">
        <ele>129.600006</ele>
        <time>2017-12-17T08:27:50Z</time>
      </trkpt>
      <trkpt lat="48.99852" lon="1.11351">
        <ele>129.600006</ele>
        <time>2017-12-17T08:27:53Z</time>
      </trkpt>
      <trkpt lat="48.9986" lon="1.1134">
        <ele>129.100006</ele>
        <time>2017-12-17T08:27:55Z</time>
      </trkpt>
      <trkpt lat="48.99867" lon="1.11327">
        <ele>129.100006</ele>
        <time>2017-12-17T08:27:57Z</time>
      </trkpt>
      <trkpt lat="48.99873" lon="1.11315">
        <ele>128.899994</ele>
        <time>2017-12-17T08:27:59Z</time>
      </trkpt>
      <trkpt lat="48.99881" lon="1.113">
        <ele>128.399994</ele>
        <time>2017-12-17T08:28:02Z</time>
      </trkpt>
      <trkpt lat="48.99892" lon="1.11289">
        <ele>127.800003</ele>
        <time>2017-12-17T08:28:05Z</time>
      </trkpt>
      <trkpt lat="48.99901" lon="1.11282">
        <ele>127.099998</ele>
        <time>2017-12-17T08:28:07Z</time>
      </trkpt>
      <trkpt lat="48.99912" lon="1.11273">
        <ele>125.699997</ele>
        <time>2017-12-17T08:28:10Z</time>
      </trkpt>
      <trkpt lat="48.9992" lon="1.11265">
        <ele>124.800003</ele>
        <time>2017-12-17T08:28:12Z</time>
      </trkpt>
      <trkpt lat="48.99931" lon="1.11252">
        <ele>123.400002</ele>
        <time>2017-12-17T08:28:15Z</time>
      </trkpt>
      <trkpt lat="48.99938" lon="1.1124">
        <ele>122.599998</ele>
        <time>2017-12-17T08:28:17Z</time>
      </trkpt>
      <trkpt lat="48.99945" lon="1.1123">
        <ele>121.699997</ele>
        <time>2017-12-17T08:28:19Z</time>
      </trkpt>
      <trkpt lat="48.99952" lon="1.11216">
        <ele>120.199997</ele>
        <time>2017-12-17T08:28:22Z</time>
      </trkpt>
      <trkpt lat="48.9996" lon="1.11201">
        <ele>118.699997</ele>
        <time>2017-12-17T08:28:25Z</time>
      </trkpt>
      <trkpt lat="48.99964" lon="1.11188">
        <ele>117.599998</ele>
        <time>2017-12-17T08:28:27Z</time>
      </trkpt>
      <trkpt lat="48.9997" lon="1.11176">
        <ele>116.400002</ele>
        <time>2017-12-17T08:28:29Z</time>
      </trkpt>
      <trkpt lat="48.99977" lon="1.11164">
        <ele>114.400002</ele>
        <time>2017-12-17T08:28:32Z</time>
      </trkpt>
      <trkpt lat="48.99973" lon="1.1115">
        <ele>112</ele>
        <time>2017-12-17T08:28:37Z</time>
      </trkpt>
      <trkpt lat="48.99965" lon="1.11137">
        <ele>110.800003</ele>
        <time>2017-12-17T08:28:41Z</time>
      </trkpt>
      <trkpt lat="48.99956" lon="1.11128">
        <ele>110.5</ele>
        <time>2017-12-17T08:28:44Z</time>
      </trkpt>
      <trkpt lat="48.99948" lon="1.11119">
        <ele>110.099998</ele>
        <time>2017-12-17T08:28:47Z</time>
      </trkpt>
      <trkpt lat="48.9994" lon="1.11111">
        <ele>109.800003</ele>
        <time>2017-12-17T08:28:50Z</time>
      </trkpt>
      <trkpt lat="48.9993" lon="1.11107">
        <ele>109.800003</ele>
        <time>2017-12-17T08:28:54Z</time>
      </trkpt>
      <trkpt lat="48.99923" lon="1.11116">
        <ele>110.599998</ele>
        <time>2017-12-17T08:29:00Z</time>
      </trkpt>
      <trkpt lat="48.99911" lon="1.11113">
        <ele>111.5</ele>
        <time>2017-12-17T08:29:05Z</time>
      </trkpt>
      <trkpt lat="48.99903" lon="1.11106">
        <ele>113</ele>
        <time>2017-12-17T08:29:13Z</time>
      </trkpt>
      <trkpt lat="48.99893" lon="1.11106">
        <ele>113.900002</ele>
        <time>2017-12-17T08:29:22Z</time>
      </trkpt>
      <trkpt lat="48.99883" lon="1.11109">
        <ele>114.199997</ele>
        <time>2017-12-17T08:29:27Z</time>
      </trkpt>
      <trkpt lat="48.99874" lon="1.11109">
        <ele>115.699997</ele>
        <time>2017-12-17T08:29:34Z</time>
      </trkpt>
      <trkpt lat="48.99865" lon="1.11118">
        <ele>116.699997</ele>
        <time>2017-12-17T08:29:41Z</time>
      </trkpt>
      <trkpt lat="48.99857" lon="1.11126">
        <ele>117.599998</ele>
        <time>2017-12-17T08:29:46Z</time>
      </trkpt>
      <trkpt lat="48.99848" lon="1.11133">
        <ele>118.800003</ele>
        <time>2017-12-17T08:29:52Z</time>
      </trkpt>
      <trkpt lat="48.99841" lon="1.11141">
        <ele>120.300003</ele>
        <time>2017-12-17T08:29:57Z</time>
      </trkpt>
      <trkpt lat="48.99833" lon="1.1115">
        <ele>121.300003</ele>
        <time>2017-12-17T08:30:02Z</time>
      </trkpt>
      <trkpt lat="48.99825" lon="1.11159">
        <ele>122.599998</ele>
        <time>2017-12-17T08:30:07Z</time>
      </trkpt>
      <trkpt lat="48.99817" lon="1.11168">
        <ele>123.599998</ele>
        <time>2017-12-17T08:30:12Z</time>
      </trkpt>
      <trkpt lat="48.99808" lon="1.11178">
        <ele>124.599998</ele>
        <time>2017-12-17T08:30:16Z</time>
      </trkpt>
      <trkpt lat="48.998" lon="1.1119">
        <ele>125.400002</ele>
        <time>2017-12-17T08:30:20Z</time>
      </trkpt>
      <trkpt lat="48.99791" lon="1.112">
        <ele>126</ele>
        <time>2017-12-17T08:30:24Z</time>
      </trkpt>
      <trkpt lat="48.99783" lon="1.11212">
        <ele>126.5</ele>
        <time>2017-12-17T08:30:28Z</time>
      </trkpt>
      <trkpt lat="48.99775" lon="1.11224">
        <ele>126.800003</ele>
        <time>2017-12-17T08:30:32Z</time>
      </trkpt>
      <trkpt lat="48.99768" lon="1.11232">
        <ele>127</ele>
        <time>2017-12-17T08:30:35Z</time>
      </trkpt>
      <trkpt lat="48.99757" lon="1.11228">
        <ele>127</ele>
        <time>2017-12-17T08:30:39Z</time>
      </trkpt>
      <trkpt lat="48.99747" lon="1.1123">
        <ele>125.300003</ele>
        <time>2017-12-17T08:30:43Z</time>
      </trkpt>
      <trkpt lat="48.99736" lon="1.11236">
        <ele>123.099998</ele>
        <time>2017-12-17T08:30:48Z</time>
      </trkpt>
      <trkpt lat="48.99726" lon="1.11244">
        <ele>121.099998</ele>
        <time>2017-12-17T08:30:52Z</time>
      </trkpt>
      <trkpt lat="48.99715" lon="1.11241">
        <ele>118.199997</ele>
        <time>2017-12-17T08:30:57Z</time>
      </trkpt>
      <trkpt lat="48.99708" lon="1.11234">
        <ele>115.400002</ele>
        <time>2017-12-17T08:31:02Z</time>
      </trkpt>
      <trkpt lat="48.99698" lon="1.11234">
        <ele>112.900002</ele>
        <time>2017-12-17T08:31:06Z</time>
      </trkpt>
      <trkpt lat="48.99688" lon="1.11234">
        <ele>109.5</ele>
        <time>2017-12-17T08:31:11Z</time>
      </trkpt>
      <trkpt lat="48.99679" lon="1.11233">
        <ele>106</ele>
        <time>2017-12-17T08:31:15Z</time>
      </trkpt>
      <trkpt lat="48.9967" lon="1.11227">
        <ele>100.800003</ele>
        <time>2017-12-17T08:31:25Z</time>
      </trkpt>
      <trkpt lat="48.99667" lon="1.11214">
        <ele>94.800003</ele>
        <time>2017-12-17T08:31:47Z</time>
      </trkpt>
      <trkpt lat="48.99661" lon="1.11202">
        <ele>90.400002</ele>
        <time>2017-12-17T08:32:03Z</time>
      </trkpt>
      <trkpt lat="48.99653" lon="1.11196">
        <ele>87.300003</ele>
        <time>2017-12-17T08:32:16Z</time>
      </trkpt>
      <trkpt lat="48.99646" lon="1.11187">
        <ele>84.300003</ele>
        <time>2017-12-17T08:32:23Z</time>
      </trkpt>
      <trkpt lat="48.99636" lon="1.11193">
        <ele>82.5</ele>
        <time>2017-12-17T08:34:37Z</time>
      </trkpt>
      <trkpt lat="48.99624" lon="1.112">
        <ele>82.5</ele>
        <time>2017-12-17T08:34:43Z</time>
      </trkpt>
      <trkpt lat="48.99614" lon="1.11206">
        <ele>82.800003</ele>
        <time>2017-12-17T08:34:47Z</time>
      </trkpt>
      <trkpt lat="48.99603" lon="1.11211">
        <ele>83</ele>
        <time>2017-12-17T08:34:51Z</time>
      </trkpt>
      <trkpt lat="48.99594" lon="1.11216">
        <ele>83.099998</ele>
        <time>2017-12-17T08:34:54Z</time>
      </trkpt>
      <trkpt lat="48.99578" lon="1.11228">
        <ele>83</ele>
        <time>2017-12-17T08:34:59Z</time>
      </trkpt>
      <trkpt lat="48.99569" lon="1.11236">
        <ele>83.099998</ele>
        <time>2017-12-17T08:35:02Z</time>
      </trkpt>
      <trkpt lat="48.9956" lon="1.11245">
        <ele>83.099998</ele>
        <time>2017-12-17T08:35:05Z</time>
      </trkpt>
      <trkpt lat="48.99551" lon="1.11255">
        <ele>83.300003</ele>
        <time>2017-12-17T08:35:08Z</time>
      </trkpt>
      <trkpt lat="48.99532" lon="1.11274">
        <ele>83</ele>
        <time>2017-12-17T08:35:14Z</time>
      </trkpt>
      <trkpt lat="48.99519" lon="1.11286">
        <ele>83</ele>
        <time>2017-12-17T08:35:18Z</time>
      </trkpt>
      <trkpt lat="48.99509" lon="1.11295">
        <ele>83.800003</ele>
        <time>2017-12-17T08:35:21Z</time>
      </trkpt>
      <trkpt lat="48.99499" lon="1.11305">
        <ele>83</ele>
        <time>2017-12-17T08:35:24Z</time>
      </trkpt>
      <trkpt lat="48.99489" lon="1.11314">
        <ele>83.900002</ele>
        <time>2017-12-17T08:35:27Z</time>
      </trkpt>
      <trkpt lat="48.9947" lon="1.11324">
        <ele>83.800003</ele>
        <time>2017-12-17T08:35:32Z</time>
      </trkpt>
      <trkpt lat="48.99459" lon="1.1133">
        <ele>84.099998</ele>
        <time>2017-12-17T08:35:35Z</time>
      </trkpt>
      <trkpt lat="48.99449" lon="1.11336">
        <ele>84.199997</ele>
        <time>2017-12-17T08:35:38Z</time>
      </trkpt>
      <trkpt lat="48.99438" lon="1.11343">
        <ele>84.099998</ele>
        <time>2017-12-17T08:35:41Z</time>
      </trkpt>
      <trkpt lat="48.99428" lon="1.11348">
        <ele>84.5</ele>
        <time>2017-12-17T08:35:44Z</time>
      </trkpt>
      <trkpt lat="48.99418" lon="1.11353">
        <ele>84.900002</ele>
        <time>2017-12-17T08:35:47Z</time>
      </trkpt>
      <trkpt lat="48.99409" lon="1.11357">
        <ele>85.300003</ele>
        <time>2017-12-17T08:35:50Z</time>
      </trkpt>
      <trkpt lat="48.99399" lon="1.11361">
        <ele>85.800003</ele>
        <time>2017-12-17T08:35:53Z</time>
      </trkpt>
      <trkpt lat="48.9939" lon="1.11366">
        <ele>86.199997</ele>
        <time>2017-12-17T08:35:56Z</time>
      </trkpt>
      <trkpt lat="48.99381" lon="1.11372">
        <ele>86.599998</ele>
        <time>2017-12-17T08:35:59Z</time>
      </trkpt>
      <trkpt lat="48.99373" lon="1.11378">
        <ele>87.099998</ele>
        <time>2017-12-17T08:36:02Z</time>
      </trkpt>
      <trkpt lat="48.99365" lon="1.1139">
        <ele>87.699997</ele>
        <time>2017-12-17T08:36:06Z</time>
      </trkpt>
      <trkpt lat="48.9936" lon="1.11402">
        <ele>88.300003</ele>
        <time>2017-12-17T08:36:09Z</time>
      </trkpt>
      <trkpt lat="48.99358" lon="1.11416">
        <ele>88.400002</ele>
        <time>2017-12-17T08:36:12Z</time>
      </trkpt>
      <trkpt lat="48.99362" lon="1.1143">
        <ele>88.300003</ele>
        <time>2017-12-17T08:36:15Z</time>
      </trkpt>
      <trkpt lat="48.99368" lon="1.11444">
        <ele>88.300003</ele>
        <time>2017-12-17T08:36:18Z</time>
      </trkpt>
      <trkpt lat="48.99375" lon="1.11459">
        <ele>88.099998</ele>
        <time>2017-12-17T08:36:21Z</time>
      </trkpt>
      <trkpt lat="48.99381" lon="1.11474">
        <ele>87.900002</ele>
        <time>2017-12-17T08:36:24Z</time>
      </trkpt>
      <trkpt lat="48.99387" lon="1.11491">
        <ele>88</ele>
        <time>2017-12-17T08:36:27Z</time>
      </trkpt>
      <trkpt lat="48.99392" lon="1.11507">
        <ele>88.199997</ele>
        <time>2017-12-17T08:36:30Z</time>
      </trkpt>
      <trkpt lat="48.99396" lon="1.11525">
        <ele>87.900002</ele>
        <time>2017-12-17T08:36:33Z</time>
      </trkpt>
      <trkpt lat="48.99399" lon="1.11542">
        <ele>87.599998</ele>
        <time>2017-12-17T08:36:36Z</time>
      </trkpt>
      <trkpt lat="48.99401" lon="1.11559">
        <ele>87.300003</ele>
        <time>2017-12-17T08:36:39Z</time>
      </trkpt>
      <trkpt lat="48.994" lon="1.11577">
        <ele>87.400002</ele>
        <time>2017-12-17T08:36:42Z</time>
      </trkpt>
      <trkpt lat="48.99398" lon="1.11595">
        <ele>87.5</ele>
        <time>2017-12-17T08:36:45Z</time>
      </trkpt>
      <trkpt lat="48.99393" lon="1.11612">
        <ele>87.599998</ele>
        <time>2017-12-17T08:36:48Z</time>
      </trkpt>
      <trkpt lat="48.99388" lon="1.11628">
        <ele>87.599998</ele>
        <time>2017-12-17T08:36:51Z</time>
      </trkpt>
      <trkpt lat="48.99382" lon="1.11644">
        <ele>87.699997</ele>
        <time>2017-12-17T08:36:54Z</time>
      </trkpt>
      <trkpt lat="48.99376" lon="1.11659">
        <ele>87</ele>
        <time>2017-12-17T08:36:57Z</time>
      </trkpt>
      <trkpt lat="48.99366" lon="1.11678">
        <ele>87</ele>
        <time>2017-12-17T08:37:01Z</time>
      </trkpt>
      <trkpt lat="48.99357" lon="1.11698">
        <ele>87</ele>
        <time>2017-12-17T08:37:05Z</time>
      </trkpt>
      <trkpt lat="48.99348" lon="1.11715">
        <ele>88</ele>
        <time>2017-12-17T08:37:09Z</time>
      </trkpt>
      <trkpt lat="48.99339" lon="1.11732">
        <ele>88</ele>
        <time>2017-12-17T08:37:13Z</time>
      </trkpt>
      <trkpt lat="48.99332" lon="1.11745">
        <ele>88.599998</ele>
        <time>2017-12-17T08:37:16Z</time>
      </trkpt>
      <trkpt lat="48.99323" lon="1.11758">
        <ele>88.800003</ele>
        <time>2017-12-17T08:37:19Z</time>
      </trkpt>
      <trkpt lat="48.99315" lon="1.1177">
        <ele>88.800003</ele>
        <time>2017-12-17T08:37:22Z</time>
      </trkpt>
      <trkpt lat="48.99303" lon="1.11781">
        <ele>88.900002</ele>
        <time>2017-12-17T08:37:25Z</time>
      </trkpt>
      <trkpt lat="48.99294" lon="1.11792">
        <ele>88.699997</ele>
        <time>2017-12-17T08:37:28Z</time>
      </trkpt>
      <trkpt lat="48.99285" lon="1.11804">
        <ele>89</ele>
        <time>2017-12-17T08:37:31Z</time>
      </trkpt>
      <trkpt lat="48.99279" lon="1.11819">
        <ele>89.099998</ele>
        <time>2017-12-17T08:37:34Z</time>
      </trkpt>
      <trkpt lat="48.99275" lon="1.11835">
        <ele>89.300003</ele>
        <time>2017-12-17T08:37:37Z</time>
      </trkpt>
      <trkpt lat="48.9927" lon="1.11851">
        <ele>89.400002</ele>
        <time>2017-12-17T08:37:40Z</time>
      </trkpt>
      <trkpt lat="48.99257" lon="1.11862">
        <ele>89.099998</ele>
        <time>2017-12-17T08:37:43Z</time>
      </trkpt>
      <trkpt lat="48.99246" lon="1.11872">
        <ele>89</ele>
        <time>2017-12-17T08:37:46Z</time>
      </trkpt>
      <trkpt lat="48.99234" lon="1.11881">
        <ele>88.699997</ele>
        <time>2017-12-17T08:37:49Z</time>
      </trkpt>
      <trkpt lat="48.99222" lon="1.11887">
        <ele>89</ele>
        <time>2017-12-17T08:37:52Z</time>
      </trkpt>
      <trkpt lat="48.99209" lon="1.11893">
        <ele>88.800003</ele>
        <time>2017-12-17T08:37:55Z</time>
      </trkpt>
      <trkpt lat="48.99197" lon="1.11896">
        <ele>88.599998</ele>
        <time>2017-12-17T08:37:58Z</time>
      </trkpt>
      <trkpt lat="48.99186" lon="1.11899">
        <ele>88.800003</ele>
        <time>2017-12-17T08:38:01Z</time>
      </trkpt>
      <trkpt lat="48.99175" lon="1.11899">
        <ele>89</ele>
        <time>2017-12-17T08:38:04Z</time>
      </trkpt>
      <trkpt lat="48.99164" lon="1.11897">
        <ele>89.199997</ele>
        <time>2017-12-17T08:38:07Z</time>
      </trkpt>
      <trkpt lat="48.99154" lon="1.11892">
        <ele>89.900002</ele>
        <time>2017-12-17T08:38:10Z</time>
      </trkpt>
      <trkpt lat="48.99144" lon="1.11886">
        <ele>90</ele>
        <time>2017-12-17T08:38:13Z</time>
      </trkpt>
      <trkpt lat="48.99135" lon="1.11877">
        <ele>90</ele>
        <time>2017-12-17T08:38:16Z</time>
      </trkpt>
      <trkpt lat="48.99128" lon="1.11867">
        <ele>90.099998</ele>
        <time>2017-12-17T08:38:19Z</time>
      </trkpt>
      <trkpt lat="48.99119" lon="1.11856">
        <ele>90.199997</ele>
        <time>2017-12-17T08:38:22Z</time>
      </trkpt>
      <trkpt lat="48.99112" lon="1.11846">
        <ele>90.300003</ele>
        <time>2017-12-17T08:38:25Z</time>
      </trkpt>
      <trkpt lat="48.99103" lon="1.11835">
        <ele>90.800003</ele>
        <time>2017-12-17T08:38:28Z</time>
      </trkpt>
      <trkpt lat="48.99094" lon="1.11823">
        <ele>90.900002</ele>
        <time>2017-12-17T08:38:31Z</time>
      </trkpt>
      <trkpt lat="48.99085" lon="1.11813">
        <ele>90.900002</ele>
        <time>2017-12-17T08:38:34Z</time>
      </trkpt>
      <trkpt lat="48.99077" lon="1.11804">
        <ele>91.5</ele>
        <time>2017-12-17T08:38:37Z</time>
      </trkpt>
      <trkpt lat="48.99068" lon="1.11794">
        <ele>91.5</ele>
        <time>2017-12-17T08:38:40Z</time>
      </trkpt>
      <trkpt lat="48.99059" lon="1.11785">
        <ele>91.400002</ele>
        <time>2017-12-17T08:38:43Z</time>
      </trkpt>
      <trkpt lat="48.99049" lon="1.11778">
        <ele>91.400002</ele>
        <time>2017-12-17T08:38:46Z</time>
      </trkpt>
      <trkpt lat="48.9904" lon="1.11771">
        <ele>91.800003</ele>
        <time>2017-12-17T08:38:49Z</time>
      </trkpt>
      <trkpt lat="48.9903" lon="1.11767">
        <ele>92.099998</ele>
        <time>2017-12-17T08:38:52Z</time>
      </trkpt>
      <trkpt lat="48.9902" lon="1.11764">
        <ele>92.099998</ele>
        <time>2017-12-17T08:38:55Z</time>
      </trkpt>
      <trkpt lat="48.9901" lon="1.11763">
        <ele>92.400002</ele>
        <time>2017-12-17T08:38:58Z</time>
      </trkpt>
      <trkpt lat="48.98999" lon="1.11761">
        <ele>92.5</ele>
        <time>2017-12-17T08:39:01Z</time>
      </trkpt>
      <trkpt lat="48.98987" lon="1.1176">
        <ele>92.5</ele>
        <time>2017-12-17T08:39:04Z</time>
      </trkpt>
      <trkpt lat="48.98974" lon="1.11758">
        <ele>92.800003</ele>
        <time>2017-12-17T08:39:07Z</time>
      </trkpt>
      <trkpt lat="48.98962" lon="1.11758">
        <ele>93.300003</ele>
        <time>2017-12-17T08:39:10Z</time>
      </trkpt>
      <trkpt lat="48.9895" lon="1.11756">
        <ele>93.599998</ele>
        <time>2017-12-17T08:39:13Z</time>
      </trkpt>
      <trkpt lat="48.98937" lon="1.11756">
        <ele>93.5</ele>
        <time>2017-12-17T08:39:16Z</time>
      </trkpt>
      <trkpt lat="48.98928" lon="1.11756">
        <ele>93.099998</ele>
        <time>2017-12-17T08:39:18Z</time>
      </trkpt>
      <trkpt lat="48.98917" lon="1.11755">
        <ele>92.599998</ele>
        <time>2017-12-17T08:39:21Z</time>
      </trkpt>
      <trkpt lat="48.98904" lon="1.11755">
        <ele>92.199997</ele>
        <time>2017-12-17T08:39:24Z</time>
      </trkpt>
      <trkpt lat="48.98893" lon="1.11762">
        <ele>92</ele>
        <time>2017-12-17T08:39:27Z</time>
      </trkpt>
      <trkpt lat="48.98883" lon="1.11769">
        <ele>91.900002</ele>
        <time>2017-12-17T08:39:30Z</time>
      </trkpt>
      <trkpt lat="48.98874" lon="1.1178">
        <ele>91.800003</ele>
        <time>2017-12-17T08:39:33Z</time>
      </trkpt>
      <trkpt lat="48.98865" lon="1.11793">
        <ele>91.900002</ele>
        <time>2017-12-17T08:39:36Z</time>
      </trkpt>
      <trkpt lat="48.98857" lon="1.11806">
        <ele>92.099998</ele>
        <time>2017-12-17T08:39:39Z</time>
      </trkpt>
      <trkpt lat="48.98846" lon="1.11817">
        <ele>92.199997</ele>
        <time>2017-12-17T08:39:42Z</time>
      </trkpt>
      <trkpt lat="48.98835" lon="1.11827">
        <ele>92.099998</ele>
        <time>2017-12-17T08:39:45Z</time>
      </trkpt>
      <trkpt lat="48.98828" lon="1.11841">
        <ele>92.199997</ele>
        <time>2017-12-17T08:39:48Z</time>
      </trkpt>
      <trkpt lat="48.98821" lon="1.11856">
        <ele>92.400002</ele>
        <time>2017-12-17T08:39:51Z</time>
      </trkpt>
      <trkpt lat="48.98814" lon="1.11869">
        <ele>92.599998</ele>
        <time>2017-12-17T08:39:54Z</time>
      </trkpt>
      <trkpt lat="48.98806" lon="1.11881">
        <ele>92.699997</ele>
        <time>2017-12-17T08:39:57Z</time>
      </trkpt>
      <trkpt lat="48.98799" lon="1.11893">
        <ele>92.800003</ele>
        <time>2017-12-17T08:40:00Z</time>
      </trkpt>
      <trkpt lat="48.9879" lon="1.11907">
        <ele>93.099998</ele>
        <time>2017-12-17T08:40:03Z</time>
      </trkpt>
      <trkpt lat="48.98782" lon="1.11918">
        <ele>93.400002</ele>
        <time>2017-12-17T08:40:06Z</time>
      </trkpt>
      <trkpt lat="48.98772" lon="1.11929">
        <ele>93.5</ele>
        <time>2017-12-17T08:40:09Z</time>
      </trkpt>
      <trkpt lat="48.98764" lon="1.11935">
        <ele>93.599998</ele>
        <time>2017-12-17T08:40:11Z</time>
      </trkpt>
      <trkpt lat="48.98753" lon="1.11943">
        <ele>93.599998</ele>
        <time>2017-12-17T08:40:14Z</time>
      </trkpt>
      <trkpt lat="48.98742" lon="1.11951">
        <ele>93.599998</ele>
        <time>2017-12-17T08:40:17Z</time>
      </trkpt>
      <trkpt lat="48.98733" lon="1.1196">
        <ele>93.599998</ele>
        <time>2017-12-17T08:40:20Z</time>
      </trkpt>
      <trkpt lat="48.98725" lon="1.1197">
        <ele>94.099998</ele>
        <time>2017-12-17T08:40:23Z</time>
      </trkpt>
      <trkpt lat="48.98715" lon="1.11979">
        <ele>94.199997</ele>
        <time>2017-12-17T08:40:26Z</time>
      </trkpt>
      <trkpt lat="48.98704" lon="1.11986">
        <ele>93.900002</ele>
        <time>2017-12-17T08:40:29Z</time>
      </trkpt>
      <trkpt lat="48.98695" lon="1.11993">
        <ele>93.800003</ele>
        <time>2017-12-17T08:40:32Z</time>
      </trkpt>
      <trkpt lat="48.98685" lon="1.11999">
        <ele>94</ele>
        <time>2017-12-17T08:40:35Z</time>
      </trkpt>
      <trkpt lat="48.98676" lon="1.12005">
        <ele>93.900002</ele>
        <time>2017-12-17T08:40:38Z</time>
      </trkpt>
      <trkpt lat="48.98667" lon="1.12012">
        <ele>94</ele>
        <time>2017-12-17T08:40:41Z</time>
      </trkpt>
      <trkpt lat="48.98656" lon="1.12019">
        <ele>93.900002</ele>
        <time>2017-12-17T08:40:45Z</time>
      </trkpt>
      <trkpt lat="48.98646" lon="1.12023">
        <ele>93.800003</ele>
        <time>2017-12-17T08:40:48Z</time>
      </trkpt>
      <trkpt lat="48.98635" lon="1.12027">
        <ele>94</ele>
        <time>2017-12-17T08:40:51Z</time>
      </trkpt>
      <trkpt lat="48.98624" lon="1.1203">
        <ele>94.099998</ele>
        <time>2017-12-17T08:40:54Z</time>
      </trkpt>
      <trkpt lat="48.98612" lon="1.12033">
        <ele>94.199997</ele>
        <time>2017-12-17T08:40:57Z</time>
      </trkpt>
      <trkpt lat="48.98602" lon="1.12038">
        <ele>94.699997</ele>
        <time>2017-12-17T08:41:00Z</time>
      </trkpt>
      <trkpt lat="48.9859" lon="1.12044">
        <ele>94.800003</ele>
        <time>2017-12-17T08:41:03Z</time>
      </trkpt>
      <trkpt lat="48.98578" lon="1.1205">
        <ele>94.900002</ele>
        <time>2017-12-17T08:41:06Z</time>
      </trkpt>
      <trkpt lat="48.98567" lon="1.12056">
        <ele>94.800003</ele>
        <time>2017-12-17T08:41:09Z</time>
      </trkpt>
      <trkpt lat="48.98555" lon="1.12062">
        <ele>94.900002</ele>
        <time>2017-12-17T08:41:12Z</time>
      </trkpt>
      <trkpt lat="48.98545" lon="1.12071">
        <ele>94.800003</ele>
        <time>2017-12-17T08:41:15Z</time>
      </trkpt>
      <trkpt lat="48.98534" lon="1.12082">
        <ele>94.800003</ele>
        <time>2017-12-17T08:41:18Z</time>
      </trkpt>
      <trkpt lat="48.98525" lon="1.12094">
        <ele>94.900002</ele>
        <time>2017-12-17T08:41:21Z</time>
      </trkpt>
      <trkpt lat="48.98516" lon="1.12105">
        <ele>95</ele>
        <time>2017-12-17T08:41:24Z</time>
      </trkpt>
      <trkpt lat="48.98509" lon="1.12119">
        <ele>95.099998</ele>
        <time>2017-12-17T08:41:27Z</time>
      </trkpt>
      <trkpt lat="48.98501" lon="1.12139">
        <ele>95</ele>
        <time>2017-12-17T08:41:31Z</time>
      </trkpt>
      <trkpt lat="48.98496" lon="1.12153">
        <ele>95.599998</ele>
        <time>2017-12-17T08:41:34Z</time>
      </trkpt>
      <trkpt lat="48.9849" lon="1.12168">
        <ele>96</ele>
        <time>2017-12-17T08:41:37Z</time>
      </trkpt>
      <trkpt lat="48.98485" lon="1.12186">
        <ele>96.300003</ele>
        <time>2017-12-17T08:41:40Z</time>
      </trkpt>
      <trkpt lat="48.98481" lon="1.12202">
        <ele>96.699997</ele>
        <time>2017-12-17T08:41:43Z</time>
      </trkpt>
      <trkpt lat="48.98479" lon="1.12218">
        <ele>96.900002</ele>
        <time>2017-12-17T08:41:46Z</time>
      </trkpt>
      <trkpt lat="48.98478" lon="1.12236">
        <ele>97</ele>
        <time>2017-12-17T08:41:49Z</time>
      </trkpt>
      <trkpt lat="48.98479" lon="1.12253">
        <ele>97</ele>
        <time>2017-12-17T08:41:52Z</time>
      </trkpt>
      <trkpt lat="48.98479" lon="1.12269">
        <ele>97.199997</ele>
        <time>2017-12-17T08:41:55Z</time>
      </trkpt>
      <trkpt lat="48.9848" lon="1.12285">
        <ele>96.900002</ele>
        <time>2017-12-17T08:41:59Z</time>
      </trkpt>
      <trkpt lat="48.98482" lon="1.123">
        <ele>96.900002</ele>
        <time>2017-12-17T08:42:04Z</time>
      </trkpt>
      <trkpt lat="48.98488" lon="1.12313">
        <ele>96.699997</ele>
        <time>2017-12-17T08:42:45Z</time>
      </trkpt>
      <trkpt lat="48.98491" lon="1.1233">
        <ele>96.900002</ele>
        <time>2017-12-17T08:42:50Z</time>
      </trkpt>
      <trkpt lat="48.98495" lon="1.12344">
        <ele>96.900002</ele>
        <time>2017-12-17T08:42:53Z</time>
      </trkpt>
      <trkpt lat="48.98498" lon="1.12359">
        <ele>97.199997</ele>
        <time>2017-12-17T08:42:56Z</time>
      </trkpt>
      <trkpt lat="48.98503" lon="1.12374">
        <ele>97.099998</ele>
        <time>2017-12-17T08:42:59Z</time>
      </trkpt>
      <trkpt lat="48.98507" lon="1.12388">
        <ele>97.199997</ele>
        <time>2017-12-17T08:43:02Z</time>
      </trkpt>
      <trkpt lat="48.98513" lon="1.12404">
        <ele>97.099998</ele>
        <time>2017-12-17T08:43:05Z</time>
      </trkpt>
      <trkpt lat="48.9852" lon="1.1242">
        <ele>97</ele>
        <time>2017-12-17T08:43:08Z</time>
      </trkpt>
      <trkpt lat="48.98522" lon="1.12437">
        <ele>96.800003</ele>
        <time>2017-12-17T08:43:11Z</time>
      </trkpt>
      <trkpt lat="48.98519" lon="1.12453">
        <ele>97.099998</ele>
        <time>2017-12-17T08:43:14Z</time>
      </trkpt>
      <trkpt lat="48.98513" lon="1.12468">
        <ele>97.300003</ele>
        <time>2017-12-17T08:43:17Z</time>
      </trkpt>
      <trkpt lat="48.98505" lon="1.12481">
        <ele>97.099998</ele>
        <time>2017-12-17T08:43:20Z</time>
      </trkpt>
      <trkpt lat="48.98496" lon="1.12491">
        <ele>97.400002</ele>
        <time>2017-12-17T08:43:23Z</time>
      </trkpt>
      <trkpt lat="48.98485" lon="1.12497">
        <ele>97.900002</ele>
        <time>2017-12-17T08:43:26Z</time>
      </trkpt>
      <trkpt lat="48.98474" lon="1.12495">
        <ele>97.900002</ele>
        <time>2017-12-17T08:43:29Z</time>
      </trkpt>
      <trkpt lat="48.98464" lon="1.12488">
        <ele>98</ele>
        <time>2017-12-17T08:43:32Z</time>
      </trkpt>
      <trkpt lat="48.98454" lon="1.12481">
        <ele>98.300003</ele>
        <time>2017-12-17T08:43:35Z</time>
      </trkpt>
      <trkpt lat="48.98444" lon="1.12474">
        <ele>98.599998</ele>
        <time>2017-12-17T08:43:38Z</time>
      </trkpt>
      <trkpt lat="48.98434" lon="1.12467">
        <ele>98.800003</ele>
        <time>2017-12-17T08:43:41Z</time>
      </trkpt>
      <trkpt lat="48.98425" lon="1.12457">
        <ele>98.800003</ele>
        <time>2017-12-17T08:43:44Z</time>
      </trkpt>
      <trkpt lat="48.98418" lon="1.12446">
        <ele>98.599998</ele>
        <time>2017-12-17T08:43:47Z</time>
      </trkpt>
      <trkpt lat="48.9841" lon="1.12435">
        <ele>98.599998</ele>
        <time>2017-12-17T08:43:50Z</time>
      </trkpt>
      <trkpt lat="48.98401" lon="1.12425">
        <ele>98.699997</ele>
        <time>2017-12-17T08:43:53Z</time>
      </trkpt>
      <trkpt lat="48.98392" lon="1.12416">
        <ele>98.699997</ele>
        <time>2017-12-17T08:43:56Z</time>
      </trkpt>
      <trkpt lat="48.98384" lon="1.12405">
        <ele>99</ele>
        <time>2017-12-17T08:43:59Z</time>
      </trkpt>
      <trkpt lat="48.98376" lon="1.12392">
        <ele>99</ele>
        <time>2017-12-17T08:44:02Z</time>
      </trkpt>
      <trkpt lat="48.98368" lon="1.1238">
        <ele>99.199997</ele>
        <time>2017-12-17T08:44:05Z</time>
      </trkpt>
      <trkpt lat="48.98361" lon="1.12368">
        <ele>99.699997</ele>
        <time>2017-12-17T08:44:08Z</time>
      </trkpt>
      <trkpt lat="48.98353" lon="1.12355">
        <ele>99.900002</ele>
        <time>2017-12-17T08:44:12Z</time>
      </trkpt>
      <trkpt lat="48.98345" lon="1.12342">
        <ele>100</ele>
        <time>2017-12-17T08:44:15Z</time>
      </trkpt>
      <trkpt lat="48.98337" lon="1.12329">
        <ele>100</ele>
        <time>2017-12-17T08:44:18Z</time>
      </trkpt>
      <trkpt lat="48.98329" lon="1.12319">
        <ele>100</ele>
        <time>2017-12-17T08:44:21Z</time>
      </trkpt>
      <trkpt lat="48.98321" lon="1.12308">
        <ele>100.199997</ele>
        <time>2017-12-17T08:44:24Z</time>
      </trkpt>
      <trkpt lat="48.98314" lon="1.12299">
        <ele>100.599998</ele>
        <time>2017-12-17T08:44:27Z</time>
      </trkpt>
      <trkpt lat="48.98306" lon="1.12288">
        <ele>101</ele>
        <time>2017-12-17T08:44:30Z</time>
      </trkpt>
      <trkpt lat="48.98296" lon="1.12276">
        <ele>101.300003</ele>
        <time>2017-12-17T08:44:33Z</time>
      </trkpt>
      <trkpt lat="48.98288" lon="1.12265">
        <ele>101.699997</ele>
        <time>2017-12-17T08:44:36Z</time>
      </trkpt>
      <trkpt lat="48.9828" lon="1.12253">
        <ele>101.900002</ele>
        <time>2017-12-17T08:44:39Z</time>
      </trkpt>
      <trkpt lat="48.98272" lon="1.12241">
        <ele>102.099998</ele>
        <time>2017-12-17T08:44:42Z</time>
      </trkpt>
      <trkpt lat="48.98264" lon="1.12228">
        <ele>102.199997</ele>
        <time>2017-12-17T08:44:45Z</time>
      </trkpt>
      <trkpt lat="48.98255" lon="1.12215">
        <ele>102.400002</ele>
        <time>2017-12-17T08:44:48Z</time>
      </trkpt>
      <trkpt lat="48.98247" lon="1.12202">
        <ele>102.300003</ele>
        <time>2017-12-17T08:44:51Z</time>
      </trkpt>
      <trkpt lat="48.98239" lon="1.12189">
        <ele>102.599998</ele>
        <time>2017-12-17T08:44:54Z</time>
      </trkpt>
      <trkpt lat="48.98232" lon="1.12176">
        <ele>102.900002</ele>
        <time>2017-12-17T08:44:57Z</time>
      </trkpt>
      <trkpt lat="48.98225" lon="1.12164">
        <ele>103.099998</ele>
        <time>2017-12-17T08:45:00Z</time>
      </trkpt>
      <trkpt lat="48.98218" lon="1.12153">
        <ele>103.5</ele>
        <time>2017-12-17T08:45:03Z</time>
      </trkpt>
      <trkpt lat="48.9821" lon="1.12143">
        <ele>104.099998</ele>
        <time>2017-12-17T08:45:06Z</time>
      </trkpt>
      <trkpt lat="48.98202" lon="1.12134">
        <ele>104.800003</ele>
        <time>2017-12-17T08:45:09Z</time>
      </trkpt>
      <trkpt lat="48.98194" lon="1.12126">
        <ele>105.400002</ele>
        <time>2017-12-17T08:45:12Z</time>
      </trkpt>
      <trkpt lat="48.98184" lon="1.12119">
        <ele>106</ele>
        <time>2017-12-17T08:45:15Z</time>
      </trkpt>
      <trkpt lat="48.98175" lon="1.12112">
        <ele>106.400002</ele>
        <time>2017-12-17T08:45:18Z</time>
      </trkpt>
      <trkpt lat="48.98167" lon="1.12105">
        <ele>106.900002</ele>
        <time>2017-12-17T08:45:21Z</time>
      </trkpt>
      <trkpt lat="48.98157" lon="1.12099">
        <ele>107.599998</ele>
        <time>2017-12-17T08:45:24Z</time>
      </trkpt>
      <trkpt lat="48.98148" lon="1.12092">
        <ele>108</ele>
        <time>2017-12-17T08:45:27Z</time>
      </trkpt>
      <trkpt lat="48.98138" lon="1.12085">
        <ele>108</ele>
        <time>2017-12-17T08:45:30Z</time>
      </trkpt>
      <trkpt lat="48.98129" lon="1.12076">
        <ele>108.400002</ele>
        <time>2017-12-17T08:45:33Z</time>
      </trkpt>
      <trkpt lat="48.98121" lon="1.12067">
        <ele>108.800003</ele>
        <time>2017-12-17T08:45:36Z</time>
      </trkpt>
      <trkpt lat="48.98112" lon="1.12057">
        <ele>109.099998</ele>
        <time>2017-12-17T08:45:39Z</time>
      </trkpt>
      <trkpt lat="48.98104" lon="1.12045">
        <ele>109.199997</ele>
        <time>2017-12-17T08:45:42Z</time>
      </trkpt>
      <trkpt lat="48.98096" lon="1.12032">
        <ele>109.5</ele>
        <time>2017-12-17T08:45:45Z</time>
      </trkpt>
      <trkpt lat="48.98089" lon="1.12019">
        <ele>109.800003</ele>
        <time>2017-12-17T08:45:48Z</time>
      </trkpt>
      <trkpt lat="48.98082" lon="1.12005">
        <ele>110</ele>
        <time>2017-12-17T08:45:51Z</time>
      </trkpt>
      <trkpt lat="48.98074" lon="1.11992">
        <ele>110.5</ele>
        <time>2017-12-17T08:45:54Z</time>
      </trkpt>
      <trkpt lat="48.98067" lon="1.1198">
        <ele>111</ele>
        <time>2017-12-17T08:45:57Z</time>
      </trkpt>
      <trkpt lat="48.9806" lon="1.11968">
        <ele>111.5</ele>
        <time>2017-12-17T08:46:00Z</time>
      </trkpt>
      <trkpt lat="48.98053" lon="1.11957">
        <ele>111.599998</ele>
        <time>2017-12-17T08:46:03Z</time>
      </trkpt>
      <trkpt lat="48.98045" lon="1.11946">
        <ele>111.800003</ele>
        <time>2017-12-17T08:46:06Z</time>
      </trkpt>
      <trkpt lat="48.98035" lon="1.11935">
        <ele>112.099998</ele>
        <time>2017-12-17T08:46:09Z</time>
      </trkpt>
      <trkpt lat="48.98026" lon="1.11922">
        <ele>112.300003</ele>
        <time>2017-12-17T08:46:12Z</time>
      </trkpt>
      <trkpt lat="48.98018" lon="1.11911">
        <ele>112.5</ele>
        <time>2017-12-17T08:46:15Z</time>
      </trkpt>
      <trkpt lat="48.98009" lon="1.11897">
        <ele>112.699997</ele>
        <time>2017-12-17T08:46:18Z</time>
      </trkpt>
      <trkpt lat="48.98001" lon="1.11884">
        <ele>112.800003</ele>
        <time>2017-12-17T08:46:21Z</time>
      </trkpt>
      <trkpt lat="48.97994" lon="1.11872">
        <ele>113.099998</ele>
        <time>2017-12-17T08:46:24Z</time>
      </trkpt>
      <trkpt lat="48.97986" lon="1.11859">
        <ele>113.5</ele>
        <time>2017-12-17T08:46:27Z</time>
      </trkpt>
      <trkpt lat="48.9798" lon="1.11846">
        <ele>113.800003</ele>
        <time>2017-12-17T08:46:30Z</time>
      </trkpt>
      <trkpt lat="48.97972" lon="1.11831">
        <ele>114.199997</ele>
        <time>2017-12-17T08:46:33Z</time>
      </trkpt>
      <trkpt lat="48.97966" lon="1.11816">
        <ele>114.400002</ele>
        <time>2017-12-17T08:46:36Z</time>
      </trkpt>
      <trkpt lat="48.97959" lon="1.11801">
        <ele>114.800003</ele>
        <time>2017-12-17T08:46:39Z</time>
      </trkpt>
      <trkpt lat="48.97953" lon="1.11786">
        <ele>115.099998</ele>
        <time>2017-12-17T08:46:42Z</time>
      </trkpt>
      <trkpt lat="48.97947" lon="1.1177">
        <ele>115.599998</ele>
        <time>2017-12-17T08:46:45Z</time>
      </trkpt>
      <trkpt lat="48.97942" lon="1.11754">
        <ele>116.300003</ele>
        <time>2017-12-17T08:46:48Z</time>
      </trkpt>
      <trkpt lat="48.97938" lon="1.11737">
        <ele>116.599998</ele>
        <time>2017-12-17T08:46:51Z</time>
      </trkpt>
      <trkpt lat="48.97935" lon="1.11721">
        <ele>116.699997</ele>
        <time>2017-12-17T08:46:54Z</time>
      </trkpt>
      <trkpt lat="48.97933" lon="1.11705">
        <ele>117.099998</ele>
        <time>2017-12-17T08:46:57Z</time>
      </trkpt>
      <trkpt lat="48.97934" lon="1.11687">
        <ele>117.5</ele>
        <time>2017-12-17T08:47:01Z</time>
      </trkpt>
      <trkpt lat="48.97931" lon="1.1167">
        <ele>117.699997</ele>
        <time>2017-12-17T08:47:04Z</time>
      </trkpt>
      <trkpt lat="48.97929" lon="1.11653">
        <ele>117.699997</ele>
        <time>2017-12-17T08:47:07Z</time>
      </trkpt>
      <trkpt lat="48.97924" lon="1.11636">
        <ele>118.199997</ele>
        <time>2017-12-17T08:47:10Z</time>
      </trkpt>
      <trkpt lat="48.9792" lon="1.11618">
        <ele>118.599998</ele>
        <time>2017-12-17T08:47:13Z</time>
      </trkpt>
      <trkpt lat="48.97914" lon="1.11603">
        <ele>118.900002</ele>
        <time>2017-12-17T08:47:16Z</time>
      </trkpt>
      <trkpt lat="48.97909" lon="1.11587">
        <ele>119.599998</ele>
        <time>2017-12-17T08:47:19Z</time>
      </trkpt>
      <trkpt lat="48.97904" lon="1.11571">
        <ele>119.800003</ele>
        <time>2017-12-17T08:47:22Z</time>
      </trkpt>
      <trkpt lat="48.97898" lon="1.11555">
        <ele>120.199997</ele>
        <time>2017-12-17T08:47:25Z</time>
      </trkpt>
      <trkpt lat="48.97893" lon="1.11538">
        <ele>120.599998</ele>
        <time>2017-12-17T08:47:28Z</time>
      </trkpt>
      <trkpt lat="48.97888" lon="1.11522">
        <ele>120.900002</ele>
        <time>2017-12-17T08:47:31Z</time>
      </trkpt>
      <trkpt lat="48.97882" lon="1.11504">
        <ele>121.300003</ele>
        <time>2017-12-17T08:47:34Z</time>
      </trkpt>
      <trkpt lat="48.97878" lon="1.11489">
        <ele>121.699997</ele>
        <time>2017-12-17T08:47:37Z</time>
      </trkpt>
      <trkpt lat="48.97873" lon="1.11473">
        <ele>121.800003</ele>
        <time>2017-12-17T08:47:40Z</time>
      </trkpt>
      <trkpt lat="48.97866" lon="1.11457">
        <ele>122.300003</ele>
        <time>2017-12-17T08:47:43Z</time>
      </trkpt>
      <trkpt lat="48.9786" lon="1.11442">
        <ele>122.900002</ele>
        <time>2017-12-17T08:47:46Z</time>
      </trkpt>
      <trkpt lat="48.97856" lon="1.11423">
        <ele>123.099998</ele>
        <time>2017-12-17T08:47:49Z</time>
      </trkpt>
      <trkpt lat="48.97852" lon="1.11406">
        <ele>123.400002</ele>
        <time>2017-12-17T08:47:52Z</time>
      </trkpt>
      <trkpt lat="48.9785" lon="1.11388">
        <ele>123.699997</ele>
        <time>2017-12-17T08:47:55Z</time>
      </trkpt>
      <trkpt lat="48.97848" lon="1.11372">
        <ele>124.099998</ele>
        <time>2017-12-17T08:47:58Z</time>
      </trkpt>
      <trkpt lat="48.97845" lon="1.11355">
        <ele>124.599998</ele>
        <time>2017-12-17T08:48:01Z</time>
      </trkpt>
      <trkpt lat="48.9784" lon="1.11338">
        <ele>125.099998</ele>
        <time>2017-12-17T08:48:04Z</time>
      </trkpt>
      <trkpt lat="48.97833" lon="1.11322">
        <ele>125.699997</ele>
        <time>2017-12-17T08:48:07Z</time>
      </trkpt>
      <trkpt lat="48.97827" lon="1.11307">
        <ele>126.300003</ele>
        <time>2017-12-17T08:48:10Z</time>
      </trkpt>
      <trkpt lat="48.97819" lon="1.11295">
        <ele>126.699997</ele>
        <time>2017-12-17T08:48:13Z</time>
      </trkpt>
      <trkpt lat="48.97811" lon="1.11285">
        <ele>127.300003</ele>
        <time>2017-12-17T08:48:16Z</time>
      </trkpt>
      <trkpt lat="48.97802" lon="1.11277">
        <ele>127.699997</ele>
        <time>2017-12-17T08:48:19Z</time>
      </trkpt>
      <trkpt lat="48.97793" lon="1.11269">
        <ele>128.300003</ele>
        <time>2017-12-17T08:48:22Z</time>
      </trkpt>
      <trkpt lat="48.97783" lon="1.11261">
        <ele>128.899994</ele>
        <time>2017-12-17T08:48:25Z</time>
      </trkpt>
      <trkpt lat="48.97772" lon="1.11251">
        <ele>129.5</ele>
        <time>2017-12-17T08:48:28Z</time>
      </trkpt>
      <trkpt lat="48.97764" lon="1.11239">
        <ele>130.100006</ele>
        <time>2017-12-17T08:48:32Z</time>
      </trkpt>
      <trkpt lat="48.97758" lon="1.11228">
        <ele>130.300003</ele>
        <time>2017-12-17T08:48:34Z</time>
      </trkpt>
      <trkpt lat="48.97751" lon="1.11213">
        <ele>130.600006</ele>
        <time>2017-12-17T08:48:37Z</time>
      </trkpt>
      <trkpt lat="48.97745" lon="1.11196">
        <ele>131.100006</ele>
        <time>2017-12-17T08:48:40Z</time>
      </trkpt>
      <trkpt lat="48.97739" lon="1.11178">
        <ele>131.699997</ele>
        <time>2017-12-17T08:48:43Z</time>
      </trkpt>
      <trkpt lat="48.97733" lon="1.11162">
        <ele>132.100006</ele>
        <time>2017-12-17T08:48:46Z</time>
      </trkpt>
      <trkpt lat="48.97725" lon="1.11146">
        <ele>132.600006</ele>
        <time>2017-12-17T08:48:49Z</time>
      </trkpt>
      <trkpt lat="48.97718" lon="1.11129">
        <ele>133</ele>
        <time>2017-12-17T08:48:52Z</time>
      </trkpt>
      <trkpt lat="48.97712" lon="1.11113">
        <ele>133.600006</ele>
        <time>2017-12-17T08:48:55Z</time>
      </trkpt>
      <trkpt lat="48.97706" lon="1.11094">
        <ele>133.800003</ele>
        <time>2017-12-17T08:48:58Z</time>
      </trkpt>
      <trkpt lat="48.97702" lon="1.11082">
        <ele>134</ele>
        <time>2017-12-17T08:49:00Z</time>
      </trkpt>
      <trkpt lat="48.97697" lon="1.11066">
        <ele>134.5</ele>
        <time>2017-12-17T08:49:03Z</time>
      </trkpt>
      <trkpt lat="48.97698" lon="1.11052">
        <ele>135.199997</ele>
        <time>2017-12-17T08:49:08Z</time>
      </trkpt>
      <trkpt lat="48.97699" lon="1.11038">
        <ele>136.199997</ele>
        <time>2017-12-17T08:49:13Z</time>
      </trkpt>
      <trkpt lat="48.97689" lon="1.11032">
        <ele>136.800003</ele>
        <time>2017-12-17T08:49:17Z</time>
      </trkpt>
      <trkpt lat="48.9768" lon="1.11029">
        <ele>136.899994</ele>
        <time>2017-12-17T08:49:20Z</time>
      </trkpt>
      <trkpt lat="48.97671" lon="1.11028">
        <ele>137</ele>
        <time>2017-12-17T08:49:25Z</time>
      </trkpt>
      <trkpt lat="48.97662" lon="1.11026">
        <ele>136.5</ele>
        <time>2017-12-17T08:50:16Z</time>
      </trkpt>
      <trkpt lat="48.97654" lon="1.11034">
        <ele>136.800003</ele>
        <time>2017-12-17T08:51:01Z</time>
      </trkpt>
      <trkpt lat="48.97648" lon="1.11047">
        <ele>137.199997</ele>
        <time>2017-12-17T08:51:05Z</time>
      </trkpt>
      <trkpt lat="48.97641" lon="1.11059">
        <ele>137.5</ele>
        <time>2017-12-17T08:51:10Z</time>
      </trkpt>
      <trkpt lat="48.97631" lon="1.11061">
        <ele>138.399994</ele>
        <time>2017-12-17T08:51:15Z</time>
      </trkpt>
      <trkpt lat="48.97621" lon="1.11059">
        <ele>139.300003</ele>
        <time>2017-12-17T08:51:19Z</time>
      </trkpt>
      <trkpt lat="48.97611" lon="1.1106">
        <ele>140.199997</ele>
        <time>2017-12-17T08:51:23Z</time>
      </trkpt>
      <trkpt lat="48.97602" lon="1.11064">
        <ele>140.699997</ele>
        <time>2017-12-17T08:51:26Z</time>
      </trkpt>
      <trkpt lat="48.97591" lon="1.11069">
        <ele>141.199997</ele>
        <time>2017-12-17T08:51:30Z</time>
      </trkpt>
      <trkpt lat="48.97582" lon="1.11071">
        <ele>141.5</ele>
        <time>2017-12-17T08:51:33Z</time>
      </trkpt>
      <trkpt lat="48.97571" lon="1.11075">
        <ele>141.800003</ele>
        <time>2017-12-17T08:51:36Z</time>
      </trkpt>
      <trkpt lat="48.97561" lon="1.11078">
        <ele>142.100006</ele>
        <time>2017-12-17T08:51:39Z</time>
      </trkpt>
      <trkpt lat="48.97552" lon="1.11083">
        <ele>142.399994</ele>
        <time>2017-12-17T08:51:42Z</time>
      </trkpt>
      <trkpt lat="48.97542" lon="1.11091">
        <ele>143.100006</ele>
        <time>2017-12-17T08:51:46Z</time>
      </trkpt>
      <trkpt lat="48.9753" lon="1.11094">
        <ele>143.199997</ele>
        <time>2017-12-17T08:51:49Z</time>
      </trkpt>
      <trkpt lat="48.9752" lon="1.11098">
        <ele>143.600006</ele>
        <time>2017-12-17T08:51:52Z</time>
      </trkpt>
      <trkpt lat="48.97509" lon="1.11103">
        <ele>144</ele>
        <time>2017-12-17T08:51:55Z</time>
      </trkpt>
      <trkpt lat="48.97499" lon="1.11108">
        <ele>144</ele>
        <time>2017-12-17T08:51:58Z</time>
      </trkpt>
      <trkpt lat="48.9749" lon="1.11116">
        <ele>144.300003</ele>
        <time>2017-12-17T08:52:01Z</time>
      </trkpt>
      <trkpt lat="48.97481" lon="1.11124">
        <ele>144.199997</ele>
        <time>2017-12-17T08:52:04Z</time>
      </trkpt>
      <trkpt lat="48.9747" lon="1.11129">
        <ele>144.100006</ele>
        <time>2017-12-17T08:52:07Z</time>
      </trkpt>
      <trkpt lat="48.9746" lon="1.11138">
        <ele>144.199997</ele>
        <time>2017-12-17T08:52:10Z</time>
      </trkpt>
      <trkpt lat="48.97448" lon="1.11144">
        <ele>144.399994</ele>
        <time>2017-12-17T08:52:13Z</time>
      </trkpt>
      <trkpt lat="48.97435" lon="1.11147">
        <ele>144.5</ele>
        <time>2017-12-17T08:52:16Z</time>
      </trkpt>
      <trkpt lat="48.97425" lon="1.11151">
        <ele>144.899994</ele>
        <time>2017-12-17T08:52:19Z</time>
      </trkpt>
      <trkpt lat="48.97413" lon="1.11154">
        <ele>144.800003</ele>
        <time>2017-12-17T08:52:22Z</time>
      </trkpt>
      <trkpt lat="48.97402" lon="1.11157">
        <ele>144.899994</ele>
        <time>2017-12-17T08:52:25Z</time>
      </trkpt>
      <trkpt lat="48.9739" lon="1.11162">
        <ele>145.100006</ele>
        <time>2017-12-17T08:52:28Z</time>
      </trkpt>
      <trkpt lat="48.97379" lon="1.11166">
        <ele>145.300003</ele>
        <time>2017-12-17T08:52:31Z</time>
      </trkpt>
      <trkpt lat="48.97368" lon="1.11171">
        <ele>145.5</ele>
        <time>2017-12-17T08:52:34Z</time>
      </trkpt>
      <trkpt lat="48.97357" lon="1.11176">
        <ele>145.600006</ele>
        <time>2017-12-17T08:52:37Z</time>
      </trkpt>
      <trkpt lat="48.97345" lon="1.11184">
        <ele>145.600006</ele>
        <time>2017-12-17T08:52:40Z</time>
      </trkpt>
      <trkpt lat="48.97334" lon="1.1119">
        <ele>145.600006</ele>
        <time>2017-12-17T08:52:43Z</time>
      </trkpt>
      <trkpt lat="48.97324" lon="1.11196">
        <ele>145.699997</ele>
        <time>2017-12-17T08:52:46Z</time>
      </trkpt>
      <trkpt lat="48.97316" lon="1.11202">
        <ele>145.800003</ele>
        <time>2017-12-17T08:52:49Z</time>
      </trkpt>
      <trkpt lat="48.97304" lon="1.11206">
        <ele>145.699997</ele>
        <time>2017-12-17T08:52:52Z</time>
      </trkpt>
      <trkpt lat="48.97293" lon="1.1121">
        <ele>145.899994</ele>
        <time>2017-12-17T08:52:55Z</time>
      </trkpt>
      <trkpt lat="48.97282" lon="1.11211">
        <ele>145.899994</ele>
        <time>2017-12-17T08:52:58Z</time>
      </trkpt>
      <trkpt lat="48.9727" lon="1.11211">
        <ele>146</ele>
        <time>2017-12-17T08:53:01Z</time>
      </trkpt>
      <trkpt lat="48.9726" lon="1.1121">
        <ele>146.199997</ele>
        <time>2017-12-17T08:53:04Z</time>
      </trkpt>
      <trkpt lat="48.9725" lon="1.11205">
        <ele>146.399994</ele>
        <time>2017-12-17T08:53:07Z</time>
      </trkpt>
      <trkpt lat="48.97238" lon="1.11203">
        <ele>146.5</ele>
        <time>2017-12-17T08:53:11Z</time>
      </trkpt>
      <trkpt lat="48.97225" lon="1.112">
        <ele>146.5</ele>
        <time>2017-12-17T08:53:14Z</time>
      </trkpt>
      <trkpt lat="48.97215" lon="1.11202">
        <ele>146.800003</ele>
        <time>2017-12-17T08:53:17Z</time>
      </trkpt>
      <trkpt lat="48.97204" lon="1.11201">
        <ele>147.199997</ele>
        <time>2017-12-17T08:53:20Z</time>
      </trkpt>
      <trkpt lat="48.97192" lon="1.11202">
        <ele>147.399994</ele>
        <time>2017-12-17T08:53:23Z</time>
      </trkpt>
      <trkpt lat="48.97181" lon="1.11202">
        <ele>147.600006</ele>
        <time>2017-12-17T08:53:26Z</time>
      </trkpt>
      <trkpt lat="48.9717" lon="1.11203">
        <ele>147.800003</ele>
        <time>2017-12-17T08:53:29Z</time>
      </trkpt>
      <trkpt lat="48.9716" lon="1.11207">
        <ele>148.100006</ele>
        <time>2017-12-17T08:53:32Z</time>
      </trkpt>
      <trkpt lat="48.97149" lon="1.11212">
        <ele>148.399994</ele>
        <time>2017-12-17T08:53:35Z</time>
      </trkpt>
      <trkpt lat="48.97141" lon="1.11219">
        <ele>148.600006</ele>
        <time>2017-12-17T08:53:38Z</time>
      </trkpt>
      <trkpt lat="48.97131" lon="1.11224">
        <ele>148.5</ele>
        <time>2017-12-17T08:53:41Z</time>
      </trkpt>
      <trkpt lat="48.9712" lon="1.11226">
        <ele>148.699997</ele>
        <time>2017-12-17T08:53:44Z</time>
      </trkpt>
      <trkpt lat="48.97109" lon="1.1123">
        <ele>149.199997</ele>
        <time>2017-12-17T08:53:47Z</time>
      </trkpt>
      <trkpt lat="48.97099" lon="1.11233">
        <ele>149.5</ele>
        <time>2017-12-17T08:53:50Z</time>
      </trkpt>
      <trkpt lat="48.97089" lon="1.11234">
        <ele>149.699997</ele>
        <time>2017-12-17T08:53:53Z</time>
      </trkpt>
      <trkpt lat="48.97079" lon="1.11236">
        <ele>149.899994</ele>
        <time>2017-12-17T08:53:56Z</time>
      </trkpt>
      <trkpt lat="48.97067" lon="1.11238">
        <ele>150.300003</ele>
        <time>2017-12-17T08:53:59Z</time>
      </trkpt>
      <trkpt lat="48.97055" lon="1.11239">
        <ele>150.399994</ele>
        <time>2017-12-17T08:54:02Z</time>
      </trkpt>
      <trkpt lat="48.97043" lon="1.11239">
        <ele>150.600006</ele>
        <time>2017-12-17T08:54:05Z</time>
      </trkpt>
      <trkpt lat="48.97034" lon="1.11239">
        <ele>150.800003</ele>
        <time>2017-12-17T08:54:08Z</time>
      </trkpt>
      <trkpt lat="48.97023" lon="1.11239">
        <ele>151.300003</ele>
        <time>2017-12-17T08:54:11Z</time>
      </trkpt>
      <trkpt lat="48.97012" lon="1.11241">
        <ele>151.5</ele>
        <time>2017-12-17T08:54:14Z</time>
      </trkpt>
      <trkpt lat="48.97001" lon="1.11247">
        <ele>151.699997</ele>
        <time>2017-12-17T08:54:17Z</time>
      </trkpt>
      <trkpt lat="48.96991" lon="1.11256">
        <ele>152</ele>
        <time>2017-12-17T08:54:20Z</time>
      </trkpt>
      <trkpt lat="48.96981" lon="1.11264">
        <ele>151.800003</ele>
        <time>2017-12-17T08:54:23Z</time>
      </trkpt>
      <trkpt lat="48.96971" lon="1.11273">
        <ele>152</ele>
        <time>2017-12-17T08:54:26Z</time>
      </trkpt>
      <trkpt lat="48.96961" lon="1.1128">
        <ele>152.100006</ele>
        <time>2017-12-17T08:54:29Z</time>
      </trkpt>
      <trkpt lat="48.9695" lon="1.11285">
        <ele>152.100006</ele>
        <time>2017-12-17T08:54:32Z</time>
      </trkpt>
      <trkpt lat="48.96939" lon="1.11286">
        <ele>152.5</ele>
        <time>2017-12-17T08:54:35Z</time>
      </trkpt>
      <trkpt lat="48.96928" lon="1.11285">
        <ele>152.699997</ele>
        <time>2017-12-17T08:54:38Z</time>
      </trkpt>
      <trkpt lat="48.96916" lon="1.11284">
        <ele>153.100006</ele>
        <time>2017-12-17T08:54:41Z</time>
      </trkpt>
      <trkpt lat="48.96904" lon="1.11284">
        <ele>153.199997</ele>
        <time>2017-12-17T08:54:44Z</time>
      </trkpt>
      <trkpt lat="48.96891" lon="1.11283">
        <ele>153.100006</ele>
        <time>2017-12-17T08:54:47Z</time>
      </trkpt>
      <trkpt lat="48.9688" lon="1.11284">
        <ele>153.100006</ele>
        <time>2017-12-17T08:54:50Z</time>
      </trkpt>
      <trkpt lat="48.96868" lon="1.11285">
        <ele>153.199997</ele>
        <time>2017-12-17T08:54:53Z</time>
      </trkpt>
      <trkpt lat="48.96855" lon="1.11287">
        <ele>153.5</ele>
        <time>2017-12-17T08:54:56Z</time>
      </trkpt>
      <trkpt lat="48.96843" lon="1.11289">
        <ele>153.300003</ele>
        <time>2017-12-17T08:54:59Z</time>
      </trkpt>
      <trkpt lat="48.96831" lon="1.11296">
        <ele>153.399994</ele>
        <time>2017-12-17T08:55:02Z</time>
      </trkpt>
      <trkpt lat="48.9682" lon="1.11302">
        <ele>153.399994</ele>
        <time>2017-12-17T08:55:05Z</time>
      </trkpt>
      <trkpt lat="48.96809" lon="1.1131">
        <ele>153.5</ele>
        <time>2017-12-17T08:55:08Z</time>
      </trkpt>
      <trkpt lat="48.968" lon="1.11313">
        <ele>153.5</ele>
        <time>2017-12-17T08:55:10Z</time>
      </trkpt>
      <trkpt lat="48.96788" lon="1.11319">
        <ele>153.399994</ele>
        <time>2017-12-17T08:55:13Z</time>
      </trkpt>
      <trkpt lat="48.96776" lon="1.11324">
        <ele>153.399994</ele>
        <time>2017-12-17T08:55:16Z</time>
      </trkpt>
      <trkpt lat="48.96764" lon="1.11327">
        <ele>153.5</ele>
        <time>2017-12-17T08:55:19Z</time>
      </trkpt>
      <trkpt lat="48.96754" lon="1.11329">
        <ele>153.600006</ele>
        <time>2017-12-17T08:55:22Z</time>
      </trkpt>
      <trkpt lat="48.96741" lon="1.11331">
        <ele>153.699997</ele>
        <time>2017-12-17T08:55:25Z</time>
      </trkpt>
      <trkpt lat="48.96729" lon="1.11336">
        <ele>153.800003</ele>
        <time>2017-12-17T08:55:28Z</time>
      </trkpt>
      <trkpt lat="48.96716" lon="1.11337">
        <ele>154</ele>
        <time>2017-12-17T08:55:31Z</time>
      </trkpt>
      <trkpt lat="48.96703" lon="1.1134">
        <ele>153.899994</ele>
        <time>2017-12-17T08:55:34Z</time>
      </trkpt>
      <trkpt lat="48.96691" lon="1.11343">
        <ele>154.100006</ele>
        <time>2017-12-17T08:55:37Z</time>
      </trkpt>
      <trkpt lat="48.96678" lon="1.11344">
        <ele>154.100006</ele>
        <time>2017-12-17T08:55:40Z</time>
      </trkpt>
      <trkpt lat="48.96666" lon="1.11346">
        <ele>154.399994</ele>
        <time>2017-12-17T08:55:43Z</time>
      </trkpt>
      <trkpt lat="48.96654" lon="1.1135">
        <ele>154.300003</ele>
        <time>2017-12-17T08:55:46Z</time>
      </trkpt>
      <trkpt lat="48.96645" lon="1.11354">
        <ele>154.199997</ele>
        <time>2017-12-17T08:55:48Z</time>
      </trkpt>
      <trkpt lat="48.96634" lon="1.11361">
        <ele>154.100006</ele>
        <time>2017-12-17T08:55:51Z</time>
      </trkpt>
      <trkpt lat="48.96621" lon="1.11369">
        <ele>154.100006</ele>
        <time>2017-12-17T08:55:54Z</time>
      </trkpt>
      <trkpt lat="48.9661" lon="1.11378">
        <ele>154.199997</ele>
        <time>2017-12-17T08:55:57Z</time>
      </trkpt>
      <trkpt lat="48.96599" lon="1.11386">
        <ele>154.100006</ele>
        <time>2017-12-17T08:56:00Z</time>
      </trkpt>
      <trkpt lat="48.96589" lon="1.11395">
        <ele>154</ele>
        <time>2017-12-17T08:56:03Z</time>
      </trkpt>
      <trkpt lat="48.96577" lon="1.11403">
        <ele>154.100006</ele>
        <time>2017-12-17T08:56:06Z</time>
      </trkpt>
      <trkpt lat="48.96566" lon="1.11412">
        <ele>154.199997</ele>
        <time>2017-12-17T08:56:09Z</time>
      </trkpt>
      <trkpt lat="48.96557" lon="1.11421">
        <ele>154.199997</ele>
        <time>2017-12-17T08:56:12Z</time>
      </trkpt>
      <trkpt lat="48.96547" lon="1.11432">
        <ele>154.300003</ele>
        <time>2017-12-17T08:56:15Z</time>
      </trkpt>
      <trkpt lat="48.96536" lon="1.11441">
        <ele>154.300003</ele>
        <time>2017-12-17T08:56:18Z</time>
      </trkpt>
      <trkpt lat="48.96524" lon="1.11449">
        <ele>154.199997</ele>
        <time>2017-12-17T08:56:21Z</time>
      </trkpt>
      <trkpt lat="48.96513" lon="1.11457">
        <ele>154.300003</ele>
        <time>2017-12-17T08:56:24Z</time>
      </trkpt>
      <trkpt lat="48.96504" lon="1.11468">
        <ele>154.300003</ele>
        <time>2017-12-17T08:56:27Z</time>
      </trkpt>
      <trkpt lat="48.96494" lon="1.11478">
        <ele>154</ele>
        <time>2017-12-17T08:56:30Z</time>
      </trkpt>
      <trkpt lat="48.96484" lon="1.11487">
        <ele>153.899994</ele>
        <time>2017-12-17T08:56:33Z</time>
      </trkpt>
      <trkpt lat="48.96474" lon="1.11496">
        <ele>154</ele>
        <time>2017-12-17T08:56:36Z</time>
      </trkpt>
      <trkpt lat="48.96463" lon="1.11507">
        <ele>154</ele>
        <time>2017-12-17T08:56:39Z</time>
      </trkpt>
      <trkpt lat="48.96454" lon="1.11519">
        <ele>154</ele>
        <time>2017-12-17T08:56:42Z</time>
      </trkpt>
      <trkpt lat="48.96445" lon="1.11532">
        <ele>154</ele>
        <time>2017-12-17T08:56:45Z</time>
      </trkpt>
      <trkpt lat="48.96437" lon="1.11543">
        <ele>153.800003</ele>
        <time>2017-12-17T08:56:48Z</time>
      </trkpt>
      <trkpt lat="48.96427" lon="1.11543">
        <ele>153.699997</ele>
        <time>2017-12-17T08:56:52Z</time>
      </trkpt>
      <trkpt lat="48.96428" lon="1.11527">
        <ele>153.699997</ele>
        <time>2017-12-17T08:56:58Z</time>
      </trkpt>
      <trkpt lat="48.96433" lon="1.11512">
        <ele>153.800003</ele>
        <time>2017-12-17T08:57:02Z</time>
      </trkpt>
      <trkpt lat="48.96437" lon="1.11499">
        <ele>153.899994</ele>
        <time>2017-12-17T08:57:05Z</time>
      </trkpt>
      <trkpt lat="48.96439" lon="1.11485">
        <ele>153.800003</ele>
        <time>2017-12-17T08:57:08Z</time>
      </trkpt>
      <trkpt lat="48.96443" lon="1.1147">
        <ele>153.699997</ele>
        <time>2017-12-17T08:57:11Z</time>
      </trkpt>
      <trkpt lat="48.96447" lon="1.11455">
        <ele>153.600006</ele>
        <time>2017-12-17T08:57:14Z</time>
      </trkpt>
      <trkpt lat="48.96452" lon="1.1144">
        <ele>153.600006</ele>
        <time>2017-12-17T08:57:17Z</time>
      </trkpt>
      <trkpt lat="48.96455" lon="1.11423">
        <ele>153.699997</ele>
        <time>2017-12-17T08:57:20Z</time>
      </trkpt>
      <trkpt lat="48.96459" lon="1.11407">
        <ele>153.800003</ele>
        <time>2017-12-17T08:57:23Z</time>
      </trkpt>
      <trkpt lat="48.96463" lon="1.11391">
        <ele>154.100006</ele>
        <time>2017-12-17T08:57:26Z</time>
      </trkpt>
      <trkpt lat="48.96468" lon="1.11377">
        <ele>154.100006</ele>
        <time>2017-12-17T08:57:29Z</time>
      </trkpt>
      <trkpt lat="48.96473" lon="1.11361">
        <ele>154.100006</ele>
        <time>2017-12-17T08:57:32Z</time>
      </trkpt>
      <trkpt lat="48.96477" lon="1.11343">
        <ele>154</ele>
        <time>2017-12-17T08:57:35Z</time>
      </trkpt>
      <trkpt lat="48.96482" lon="1.11328">
        <ele>154</ele>
        <time>2017-12-17T08:57:38Z</time>
      </trkpt>
      <trkpt lat="48.96483" lon="1.11314">
        <ele>153.399994</ele>
        <time>2017-12-17T08:58:49Z</time>
      </trkpt>
      <trkpt lat="48.96478" lon="1.11301">
        <ele>153.5</ele>
        <time>2017-12-17T08:59:05Z</time>
      </trkpt>
      <trkpt lat="48.96471" lon="1.11291">
        <ele>153.800003</ele>
        <time>2017-12-17T08:59:16Z</time>
      </trkpt>
      <trkpt lat="48.96464" lon="1.11279">
        <ele>153.699997</ele>
        <time>2017-12-17T08:59:21Z</time>
      </trkpt>
      <trkpt lat="48.96457" lon="1.11266">
        <ele>153.699997</ele>
        <time>2017-12-17T08:59:26Z</time>
      </trkpt>
      <trkpt lat="48.9645" lon="1.11253">
        <ele>153.899994</ele>
        <time>2017-12-17T08:59:30Z</time>
      </trkpt>
      <trkpt lat="48.96444" lon="1.11242">
        <ele>153.899994</ele>
        <time>2017-12-17T08:59:33Z</time>
      </trkpt>
      <trkpt lat="48.96438" lon="1.11231">
        <ele>153.899994</ele>
        <time>2017-12-17T08:59:36Z</time>
      </trkpt>
      <trkpt lat="48.96432" lon="1.1122">
        <ele>154.100006</ele>
        <time>2017-12-17T08:59:39Z</time>
      </trkpt>
      <trkpt lat="48.96425" lon="1.1121">
        <ele>154.399994</ele>
        <time>2017-12-17T08:59:42Z</time>
      </trkpt>
      <trkpt lat="48.96419" lon="1.11199">
        <ele>154.199997</ele>
        <time>2017-12-17T08:59:45Z</time>
      </trkpt>
      <trkpt lat="48.96412" lon="1.11188">
        <ele>154.199997</ele>
        <time>2017-12-17T08:59:48Z</time>
      </trkpt>
      <trkpt lat="48.96406" lon="1.11177">
        <ele>154.100006</ele>
        <time>2017-12-17T08:59:51Z</time>
      </trkpt>
      <trkpt lat="48.96399" lon="1.11166">
        <ele>154.199997</ele>
        <time>2017-12-17T08:59:54Z</time>
      </trkpt>
      <trkpt lat="48.96393" lon="1.11154">
        <ele>154.199997</ele>
        <time>2017-12-17T08:59:57Z</time>
      </trkpt>
      <trkpt lat="48.96386" lon="1.11142">
        <ele>154.300003</ele>
        <time>2017-12-17T09:00:00Z</time>
      </trkpt>
      <trkpt lat="48.9638" lon="1.1113">
        <ele>154.199997</ele>
        <time>2017-12-17T09:00:03Z</time>
      </trkpt>
      <trkpt lat="48.96373" lon="1.11117">
        <ele>154.100006</ele>
        <time>2017-12-17T09:00:06Z</time>
      </trkpt>
      <trkpt lat="48.96366" lon="1.11106">
        <ele>154.100006</ele>
        <time>2017-12-17T09:00:09Z</time>
      </trkpt>
      <trkpt lat="48.9636" lon="1.11093">
        <ele>154.100006</ele>
        <time>2017-12-17T09:00:12Z</time>
      </trkpt>
      <trkpt lat="48.96353" lon="1.11081">
        <ele>153.899994</ele>
        <time>2017-12-17T09:00:15Z</time>
      </trkpt>
      <trkpt lat="48.96346" lon="1.11068">
        <ele>153.699997</ele>
        <time>2017-12-17T09:00:18Z</time>
      </trkpt>
      <trkpt lat="48.96339" lon="1.11056">
        <ele>153.600006</ele>
        <time>2017-12-17T09:00:21Z</time>
      </trkpt>
      <trkpt lat="48.96333" lon="1.11044">
        <ele>153.5</ele>
        <time>2017-12-17T09:00:24Z</time>
      </trkpt>
      <trkpt lat="48.96326" lon="1.11032">
        <ele>153.300003</ele>
        <time>2017-12-17T09:00:27Z</time>
      </trkpt>
      <trkpt lat="48.9632" lon="1.1102">
        <ele>153.5</ele>
        <time>2017-12-17T09:00:30Z</time>
      </trkpt>
      <trkpt lat="48.96313" lon="1.11009">
        <ele>153.5</ele>
        <time>2017-12-17T09:00:33Z</time>
      </trkpt>
      <trkpt lat="48.96307" lon="1.10997">
        <ele>153.699997</ele>
        <time>2017-12-17T09:00:36Z</time>
      </trkpt>
      <trkpt lat="48.96301" lon="1.10986">
        <ele>153.699997</ele>
        <time>2017-12-17T09:00:39Z</time>
      </trkpt>
      <trkpt lat="48.96294" lon="1.10974">
        <ele>153.699997</ele>
        <time>2017-12-17T09:00:42Z</time>
      </trkpt>
      <trkpt lat="48.96287" lon="1.10962">
        <ele>153.5</ele>
        <time>2017-12-17T09:00:45Z</time>
      </trkpt>
      <trkpt lat="48.96281" lon="1.10951">
        <ele>153.199997</ele>
        <time>2017-12-17T09:00:48Z</time>
      </trkpt>
      <trkpt lat="48.96272" lon="1.10946">
        <ele>153.100006</ele>
        <time>2017-12-17T09:00:52Z</time>
      </trkpt>
      <trkpt lat="48.96263" lon="1.1095">
        <ele>153.199997</ele>
        <time>2017-12-17T09:00:55Z</time>
      </trkpt>
      <trkpt lat="48.96253" lon="1.10953">
        <ele>153.300003</ele>
        <time>2017-12-17T09:00:58Z</time>
      </trkpt>
      <trkpt lat="48.96243" lon="1.10958">
        <ele>153.300003</ele>
        <time>2017-12-17T09:01:01Z</time>
      </trkpt>
      <trkpt lat="48.96233" lon="1.10962">
        <ele>153.399994</ele>
        <time>2017-12-17T09:01:04Z</time>
      </trkpt>
      <trkpt lat="48.96222" lon="1.10967">
        <ele>153.399994</ele>
        <time>2017-12-17T09:01:07Z</time>
      </trkpt>
      <trkpt lat="48.96213" lon="1.10972">
        <ele>153.5</ele>
        <time>2017-12-17T09:01:10Z</time>
      </trkpt>
      <trkpt lat="48.96202" lon="1.10979">
        <ele>153.600006</ele>
        <time>2017-12-17T09:01:13Z</time>
      </trkpt>
      <trkpt lat="48.96192" lon="1.10986">
        <ele>153.699997</ele>
        <time>2017-12-17T09:01:16Z</time>
      </trkpt>
      <trkpt lat="48.96182" lon="1.10994">
        <ele>153.899994</ele>
        <time>2017-12-17T09:01:19Z</time>
      </trkpt>
      <trkpt lat="48.96172" lon="1.11002">
        <ele>153.899994</ele>
        <time>2017-12-17T09:01:22Z</time>
      </trkpt>
      <trkpt lat="48.96161" lon="1.1101">
        <ele>154</ele>
        <time>2017-12-17T09:01:25Z</time>
      </trkpt>
      <trkpt lat="48.96149" lon="1.11018">
        <ele>154.100006</ele>
        <time>2017-12-17T09:01:28Z</time>
      </trkpt>
      <trkpt lat="48.96137" lon="1.11024">
        <ele>153.699997</ele>
        <time>2017-12-17T09:01:31Z</time>
      </trkpt>
      <trkpt lat="48.96125" lon="1.11031">
        <ele>153.600006</ele>
        <time>2017-12-17T09:01:34Z</time>
      </trkpt>
      <trkpt lat="48.96116" lon="1.11036">
        <ele>153.600006</ele>
        <time>2017-12-17T09:01:36Z</time>
      </trkpt>
      <trkpt lat="48.96109" lon="1.11045">
        <ele>153.399994</ele>
        <time>2017-12-17T09:01:38Z</time>
      </trkpt>
      <trkpt lat="48.96102" lon="1.11054">
        <ele>153.399994</ele>
        <time>2017-12-17T09:01:40Z</time>
      </trkpt>
      <trkpt lat="48.96095" lon="1.11064">
        <ele>153.399994</ele>
        <time>2017-12-17T09:01:42Z</time>
      </trkpt>
      <trkpt lat="48.96088" lon="1.11075">
        <ele>153.199997</ele>
        <time>2017-12-17T09:01:44Z</time>
      </trkpt>
      <trkpt lat="48.96082" lon="1.11085">
        <ele>153</ele>
        <time>2017-12-17T09:01:46Z</time>
      </trkpt>
      <trkpt lat="48.96075" lon="1.11096">
        <ele>153</ele>
        <time>2017-12-17T09:01:48Z</time>
      </trkpt>
      <trkpt lat="48.96068" lon="1.11107">
        <ele>153</ele>
        <time>2017-12-17T09:01:50Z</time>
      </trkpt>
      <trkpt lat="48.96062" lon="1.11116">
        <ele>152.800003</ele>
        <time>2017-12-17T09:01:52Z</time>
      </trkpt>
      <trkpt lat="48.96052" lon="1.11121">
        <ele>152.800003</ele>
        <time>2017-12-17T09:01:55Z</time>
      </trkpt>
      <trkpt lat="48.96046" lon="1.11106">
        <ele>152.699997</ele>
        <time>2017-12-17T09:01:59Z</time>
      </trkpt>
      <trkpt lat="48.96042" lon="1.1109">
        <ele>152.600006</ele>
        <time>2017-12-17T09:02:02Z</time>
      </trkpt>
      <trkpt lat="48.96035" lon="1.11075">
        <ele>152.399994</ele>
        <time>2017-12-17T09:02:05Z</time>
      </trkpt>
      <trkpt lat="48.96024" lon="1.11065">
        <ele>152.5</ele>
        <time>2017-12-17T09:02:08Z</time>
      </trkpt>
      <trkpt lat="48.96014" lon="1.11057">
        <ele>152.5</ele>
        <time>2017-12-17T09:02:11Z</time>
      </trkpt>
      <trkpt lat="48.96004" lon="1.11047">
        <ele>153</ele>
        <time>2017-12-17T09:02:14Z</time>
      </trkpt>
      <trkpt lat="48.95994" lon="1.11038">
        <ele>153.300003</ele>
        <time>2017-12-17T09:02:17Z</time>
      </trkpt>
      <trkpt lat="48.95985" lon="1.11028">
        <ele>153.699997</ele>
        <time>2017-12-17T09:02:20Z</time>
      </trkpt>
      <trkpt lat="48.95976" lon="1.1102">
        <ele>153.800003</ele>
        <time>2017-12-17T09:02:23Z</time>
      </trkpt>
      <trkpt lat="48.95965" lon="1.1101">
        <ele>154.199997</ele>
        <time>2017-12-17T09:02:26Z</time>
      </trkpt>
      <trkpt lat="48.95956" lon="1.11001">
        <ele>154.399994</ele>
        <time>2017-12-17T09:02:29Z</time>
      </trkpt>
      <trkpt lat="48.95946" lon="1.10993">
        <ele>154.5</ele>
        <time>2017-12-17T09:02:32Z</time>
      </trkpt>
      <trkpt lat="48.95937" lon="1.10984">
        <ele>155.100006</ele>
        <time>2017-12-17T09:02:35Z</time>
      </trkpt>
      <trkpt lat="48.95927" lon="1.10975">
        <ele>155.399994</ele>
        <time>2017-12-17T09:02:38Z</time>
      </trkpt>
      <trkpt lat="48.95917" lon="1.10966">
        <ele>155.399994</ele>
        <time>2017-12-17T09:02:41Z</time>
      </trkpt>
      <trkpt lat="48.95907" lon="1.10957">
        <ele>155.199997</ele>
        <time>2017-12-17T09:02:44Z</time>
      </trkpt>
      <trkpt lat="48.95897" lon="1.10948">
        <ele>155.600006</ele>
        <time>2017-12-17T09:02:47Z</time>
      </trkpt>
      <trkpt lat="48.95888" lon="1.1094">
        <ele>155.899994</ele>
        <time>2017-12-17T09:02:50Z</time>
      </trkpt>
      <trkpt lat="48.95879" lon="1.10932">
        <ele>156.300003</ele>
        <time>2017-12-17T09:02:53Z</time>
      </trkpt>
      <trkpt lat="48.9587" lon="1.10924">
        <ele>156.5</ele>
        <time>2017-12-17T09:02:56Z</time>
      </trkpt>
      <trkpt lat="48.9586" lon="1.10914">
        <ele>157</ele>
        <time>2017-12-17T09:02:59Z</time>
      </trkpt>
      <trkpt lat="48.95851" lon="1.10905">
        <ele>157.300003</ele>
        <time>2017-12-17T09:03:02Z</time>
      </trkpt>
      <trkpt lat="48.9584" lon="1.10895">
        <ele>157.899994</ele>
        <time>2017-12-17T09:03:05Z</time>
      </trkpt>
      <trkpt lat="48.95831" lon="1.10887">
        <ele>157.899994</ele>
        <time>2017-12-17T09:03:08Z</time>
      </trkpt>
      <trkpt lat="48.95822" lon="1.10878">
        <ele>158.300003</ele>
        <time>2017-12-17T09:03:11Z</time>
      </trkpt>
      <trkpt lat="48.95813" lon="1.10869">
        <ele>158.600006</ele>
        <time>2017-12-17T09:03:14Z</time>
      </trkpt>
      <trkpt lat="48.95803" lon="1.10861">
        <ele>158.800003</ele>
        <time>2017-12-17T09:03:17Z</time>
      </trkpt>
      <trkpt lat="48.95794" lon="1.10853">
        <ele>159.199997</ele>
        <time>2017-12-17T09:03:20Z</time>
      </trkpt>
      <trkpt lat="48.95785" lon="1.10844">
        <ele>159.600006</ele>
        <time>2017-12-17T09:03:23Z</time>
      </trkpt>
      <trkpt lat="48.95775" lon="1.10833">
        <ele>160</ele>
        <time>2017-12-17T09:03:26Z</time>
      </trkpt>
      <trkpt lat="48.95765" lon="1.10824">
        <ele>160.5</ele>
        <time>2017-12-17T09:03:29Z</time>
      </trkpt>
      <trkpt lat="48.95756" lon="1.10815">
        <ele>161.199997</ele>
        <time>2017-12-17T09:03:32Z</time>
      </trkpt>
      <trkpt lat="48.95747" lon="1.10807">
        <ele>161.399994</ele>
        <time>2017-12-17T09:03:35Z</time>
      </trkpt>
      <trkpt lat="48.95738" lon="1.10798">
        <ele>161.699997</ele>
        <time>2017-12-17T09:03:38Z</time>
      </trkpt>
      <trkpt lat="48.95728" lon="1.1079">
        <ele>162.100006</ele>
        <time>2017-12-17T09:03:41Z</time>
      </trkpt>
      <trkpt lat="48.95719" lon="1.10782">
        <ele>162.800003</ele>
        <time>2017-12-17T09:03:44Z</time>
      </trkpt>
      <trkpt lat="48.9571" lon="1.10774">
        <ele>163.199997</ele>
        <time>2017-12-17T09:03:47Z</time>
      </trkpt>
      <trkpt lat="48.95702" lon="1.10767">
        <ele>163.600006</ele>
        <time>2017-12-17T09:03:50Z</time>
      </trkpt>
      <trkpt lat="48.95693" lon="1.10757">
        <ele>164</ele>
        <time>2017-12-17T09:03:53Z</time>
      </trkpt>
      <trkpt lat="48.95682" lon="1.1075">
        <ele>164.600006</ele>
        <time>2017-12-17T09:03:56Z</time>
      </trkpt>
      <trkpt lat="48.95674" lon="1.10742">
        <ele>165</ele>
        <time>2017-12-17T09:03:59Z</time>
      </trkpt>
      <trkpt lat="48.95664" lon="1.10734">
        <ele>165.100006</ele>
        <time>2017-12-17T09:04:02Z</time>
      </trkpt>
      <trkpt lat="48.95655" lon="1.10728">
        <ele>165.5</ele>
        <time>2017-12-17T09:04:05Z</time>
      </trkpt>
      <trkpt lat="48.95643" lon="1.10719">
        <ele>165.699997</ele>
        <time>2017-12-17T09:04:08Z</time>
      </trkpt>
      <trkpt lat="48.95634" lon="1.10712">
        <ele>165.899994</ele>
        <time>2017-12-17T09:04:11Z</time>
      </trkpt>
      <trkpt lat="48.95625" lon="1.10705">
        <ele>166.199997</ele>
        <time>2017-12-17T09:04:13Z</time>
      </trkpt>
      <trkpt lat="48.95615" lon="1.10698">
        <ele>166.800003</ele>
        <time>2017-12-17T09:04:16Z</time>
      </trkpt>
      <trkpt lat="48.95604" lon="1.10691">
        <ele>166.899994</ele>
        <time>2017-12-17T09:04:19Z</time>
      </trkpt>
      <trkpt lat="48.95593" lon="1.10683">
        <ele>167.199997</ele>
        <time>2017-12-17T09:04:22Z</time>
      </trkpt>
      <trkpt lat="48.95582" lon="1.10677">
        <ele>167.300003</ele>
        <time>2017-12-17T09:04:25Z</time>
      </trkpt>
      <trkpt lat="48.95571" lon="1.10671">
        <ele>167.5</ele>
        <time>2017-12-17T09:04:28Z</time>
      </trkpt>
      <trkpt lat="48.95562" lon="1.10666">
        <ele>167.399994</ele>
        <time>2017-12-17T09:04:32Z</time>
      </trkpt>
      <trkpt lat="48.95563" lon="1.10651">
        <ele>167.100006</ele>
        <time>2017-12-17T09:04:40Z</time>
      </trkpt>
      <trkpt lat="48.95567" lon="1.10637">
        <ele>167.199997</ele>
        <time>2017-12-17T09:04:48Z</time>
      </trkpt>
      <trkpt lat="48.95575" lon="1.10627">
        <ele>167.100006</ele>
        <time>2017-12-17T09:04:53Z</time>
      </trkpt>
      <trkpt lat="48.95583" lon="1.10614">
        <ele>166.899994</ele>
        <time>2017-12-17T09:04:57Z</time>
      </trkpt>
      <trkpt lat="48.95591" lon="1.10603">
        <ele>166.800003</ele>
        <time>2017-12-17T09:05:00Z</time>
      </trkpt>
      <trkpt lat="48.956" lon="1.10592">
        <ele>166.699997</ele>
        <time>2017-12-17T09:05:03Z</time>
      </trkpt>
      <trkpt lat="48.95607" lon="1.10581">
        <ele>166.699997</ele>
        <time>2017-12-17T09:05:06Z</time>
      </trkpt>
      <trkpt lat="48.95615" lon="1.10574">
        <ele>166.600006</ele>
        <time>2017-12-17T09:05:08Z</time>
      </trkpt>
      <trkpt lat="48.95624" lon="1.10564">
        <ele>165.899994</ele>
        <time>2017-12-17T09:05:11Z</time>
      </trkpt>
      <trkpt lat="48.95632" lon="1.10554">
        <ele>166</ele>
        <time>2017-12-17T09:05:14Z</time>
      </trkpt>
      <trkpt lat="48.95641" lon="1.1054">
        <ele>165.899994</ele>
        <time>2017-12-17T09:05:18Z</time>
      </trkpt>
      <trkpt lat="48.95648" lon="1.1053">
        <ele>165.800003</ele>
        <time>2017-12-17T09:05:21Z</time>
      </trkpt>
      <trkpt lat="48.95655" lon="1.10519">
        <ele>165.600006</ele>
        <time>2017-12-17T09:05:24Z</time>
      </trkpt>
      <trkpt lat="48.95665" lon="1.10508">
        <ele>165.5</ele>
        <time>2017-12-17T09:05:27Z</time>
      </trkpt>
      <trkpt lat="48.95673" lon="1.10499">
        <ele>165.399994</ele>
        <time>2017-12-17T09:05:30Z</time>
      </trkpt>
      <trkpt lat="48.95682" lon="1.10488">
        <ele>165.5</ele>
        <time>2017-12-17T09:05:33Z</time>
      </trkpt>
      <trkpt lat="48.9569" lon="1.10476">
        <ele>165.5</ele>
        <time>2017-12-17T09:05:36Z</time>
      </trkpt>
      <trkpt lat="48.95698" lon="1.10465">
        <ele>165.800003</ele>
        <time>2017-12-17T09:05:39Z</time>
      </trkpt>
      <trkpt lat="48.95708" lon="1.10453">
        <ele>165.600006</ele>
        <time>2017-12-17T09:05:42Z</time>
      </trkpt>
      <trkpt lat="48.95717" lon="1.1044">
        <ele>165.199997</ele>
        <time>2017-12-17T09:05:45Z</time>
      </trkpt>
      <trkpt lat="48.95725" lon="1.1043">
        <ele>165.300003</ele>
        <time>2017-12-17T09:05:47Z</time>
      </trkpt>
      <trkpt lat="48.95732" lon="1.10419">
        <ele>165.100006</ele>
        <time>2017-12-17T09:05:49Z</time>
      </trkpt>
      <trkpt lat="48.95739" lon="1.10408">
        <ele>164.899994</ele>
        <time>2017-12-17T09:05:51Z</time>
      </trkpt>
      <trkpt lat="48.95747" lon="1.10398">
        <ele>164.800003</ele>
        <time>2017-12-17T09:05:53Z</time>
      </trkpt>
      <trkpt lat="48.95757" lon="1.10386">
        <ele>164.399994</ele>
        <time>2017-12-17T09:05:56Z</time>
      </trkpt>
      <trkpt lat="48.95766" lon="1.10375">
        <ele>164.5</ele>
        <time>2017-12-17T09:05:59Z</time>
      </trkpt>
      <trkpt lat="48.95773" lon="1.10368">
        <ele>164.399994</ele>
        <time>2017-12-17T09:06:01Z</time>
      </trkpt>
      <trkpt lat="48.95784" lon="1.10355">
        <ele>164.5</ele>
        <time>2017-12-17T09:06:04Z</time>
      </trkpt>
      <trkpt lat="48.95791" lon="1.10346">
        <ele>164.399994</ele>
        <time>2017-12-17T09:06:06Z</time>
      </trkpt>
      <trkpt lat="48.958" lon="1.10332">
        <ele>164.199997</ele>
        <time>2017-12-17T09:06:09Z</time>
      </trkpt>
      <trkpt lat="48.9581" lon="1.10318">
        <ele>164.199997</ele>
        <time>2017-12-17T09:06:12Z</time>
      </trkpt>
      <trkpt lat="48.95819" lon="1.10307">
        <ele>164</ele>
        <time>2017-12-17T09:06:15Z</time>
      </trkpt>
      <trkpt lat="48.95829" lon="1.10294">
        <ele>163.899994</ele>
        <time>2017-12-17T09:06:18Z</time>
      </trkpt>
      <trkpt lat="48.95837" lon="1.10282">
        <ele>163.600006</ele>
        <time>2017-12-17T09:06:21Z</time>
      </trkpt>
      <trkpt lat="48.95843" lon="1.10268">
        <ele>163.5</ele>
        <time>2017-12-17T09:06:24Z</time>
      </trkpt>
      <trkpt lat="48.9585" lon="1.10256">
        <ele>163.399994</ele>
        <time>2017-12-17T09:06:27Z</time>
      </trkpt>
      <trkpt lat="48.95859" lon="1.10251">
        <ele>163.5</ele>
        <time>2017-12-17T09:06:29Z</time>
      </trkpt>
      <trkpt lat="48.95868" lon="1.10241">
        <ele>163.300003</ele>
        <time>2017-12-17T09:06:32Z</time>
      </trkpt>
      <trkpt lat="48.95878" lon="1.10238">
        <ele>162.800003</ele>
        <time>2017-12-17T09:06:41Z</time>
      </trkpt>
      <trkpt lat="48.95885" lon="1.10247">
        <ele>162.899994</ele>
        <time>2017-12-17T09:06:44Z</time>
      </trkpt>
      <trkpt lat="48.95891" lon="1.10258">
        <ele>162.699997</ele>
        <time>2017-12-17T09:06:47Z</time>
      </trkpt>
      <trkpt lat="48.95899" lon="1.10272">
        <ele>162.199997</ele>
        <time>2017-12-17T09:06:50Z</time>
      </trkpt>
      <trkpt lat="48.95907" lon="1.10284">
        <ele>162.100006</ele>
        <time>2017-12-17T09:06:53Z</time>
      </trkpt>
      <trkpt lat="48.95914" lon="1.10298">
        <ele>161.600006</ele>
        <time>2017-12-17T09:06:56Z</time>
      </trkpt>
      <trkpt lat="48.9592" lon="1.10308">
        <ele>161.100006</ele>
        <time>2017-12-17T09:06:58Z</time>
      </trkpt>
      <trkpt lat="48.95928" lon="1.10318">
        <ele>160.800003</ele>
        <time>2017-12-17T09:07:00Z</time>
      </trkpt>
      <trkpt lat="48.95936" lon="1.10333">
        <ele>160.300003</ele>
        <time>2017-12-17T09:07:03Z</time>
      </trkpt>
      <trkpt lat="48.95942" lon="1.10348">
        <ele>160.199997</ele>
        <time>2017-12-17T09:07:06Z</time>
      </trkpt>
      <trkpt lat="48.95938" lon="1.1036">
        <ele>159.800003</ele>
        <time>2017-12-17T09:07:10Z</time>
      </trkpt>
      <trkpt lat="48.95927" lon="1.10369">
        <ele>159.699997</ele>
        <time>2017-12-17T09:07:14Z</time>
      </trkpt>
      <trkpt lat="48.95918" lon="1.10376">
        <ele>159.800003</ele>
        <time>2017-12-17T09:07:17Z</time>
      </trkpt>
      <trkpt lat="48.95909" lon="1.10381">
        <ele>160.199997</ele>
        <time>2017-12-17T09:07:20Z</time>
      </trkpt>
      <trkpt lat="48.95898" lon="1.10387">
        <ele>160.699997</ele>
        <time>2017-12-17T09:07:23Z</time>
      </trkpt>
      <trkpt lat="48.95887" lon="1.10396">
        <ele>161.100006</ele>
        <time>2017-12-17T09:07:26Z</time>
      </trkpt>
      <trkpt lat="48.95873" lon="1.10401">
        <ele>161</ele>
        <time>2017-12-17T09:07:29Z</time>
      </trkpt>
      <trkpt lat="48.95864" lon="1.10405">
        <ele>161.199997</ele>
        <time>2017-12-17T09:07:31Z</time>
      </trkpt>
      <trkpt lat="48.95853" lon="1.10411">
        <ele>161.5</ele>
        <time>2017-12-17T09:07:34Z</time>
      </trkpt>
      <trkpt lat="48.95842" lon="1.10415">
        <ele>161.699997</ele>
        <time>2017-12-17T09:07:37Z</time>
      </trkpt>
      <trkpt lat="48.95831" lon="1.10423">
        <ele>161.899994</ele>
        <time>2017-12-17T09:07:40Z</time>
      </trkpt>
      <trkpt lat="48.9582" lon="1.1043">
        <ele>162.399994</ele>
        <time>2017-12-17T09:07:43Z</time>
      </trkpt>
      <trkpt lat="48.95811" lon="1.10434">
        <ele>162.699997</ele>
        <time>2017-12-17T09:07:45Z</time>
      </trkpt>
      <trkpt lat="48.95798" lon="1.10441">
        <ele>162.800003</ele>
        <time>2017-12-17T09:07:48Z</time>
      </trkpt>
      <trkpt lat="48.95786" lon="1.10448">
        <ele>163</ele>
        <time>2017-12-17T09:07:51Z</time>
      </trkpt>
      <trkpt lat="48.95775" lon="1.10455">
        <ele>163.5</ele>
        <time>2017-12-17T09:07:54Z</time>
      </trkpt>
      <trkpt lat="48.95765" lon="1.1046">
        <ele>163.600006</ele>
        <time>2017-12-17T09:07:57Z</time>
      </trkpt>
      <trkpt lat="48.95753" lon="1.10467">
        <ele>163.899994</ele>
        <time>2017-12-17T09:08:00Z</time>
      </trkpt>
      <trkpt lat="48.95741" lon="1.10472">
        <ele>164.199997</ele>
        <time>2017-12-17T09:08:03Z</time>
      </trkpt>
      <trkpt lat="48.95729" lon="1.10481">
        <ele>164.399994</ele>
        <time>2017-12-17T09:08:06Z</time>
      </trkpt>
      <trkpt lat="48.9572" lon="1.10485">
        <ele>164.699997</ele>
        <time>2017-12-17T09:08:08Z</time>
      </trkpt>
      <trkpt lat="48.95711" lon="1.10489">
        <ele>164.699997</ele>
        <time>2017-12-17T09:08:10Z</time>
      </trkpt>
      <trkpt lat="48.95703" lon="1.10494">
        <ele>165</ele>
        <time>2017-12-17T09:08:12Z</time>
      </trkpt>
      <trkpt lat="48.95691" lon="1.10502">
        <ele>165.199997</ele>
        <time>2017-12-17T09:08:15Z</time>
      </trkpt>
      <trkpt lat="48.95679" lon="1.10509">
        <ele>165.5</ele>
        <time>2017-12-17T09:08:18Z</time>
      </trkpt>
      <trkpt lat="48.95668" lon="1.10515">
        <ele>165.600006</ele>
        <time>2017-12-17T09:08:21Z</time>
      </trkpt>
      <trkpt lat="48.95655" lon="1.10523">
        <ele>165.600006</ele>
        <time>2017-12-17T09:08:24Z</time>
      </trkpt>
      <trkpt lat="48.95643" lon="1.1053">
        <ele>165.600006</ele>
        <time>2017-12-17T09:08:27Z</time>
      </trkpt>
      <trkpt lat="48.95631" lon="1.10536">
        <ele>165.699997</ele>
        <time>2017-12-17T09:08:30Z</time>
      </trkpt>
      <trkpt lat="48.95623" lon="1.10542">
        <ele>165.699997</ele>
        <time>2017-12-17T09:08:32Z</time>
      </trkpt>
      <trkpt lat="48.95614" lon="1.10548">
        <ele>165.699997</ele>
        <time>2017-12-17T09:08:34Z</time>
      </trkpt>
      <trkpt lat="48.95604" lon="1.10551">
        <ele>165.800003</ele>
        <time>2017-12-17T09:08:36Z</time>
      </trkpt>
      <trkpt lat="48.95596" lon="1.10556">
        <ele>166.100006</ele>
        <time>2017-12-17T09:08:38Z</time>
      </trkpt>
      <trkpt lat="48.95587" lon="1.10562">
        <ele>166</ele>
        <time>2017-12-17T09:08:40Z</time>
      </trkpt>
      <trkpt lat="48.95578" lon="1.10567">
        <ele>166</ele>
        <time>2017-12-17T09:08:42Z</time>
      </trkpt>
      <trkpt lat="48.95565" lon="1.10574">
        <ele>166.5</ele>
        <time>2017-12-17T09:08:45Z</time>
      </trkpt>
      <trkpt lat="48.95556" lon="1.10579">
        <ele>166.5</ele>
        <time>2017-12-17T09:08:47Z</time>
      </trkpt>
      <trkpt lat="48.95547" lon="1.10585">
        <ele>166.699997</ele>
        <time>2017-12-17T09:08:49Z</time>
      </trkpt>
      <trkpt lat="48.95537" lon="1.1059">
        <ele>166.800003</ele>
        <time>2017-12-17T09:08:51Z</time>
      </trkpt>
      <trkpt lat="48.95525" lon="1.10598">
        <ele>166.800003</ele>
        <time>2017-12-17T09:08:54Z</time>
      </trkpt>
      <trkpt lat="48.95516" lon="1.10603">
        <ele>166.800003</ele>
        <time>2017-12-17T09:08:56Z</time>
      </trkpt>
      <trkpt lat="48.95504" lon="1.10609">
        <ele>167</ele>
        <time>2017-12-17T09:08:59Z</time>
      </trkpt>
      <trkpt lat="48.95493" lon="1.10616">
        <ele>167</ele>
        <time>2017-12-17T09:09:02Z</time>
      </trkpt>
      <trkpt lat="48.95483" lon="1.10622">
        <ele>167.199997</ele>
        <time>2017-12-17T09:09:05Z</time>
      </trkpt>
      <trkpt lat="48.95474" lon="1.10624">
        <ele>167</ele>
        <time>2017-12-17T09:09:09Z</time>
      </trkpt>
      <trkpt lat="48.95465" lon="1.1062">
        <ele>167</ele>
        <time>2017-12-17T09:10:07Z</time>
      </trkpt>
      <trkpt lat="48.95454" lon="1.10617">
        <ele>166.899994</ele>
        <time>2017-12-17T09:10:12Z</time>
      </trkpt>
      <trkpt lat="48.95445" lon="1.10614">
        <ele>167</ele>
        <time>2017-12-17T09:10:15Z</time>
      </trkpt>
      <trkpt lat="48.95434" lon="1.10611">
        <ele>166.899994</ele>
        <time>2017-12-17T09:10:18Z</time>
      </trkpt>
      <trkpt lat="48.95424" lon="1.10608">
        <ele>166.399994</ele>
        <time>2017-12-17T09:10:21Z</time>
      </trkpt>
      <trkpt lat="48.95411" lon="1.10604">
        <ele>166.199997</ele>
        <time>2017-12-17T09:10:24Z</time>
      </trkpt>
      <trkpt lat="48.95402" lon="1.10602">
        <ele>166.300003</ele>
        <time>2017-12-17T09:10:26Z</time>
      </trkpt>
      <trkpt lat="48.95389" lon="1.10598">
        <ele>166.199997</ele>
        <time>2017-12-17T09:10:29Z</time>
      </trkpt>
      <trkpt lat="48.9538" lon="1.10595">
        <ele>166.100006</ele>
        <time>2017-12-17T09:10:31Z</time>
      </trkpt>
      <trkpt lat="48.9537" lon="1.10592">
        <ele>165.699997</ele>
        <time>2017-12-17T09:10:33Z</time>
      </trkpt>
      <trkpt lat="48.95361" lon="1.10589">
        <ele>165.699997</ele>
        <time>2017-12-17T09:10:35Z</time>
      </trkpt>
      <trkpt lat="48.95351" lon="1.10586">
        <ele>165.5</ele>
        <time>2017-12-17T09:10:37Z</time>
      </trkpt>
      <trkpt lat="48.95341" lon="1.10583">
        <ele>165.399994</ele>
        <time>2017-12-17T09:10:39Z</time>
      </trkpt>
      <trkpt lat="48.95331" lon="1.10581">
        <ele>165.300003</ele>
        <time>2017-12-17T09:10:41Z</time>
      </trkpt>
      <trkpt lat="48.95321" lon="1.10579">
        <ele>165.199997</ele>
        <time>2017-12-17T09:10:43Z</time>
      </trkpt>
      <trkpt lat="48.95311" lon="1.10576">
        <ele>165.100006</ele>
        <time>2017-12-17T09:10:45Z</time>
      </trkpt>
      <trkpt lat="48.95301" lon="1.10573">
        <ele>165</ele>
        <time>2017-12-17T09:10:47Z</time>
      </trkpt>
      <trkpt lat="48.95291" lon="1.1057">
        <ele>164.600006</ele>
        <time>2017-12-17T09:10:49Z</time>
      </trkpt>
      <trkpt lat="48.9528" lon="1.10567">
        <ele>164.300003</ele>
        <time>2017-12-17T09:10:51Z</time>
      </trkpt>
      <trkpt lat="48.95269" lon="1.10564">
        <ele>164.199997</ele>
        <time>2017-12-17T09:10:53Z</time>
      </trkpt>
      <trkpt lat="48.95258" lon="1.10561">
        <ele>163.800003</ele>
        <time>2017-12-17T09:10:55Z</time>
      </trkpt>
      <trkpt lat="48.95247" lon="1.10557">
        <ele>163.699997</ele>
        <time>2017-12-17T09:10:57Z</time>
      </trkpt>
      <trkpt lat="48.95236" lon="1.10554">
        <ele>163.399994</ele>
        <time>2017-12-17T09:10:59Z</time>
      </trkpt>
      <trkpt lat="48.95225" lon="1.10551">
        <ele>163.100006</ele>
        <time>2017-12-17T09:11:01Z</time>
      </trkpt>
      <trkpt lat="48.95214" lon="1.10547">
        <ele>162.699997</ele>
        <time>2017-12-17T09:11:03Z</time>
      </trkpt>
      <trkpt lat="48.95202" lon="1.10542">
        <ele>162.100006</ele>
        <time>2017-12-17T09:11:05Z</time>
      </trkpt>
      <trkpt lat="48.95191" lon="1.10537">
        <ele>161.899994</ele>
        <time>2017-12-17T09:11:07Z</time>
      </trkpt>
      <trkpt lat="48.95179" lon="1.10532">
        <ele>161.600006</ele>
        <time>2017-12-17T09:11:09Z</time>
      </trkpt>
      <trkpt lat="48.95168" lon="1.10528">
        <ele>161.5</ele>
        <time>2017-12-17T09:11:11Z</time>
      </trkpt>
      <trkpt lat="48.95156" lon="1.10521">
        <ele>161.300003</ele>
        <time>2017-12-17T09:11:13Z</time>
      </trkpt>
      <trkpt lat="48.95144" lon="1.10514">
        <ele>160.899994</ele>
        <time>2017-12-17T09:11:15Z</time>
      </trkpt>
      <trkpt lat="48.95132" lon="1.10508">
        <ele>160.399994</ele>
        <time>2017-12-17T09:11:17Z</time>
      </trkpt>
      <trkpt lat="48.9512" lon="1.10501">
        <ele>159.600006</ele>
        <time>2017-12-17T09:11:19Z</time>
      </trkpt>
      <trkpt lat="48.95107" lon="1.10493">
        <ele>158.699997</ele>
        <time>2017-12-17T09:11:21Z</time>
      </trkpt>
      <trkpt lat="48.95095" lon="1.10486">
        <ele>158.5</ele>
        <time>2017-12-17T09:11:23Z</time>
      </trkpt>
      <trkpt lat="48.95084" lon="1.1048">
        <ele>157.800003</ele>
        <time>2017-12-17T09:11:25Z</time>
      </trkpt>
      <trkpt lat="48.95073" lon="1.10473">
        <ele>157.399994</ele>
        <time>2017-12-17T09:11:27Z</time>
      </trkpt>
      <trkpt lat="48.95063" lon="1.10466">
        <ele>157.100006</ele>
        <time>2017-12-17T09:11:29Z</time>
      </trkpt>
      <trkpt lat="48.95052" lon="1.10461">
        <ele>157.100006</ele>
        <time>2017-12-17T09:11:31Z</time>
      </trkpt>
      <trkpt lat="48.95041" lon="1.10454">
        <ele>156.800003</ele>
        <time>2017-12-17T09:11:33Z</time>
      </trkpt>
      <trkpt lat="48.9503" lon="1.10447">
        <ele>156.5</ele>
        <time>2017-12-17T09:11:35Z</time>
      </trkpt>
      <trkpt lat="48.95019" lon="1.10442">
        <ele>155.899994</ele>
        <time>2017-12-17T09:11:37Z</time>
      </trkpt>
      <trkpt lat="48.95007" lon="1.10437">
        <ele>155.600006</ele>
        <time>2017-12-17T09:11:39Z</time>
      </trkpt>
      <trkpt lat="48.94995" lon="1.10432">
        <ele>155.100006</ele>
        <time>2017-12-17T09:11:41Z</time>
      </trkpt>
      <trkpt lat="48.94984" lon="1.10428">
        <ele>154.699997</ele>
        <time>2017-12-17T09:11:43Z</time>
      </trkpt>
      <trkpt lat="48.94973" lon="1.10425">
        <ele>154.600006</ele>
        <time>2017-12-17T09:11:45Z</time>
      </trkpt>
      <trkpt lat="48.94962" lon="1.10421">
        <ele>154.399994</ele>
        <time>2017-12-17T09:11:47Z</time>
      </trkpt>
      <trkpt lat="48.94949" lon="1.10418">
        <ele>153.899994</ele>
        <time>2017-12-17T09:11:49Z</time>
      </trkpt>
      <trkpt lat="48.94937" lon="1.10416">
        <ele>153.399994</ele>
        <time>2017-12-17T09:11:51Z</time>
      </trkpt>
      <trkpt lat="48.94925" lon="1.10414">
        <ele>153.100006</ele>
        <time>2017-12-17T09:11:53Z</time>
      </trkpt>
      <trkpt lat="48.94913" lon="1.10413">
        <ele>153.300003</ele>
        <time>2017-12-17T09:11:55Z</time>
      </trkpt>
      <trkpt lat="48.94903" lon="1.10411">
        <ele>153.100006</ele>
        <time>2017-12-17T09:11:57Z</time>
      </trkpt>
      <trkpt lat="48.94894" lon="1.10404">
        <ele>152.699997</ele>
        <time>2017-12-17T09:12:00Z</time>
      </trkpt>
      <trkpt lat="48.94889" lon="1.10385">
        <ele>152.399994</ele>
        <time>2017-12-17T09:12:03Z</time>
      </trkpt>
      <trkpt lat="48.94885" lon="1.10372">
        <ele>152.300003</ele>
        <time>2017-12-17T09:12:05Z</time>
      </trkpt>
      <trkpt lat="48.94882" lon="1.10358">
        <ele>152</ele>
        <time>2017-12-17T09:12:07Z</time>
      </trkpt>
      <trkpt lat="48.94878" lon="1.10345">
        <ele>152</ele>
        <time>2017-12-17T09:12:09Z</time>
      </trkpt>
      <trkpt lat="48.94873" lon="1.10327">
        <ele>151.899994</ele>
        <time>2017-12-17T09:12:12Z</time>
      </trkpt>
      <trkpt lat="48.94871" lon="1.10313">
        <ele>151.199997</ele>
        <time>2017-12-17T09:12:14Z</time>
      </trkpt>
      <trkpt lat="48.94866" lon="1.10299">
        <ele>151.300003</ele>
        <time>2017-12-17T09:12:16Z</time>
      </trkpt>
      <trkpt lat="48.94862" lon="1.10284">
        <ele>151.399994</ele>
        <time>2017-12-17T09:12:18Z</time>
      </trkpt>
      <trkpt lat="48.94859" lon="1.1027">
        <ele>151.300003</ele>
        <time>2017-12-17T09:12:20Z</time>
      </trkpt>
      <trkpt lat="48.94855" lon="1.10252">
        <ele>151</ele>
        <time>2017-12-17T09:12:23Z</time>
      </trkpt>
      <trkpt lat="48.94851" lon="1.10239">
        <ele>150.899994</ele>
        <time>2017-12-17T09:12:25Z</time>
      </trkpt>
      <trkpt lat="48.94848" lon="1.10226">
        <ele>150.800003</ele>
        <time>2017-12-17T09:12:27Z</time>
      </trkpt>
      <trkpt lat="48.94843" lon="1.10209">
        <ele>150.600006</ele>
        <time>2017-12-17T09:12:30Z</time>
      </trkpt>
      <trkpt lat="48.94839" lon="1.10193">
        <ele>150.399994</ele>
        <time>2017-12-17T09:12:33Z</time>
      </trkpt>
      <trkpt lat="48.94835" lon="1.1018">
        <ele>150.800003</ele>
        <time>2017-12-17T09:12:36Z</time>
      </trkpt>
      <trkpt lat="48.9483" lon="1.10166">
        <ele>150.600006</ele>
        <time>2017-12-17T09:12:39Z</time>
      </trkpt>
      <trkpt lat="48.94826" lon="1.10154">
        <ele>150.899994</ele>
        <time>2017-12-17T09:12:42Z</time>
      </trkpt>
      <trkpt lat="48.9482" lon="1.1014">
        <ele>151.199997</ele>
        <time>2017-12-17T09:12:47Z</time>
      </trkpt>
      <trkpt lat="48.94811" lon="1.10135">
        <ele>151.600006</ele>
        <time>2017-12-17T09:12:52Z</time>
      </trkpt>
      <trkpt lat="48.94801" lon="1.10137">
        <ele>151.899994</ele>
        <time>2017-12-17T09:12:57Z</time>
      </trkpt>
      <trkpt lat="48.94792" lon="1.10144">
        <ele>151.699997</ele>
        <time>2017-12-17T09:13:02Z</time>
      </trkpt>
      <trkpt lat="48.94781" lon="1.1015">
        <ele>151.300003</ele>
        <time>2017-12-17T09:13:05Z</time>
      </trkpt>
      <trkpt lat="48.94771" lon="1.10153">
        <ele>150.800003</ele>
        <time>2017-12-17T09:13:08Z</time>
      </trkpt>
      <trkpt lat="48.94759" lon="1.10159">
        <ele>150.399994</ele>
        <time>2017-12-17T09:13:11Z</time>
      </trkpt>
      <trkpt lat="48.9475" lon="1.10164">
        <ele>149.199997</ele>
        <time>2017-12-17T09:13:20Z</time>
      </trkpt>
      <trkpt lat="48.94743" lon="1.10155">
        <ele>149.100006</ele>
        <time>2017-12-17T09:13:29Z</time>
      </trkpt>
      <trkpt lat="48.94733" lon="1.10152">
        <ele>148.5</ele>
        <time>2017-12-17T09:13:37Z</time>
      </trkpt>
      <trkpt lat="48.94723" lon="1.1015">
        <ele>146.600006</ele>
        <time>2017-12-17T09:13:49Z</time>
      </trkpt>
      <trkpt lat="48.94716" lon="1.10158">
        <ele>145.699997</ele>
        <time>2017-12-17T09:13:57Z</time>
      </trkpt>
      <trkpt lat="48.94711" lon="1.10171">
        <ele>145.199997</ele>
        <time>2017-12-17T09:14:06Z</time>
      </trkpt>
      <trkpt lat="48.94708" lon="1.10184">
        <ele>146.5</ele>
        <time>2017-12-17T09:14:16Z</time>
      </trkpt>
      <trkpt lat="48.94699" lon="1.1019">
        <ele>146.899994</ele>
        <time>2017-12-17T09:15:01Z</time>
      </trkpt>
      <trkpt lat="48.9469" lon="1.10193">
        <ele>147.300003</ele>
        <time>2017-12-17T09:15:08Z</time>
      </trkpt>
      <trkpt lat="48.94681" lon="1.10185">
        <ele>148</ele>
        <time>2017-12-17T09:15:14Z</time>
      </trkpt>
      <trkpt lat="48.94673" lon="1.10173">
        <ele>148</ele>
        <time>2017-12-17T09:15:20Z</time>
      </trkpt>
      <trkpt lat="48.94666" lon="1.10163">
        <ele>148.199997</ele>
        <time>2017-12-17T09:15:25Z</time>
      </trkpt>
      <trkpt lat="48.94658" lon="1.10154">
        <ele>148.300003</ele>
        <time>2017-12-17T09:15:30Z</time>
      </trkpt>
      <trkpt lat="48.9465" lon="1.10147">
        <ele>148.399994</ele>
        <time>2017-12-17T09:15:49Z</time>
      </trkpt>
      <trkpt lat="48.94641" lon="1.10142">
        <ele>148.5</ele>
        <time>2017-12-17T09:15:59Z</time>
      </trkpt>
      <trkpt lat="48.94631" lon="1.10138">
        <ele>148.899994</ele>
        <time>2017-12-17T09:16:04Z</time>
      </trkpt>
      <trkpt lat="48.94622" lon="1.10132">
        <ele>149</ele>
        <time>2017-12-17T09:16:09Z</time>
      </trkpt>
      <trkpt lat="48.94615" lon="1.10125">
        <ele>149</ele>
        <time>2017-12-17T09:16:15Z</time>
      </trkpt>
      <trkpt lat="48.94617" lon="1.10112">
        <ele>149.199997</ele>
        <time>2017-12-17T09:16:24Z</time>
      </trkpt>
      <trkpt lat="48.94624" lon="1.101">
        <ele>149.100006</ele>
        <time>2017-12-17T09:16:28Z</time>
      </trkpt>
      <trkpt lat="48.94627" lon="1.10085">
        <ele>148.600006</ele>
        <time>2017-12-17T09:16:34Z</time>
      </trkpt>
      <trkpt lat="48.94628" lon="1.10068">
        <ele>148.399994</ele>
        <time>2017-12-17T09:16:38Z</time>
      </trkpt>
      <trkpt lat="48.94631" lon="1.10055">
        <ele>147.600006</ele>
        <time>2017-12-17T09:17:21Z</time>
      </trkpt>
      <trkpt lat="48.94631" lon="1.10039">
        <ele>147.100006</ele>
        <time>2017-12-17T09:17:27Z</time>
      </trkpt>
      <trkpt lat="48.9463" lon="1.10024">
        <ele>146.800003</ele>
        <time>2017-12-17T09:17:31Z</time>
      </trkpt>
      <trkpt lat="48.94631" lon="1.10009">
        <ele>146.399994</ele>
        <time>2017-12-17T09:17:35Z</time>
      </trkpt>
      <trkpt lat="48.9463" lon="1.09996">
        <ele>145.5</ele>
        <time>2017-12-17T09:17:40Z</time>
      </trkpt>
      <trkpt lat="48.94627" lon="1.09983">
        <ele>145.100006</ele>
        <time>2017-12-17T09:17:45Z</time>
      </trkpt>
      <trkpt lat="48.9462" lon="1.0997">
        <ele>144.800003</ele>
        <time>2017-12-17T09:17:52Z</time>
      </trkpt>
      <trkpt lat="48.94614" lon="1.0996">
        <ele>144.699997</ele>
        <time>2017-12-17T09:18:19Z</time>
      </trkpt>
      <trkpt lat="48.9461" lon="1.09973">
        <ele>145.899994</ele>
        <time>2017-12-17T09:18:53Z</time>
      </trkpt>
      <trkpt lat="48.94602" lon="1.0998">
        <ele>146.600006</ele>
        <time>2017-12-17T09:19:11Z</time>
      </trkpt>
      <trkpt lat="48.94601" lon="1.09995">
        <ele>147.199997</ele>
        <time>2017-12-17T09:19:21Z</time>
      </trkpt>
      <trkpt lat="48.94601" lon="1.10009">
        <ele>147.399994</ele>
        <time>2017-12-17T09:19:32Z</time>
      </trkpt>
      <trkpt lat="48.94592" lon="1.10015">
        <ele>148.100006</ele>
        <time>2017-12-17T09:19:41Z</time>
      </trkpt>
      <trkpt lat="48.94591" lon="1.1003">
        <ele>148.5</ele>
        <time>2017-12-17T09:19:49Z</time>
      </trkpt>
      <trkpt lat="48.94591" lon="1.10044">
        <ele>148.600006</ele>
        <time>2017-12-17T09:19:56Z</time>
      </trkpt>
      <trkpt lat="48.94594" lon="1.10058">
        <ele>148.699997</ele>
        <time>2017-12-17T09:20:07Z</time>
      </trkpt>
      <trkpt lat="48.94594" lon="1.10074">
        <ele>149</ele>
        <time>2017-12-17T09:20:12Z</time>
      </trkpt>
      <trkpt lat="48.94597" lon="1.1009">
        <ele>149.100006</ele>
        <time>2017-12-17T09:20:16Z</time>
      </trkpt>
      <trkpt lat="48.94602" lon="1.10103">
        <ele>149</ele>
        <time>2017-12-17T09:20:20Z</time>
      </trkpt>
      <trkpt lat="48.94607" lon="1.10115">
        <ele>149.100006</ele>
        <time>2017-12-17T09:20:24Z</time>
      </trkpt>
      <trkpt lat="48.94602" lon="1.10127">
        <ele>149.199997</ele>
        <time>2017-12-17T09:20:31Z</time>
      </trkpt>
      <trkpt lat="48.94593" lon="1.10128">
        <ele>149.399994</ele>
        <time>2017-12-17T09:20:37Z</time>
      </trkpt>
      <trkpt lat="48.94585" lon="1.1012">
        <ele>149.5</ele>
        <time>2017-12-17T09:20:45Z</time>
      </trkpt>
      <trkpt lat="48.9458" lon="1.10107">
        <ele>149.300003</ele>
        <time>2017-12-17T09:21:29Z</time>
      </trkpt>
      <trkpt lat="48.94575" lon="1.10095">
        <ele>149.300003</ele>
        <time>2017-12-17T09:21:32Z</time>
      </trkpt>
      <trkpt lat="48.94569" lon="1.10082">
        <ele>149.300003</ele>
        <time>2017-12-17T09:21:35Z</time>
      </trkpt>
      <trkpt lat="48.94561" lon="1.10068">
        <ele>149.399994</ele>
        <time>2017-12-17T09:21:38Z</time>
      </trkpt>
      <trkpt lat="48.94552" lon="1.10054">
        <ele>149.399994</ele>
        <time>2017-12-17T09:21:41Z</time>
      </trkpt>
      <trkpt lat="48.94546" lon="1.10044">
        <ele>149.300003</ele>
        <time>2017-12-17T09:21:43Z</time>
      </trkpt>
      <trkpt lat="48.94539" lon="1.10033">
        <ele>149.300003</ele>
        <time>2017-12-17T09:21:45Z</time>
      </trkpt>
      <trkpt lat="48.94533" lon="1.10022">
        <ele>149.199997</ele>
        <time>2017-12-17T09:21:47Z</time>
      </trkpt>
      <trkpt lat="48.94525" lon="1.1001">
        <ele>149</ele>
        <time>2017-12-17T09:21:49Z</time>
      </trkpt>
      <trkpt lat="48.94518" lon="1.09999">
        <ele>148.899994</ele>
        <time>2017-12-17T09:21:51Z</time>
      </trkpt>
      <trkpt lat="48.94511" lon="1.09986">
        <ele>148.800003</ele>
        <time>2017-12-17T09:21:53Z</time>
      </trkpt>
      <trkpt lat="48.94504" lon="1.09974">
        <ele>148.399994</ele>
        <time>2017-12-17T09:21:55Z</time>
      </trkpt>
      <trkpt lat="48.94496" lon="1.09962">
        <ele>148.199997</ele>
        <time>2017-12-17T09:21:57Z</time>
      </trkpt>
      <trkpt lat="48.94489" lon="1.09951">
        <ele>147.899994</ele>
        <time>2017-12-17T09:21:59Z</time>
      </trkpt>
      <trkpt lat="48.94482" lon="1.09939">
        <ele>147.699997</ele>
        <time>2017-12-17T09:22:01Z</time>
      </trkpt>
      <trkpt lat="48.94476" lon="1.09926">
        <ele>147.399994</ele>
        <time>2017-12-17T09:22:03Z</time>
      </trkpt>
      <trkpt lat="48.94471" lon="1.09911">
        <ele>147</ele>
        <time>2017-12-17T09:22:05Z</time>
      </trkpt>
      <trkpt lat="48.94467" lon="1.09894">
        <ele>146.699997</ele>
        <time>2017-12-17T09:22:07Z</time>
      </trkpt>
      <trkpt lat="48.94467" lon="1.09876">
        <ele>146.399994</ele>
        <time>2017-12-17T09:22:09Z</time>
      </trkpt>
      <trkpt lat="48.94468" lon="1.09857">
        <ele>145.899994</ele>
        <time>2017-12-17T09:22:11Z</time>
      </trkpt>
      <trkpt lat="48.9447" lon="1.09838">
        <ele>145.399994</ele>
        <time>2017-12-17T09:22:13Z</time>
      </trkpt>
      <trkpt lat="48.94473" lon="1.09819">
        <ele>144.800003</ele>
        <time>2017-12-17T09:22:15Z</time>
      </trkpt>
      <trkpt lat="48.94475" lon="1.09799">
        <ele>144.199997</ele>
        <time>2017-12-17T09:22:17Z</time>
      </trkpt>
      <trkpt lat="48.94476" lon="1.09778">
        <ele>143.699997</ele>
        <time>2017-12-17T09:22:19Z</time>
      </trkpt>
      <trkpt lat="48.94478" lon="1.09757">
        <ele>142.899994</ele>
        <time>2017-12-17T09:22:21Z</time>
      </trkpt>
      <trkpt lat="48.94481" lon="1.09734">
        <ele>142.100006</ele>
        <time>2017-12-17T09:22:23Z</time>
      </trkpt>
      <trkpt lat="48.94483" lon="1.09712">
        <ele>141.100006</ele>
        <time>2017-12-17T09:22:25Z</time>
      </trkpt>
      <trkpt lat="48.94488" lon="1.0969">
        <ele>140.199997</ele>
        <time>2017-12-17T09:22:27Z</time>
      </trkpt>
      <trkpt lat="48.94494" lon="1.0967">
        <ele>139.5</ele>
        <time>2017-12-17T09:22:29Z</time>
      </trkpt>
      <trkpt lat="48.94504" lon="1.09655">
        <ele>139.100006</ele>
        <time>2017-12-17T09:22:31Z</time>
      </trkpt>
      <trkpt lat="48.94514" lon="1.09644">
        <ele>138.600006</ele>
        <time>2017-12-17T09:22:33Z</time>
      </trkpt>
      <trkpt lat="48.94525" lon="1.09636">
        <ele>138.5</ele>
        <time>2017-12-17T09:22:35Z</time>
      </trkpt>
      <trkpt lat="48.94536" lon="1.09628">
        <ele>138.399994</ele>
        <time>2017-12-17T09:22:37Z</time>
      </trkpt>
      <trkpt lat="48.94547" lon="1.09619">
        <ele>138.300003</ele>
        <time>2017-12-17T09:22:39Z</time>
      </trkpt>
      <trkpt lat="48.94557" lon="1.09611">
        <ele>138.300003</ele>
        <time>2017-12-17T09:22:41Z</time>
      </trkpt>
      <trkpt lat="48.94567" lon="1.09603">
        <ele>138.199997</ele>
        <time>2017-12-17T09:22:43Z</time>
      </trkpt>
      <trkpt lat="48.94577" lon="1.09594">
        <ele>138.300003</ele>
        <time>2017-12-17T09:22:45Z</time>
      </trkpt>
      <trkpt lat="48.94585" lon="1.09584">
        <ele>138.300003</ele>
        <time>2017-12-17T09:22:47Z</time>
      </trkpt>
      <trkpt lat="48.94593" lon="1.09573">
        <ele>138.300003</ele>
        <time>2017-12-17T09:22:49Z</time>
      </trkpt>
      <trkpt lat="48.946" lon="1.0956">
        <ele>138.399994</ele>
        <time>2017-12-17T09:22:51Z</time>
      </trkpt>
      <trkpt lat="48.94607" lon="1.09548">
        <ele>138.5</ele>
        <time>2017-12-17T09:22:53Z</time>
      </trkpt>
      <trkpt lat="48.94612" lon="1.09535">
        <ele>138.899994</ele>
        <time>2017-12-17T09:22:55Z</time>
      </trkpt>
      <trkpt lat="48.94618" lon="1.09522">
        <ele>139.199997</ele>
        <time>2017-12-17T09:22:57Z</time>
      </trkpt>
      <trkpt lat="48.94623" lon="1.09509">
        <ele>139.5</ele>
        <time>2017-12-17T09:22:59Z</time>
      </trkpt>
      <trkpt lat="48.94628" lon="1.09496">
        <ele>139.699997</ele>
        <time>2017-12-17T09:23:01Z</time>
      </trkpt>
      <trkpt lat="48.94632" lon="1.09483">
        <ele>140</ele>
        <time>2017-12-17T09:23:03Z</time>
      </trkpt>
      <trkpt lat="48.94638" lon="1.09465">
        <ele>140.300003</ele>
        <time>2017-12-17T09:23:06Z</time>
      </trkpt>
      <trkpt lat="48.94643" lon="1.09447">
        <ele>140.699997</ele>
        <time>2017-12-17T09:23:09Z</time>
      </trkpt>
      <trkpt lat="48.94645" lon="1.09434">
        <ele>140.699997</ele>
        <time>2017-12-17T09:23:11Z</time>
      </trkpt>
      <trkpt lat="48.9465" lon="1.09415">
        <ele>140.800003</ele>
        <time>2017-12-17T09:23:14Z</time>
      </trkpt>
      <trkpt lat="48.94654" lon="1.09396">
        <ele>140.5</ele>
        <time>2017-12-17T09:23:17Z</time>
      </trkpt>
      <trkpt lat="48.94657" lon="1.09382">
        <ele>140.399994</ele>
        <time>2017-12-17T09:23:19Z</time>
      </trkpt>
      <trkpt lat="48.94659" lon="1.09368">
        <ele>140.199997</ele>
        <time>2017-12-17T09:23:21Z</time>
      </trkpt>
      <trkpt lat="48.94662" lon="1.09354">
        <ele>140.199997</ele>
        <time>2017-12-17T09:23:23Z</time>
      </trkpt>
      <trkpt lat="48.94664" lon="1.0934">
        <ele>140.199997</ele>
        <time>2017-12-17T09:23:25Z</time>
      </trkpt>
      <trkpt lat="48.94667" lon="1.09325">
        <ele>140.300003</ele>
        <time>2017-12-17T09:23:27Z</time>
      </trkpt>
      <trkpt lat="48.94669" lon="1.09311">
        <ele>140.199997</ele>
        <time>2017-12-17T09:23:29Z</time>
      </trkpt>
      <trkpt lat="48.94671" lon="1.09297">
        <ele>140.199997</ele>
        <time>2017-12-17T09:23:31Z</time>
      </trkpt>
      <trkpt lat="48.94673" lon="1.09282">
        <ele>140.199997</ele>
        <time>2017-12-17T09:23:33Z</time>
      </trkpt>
      <trkpt lat="48.94675" lon="1.09268">
        <ele>140.199997</ele>
        <time>2017-12-17T09:23:35Z</time>
      </trkpt>
      <trkpt lat="48.94677" lon="1.09254">
        <ele>140.300003</ele>
        <time>2017-12-17T09:23:37Z</time>
      </trkpt>
      <trkpt lat="48.94679" lon="1.09239">
        <ele>140.300003</ele>
        <time>2017-12-17T09:23:39Z</time>
      </trkpt>
      <trkpt lat="48.94682" lon="1.09225">
        <ele>140.300003</ele>
        <time>2017-12-17T09:23:41Z</time>
      </trkpt>
      <trkpt lat="48.94684" lon="1.09211">
        <ele>140.5</ele>
        <time>2017-12-17T09:23:43Z</time>
      </trkpt>
      <trkpt lat="48.94686" lon="1.09197">
        <ele>140.600006</ele>
        <time>2017-12-17T09:23:45Z</time>
      </trkpt>
      <trkpt lat="48.94688" lon="1.09183">
        <ele>140.699997</ele>
        <time>2017-12-17T09:23:47Z</time>
      </trkpt>
      <trkpt lat="48.9469" lon="1.0917">
        <ele>140.899994</ele>
        <time>2017-12-17T09:23:49Z</time>
      </trkpt>
      <trkpt lat="48.94692" lon="1.09156">
        <ele>141</ele>
        <time>2017-12-17T09:23:51Z</time>
      </trkpt>
      <trkpt lat="48.94696" lon="1.09137">
        <ele>141.199997</ele>
        <time>2017-12-17T09:23:54Z</time>
      </trkpt>
      <trkpt lat="48.94698" lon="1.09117">
        <ele>141.300003</ele>
        <time>2017-12-17T09:23:57Z</time>
      </trkpt>
      <trkpt lat="48.94701" lon="1.09098">
        <ele>141.5</ele>
        <time>2017-12-17T09:24:00Z</time>
      </trkpt>
      <trkpt lat="48.94703" lon="1.09079">
        <ele>141.800003</ele>
        <time>2017-12-17T09:24:03Z</time>
      </trkpt>
      <trkpt lat="48.94704" lon="1.09059">
        <ele>142</ele>
        <time>2017-12-17T09:24:06Z</time>
      </trkpt>
      <trkpt lat="48.94705" lon="1.0904">
        <ele>142.399994</ele>
        <time>2017-12-17T09:24:09Z</time>
      </trkpt>
      <trkpt lat="48.94706" lon="1.09022">
        <ele>142.800003</ele>
        <time>2017-12-17T09:24:12Z</time>
      </trkpt>
      <trkpt lat="48.94707" lon="1.09003">
        <ele>143.100006</ele>
        <time>2017-12-17T09:24:15Z</time>
      </trkpt>
      <trkpt lat="48.94709" lon="1.08984">
        <ele>143.5</ele>
        <time>2017-12-17T09:24:18Z</time>
      </trkpt>
      <trkpt lat="48.94712" lon="1.08964">
        <ele>143.699997</ele>
        <time>2017-12-17T09:24:21Z</time>
      </trkpt>
      <trkpt lat="48.94716" lon="1.08948">
        <ele>144</ele>
        <time>2017-12-17T09:24:24Z</time>
      </trkpt>
      <trkpt lat="48.94718" lon="1.08934">
        <ele>144.199997</ele>
        <time>2017-12-17T09:24:27Z</time>
      </trkpt>
      <trkpt lat="48.94718" lon="1.0892">
        <ele>144.300003</ele>
        <time>2017-12-17T09:24:32Z</time>
      </trkpt>
      <trkpt lat="48.9471" lon="1.08912">
        <ele>144.5</ele>
        <time>2017-12-17T09:24:38Z</time>
      </trkpt>
      <trkpt lat="48.947" lon="1.08904">
        <ele>144.800003</ele>
        <time>2017-12-17T09:24:42Z</time>
      </trkpt>
      <trkpt lat="48.9469" lon="1.08896">
        <ele>144.699997</ele>
        <time>2017-12-17T09:24:45Z</time>
      </trkpt>
      <trkpt lat="48.9468" lon="1.0889">
        <ele>144.699997</ele>
        <time>2017-12-17T09:24:48Z</time>
      </trkpt>
      <trkpt lat="48.9467" lon="1.0888">
        <ele>144.5</ele>
        <time>2017-12-17T09:24:51Z</time>
      </trkpt>
      <trkpt lat="48.94659" lon="1.08872">
        <ele>144.600006</ele>
        <time>2017-12-17T09:24:54Z</time>
      </trkpt>
      <trkpt lat="48.94648" lon="1.08866">
        <ele>144.600006</ele>
        <time>2017-12-17T09:24:57Z</time>
      </trkpt>
      <trkpt lat="48.94636" lon="1.08863">
        <ele>144.600006</ele>
        <time>2017-12-17T09:25:00Z</time>
      </trkpt>
      <trkpt lat="48.94624" lon="1.0886">
        <ele>144.899994</ele>
        <time>2017-12-17T09:25:03Z</time>
      </trkpt>
      <trkpt lat="48.94612" lon="1.08858">
        <ele>145.100006</ele>
        <time>2017-12-17T09:25:06Z</time>
      </trkpt>
      <trkpt lat="48.94601" lon="1.08857">
        <ele>145.100006</ele>
        <time>2017-12-17T09:25:09Z</time>
      </trkpt>
      <trkpt lat="48.94589" lon="1.08855">
        <ele>145.300003</ele>
        <time>2017-12-17T09:25:12Z</time>
      </trkpt>
      <trkpt lat="48.94578" lon="1.08854">
        <ele>145.5</ele>
        <time>2017-12-17T09:25:15Z</time>
      </trkpt>
      <trkpt lat="48.94566" lon="1.08853">
        <ele>145.600006</ele>
        <time>2017-12-17T09:25:18Z</time>
      </trkpt>
      <trkpt lat="48.94554" lon="1.08851">
        <ele>145.600006</ele>
        <time>2017-12-17T09:25:21Z</time>
      </trkpt>
      <trkpt lat="48.94543" lon="1.0885">
        <ele>145.399994</ele>
        <time>2017-12-17T09:25:24Z</time>
      </trkpt>
      <trkpt lat="48.94531" lon="1.08848">
        <ele>145.5</ele>
        <time>2017-12-17T09:25:27Z</time>
      </trkpt>
      <trkpt lat="48.94519" lon="1.08846">
        <ele>145.699997</ele>
        <time>2017-12-17T09:25:30Z</time>
      </trkpt>
      <trkpt lat="48.94507" lon="1.08843">
        <ele>145.699997</ele>
        <time>2017-12-17T09:25:33Z</time>
      </trkpt>
      <trkpt lat="48.94495" lon="1.0884">
        <ele>146</ele>
        <time>2017-12-17T09:25:36Z</time>
      </trkpt>
      <trkpt lat="48.94483" lon="1.08837">
        <ele>146.300003</ele>
        <time>2017-12-17T09:25:39Z</time>
      </trkpt>
      <trkpt lat="48.9447" lon="1.08833">
        <ele>146.399994</ele>
        <time>2017-12-17T09:25:42Z</time>
      </trkpt>
      <trkpt lat="48.94458" lon="1.08829">
        <ele>146.399994</ele>
        <time>2017-12-17T09:25:45Z</time>
      </trkpt>
      <trkpt lat="48.94445" lon="1.08825">
        <ele>146.800003</ele>
        <time>2017-12-17T09:25:48Z</time>
      </trkpt>
      <trkpt lat="48.94433" lon="1.08821">
        <ele>146.800003</ele>
        <time>2017-12-17T09:25:51Z</time>
      </trkpt>
      <trkpt lat="48.94421" lon="1.08815">
        <ele>146.800003</ele>
        <time>2017-12-17T09:25:54Z</time>
      </trkpt>
      <trkpt lat="48.94409" lon="1.08809">
        <ele>146.899994</ele>
        <time>2017-12-17T09:25:57Z</time>
      </trkpt>
      <trkpt lat="48.94396" lon="1.08803">
        <ele>146.699997</ele>
        <time>2017-12-17T09:26:00Z</time>
      </trkpt>
      <trkpt lat="48.94385" lon="1.08797">
        <ele>146.899994</ele>
        <time>2017-12-17T09:26:03Z</time>
      </trkpt>
      <trkpt lat="48.94374" lon="1.0879">
        <ele>146.899994</ele>
        <time>2017-12-17T09:26:06Z</time>
      </trkpt>
      <trkpt lat="48.94363" lon="1.08784">
        <ele>146.800003</ele>
        <time>2017-12-17T09:26:09Z</time>
      </trkpt>
      <trkpt lat="48.94353" lon="1.08777">
        <ele>147</ele>
        <time>2017-12-17T09:26:12Z</time>
      </trkpt>
      <trkpt lat="48.94343" lon="1.08773">
        <ele>146.899994</ele>
        <time>2017-12-17T09:26:15Z</time>
      </trkpt>
      <trkpt lat="48.94334" lon="1.08778">
        <ele>146.899994</ele>
        <time>2017-12-17T09:26:18Z</time>
      </trkpt>
      <trkpt lat="48.94325" lon="1.08784">
        <ele>147.199997</ele>
        <time>2017-12-17T09:26:21Z</time>
      </trkpt>
      <trkpt lat="48.94315" lon="1.08791">
        <ele>147</ele>
        <time>2017-12-17T09:26:24Z</time>
      </trkpt>
      <trkpt lat="48.94305" lon="1.08797">
        <ele>147.100006</ele>
        <time>2017-12-17T09:26:27Z</time>
      </trkpt>
      <trkpt lat="48.94295" lon="1.08802">
        <ele>147.399994</ele>
        <time>2017-12-17T09:26:30Z</time>
      </trkpt>
      <trkpt lat="48.94284" lon="1.08807">
        <ele>147.699997</ele>
        <time>2017-12-17T09:26:33Z</time>
      </trkpt>
      <trkpt lat="48.94274" lon="1.08812">
        <ele>147.899994</ele>
        <time>2017-12-17T09:26:36Z</time>
      </trkpt>
      <trkpt lat="48.94264" lon="1.08817">
        <ele>148.100006</ele>
        <time>2017-12-17T09:26:39Z</time>
      </trkpt>
      <trkpt lat="48.94253" lon="1.08822">
        <ele>148.199997</ele>
        <time>2017-12-17T09:26:42Z</time>
      </trkpt>
      <trkpt lat="48.94242" lon="1.08828">
        <ele>148.300003</ele>
        <time>2017-12-17T09:26:45Z</time>
      </trkpt>
      <trkpt lat="48.94231" lon="1.08834">
        <ele>148.5</ele>
        <time>2017-12-17T09:26:48Z</time>
      </trkpt>
      <trkpt lat="48.94219" lon="1.08841">
        <ele>148.600006</ele>
        <time>2017-12-17T09:26:51Z</time>
      </trkpt>
      <trkpt lat="48.94208" lon="1.08848">
        <ele>148.399994</ele>
        <time>2017-12-17T09:26:54Z</time>
      </trkpt>
      <trkpt lat="48.94197" lon="1.08855">
        <ele>148.199997</ele>
        <time>2017-12-17T09:26:57Z</time>
      </trkpt>
      <trkpt lat="48.94186" lon="1.08862">
        <ele>148.199997</ele>
        <time>2017-12-17T09:27:00Z</time>
      </trkpt>
      <trkpt lat="48.94175" lon="1.08869">
        <ele>148.100006</ele>
        <time>2017-12-17T09:27:03Z</time>
      </trkpt>
      <trkpt lat="48.94164" lon="1.08876">
        <ele>148.399994</ele>
        <time>2017-12-17T09:27:06Z</time>
      </trkpt>
      <trkpt lat="48.94152" lon="1.08884">
        <ele>148.300003</ele>
        <time>2017-12-17T09:27:09Z</time>
      </trkpt>
      <trkpt lat="48.94141" lon="1.08891">
        <ele>148.399994</ele>
        <time>2017-12-17T09:27:12Z</time>
      </trkpt>
      <trkpt lat="48.9413" lon="1.08898">
        <ele>148.100006</ele>
        <time>2017-12-17T09:27:15Z</time>
      </trkpt>
      <trkpt lat="48.94118" lon="1.08905">
        <ele>148.199997</ele>
        <time>2017-12-17T09:27:18Z</time>
      </trkpt>
      <trkpt lat="48.94107" lon="1.08912">
        <ele>148.199997</ele>
        <time>2017-12-17T09:27:21Z</time>
      </trkpt>
      <trkpt lat="48.94096" lon="1.08919">
        <ele>148.199997</ele>
        <time>2017-12-17T09:27:24Z</time>
      </trkpt>
      <trkpt lat="48.94086" lon="1.08921">
        <ele>148.199997</ele>
        <time>2017-12-17T09:27:27Z</time>
      </trkpt>
      <trkpt lat="48.9408" lon="1.08908">
        <ele>147.899994</ele>
        <time>2017-12-17T09:27:31Z</time>
      </trkpt>
      <trkpt lat="48.94076" lon="1.08893">
        <ele>147.899994</ele>
        <time>2017-12-17T09:27:35Z</time>
      </trkpt>
      <trkpt lat="48.94072" lon="1.08878">
        <ele>147.899994</ele>
        <time>2017-12-17T09:27:39Z</time>
      </trkpt>
      <trkpt lat="48.94067" lon="1.08861">
        <ele>147.899994</ele>
        <time>2017-12-17T09:27:43Z</time>
      </trkpt>
      <trkpt lat="48.94063" lon="1.08847">
        <ele>148.300003</ele>
        <time>2017-12-17T09:27:46Z</time>
      </trkpt>
      <trkpt lat="48.94059" lon="1.08833">
        <ele>148.199997</ele>
        <time>2017-12-17T09:27:49Z</time>
      </trkpt>
      <trkpt lat="48.94055" lon="1.08818">
        <ele>148.699997</ele>
        <time>2017-12-17T09:27:52Z</time>
      </trkpt>
      <trkpt lat="48.94051" lon="1.08803">
        <ele>148.899994</ele>
        <time>2017-12-17T09:27:55Z</time>
      </trkpt>
      <trkpt lat="48.94047" lon="1.08788">
        <ele>149</ele>
        <time>2017-12-17T09:27:58Z</time>
      </trkpt>
      <trkpt lat="48.94043" lon="1.08773">
        <ele>149.399994</ele>
        <time>2017-12-17T09:28:01Z</time>
      </trkpt>
      <trkpt lat="48.94039" lon="1.08758">
        <ele>149.899994</ele>
        <time>2017-12-17T09:28:04Z</time>
      </trkpt>
      <trkpt lat="48.94035" lon="1.08743">
        <ele>150</ele>
        <time>2017-12-17T09:28:07Z</time>
      </trkpt>
      <trkpt lat="48.9403" lon="1.08729">
        <ele>150.800003</ele>
        <time>2017-12-17T09:28:10Z</time>
      </trkpt>
      <trkpt lat="48.94026" lon="1.08714">
        <ele>151.300003</ele>
        <time>2017-12-17T09:28:13Z</time>
      </trkpt>
      <trkpt lat="48.94021" lon="1.08699">
        <ele>151.199997</ele>
        <time>2017-12-17T09:28:16Z</time>
      </trkpt>
      <trkpt lat="48.94017" lon="1.08685">
        <ele>151.100006</ele>
        <time>2017-12-17T09:28:19Z</time>
      </trkpt>
      <trkpt lat="48.94013" lon="1.0867">
        <ele>151.300003</ele>
        <time>2017-12-17T09:28:22Z</time>
      </trkpt>
      <trkpt lat="48.94009" lon="1.08655">
        <ele>151.699997</ele>
        <time>2017-12-17T09:28:25Z</time>
      </trkpt>
      <trkpt lat="48.94005" lon="1.0864">
        <ele>151.600006</ele>
        <time>2017-12-17T09:28:28Z</time>
      </trkpt>
      <trkpt lat="48.94001" lon="1.08625">
        <ele>151.899994</ele>
        <time>2017-12-17T09:28:31Z</time>
      </trkpt>
      <trkpt lat="48.93996" lon="1.08609">
        <ele>152.199997</ele>
        <time>2017-12-17T09:28:34Z</time>
      </trkpt>
      <trkpt lat="48.93992" lon="1.08594">
        <ele>152.699997</ele>
        <time>2017-12-17T09:28:37Z</time>
      </trkpt>
      <trkpt lat="48.93988" lon="1.08579">
        <ele>152.699997</ele>
        <time>2017-12-17T09:28:40Z</time>
      </trkpt>
      <trkpt lat="48.93983" lon="1.08565">
        <ele>153</ele>
        <time>2017-12-17T09:28:43Z</time>
      </trkpt>
      <trkpt lat="48.9398" lon="1.0855">
        <ele>153.199997</ele>
        <time>2017-12-17T09:28:46Z</time>
      </trkpt>
      <trkpt lat="48.93975" lon="1.08535">
        <ele>153.5</ele>
        <time>2017-12-17T09:28:49Z</time>
      </trkpt>
      <trkpt lat="48.93971" lon="1.08521">
        <ele>154</ele>
        <time>2017-12-17T09:28:52Z</time>
      </trkpt>
      <trkpt lat="48.93967" lon="1.08507">
        <ele>154.199997</ele>
        <time>2017-12-17T09:28:55Z</time>
      </trkpt>
      <trkpt lat="48.93963" lon="1.08492">
        <ele>154.800003</ele>
        <time>2017-12-17T09:28:58Z</time>
      </trkpt>
      <trkpt lat="48.93959" lon="1.08477">
        <ele>154.699997</ele>
        <time>2017-12-17T09:29:01Z</time>
      </trkpt>
      <trkpt lat="48.93954" lon="1.08462">
        <ele>154.600006</ele>
        <time>2017-12-17T09:29:04Z</time>
      </trkpt>
      <trkpt lat="48.9395" lon="1.08446">
        <ele>155.100006</ele>
        <time>2017-12-17T09:29:07Z</time>
      </trkpt>
      <trkpt lat="48.93945" lon="1.08431">
        <ele>154.699997</ele>
        <time>2017-12-17T09:29:10Z</time>
      </trkpt>
      <trkpt lat="48.9394" lon="1.08416">
        <ele>155.199997</ele>
        <time>2017-12-17T09:29:13Z</time>
      </trkpt>
      <trkpt lat="48.93936" lon="1.084">
        <ele>155.5</ele>
        <time>2017-12-17T09:29:16Z</time>
      </trkpt>
      <trkpt lat="48.93932" lon="1.08385">
        <ele>156</ele>
        <time>2017-12-17T09:29:19Z</time>
      </trkpt>
      <trkpt lat="48.93928" lon="1.0837">
        <ele>156.199997</ele>
        <time>2017-12-17T09:29:22Z</time>
      </trkpt>
      <trkpt lat="48.93923" lon="1.08354">
        <ele>156.5</ele>
        <time>2017-12-17T09:29:25Z</time>
      </trkpt>
      <trkpt lat="48.93919" lon="1.08338">
        <ele>156.899994</ele>
        <time>2017-12-17T09:29:28Z</time>
      </trkpt>
      <trkpt lat="48.93914" lon="1.08322">
        <ele>157</ele>
        <time>2017-12-17T09:29:31Z</time>
      </trkpt>
      <trkpt lat="48.93909" lon="1.08305">
        <ele>157.199997</ele>
        <time>2017-12-17T09:29:34Z</time>
      </trkpt>
      <trkpt lat="48.93905" lon="1.08287">
        <ele>157.399994</ele>
        <time>2017-12-17T09:29:37Z</time>
      </trkpt>
      <trkpt lat="48.939" lon="1.08271">
        <ele>157.899994</ele>
        <time>2017-12-17T09:29:40Z</time>
      </trkpt>
      <trkpt lat="48.93895" lon="1.08255">
        <ele>157.600006</ele>
        <time>2017-12-17T09:29:43Z</time>
      </trkpt>
      <trkpt lat="48.9389" lon="1.08239">
        <ele>157.899994</ele>
        <time>2017-12-17T09:29:46Z</time>
      </trkpt>
      <trkpt lat="48.93885" lon="1.08222">
        <ele>158</ele>
        <time>2017-12-17T09:29:49Z</time>
      </trkpt>
      <trkpt lat="48.9388" lon="1.08205">
        <ele>158.199997</ele>
        <time>2017-12-17T09:29:52Z</time>
      </trkpt>
      <trkpt lat="48.93875" lon="1.08188">
        <ele>158.100006</ele>
        <time>2017-12-17T09:29:55Z</time>
      </trkpt>
      <trkpt lat="48.93871" lon="1.08172">
        <ele>158.100006</ele>
        <time>2017-12-17T09:29:58Z</time>
      </trkpt>
      <trkpt lat="48.93866" lon="1.08155">
        <ele>158.100006</ele>
        <time>2017-12-17T09:30:01Z</time>
      </trkpt>
      <trkpt lat="48.93861" lon="1.08139">
        <ele>158</ele>
        <time>2017-12-17T09:30:04Z</time>
      </trkpt>
      <trkpt lat="48.93856" lon="1.08122">
        <ele>157.899994</ele>
        <time>2017-12-17T09:30:07Z</time>
      </trkpt>
      <trkpt lat="48.93851" lon="1.08105">
        <ele>157.699997</ele>
        <time>2017-12-17T09:30:10Z</time>
      </trkpt>
      <trkpt lat="48.93846" lon="1.08088">
        <ele>157.699997</ele>
        <time>2017-12-17T09:30:13Z</time>
      </trkpt>
      <trkpt lat="48.93841" lon="1.08072">
        <ele>157.800003</ele>
        <time>2017-12-17T09:30:16Z</time>
      </trkpt>
      <trkpt lat="48.93835" lon="1.08055">
        <ele>158</ele>
        <time>2017-12-17T09:30:19Z</time>
      </trkpt>
      <trkpt lat="48.9383" lon="1.08038">
        <ele>157.699997</ele>
        <time>2017-12-17T09:30:22Z</time>
      </trkpt>
      <trkpt lat="48.93825" lon="1.0802">
        <ele>157.699997</ele>
        <time>2017-12-17T09:30:25Z</time>
      </trkpt>
      <trkpt lat="48.9382" lon="1.08004">
        <ele>158.100006</ele>
        <time>2017-12-17T09:30:28Z</time>
      </trkpt>
      <trkpt lat="48.93816" lon="1.07988">
        <ele>157.600006</ele>
        <time>2017-12-17T09:30:31Z</time>
      </trkpt>
      <trkpt lat="48.93811" lon="1.07975">
        <ele>157.600006</ele>
        <time>2017-12-17T09:30:34Z</time>
      </trkpt>
      <trkpt lat="48.93805" lon="1.07961">
        <ele>157.699997</ele>
        <time>2017-12-17T09:30:37Z</time>
      </trkpt>
      <trkpt lat="48.938" lon="1.07946">
        <ele>157.699997</ele>
        <time>2017-12-17T09:30:40Z</time>
      </trkpt>
      <trkpt lat="48.93796" lon="1.07931">
        <ele>157.600006</ele>
        <time>2017-12-17T09:30:43Z</time>
      </trkpt>
      <trkpt lat="48.93792" lon="1.07917">
        <ele>157.300003</ele>
        <time>2017-12-17T09:30:46Z</time>
      </trkpt>
      <trkpt lat="48.93787" lon="1.07901">
        <ele>157.300003</ele>
        <time>2017-12-17T09:30:50Z</time>
      </trkpt>
      <trkpt lat="48.93783" lon="1.07887">
        <ele>157.199997</ele>
        <time>2017-12-17T09:30:54Z</time>
      </trkpt>
      <trkpt lat="48.93779" lon="1.07875">
        <ele>156.899994</ele>
        <time>2017-12-17T09:30:59Z</time>
      </trkpt>
      <trkpt lat="48.93786" lon="1.07864">
        <ele>156.5</ele>
        <time>2017-12-17T09:31:59Z</time>
      </trkpt>
      <trkpt lat="48.93795" lon="1.0786">
        <ele>156.399994</ele>
        <time>2017-12-17T09:32:02Z</time>
      </trkpt>
      <trkpt lat="48.93806" lon="1.07855">
        <ele>156.399994</ele>
        <time>2017-12-17T09:32:05Z</time>
      </trkpt>
      <trkpt lat="48.93817" lon="1.07851">
        <ele>156.399994</ele>
        <time>2017-12-17T09:32:08Z</time>
      </trkpt>
      <trkpt lat="48.93828" lon="1.07845">
        <ele>156.5</ele>
        <time>2017-12-17T09:32:11Z</time>
      </trkpt>
      <trkpt lat="48.93841" lon="1.0784">
        <ele>156.399994</ele>
        <time>2017-12-17T09:32:14Z</time>
      </trkpt>
      <trkpt lat="48.93853" lon="1.07834">
        <ele>156.5</ele>
        <time>2017-12-17T09:32:17Z</time>
      </trkpt>
      <trkpt lat="48.93862" lon="1.0783">
        <ele>156.5</ele>
        <time>2017-12-17T09:32:19Z</time>
      </trkpt>
      <trkpt lat="48.93872" lon="1.07825">
        <ele>156.5</ele>
        <time>2017-12-17T09:32:21Z</time>
      </trkpt>
      <trkpt lat="48.93881" lon="1.07821">
        <ele>156.5</ele>
        <time>2017-12-17T09:32:23Z</time>
      </trkpt>
      <trkpt lat="48.9389" lon="1.07817">
        <ele>156.300003</ele>
        <time>2017-12-17T09:32:25Z</time>
      </trkpt>
      <trkpt lat="48.939" lon="1.07813">
        <ele>156.100006</ele>
        <time>2017-12-17T09:32:27Z</time>
      </trkpt>
      <trkpt lat="48.93909" lon="1.07808">
        <ele>155.899994</ele>
        <time>2017-12-17T09:32:29Z</time>
      </trkpt>
      <trkpt lat="48.93918" lon="1.07804">
        <ele>155.899994</ele>
        <time>2017-12-17T09:32:31Z</time>
      </trkpt>
      <trkpt lat="48.93927" lon="1.07799">
        <ele>156.199997</ele>
        <time>2017-12-17T09:32:33Z</time>
      </trkpt>
      <trkpt lat="48.93936" lon="1.07795">
        <ele>156.300003</ele>
        <time>2017-12-17T09:32:35Z</time>
      </trkpt>
      <trkpt lat="48.93945" lon="1.07791">
        <ele>156.300003</ele>
        <time>2017-12-17T09:32:37Z</time>
      </trkpt>
      <trkpt lat="48.93955" lon="1.07787">
        <ele>156.300003</ele>
        <time>2017-12-17T09:32:39Z</time>
      </trkpt>
      <trkpt lat="48.93964" lon="1.07783">
        <ele>156.199997</ele>
        <time>2017-12-17T09:32:41Z</time>
      </trkpt>
      <trkpt lat="48.93973" lon="1.07779">
        <ele>156.199997</ele>
        <time>2017-12-17T09:32:43Z</time>
      </trkpt>
      <trkpt lat="48.93982" lon="1.07774">
        <ele>156.100006</ele>
        <time>2017-12-17T09:32:45Z</time>
      </trkpt>
      <trkpt lat="48.93991" lon="1.0777">
        <ele>156.100006</ele>
        <time>2017-12-17T09:32:47Z</time>
      </trkpt>
      <trkpt lat="48.94001" lon="1.07766">
        <ele>156.300003</ele>
        <time>2017-12-17T09:32:49Z</time>
      </trkpt>
      <trkpt lat="48.9401" lon="1.07761">
        <ele>156.300003</ele>
        <time>2017-12-17T09:32:51Z</time>
      </trkpt>
      <trkpt lat="48.9402" lon="1.07757">
        <ele>156.399994</ele>
        <time>2017-12-17T09:32:53Z</time>
      </trkpt>
      <trkpt lat="48.94029" lon="1.07753">
        <ele>156.300003</ele>
        <time>2017-12-17T09:32:55Z</time>
      </trkpt>
      <trkpt lat="48.94038" lon="1.07749">
        <ele>156.300003</ele>
        <time>2017-12-17T09:32:57Z</time>
      </trkpt>
      <trkpt lat="48.94048" lon="1.07745">
        <ele>156.399994</ele>
        <time>2017-12-17T09:32:59Z</time>
      </trkpt>
      <trkpt lat="48.94057" lon="1.07741">
        <ele>156.5</ele>
        <time>2017-12-17T09:33:01Z</time>
      </trkpt>
      <trkpt lat="48.94067" lon="1.07737">
        <ele>156.5</ele>
        <time>2017-12-17T09:33:03Z</time>
      </trkpt>
      <trkpt lat="48.94077" lon="1.07732">
        <ele>156.5</ele>
        <time>2017-12-17T09:33:05Z</time>
      </trkpt>
      <trkpt lat="48.94086" lon="1.07728">
        <ele>156.600006</ele>
        <time>2017-12-17T09:33:07Z</time>
      </trkpt>
      <trkpt lat="48.94096" lon="1.07724">
        <ele>156.600006</ele>
        <time>2017-12-17T09:33:09Z</time>
      </trkpt>
      <trkpt lat="48.94105" lon="1.07719">
        <ele>156.600006</ele>
        <time>2017-12-17T09:33:11Z</time>
      </trkpt>
      <trkpt lat="48.94115" lon="1.07715">
        <ele>156.5</ele>
        <time>2017-12-17T09:33:13Z</time>
      </trkpt>
      <trkpt lat="48.94124" lon="1.0771">
        <ele>156.399994</ele>
        <time>2017-12-17T09:33:15Z</time>
      </trkpt>
      <trkpt lat="48.94135" lon="1.07705">
        <ele>156.100006</ele>
        <time>2017-12-17T09:33:18Z</time>
      </trkpt>
      <trkpt lat="48.9414" lon="1.07693">
        <ele>155.899994</ele>
        <time>2017-12-17T09:33:23Z</time>
      </trkpt>
      <trkpt lat="48.94138" lon="1.07676">
        <ele>155.899994</ele>
        <time>2017-12-17T09:33:29Z</time>
      </trkpt>
      <trkpt lat="48.94145" lon="1.07666">
        <ele>155.5</ele>
        <time>2017-12-17T09:33:35Z</time>
      </trkpt>
      <trkpt lat="48.94155" lon="1.07662">
        <ele>155.399994</ele>
        <time>2017-12-17T09:33:39Z</time>
      </trkpt>
      <trkpt lat="48.94161" lon="1.07651">
        <ele>155.199997</ele>
        <time>2017-12-17T09:33:42Z</time>
      </trkpt>
      <trkpt lat="48.94163" lon="1.07636">
        <ele>156.199997</ele>
        <time>2017-12-17T09:34:01Z</time>
      </trkpt>
      <trkpt lat="48.94162" lon="1.07622">
        <ele>156.199997</ele>
        <time>2017-12-17T09:34:08Z</time>
      </trkpt>
      <trkpt lat="48.94163" lon="1.07607">
        <ele>156</ele>
        <time>2017-12-17T09:34:12Z</time>
      </trkpt>
      <trkpt lat="48.94161" lon="1.07592">
        <ele>155.899994</ele>
        <time>2017-12-17T09:34:15Z</time>
      </trkpt>
      <trkpt lat="48.94161" lon="1.07577">
        <ele>155.800003</ele>
        <time>2017-12-17T09:34:18Z</time>
      </trkpt>
      <trkpt lat="48.94166" lon="1.07564">
        <ele>155.300003</ele>
        <time>2017-12-17T09:34:21Z</time>
      </trkpt>
      <trkpt lat="48.94171" lon="1.07553">
        <ele>155.100006</ele>
        <time>2017-12-17T09:34:24Z</time>
      </trkpt>
      <trkpt lat="48.94173" lon="1.07539">
        <ele>155.399994</ele>
        <time>2017-12-17T09:34:27Z</time>
      </trkpt>
      <trkpt lat="48.94172" lon="1.07523">
        <ele>155.699997</ele>
        <time>2017-12-17T09:34:30Z</time>
      </trkpt>
      <trkpt lat="48.94172" lon="1.07507">
        <ele>155.600006</ele>
        <time>2017-12-17T09:34:33Z</time>
      </trkpt>
      <trkpt lat="48.94172" lon="1.07493">
        <ele>155.5</ele>
        <time>2017-12-17T09:34:36Z</time>
      </trkpt>
      <trkpt lat="48.94172" lon="1.07476">
        <ele>155.399994</ele>
        <time>2017-12-17T09:34:39Z</time>
      </trkpt>
      <trkpt lat="48.94175" lon="1.07459">
        <ele>155.399994</ele>
        <time>2017-12-17T09:34:42Z</time>
      </trkpt>
      <trkpt lat="48.9418" lon="1.07442">
        <ele>155.199997</ele>
        <time>2017-12-17T09:34:45Z</time>
      </trkpt>
      <trkpt lat="48.94185" lon="1.07427">
        <ele>155.100006</ele>
        <time>2017-12-17T09:34:48Z</time>
      </trkpt>
      <trkpt lat="48.94191" lon="1.07414">
        <ele>155.5</ele>
        <time>2017-12-17T09:34:55Z</time>
      </trkpt>
      <trkpt lat="48.9419" lon="1.07401">
        <ele>155.300003</ele>
        <time>2017-12-17T09:35:03Z</time>
      </trkpt>
      <trkpt lat="48.94199" lon="1.07396">
        <ele>154.899994</ele>
        <time>2017-12-17T09:35:28Z</time>
      </trkpt>
      <trkpt lat="48.94191" lon="1.07403">
        <ele>154.399994</ele>
        <time>2017-12-17T09:37:09Z</time>
      </trkpt>
      <trkpt lat="48.94183" lon="1.07394">
        <ele>154.5</ele>
        <time>2017-12-17T09:38:02Z</time>
      </trkpt>
      <trkpt lat="48.9419" lon="1.07405">
        <ele>154.5</ele>
        <time>2017-12-17T09:40:32Z</time>
      </trkpt>
      <trkpt lat="48.94182" lon="1.07398">
        <ele>154.5</ele>
        <time>2017-12-17T09:41:29Z</time>
      </trkpt>
      <trkpt lat="48.94186" lon="1.07383">
        <ele>154.100006</ele>
        <time>2017-12-17T09:42:27Z</time>
      </trkpt>
      <trkpt lat="48.94189" lon="1.07369">
        <ele>154</ele>
        <time>2017-12-17T09:42:31Z</time>
      </trkpt>
      <trkpt lat="48.94192" lon="1.07351">
        <ele>153.800003</ele>
        <time>2017-12-17T09:42:35Z</time>
      </trkpt>
      <trkpt lat="48.94192" lon="1.07334">
        <ele>153.800003</ele>
        <time>2017-12-17T09:42:38Z</time>
      </trkpt>
      <trkpt lat="48.94192" lon="1.07316">
        <ele>153.800003</ele>
        <time>2017-12-17T09:42:41Z</time>
      </trkpt>
      <trkpt lat="48.94194" lon="1.07301">
        <ele>153.699997</ele>
        <time>2017-12-17T09:42:44Z</time>
      </trkpt>
      <trkpt lat="48.94192" lon="1.07288">
        <ele>153.800003</ele>
        <time>2017-12-17T09:42:48Z</time>
      </trkpt>
      <trkpt lat="48.94189" lon="1.07272">
        <ele>153.699997</ele>
        <time>2017-12-17T09:42:51Z</time>
      </trkpt>
      <trkpt lat="48.94185" lon="1.07252">
        <ele>153.399994</ele>
        <time>2017-12-17T09:42:54Z</time>
      </trkpt>
      <trkpt lat="48.94182" lon="1.07239">
        <ele>153.199997</ele>
        <time>2017-12-17T09:42:56Z</time>
      </trkpt>
      <trkpt lat="48.94177" lon="1.07226">
        <ele>153</ele>
        <time>2017-12-17T09:42:58Z</time>
      </trkpt>
      <trkpt lat="48.94171" lon="1.07208">
        <ele>152.800003</ele>
        <time>2017-12-17T09:43:01Z</time>
      </trkpt>
      <trkpt lat="48.94167" lon="1.07195">
        <ele>152.699997</ele>
        <time>2017-12-17T09:43:03Z</time>
      </trkpt>
      <trkpt lat="48.94163" lon="1.07178">
        <ele>152.600006</ele>
        <time>2017-12-17T09:43:06Z</time>
      </trkpt>
      <trkpt lat="48.94159" lon="1.07157">
        <ele>152.100006</ele>
        <time>2017-12-17T09:43:09Z</time>
      </trkpt>
      <trkpt lat="48.9416" lon="1.07142">
        <ele>151.800003</ele>
        <time>2017-12-17T09:43:11Z</time>
      </trkpt>
      <trkpt lat="48.9416" lon="1.07127">
        <ele>151.5</ele>
        <time>2017-12-17T09:43:13Z</time>
      </trkpt>
      <trkpt lat="48.94154" lon="1.07115">
        <ele>151.5</ele>
        <time>2017-12-17T09:43:15Z</time>
      </trkpt>
      <trkpt lat="48.94146" lon="1.07106">
        <ele>151.100006</ele>
        <time>2017-12-17T09:43:17Z</time>
      </trkpt>
      <trkpt lat="48.94139" lon="1.07094">
        <ele>150.800003</ele>
        <time>2017-12-17T09:43:20Z</time>
      </trkpt>
      <trkpt lat="48.94134" lon="1.07082">
        <ele>150.600006</ele>
        <time>2017-12-17T09:43:24Z</time>
      </trkpt>
      <trkpt lat="48.9413" lon="1.07069">
        <ele>150.399994</ele>
        <time>2017-12-17T09:43:29Z</time>
      </trkpt>
      <trkpt lat="48.94126" lon="1.07055">
        <ele>150.399994</ele>
        <time>2017-12-17T09:43:34Z</time>
      </trkpt>
      <trkpt lat="48.94123" lon="1.07042">
        <ele>150.5</ele>
        <time>2017-12-17T09:43:37Z</time>
      </trkpt>
      <trkpt lat="48.94118" lon="1.07028">
        <ele>150.399994</ele>
        <time>2017-12-17T09:43:40Z</time>
      </trkpt>
      <trkpt lat="48.94114" lon="1.07014">
        <ele>150.600006</ele>
        <time>2017-12-17T09:43:43Z</time>
      </trkpt>
      <trkpt lat="48.9411" lon="1.06999">
        <ele>150.800003</ele>
        <time>2017-12-17T09:43:46Z</time>
      </trkpt>
      <trkpt lat="48.94106" lon="1.06984">
        <ele>150.699997</ele>
        <time>2017-12-17T09:43:49Z</time>
      </trkpt>
      <trkpt lat="48.941" lon="1.06967">
        <ele>150.699997</ele>
        <time>2017-12-17T09:43:52Z</time>
      </trkpt>
      <trkpt lat="48.94097" lon="1.06952">
        <ele>150.600006</ele>
        <time>2017-12-17T09:43:55Z</time>
      </trkpt>
      <trkpt lat="48.94092" lon="1.06936">
        <ele>150.5</ele>
        <time>2017-12-17T09:43:58Z</time>
      </trkpt>
      <trkpt lat="48.94088" lon="1.0692">
        <ele>150.199997</ele>
        <time>2017-12-17T09:44:01Z</time>
      </trkpt>
      <trkpt lat="48.94083" lon="1.06902">
        <ele>149.699997</ele>
        <time>2017-12-17T09:44:04Z</time>
      </trkpt>
      <trkpt lat="48.94076" lon="1.06885">
        <ele>149.100006</ele>
        <time>2017-12-17T09:44:07Z</time>
      </trkpt>
      <trkpt lat="48.94073" lon="1.06873">
        <ele>148.699997</ele>
        <time>2017-12-17T09:44:09Z</time>
      </trkpt>
      <trkpt lat="48.94069" lon="1.06858">
        <ele>148.199997</ele>
        <time>2017-12-17T09:44:12Z</time>
      </trkpt>
      <trkpt lat="48.94067" lon="1.06843">
        <ele>148.199997</ele>
        <time>2017-12-17T09:44:17Z</time>
      </trkpt>
      <trkpt lat="48.94068" lon="1.06829">
        <ele>148.100006</ele>
        <time>2017-12-17T09:44:25Z</time>
      </trkpt>
      <trkpt lat="48.94077" lon="1.06822">
        <ele>148</ele>
        <time>2017-12-17T09:44:31Z</time>
      </trkpt>
      <trkpt lat="48.94086" lon="1.06816">
        <ele>148.199997</ele>
        <time>2017-12-17T09:44:36Z</time>
      </trkpt>
      <trkpt lat="48.94095" lon="1.06808">
        <ele>148.300003</ele>
        <time>2017-12-17T09:44:40Z</time>
      </trkpt>
      <trkpt lat="48.94107" lon="1.068">
        <ele>148.5</ele>
        <time>2017-12-17T09:44:44Z</time>
      </trkpt>
      <trkpt lat="48.94115" lon="1.06792">
        <ele>148.600006</ele>
        <time>2017-12-17T09:44:48Z</time>
      </trkpt>
      <trkpt lat="48.94126" lon="1.06786">
        <ele>148.600006</ele>
        <time>2017-12-17T09:44:52Z</time>
      </trkpt>
      <trkpt lat="48.94135" lon="1.06779">
        <ele>148.5</ele>
        <time>2017-12-17T09:44:55Z</time>
      </trkpt>
      <trkpt lat="48.94144" lon="1.06773">
        <ele>148.800003</ele>
        <time>2017-12-17T09:44:59Z</time>
      </trkpt>
      <trkpt lat="48.94154" lon="1.06767">
        <ele>148.699997</ele>
        <time>2017-12-17T09:45:02Z</time>
      </trkpt>
      <trkpt lat="48.94165" lon="1.06761">
        <ele>148.800003</ele>
        <time>2017-12-17T09:45:07Z</time>
      </trkpt>
      <trkpt lat="48.94174" lon="1.06753">
        <ele>148.600006</ele>
        <time>2017-12-17T09:45:11Z</time>
      </trkpt>
      <trkpt lat="48.94184" lon="1.06747">
        <ele>148.899994</ele>
        <time>2017-12-17T09:45:15Z</time>
      </trkpt>
      <trkpt lat="48.94192" lon="1.0674">
        <ele>149</ele>
        <time>2017-12-17T09:45:18Z</time>
      </trkpt>
      <trkpt lat="48.94203" lon="1.06734">
        <ele>149</ele>
        <time>2017-12-17T09:45:21Z</time>
      </trkpt>
      <trkpt lat="48.94213" lon="1.06731">
        <ele>149.399994</ele>
        <time>2017-12-17T09:45:24Z</time>
      </trkpt>
      <trkpt lat="48.94222" lon="1.06725">
        <ele>149.800003</ele>
        <time>2017-12-17T09:45:27Z</time>
      </trkpt>
      <trkpt lat="48.9423" lon="1.06717">
        <ele>149.699997</ele>
        <time>2017-12-17T09:45:32Z</time>
      </trkpt>
      <trkpt lat="48.94234" lon="1.06703">
        <ele>149.699997</ele>
        <time>2017-12-17T09:45:39Z</time>
      </trkpt>
      <trkpt lat="48.9423" lon="1.0669">
        <ele>150</ele>
        <time>2017-12-17T09:45:45Z</time>
      </trkpt>
      <trkpt lat="48.94239" lon="1.06695">
        <ele>149.899994</ele>
        <time>2017-12-17T09:46:01Z</time>
      </trkpt>
      <trkpt lat="48.94246" lon="1.06704">
        <ele>150.100006</ele>
        <time>2017-12-17T09:46:09Z</time>
      </trkpt>
      <trkpt lat="48.94256" lon="1.06699">
        <ele>150.199997</ele>
        <time>2017-12-17T09:46:14Z</time>
      </trkpt>
      <trkpt lat="48.94266" lon="1.0669">
        <ele>150.5</ele>
        <time>2017-12-17T09:46:19Z</time>
      </trkpt>
      <trkpt lat="48.94275" lon="1.06686">
        <ele>150.699997</ele>
        <time>2017-12-17T09:46:22Z</time>
      </trkpt>
      <trkpt lat="48.94283" lon="1.06679">
        <ele>151</ele>
        <time>2017-12-17T09:46:25Z</time>
      </trkpt>
      <trkpt lat="48.94292" lon="1.06674">
        <ele>150.800003</ele>
        <time>2017-12-17T09:46:28Z</time>
      </trkpt>
      <trkpt lat="48.94301" lon="1.06668">
        <ele>151.199997</ele>
        <time>2017-12-17T09:46:31Z</time>
      </trkpt>
      <trkpt lat="48.94311" lon="1.06661">
        <ele>151.5</ele>
        <time>2017-12-17T09:46:35Z</time>
      </trkpt>
      <trkpt lat="48.9432" lon="1.06656">
        <ele>151.899994</ele>
        <time>2017-12-17T09:46:38Z</time>
      </trkpt>
      <trkpt lat="48.9433" lon="1.0665">
        <ele>152</ele>
        <time>2017-12-17T09:46:41Z</time>
      </trkpt>
      <trkpt lat="48.94341" lon="1.06642">
        <ele>151.800003</ele>
        <time>2017-12-17T09:46:44Z</time>
      </trkpt>
      <trkpt lat="48.94349" lon="1.06637">
        <ele>151.899994</ele>
        <time>2017-12-17T09:46:46Z</time>
      </trkpt>
      <trkpt lat="48.94357" lon="1.06632">
        <ele>152</ele>
        <time>2017-12-17T09:46:48Z</time>
      </trkpt>
      <trkpt lat="48.94368" lon="1.06625">
        <ele>152.100006</ele>
        <time>2017-12-17T09:46:51Z</time>
      </trkpt>
      <trkpt lat="48.94376" lon="1.06619">
        <ele>152.300003</ele>
        <time>2017-12-17T09:46:54Z</time>
      </trkpt>
      <trkpt lat="48.94387" lon="1.0661">
        <ele>152.5</ele>
        <time>2017-12-17T09:46:57Z</time>
      </trkpt>
      <trkpt lat="48.94398" lon="1.06603">
        <ele>152.600006</ele>
        <time>2017-12-17T09:47:00Z</time>
      </trkpt>
      <trkpt lat="48.94408" lon="1.06596">
        <ele>152.899994</ele>
        <time>2017-12-17T09:47:03Z</time>
      </trkpt>
      <trkpt lat="48.94416" lon="1.06588">
        <ele>153.100006</ele>
        <time>2017-12-17T09:47:07Z</time>
      </trkpt>
      <trkpt lat="48.94427" lon="1.06581">
        <ele>153.300003</ele>
        <time>2017-12-17T09:47:11Z</time>
      </trkpt>
      <trkpt lat="48.94436" lon="1.06576">
        <ele>153.399994</ele>
        <time>2017-12-17T09:47:14Z</time>
      </trkpt>
      <trkpt lat="48.94445" lon="1.06571">
        <ele>153.800003</ele>
        <time>2017-12-17T09:47:17Z</time>
      </trkpt>
      <trkpt lat="48.94455" lon="1.06565">
        <ele>153.800003</ele>
        <time>2017-12-17T09:47:20Z</time>
      </trkpt>
      <trkpt lat="48.94465" lon="1.06558">
        <ele>153.699997</ele>
        <time>2017-12-17T09:47:23Z</time>
      </trkpt>
      <trkpt lat="48.94477" lon="1.06551">
        <ele>153.600006</ele>
        <time>2017-12-17T09:47:26Z</time>
      </trkpt>
      <trkpt lat="48.94486" lon="1.06543">
        <ele>153.300003</ele>
        <time>2017-12-17T09:47:29Z</time>
      </trkpt>
      <trkpt lat="48.94496" lon="1.06536">
        <ele>153.699997</ele>
        <time>2017-12-17T09:47:32Z</time>
      </trkpt>
      <trkpt lat="48.94501" lon="1.06524">
        <ele>154</ele>
        <time>2017-12-17T09:47:36Z</time>
      </trkpt>
      <trkpt lat="48.94502" lon="1.06507">
        <ele>153.800003</ele>
        <time>2017-12-17T09:47:40Z</time>
      </trkpt>
      <trkpt lat="48.94504" lon="1.06489">
        <ele>153.699997</ele>
        <time>2017-12-17T09:47:44Z</time>
      </trkpt>
      <trkpt lat="48.94506" lon="1.06476">
        <ele>153.699997</ele>
        <time>2017-12-17T09:47:47Z</time>
      </trkpt>
      <trkpt lat="48.94508" lon="1.06462">
        <ele>153.600006</ele>
        <time>2017-12-17T09:47:50Z</time>
      </trkpt>
      <trkpt lat="48.94512" lon="1.06446">
        <ele>153.5</ele>
        <time>2017-12-17T09:47:54Z</time>
      </trkpt>
      <trkpt lat="48.94511" lon="1.0643">
        <ele>153.800003</ele>
        <time>2017-12-17T09:47:58Z</time>
      </trkpt>
      <trkpt lat="48.94511" lon="1.06415">
        <ele>153.600006</ele>
        <time>2017-12-17T09:48:02Z</time>
      </trkpt>
      <trkpt lat="48.94511" lon="1.06397">
        <ele>153.600006</ele>
        <time>2017-12-17T09:48:06Z</time>
      </trkpt>
      <trkpt lat="48.94511" lon="1.06381">
        <ele>153.699997</ele>
        <time>2017-12-17T09:48:09Z</time>
      </trkpt>
      <trkpt lat="48.94511" lon="1.06366">
        <ele>153.800003</ele>
        <time>2017-12-17T09:48:12Z</time>
      </trkpt>
      <trkpt lat="48.9451" lon="1.06351">
        <ele>153.899994</ele>
        <time>2017-12-17T09:48:15Z</time>
      </trkpt>
      <trkpt lat="48.9451" lon="1.06337">
        <ele>154.100006</ele>
        <time>2017-12-17T09:48:18Z</time>
      </trkpt>
      <trkpt lat="48.94512" lon="1.06319">
        <ele>154.199997</ele>
        <time>2017-12-17T09:48:21Z</time>
      </trkpt>
      <trkpt lat="48.94512" lon="1.063">
        <ele>154.199997</ele>
        <time>2017-12-17T09:48:24Z</time>
      </trkpt>
      <trkpt lat="48.94514" lon="1.0628">
        <ele>153.899994</ele>
        <time>2017-12-17T09:48:27Z</time>
      </trkpt>
      <trkpt lat="48.94516" lon="1.06263">
        <ele>153.600006</ele>
        <time>2017-12-17T09:48:30Z</time>
      </trkpt>
      <trkpt lat="48.94518" lon="1.06246">
        <ele>153.399994</ele>
        <time>2017-12-17T09:48:33Z</time>
      </trkpt>
      <trkpt lat="48.9452" lon="1.06229">
        <ele>153.399994</ele>
        <time>2017-12-17T09:48:36Z</time>
      </trkpt>
      <trkpt lat="48.94522" lon="1.06213">
        <ele>153.300003</ele>
        <time>2017-12-17T09:48:39Z</time>
      </trkpt>
      <trkpt lat="48.94524" lon="1.06199">
        <ele>153.399994</ele>
        <time>2017-12-17T09:48:42Z</time>
      </trkpt>
      <trkpt lat="48.94527" lon="1.06184">
        <ele>153.399994</ele>
        <time>2017-12-17T09:48:45Z</time>
      </trkpt>
      <trkpt lat="48.9453" lon="1.06165">
        <ele>153.300003</ele>
        <time>2017-12-17T09:48:48Z</time>
      </trkpt>
      <trkpt lat="48.9453" lon="1.06151">
        <ele>153.100006</ele>
        <time>2017-12-17T09:48:50Z</time>
      </trkpt>
      <trkpt lat="48.94529" lon="1.06136">
        <ele>152.899994</ele>
        <time>2017-12-17T09:48:52Z</time>
      </trkpt>
      <trkpt lat="48.9453" lon="1.0612">
        <ele>152.600006</ele>
        <time>2017-12-17T09:48:54Z</time>
      </trkpt>
      <trkpt lat="48.94531" lon="1.06105">
        <ele>152.699997</ele>
        <time>2017-12-17T09:48:56Z</time>
      </trkpt>
      <trkpt lat="48.94531" lon="1.0609">
        <ele>152.5</ele>
        <time>2017-12-17T09:48:58Z</time>
      </trkpt>
      <trkpt lat="48.94529" lon="1.06073">
        <ele>151.600006</ele>
        <time>2017-12-17T09:49:00Z</time>
      </trkpt>
      <trkpt lat="48.94528" lon="1.06055">
        <ele>151.199997</ele>
        <time>2017-12-17T09:49:02Z</time>
      </trkpt>
      <trkpt lat="48.94529" lon="1.06036">
        <ele>150.100006</ele>
        <time>2017-12-17T09:49:04Z</time>
      </trkpt>
      <trkpt lat="48.94532" lon="1.06018">
        <ele>149.600006</ele>
        <time>2017-12-17T09:49:06Z</time>
      </trkpt>
      <trkpt lat="48.94534" lon="1.05998">
        <ele>147.600006</ele>
        <time>2017-12-17T09:49:08Z</time>
      </trkpt>
      <trkpt lat="48.94533" lon="1.0598">
        <ele>147.100006</ele>
        <time>2017-12-17T09:49:10Z</time>
      </trkpt>
      <trkpt lat="48.94534" lon="1.05962">
        <ele>146.800003</ele>
        <time>2017-12-17T09:49:12Z</time>
      </trkpt>
      <trkpt lat="48.94535" lon="1.05944">
        <ele>146.399994</ele>
        <time>2017-12-17T09:49:14Z</time>
      </trkpt>
      <trkpt lat="48.94535" lon="1.05927">
        <ele>145.899994</ele>
        <time>2017-12-17T09:49:16Z</time>
      </trkpt>
      <trkpt lat="48.94535" lon="1.0591">
        <ele>145.300003</ele>
        <time>2017-12-17T09:49:18Z</time>
      </trkpt>
      <trkpt lat="48.94533" lon="1.05891">
        <ele>145.100006</ele>
        <time>2017-12-17T09:49:20Z</time>
      </trkpt>
      <trkpt lat="48.94532" lon="1.05873">
        <ele>144.800003</ele>
        <time>2017-12-17T09:49:22Z</time>
      </trkpt>
      <trkpt lat="48.94533" lon="1.05854">
        <ele>144.199997</ele>
        <time>2017-12-17T09:49:24Z</time>
      </trkpt>
      <trkpt lat="48.94533" lon="1.05835">
        <ele>144.699997</ele>
        <time>2017-12-17T09:49:26Z</time>
      </trkpt>
      <trkpt lat="48.94533" lon="1.05817">
        <ele>143.899994</ele>
        <time>2017-12-17T09:49:28Z</time>
      </trkpt>
      <trkpt lat="48.94534" lon="1.05798">
        <ele>142.899994</ele>
        <time>2017-12-17T09:49:30Z</time>
      </trkpt>
      <trkpt lat="48.94536" lon="1.05781">
        <ele>142.399994</ele>
        <time>2017-12-17T09:49:32Z</time>
      </trkpt>
      <trkpt lat="48.94538" lon="1.05764">
        <ele>142</ele>
        <time>2017-12-17T09:49:34Z</time>
      </trkpt>
      <trkpt lat="48.94539" lon="1.05747">
        <ele>141.899994</ele>
        <time>2017-12-17T09:49:36Z</time>
      </trkpt>
      <trkpt lat="48.94542" lon="1.05729">
        <ele>141.399994</ele>
        <time>2017-12-17T09:49:38Z</time>
      </trkpt>
      <trkpt lat="48.94546" lon="1.0571">
        <ele>141.300003</ele>
        <time>2017-12-17T09:49:40Z</time>
      </trkpt>
      <trkpt lat="48.94548" lon="1.0569">
        <ele>139.800003</ele>
        <time>2017-12-17T09:49:42Z</time>
      </trkpt>
      <trkpt lat="48.94552" lon="1.05671">
        <ele>139.199997</ele>
        <time>2017-12-17T09:49:44Z</time>
      </trkpt>
      <trkpt lat="48.94556" lon="1.05652">
        <ele>138.800003</ele>
        <time>2017-12-17T09:49:46Z</time>
      </trkpt>
      <trkpt lat="48.94561" lon="1.05632">
        <ele>138.5</ele>
        <time>2017-12-17T09:49:48Z</time>
      </trkpt>
      <trkpt lat="48.94563" lon="1.05615">
        <ele>138.199997</ele>
        <time>2017-12-17T09:49:50Z</time>
      </trkpt>
      <trkpt lat="48.94564" lon="1.05595">
        <ele>138.199997</ele>
        <time>2017-12-17T09:49:52Z</time>
      </trkpt>
      <trkpt lat="48.94566" lon="1.05577">
        <ele>138.100006</ele>
        <time>2017-12-17T09:49:54Z</time>
      </trkpt>
      <trkpt lat="48.9457" lon="1.05565">
        <ele>138.300003</ele>
        <time>2017-12-17T09:49:56Z</time>
      </trkpt>
      <trkpt lat="48.94575" lon="1.05551">
        <ele>138.600006</ele>
        <time>2017-12-17T09:49:58Z</time>
      </trkpt>
      <trkpt lat="48.94578" lon="1.05535">
        <ele>138.199997</ele>
        <time>2017-12-17T09:50:00Z</time>
      </trkpt>
      <trkpt lat="48.94581" lon="1.05519">
        <ele>138</ele>
        <time>2017-12-17T09:50:02Z</time>
      </trkpt>
      <trkpt lat="48.94583" lon="1.05503">
        <ele>137.800003</ele>
        <time>2017-12-17T09:50:04Z</time>
      </trkpt>
      <trkpt lat="48.94583" lon="1.05484">
        <ele>138</ele>
        <time>2017-12-17T09:50:06Z</time>
      </trkpt>
      <trkpt lat="48.9458" lon="1.05468">
        <ele>137.5</ele>
        <time>2017-12-17T09:50:08Z</time>
      </trkpt>
      <trkpt lat="48.94576" lon="1.05451">
        <ele>137</ele>
        <time>2017-12-17T09:50:10Z</time>
      </trkpt>
      <trkpt lat="48.94573" lon="1.05434">
        <ele>137</ele>
        <time>2017-12-17T09:50:12Z</time>
      </trkpt>
      <trkpt lat="48.94572" lon="1.05416">
        <ele>136.199997</ele>
        <time>2017-12-17T09:50:14Z</time>
      </trkpt>
      <trkpt lat="48.94573" lon="1.05399">
        <ele>134.899994</ele>
        <time>2017-12-17T09:50:16Z</time>
      </trkpt>
      <trkpt lat="48.94571" lon="1.05381">
        <ele>133.600006</ele>
        <time>2017-12-17T09:50:18Z</time>
      </trkpt>
      <trkpt lat="48.94568" lon="1.05364">
        <ele>132.600006</ele>
        <time>2017-12-17T09:50:20Z</time>
      </trkpt>
      <trkpt lat="48.94567" lon="1.05347">
        <ele>131.5</ele>
        <time>2017-12-17T09:50:22Z</time>
      </trkpt>
      <trkpt lat="48.94565" lon="1.05331">
        <ele>130.399994</ele>
        <time>2017-12-17T09:50:24Z</time>
      </trkpt>
      <trkpt lat="48.94561" lon="1.05314">
        <ele>129.100006</ele>
        <time>2017-12-17T09:50:26Z</time>
      </trkpt>
      <trkpt lat="48.94561" lon="1.05292">
        <ele>127.900002</ele>
        <time>2017-12-17T09:50:28Z</time>
      </trkpt>
      <trkpt lat="48.94562" lon="1.05273">
        <ele>126.599998</ele>
        <time>2017-12-17T09:50:30Z</time>
      </trkpt>
      <trkpt lat="48.94563" lon="1.05254">
        <ele>125.800003</ele>
        <time>2017-12-17T09:50:32Z</time>
      </trkpt>
      <trkpt lat="48.94564" lon="1.05235">
        <ele>125.099998</ele>
        <time>2017-12-17T09:50:34Z</time>
      </trkpt>
      <trkpt lat="48.94565" lon="1.05215">
        <ele>123.699997</ele>
        <time>2017-12-17T09:50:36Z</time>
      </trkpt>
      <trkpt lat="48.94564" lon="1.05197">
        <ele>122.699997</ele>
        <time>2017-12-17T09:50:38Z</time>
      </trkpt>
      <trkpt lat="48.94564" lon="1.0518">
        <ele>121.599998</ele>
        <time>2017-12-17T09:50:41Z</time>
      </trkpt>
      <trkpt lat="48.94566" lon="1.05163">
        <ele>118.699997</ele>
        <time>2017-12-17T09:51:27Z</time>
      </trkpt>
      <trkpt lat="48.94563" lon="1.05146">
        <ele>118.699997</ele>
        <time>2017-12-17T09:51:31Z</time>
      </trkpt>
      <trkpt lat="48.9456" lon="1.0513">
        <ele>118.300003</ele>
        <time>2017-12-17T09:51:34Z</time>
      </trkpt>
      <trkpt lat="48.94556" lon="1.05111">
        <ele>118.300003</ele>
        <time>2017-12-17T09:51:37Z</time>
      </trkpt>
      <trkpt lat="48.94554" lon="1.05097">
        <ele>118.099998</ele>
        <time>2017-12-17T09:51:39Z</time>
      </trkpt>
      <trkpt lat="48.94553" lon="1.05082">
        <ele>118</ele>
        <time>2017-12-17T09:51:41Z</time>
      </trkpt>
      <trkpt lat="48.94552" lon="1.05066">
        <ele>117.800003</ele>
        <time>2017-12-17T09:51:43Z</time>
      </trkpt>
      <trkpt lat="48.94552" lon="1.05051">
        <ele>117.599998</ele>
        <time>2017-12-17T09:51:45Z</time>
      </trkpt>
      <trkpt lat="48.94553" lon="1.05035">
        <ele>117.5</ele>
        <time>2017-12-17T09:51:47Z</time>
      </trkpt>
      <trkpt lat="48.94555" lon="1.05018">
        <ele>117.400002</ele>
        <time>2017-12-17T09:51:49Z</time>
      </trkpt>
      <trkpt lat="48.94558" lon="1.05001">
        <ele>117.199997</ele>
        <time>2017-12-17T09:51:51Z</time>
      </trkpt>
      <trkpt lat="48.94562" lon="1.04983">
        <ele>117</ele>
        <time>2017-12-17T09:51:53Z</time>
      </trkpt>
      <trkpt lat="48.94566" lon="1.04964">
        <ele>116.599998</ele>
        <time>2017-12-17T09:51:55Z</time>
      </trkpt>
      <trkpt lat="48.9457" lon="1.04945">
        <ele>116.099998</ele>
        <time>2017-12-17T09:51:57Z</time>
      </trkpt>
      <trkpt lat="48.94573" lon="1.04925">
        <ele>115.5</ele>
        <time>2017-12-17T09:51:59Z</time>
      </trkpt>
      <trkpt lat="48.94575" lon="1.04905">
        <ele>114.900002</ele>
        <time>2017-12-17T09:52:01Z</time>
      </trkpt>
      <trkpt lat="48.94573" lon="1.04885">
        <ele>114.400002</ele>
        <time>2017-12-17T09:52:03Z</time>
      </trkpt>
      <trkpt lat="48.94567" lon="1.04868">
        <ele>113.900002</ele>
        <time>2017-12-17T09:52:05Z</time>
      </trkpt>
      <trkpt lat="48.94558" lon="1.04854">
        <ele>113.300003</ele>
        <time>2017-12-17T09:52:07Z</time>
      </trkpt>
      <trkpt lat="48.94547" lon="1.0484">
        <ele>112.400002</ele>
        <time>2017-12-17T09:52:09Z</time>
      </trkpt>
      <trkpt lat="48.94536" lon="1.04825">
        <ele>111.599998</ele>
        <time>2017-12-17T09:52:11Z</time>
      </trkpt>
      <trkpt lat="48.94529" lon="1.04808">
        <ele>110.5</ele>
        <time>2017-12-17T09:52:13Z</time>
      </trkpt>
      <trkpt lat="48.94525" lon="1.04788">
        <ele>109.699997</ele>
        <time>2017-12-17T09:52:15Z</time>
      </trkpt>
      <trkpt lat="48.94525" lon="1.04767">
        <ele>109.099998</ele>
        <time>2017-12-17T09:52:17Z</time>
      </trkpt>
      <trkpt lat="48.94526" lon="1.04745">
        <ele>108.599998</ele>
        <time>2017-12-17T09:52:19Z</time>
      </trkpt>
      <trkpt lat="48.94527" lon="1.04724">
        <ele>108</ele>
        <time>2017-12-17T09:52:21Z</time>
      </trkpt>
      <trkpt lat="48.94526" lon="1.04703">
        <ele>107.699997</ele>
        <time>2017-12-17T09:52:23Z</time>
      </trkpt>
      <trkpt lat="48.94524" lon="1.04682">
        <ele>107.599998</ele>
        <time>2017-12-17T09:52:25Z</time>
      </trkpt>
      <trkpt lat="48.94521" lon="1.04662">
        <ele>107.300003</ele>
        <time>2017-12-17T09:52:27Z</time>
      </trkpt>
      <trkpt lat="48.94516" lon="1.04644">
        <ele>107.300003</ele>
        <time>2017-12-17T09:52:29Z</time>
      </trkpt>
      <trkpt lat="48.9451" lon="1.04626">
        <ele>107.400002</ele>
        <time>2017-12-17T09:52:31Z</time>
      </trkpt>
      <trkpt lat="48.94504" lon="1.0461">
        <ele>107.400002</ele>
        <time>2017-12-17T09:52:33Z</time>
      </trkpt>
      <trkpt lat="48.94498" lon="1.04595">
        <ele>107.5</ele>
        <time>2017-12-17T09:52:35Z</time>
      </trkpt>
      <trkpt lat="48.94492" lon="1.0458">
        <ele>107.599998</ele>
        <time>2017-12-17T09:52:37Z</time>
      </trkpt>
      <trkpt lat="48.94486" lon="1.04566">
        <ele>107.699997</ele>
        <time>2017-12-17T09:52:39Z</time>
      </trkpt>
      <trkpt lat="48.94481" lon="1.04554">
        <ele>107.900002</ele>
        <time>2017-12-17T09:52:41Z</time>
      </trkpt>
      <trkpt lat="48.94474" lon="1.04537">
        <ele>108.199997</ele>
        <time>2017-12-17T09:52:44Z</time>
      </trkpt>
      <trkpt lat="48.94476" lon="1.04524">
        <ele>108.5</ele>
        <time>2017-12-17T09:52:47Z</time>
      </trkpt>
      <trkpt lat="48.94487" lon="1.04515">
        <ele>108.300003</ele>
        <time>2017-12-17T09:52:50Z</time>
      </trkpt>
      <trkpt lat="48.94496" lon="1.04508">
        <ele>108.300003</ele>
        <time>2017-12-17T09:52:52Z</time>
      </trkpt>
      <trkpt lat="48.94506" lon="1.04501">
        <ele>108.199997</ele>
        <time>2017-12-17T09:52:54Z</time>
      </trkpt>
      <trkpt lat="48.94516" lon="1.04495">
        <ele>107.900002</ele>
        <time>2017-12-17T09:52:56Z</time>
      </trkpt>
      <trkpt lat="48.94527" lon="1.0449">
        <ele>107.699997</ele>
        <time>2017-12-17T09:52:58Z</time>
      </trkpt>
      <trkpt lat="48.94538" lon="1.04486">
        <ele>107.599998</ele>
        <time>2017-12-17T09:53:00Z</time>
      </trkpt>
      <trkpt lat="48.94549" lon="1.04482">
        <ele>107.5</ele>
        <time>2017-12-17T09:53:02Z</time>
      </trkpt>
      <trkpt lat="48.94559" lon="1.04477">
        <ele>107.5</ele>
        <time>2017-12-17T09:53:04Z</time>
      </trkpt>
      <trkpt lat="48.94568" lon="1.04469">
        <ele>107.400002</ele>
        <time>2017-12-17T09:53:06Z</time>
      </trkpt>
      <trkpt lat="48.94578" lon="1.04461">
        <ele>107.599998</ele>
        <time>2017-12-17T09:53:08Z</time>
      </trkpt>
      <trkpt lat="48.94587" lon="1.04457">
        <ele>107.800003</ele>
        <time>2017-12-17T09:53:10Z</time>
      </trkpt>
      <trkpt lat="48.94597" lon="1.04458">
        <ele>107.900002</ele>
        <time>2017-12-17T09:53:12Z</time>
      </trkpt>
      <trkpt lat="48.94609" lon="1.04467">
        <ele>108.400002</ele>
        <time>2017-12-17T09:53:15Z</time>
      </trkpt>
      <trkpt lat="48.94617" lon="1.04479">
        <ele>109.199997</ele>
        <time>2017-12-17T09:53:18Z</time>
      </trkpt>
      <trkpt lat="48.94624" lon="1.04491">
        <ele>110</ele>
        <time>2017-12-17T09:53:21Z</time>
      </trkpt>
      <trkpt lat="48.94631" lon="1.04501">
        <ele>110.800003</ele>
        <time>2017-12-17T09:53:24Z</time>
      </trkpt>
      <trkpt lat="48.9464" lon="1.04509">
        <ele>112.599998</ele>
        <time>2017-12-17T09:53:28Z</time>
      </trkpt>
      <trkpt lat="48.94649" lon="1.04517">
        <ele>114.400002</ele>
        <time>2017-12-17T09:53:33Z</time>
      </trkpt>
      <trkpt lat="48.94658" lon="1.04517">
        <ele>115.300003</ele>
        <time>2017-12-17T09:53:36Z</time>
      </trkpt>
      <trkpt lat="48.94668" lon="1.04514">
        <ele>116.300003</ele>
        <time>2017-12-17T09:53:40Z</time>
      </trkpt>
      <trkpt lat="48.94676" lon="1.04505">
        <ele>117.5</ele>
        <time>2017-12-17T09:53:44Z</time>
      </trkpt>
      <trkpt lat="48.94684" lon="1.04495">
        <ele>119.199997</ele>
        <time>2017-12-17T09:53:49Z</time>
      </trkpt>
      <trkpt lat="48.94691" lon="1.04481">
        <ele>120.699997</ele>
        <time>2017-12-17T09:53:54Z</time>
      </trkpt>
      <trkpt lat="48.94696" lon="1.04467">
        <ele>122.099998</ele>
        <time>2017-12-17T09:53:58Z</time>
      </trkpt>
      <trkpt lat="48.94702" lon="1.04452">
        <ele>123.5</ele>
        <time>2017-12-17T09:54:02Z</time>
      </trkpt>
      <trkpt lat="48.94707" lon="1.0444">
        <ele>124.699997</ele>
        <time>2017-12-17T09:54:06Z</time>
      </trkpt>
      <trkpt lat="48.94713" lon="1.04427">
        <ele>126.400002</ele>
        <time>2017-12-17T09:54:11Z</time>
      </trkpt>
      <trkpt lat="48.9472" lon="1.04419">
        <ele>127.800003</ele>
        <time>2017-12-17T09:54:15Z</time>
      </trkpt>
      <trkpt lat="48.94729" lon="1.04412">
        <ele>129.5</ele>
        <time>2017-12-17T09:54:21Z</time>
      </trkpt>
      <trkpt lat="48.94738" lon="1.04408">
        <ele>130.800003</ele>
        <time>2017-12-17T09:54:27Z</time>
      </trkpt>
      <trkpt lat="48.94747" lon="1.04408">
        <ele>131.899994</ele>
        <time>2017-12-17T09:54:32Z</time>
      </trkpt>
      <trkpt lat="48.94758" lon="1.0441">
        <ele>133.100006</ele>
        <time>2017-12-17T09:54:37Z</time>
      </trkpt>
      <trkpt lat="48.94767" lon="1.04414">
        <ele>133.899994</ele>
        <time>2017-12-17T09:54:41Z</time>
      </trkpt>
      <trkpt lat="48.94776" lon="1.04421">
        <ele>134.600006</ele>
        <time>2017-12-17T09:54:45Z</time>
      </trkpt>
      <trkpt lat="48.94784" lon="1.0443">
        <ele>135.399994</ele>
        <time>2017-12-17T09:54:49Z</time>
      </trkpt>
      <trkpt lat="48.94792" lon="1.0444">
        <ele>136.199997</ele>
        <time>2017-12-17T09:54:53Z</time>
      </trkpt>
      <trkpt lat="48.94801" lon="1.04445">
        <ele>136.800003</ele>
        <time>2017-12-17T09:54:58Z</time>
      </trkpt>
      <trkpt lat="48.94809" lon="1.04436">
        <ele>137.100006</ele>
        <time>2017-12-17T09:56:19Z</time>
      </trkpt>
      <trkpt lat="48.94818" lon="1.04427">
        <ele>137.199997</ele>
        <time>2017-12-17T09:56:23Z</time>
      </trkpt>
      <trkpt lat="48.94827" lon="1.04415">
        <ele>137.600006</ele>
        <time>2017-12-17T09:56:27Z</time>
      </trkpt>
      <trkpt lat="48.94836" lon="1.04403">
        <ele>138</ele>
        <time>2017-12-17T09:56:31Z</time>
      </trkpt>
      <trkpt lat="48.94843" lon="1.04391">
        <ele>138.199997</ele>
        <time>2017-12-17T09:56:34Z</time>
      </trkpt>
      <trkpt lat="48.94851" lon="1.0438">
        <ele>139</ele>
        <time>2017-12-17T09:56:37Z</time>
      </trkpt>
      <trkpt lat="48.94859" lon="1.04369">
        <ele>139.600006</ele>
        <time>2017-12-17T09:56:40Z</time>
      </trkpt>
      <trkpt lat="48.94867" lon="1.04357">
        <ele>139.399994</ele>
        <time>2017-12-17T09:56:43Z</time>
      </trkpt>
      <trkpt lat="48.94876" lon="1.04345">
        <ele>139.399994</ele>
        <time>2017-12-17T09:56:46Z</time>
      </trkpt>
      <trkpt lat="48.94882" lon="1.04336">
        <ele>139.300003</ele>
        <time>2017-12-17T09:56:49Z</time>
      </trkpt>
      <trkpt lat="48.9489" lon="1.04325">
        <ele>139.100006</ele>
        <time>2017-12-17T09:56:52Z</time>
      </trkpt>
      <trkpt lat="48.949" lon="1.04315">
        <ele>139.199997</ele>
        <time>2017-12-17T09:56:55Z</time>
      </trkpt>
      <trkpt lat="48.94909" lon="1.04307">
        <ele>139.600006</ele>
        <time>2017-12-17T09:56:58Z</time>
      </trkpt>
      <trkpt lat="48.94922" lon="1.043">
        <ele>139.899994</ele>
        <time>2017-12-17T09:57:01Z</time>
      </trkpt>
      <trkpt lat="48.94931" lon="1.04297">
        <ele>140</ele>
        <time>2017-12-17T09:57:04Z</time>
      </trkpt>
      <trkpt lat="48.94941" lon="1.04293">
        <ele>140.300003</ele>
        <time>2017-12-17T09:57:06Z</time>
      </trkpt>
      <trkpt lat="48.94953" lon="1.0429">
        <ele>140.5</ele>
        <time>2017-12-17T09:57:09Z</time>
      </trkpt>
      <trkpt lat="48.94966" lon="1.04287">
        <ele>141.300003</ele>
        <time>2017-12-17T09:57:12Z</time>
      </trkpt>
      <trkpt lat="48.94979" lon="1.04283">
        <ele>141.199997</ele>
        <time>2017-12-17T09:57:15Z</time>
      </trkpt>
      <trkpt lat="48.94988" lon="1.04279">
        <ele>141.399994</ele>
        <time>2017-12-17T09:57:17Z</time>
      </trkpt>
      <trkpt lat="48.94998" lon="1.04275">
        <ele>141.600006</ele>
        <time>2017-12-17T09:57:19Z</time>
      </trkpt>
      <trkpt lat="48.95007" lon="1.0427">
        <ele>141.699997</ele>
        <time>2017-12-17T09:57:21Z</time>
      </trkpt>
      <trkpt lat="48.95017" lon="1.04266">
        <ele>141.800003</ele>
        <time>2017-12-17T09:57:23Z</time>
      </trkpt>
      <trkpt lat="48.95027" lon="1.04262">
        <ele>141.800003</ele>
        <time>2017-12-17T09:57:25Z</time>
      </trkpt>
      <trkpt lat="48.95036" lon="1.04259">
        <ele>141.899994</ele>
        <time>2017-12-17T09:57:27Z</time>
      </trkpt>
      <trkpt lat="48.95045" lon="1.04255">
        <ele>141.600006</ele>
        <time>2017-12-17T09:57:29Z</time>
      </trkpt>
      <trkpt lat="48.95055" lon="1.0425">
        <ele>141.600006</ele>
        <time>2017-12-17T09:57:31Z</time>
      </trkpt>
      <trkpt lat="48.95064" lon="1.04246">
        <ele>141.800003</ele>
        <time>2017-12-17T09:57:33Z</time>
      </trkpt>
      <trkpt lat="48.95073" lon="1.04243">
        <ele>141.699997</ele>
        <time>2017-12-17T09:57:35Z</time>
      </trkpt>
      <trkpt lat="48.95086" lon="1.0424">
        <ele>142</ele>
        <time>2017-12-17T09:57:38Z</time>
      </trkpt>
      <trkpt lat="48.951" lon="1.04237">
        <ele>142.5</ele>
        <time>2017-12-17T09:57:41Z</time>
      </trkpt>
      <trkpt lat="48.95113" lon="1.04235">
        <ele>142.5</ele>
        <time>2017-12-17T09:57:44Z</time>
      </trkpt>
      <trkpt lat="48.95125" lon="1.04231">
        <ele>142.600006</ele>
        <time>2017-12-17T09:57:47Z</time>
      </trkpt>
      <trkpt lat="48.95137" lon="1.04227">
        <ele>142.699997</ele>
        <time>2017-12-17T09:57:50Z</time>
      </trkpt>
      <trkpt lat="48.95149" lon="1.0422">
        <ele>143</ele>
        <time>2017-12-17T09:57:53Z</time>
      </trkpt>
      <trkpt lat="48.9516" lon="1.04213">
        <ele>142.899994</ele>
        <time>2017-12-17T09:57:56Z</time>
      </trkpt>
      <trkpt lat="48.95172" lon="1.04204">
        <ele>142.699997</ele>
        <time>2017-12-17T09:57:59Z</time>
      </trkpt>
      <trkpt lat="48.95184" lon="1.04197">
        <ele>142.5</ele>
        <time>2017-12-17T09:58:02Z</time>
      </trkpt>
      <trkpt lat="48.95197" lon="1.04193">
        <ele>142.300003</ele>
        <time>2017-12-17T09:58:05Z</time>
      </trkpt>
      <trkpt lat="48.9521" lon="1.04193">
        <ele>142.199997</ele>
        <time>2017-12-17T09:58:08Z</time>
      </trkpt>
      <trkpt lat="48.95219" lon="1.04192">
        <ele>142.300003</ele>
        <time>2017-12-17T09:58:10Z</time>
      </trkpt>
      <trkpt lat="48.95229" lon="1.04192">
        <ele>142.100006</ele>
        <time>2017-12-17T09:58:12Z</time>
      </trkpt>
      <trkpt lat="48.95238" lon="1.04192">
        <ele>142</ele>
        <time>2017-12-17T09:58:14Z</time>
      </trkpt>
      <trkpt lat="48.95247" lon="1.04193">
        <ele>141.899994</ele>
        <time>2017-12-17T09:58:16Z</time>
      </trkpt>
      <trkpt lat="48.95256" lon="1.04193">
        <ele>141.800003</ele>
        <time>2017-12-17T09:58:18Z</time>
      </trkpt>
      <trkpt lat="48.95269" lon="1.04191">
        <ele>141.699997</ele>
        <time>2017-12-17T09:58:21Z</time>
      </trkpt>
      <trkpt lat="48.9528" lon="1.04189">
        <ele>141.800003</ele>
        <time>2017-12-17T09:58:24Z</time>
      </trkpt>
      <trkpt lat="48.9529" lon="1.04189">
        <ele>142.300003</ele>
        <time>2017-12-17T09:58:27Z</time>
      </trkpt>
      <trkpt lat="48.95301" lon="1.04185">
        <ele>142.600006</ele>
        <time>2017-12-17T09:58:30Z</time>
      </trkpt>
      <trkpt lat="48.95313" lon="1.0418">
        <ele>142.600006</ele>
        <time>2017-12-17T09:58:33Z</time>
      </trkpt>
      <trkpt lat="48.95325" lon="1.04175">
        <ele>142.699997</ele>
        <time>2017-12-17T09:58:36Z</time>
      </trkpt>
      <trkpt lat="48.95334" lon="1.0417">
        <ele>142.800003</ele>
        <time>2017-12-17T09:58:38Z</time>
      </trkpt>
      <trkpt lat="48.95343" lon="1.04166">
        <ele>142.800003</ele>
        <time>2017-12-17T09:58:40Z</time>
      </trkpt>
      <trkpt lat="48.95352" lon="1.0416">
        <ele>142.800003</ele>
        <time>2017-12-17T09:58:42Z</time>
      </trkpt>
      <trkpt lat="48.9536" lon="1.04155">
        <ele>142.600006</ele>
        <time>2017-12-17T09:58:44Z</time>
      </trkpt>
      <trkpt lat="48.95368" lon="1.04148">
        <ele>142.699997</ele>
        <time>2017-12-17T09:58:46Z</time>
      </trkpt>
      <trkpt lat="48.95376" lon="1.0414">
        <ele>142.899994</ele>
        <time>2017-12-17T09:58:48Z</time>
      </trkpt>
      <trkpt lat="48.95386" lon="1.04128">
        <ele>143.300003</ele>
        <time>2017-12-17T09:58:51Z</time>
      </trkpt>
      <trkpt lat="48.95394" lon="1.04116">
        <ele>143.699997</ele>
        <time>2017-12-17T09:58:54Z</time>
      </trkpt>
      <trkpt lat="48.95402" lon="1.04104">
        <ele>144.600006</ele>
        <time>2017-12-17T09:58:57Z</time>
      </trkpt>
      <trkpt lat="48.9541" lon="1.04092">
        <ele>145.300003</ele>
        <time>2017-12-17T09:59:00Z</time>
      </trkpt>
      <trkpt lat="48.95418" lon="1.04082">
        <ele>146.100006</ele>
        <time>2017-12-17T09:59:03Z</time>
      </trkpt>
      <trkpt lat="48.95425" lon="1.04072">
        <ele>146.699997</ele>
        <time>2017-12-17T09:59:06Z</time>
      </trkpt>
      <trkpt lat="48.95433" lon="1.0406">
        <ele>147.5</ele>
        <time>2017-12-17T09:59:10Z</time>
      </trkpt>
      <trkpt lat="48.95441" lon="1.04045">
        <ele>148</ele>
        <time>2017-12-17T09:59:14Z</time>
      </trkpt>
      <trkpt lat="48.95451" lon="1.04034">
        <ele>148.100006</ele>
        <time>2017-12-17T09:59:17Z</time>
      </trkpt>
      <trkpt lat="48.95455" lon="1.04021">
        <ele>148.300003</ele>
        <time>2017-12-17T09:59:19Z</time>
      </trkpt>
      <trkpt lat="48.9546" lon="1.04009">
        <ele>148.600006</ele>
        <time>2017-12-17T09:59:21Z</time>
      </trkpt>
      <trkpt lat="48.95468" lon="1.03993">
        <ele>148.800003</ele>
        <time>2017-12-17T09:59:24Z</time>
      </trkpt>
      <trkpt lat="48.95476" lon="1.03978">
        <ele>148.800003</ele>
        <time>2017-12-17T09:59:27Z</time>
      </trkpt>
      <trkpt lat="48.95486" lon="1.03963">
        <ele>148.800003</ele>
        <time>2017-12-17T09:59:30Z</time>
      </trkpt>
      <trkpt lat="48.95493" lon="1.03953">
        <ele>148.800003</ele>
        <time>2017-12-17T09:59:32Z</time>
      </trkpt>
      <trkpt lat="48.95504" lon="1.03941">
        <ele>149</ele>
        <time>2017-12-17T09:59:35Z</time>
      </trkpt>
      <trkpt lat="48.95512" lon="1.03934">
        <ele>149.100006</ele>
        <time>2017-12-17T09:59:37Z</time>
      </trkpt>
      <trkpt lat="48.95522" lon="1.03923">
        <ele>149.100006</ele>
        <time>2017-12-17T09:59:39Z</time>
      </trkpt>
      <trkpt lat="48.95531" lon="1.03912">
        <ele>149.100006</ele>
        <time>2017-12-17T09:59:41Z</time>
      </trkpt>
      <trkpt lat="48.95539" lon="1.03901">
        <ele>149.100006</ele>
        <time>2017-12-17T09:59:43Z</time>
      </trkpt>
      <trkpt lat="48.95546" lon="1.0389">
        <ele>149.100006</ele>
        <time>2017-12-17T09:59:45Z</time>
      </trkpt>
      <trkpt lat="48.95553" lon="1.03878">
        <ele>149.100006</ele>
        <time>2017-12-17T09:59:47Z</time>
      </trkpt>
      <trkpt lat="48.9556" lon="1.03866">
        <ele>149.199997</ele>
        <time>2017-12-17T09:59:49Z</time>
      </trkpt>
      <trkpt lat="48.95567" lon="1.03853">
        <ele>149.300003</ele>
        <time>2017-12-17T09:59:51Z</time>
      </trkpt>
      <trkpt lat="48.95574" lon="1.03839">
        <ele>149.399994</ele>
        <time>2017-12-17T09:59:53Z</time>
      </trkpt>
      <trkpt lat="48.95581" lon="1.03826">
        <ele>149.5</ele>
        <time>2017-12-17T09:59:55Z</time>
      </trkpt>
      <trkpt lat="48.95587" lon="1.03814">
        <ele>149.600006</ele>
        <time>2017-12-17T09:59:57Z</time>
      </trkpt>
      <trkpt lat="48.95595" lon="1.038">
        <ele>149.5</ele>
        <time>2017-12-17T09:59:59Z</time>
      </trkpt>
      <trkpt lat="48.95601" lon="1.03788">
        <ele>149.399994</ele>
        <time>2017-12-17T10:00:01Z</time>
      </trkpt>
      <trkpt lat="48.95608" lon="1.03777">
        <ele>149.300003</ele>
        <time>2017-12-17T10:00:03Z</time>
      </trkpt>
      <trkpt lat="48.95616" lon="1.03766">
        <ele>149.100006</ele>
        <time>2017-12-17T10:00:05Z</time>
      </trkpt>
      <trkpt lat="48.95626" lon="1.03757">
        <ele>148.699997</ele>
        <time>2017-12-17T10:00:07Z</time>
      </trkpt>
      <trkpt lat="48.95636" lon="1.03749">
        <ele>148.399994</ele>
        <time>2017-12-17T10:00:09Z</time>
      </trkpt>
      <trkpt lat="48.95647" lon="1.03742">
        <ele>148.199997</ele>
        <time>2017-12-17T10:00:11Z</time>
      </trkpt>
      <trkpt lat="48.95659" lon="1.03734">
        <ele>147.600006</ele>
        <time>2017-12-17T10:00:13Z</time>
      </trkpt>
      <trkpt lat="48.95673" lon="1.03722">
        <ele>147.100006</ele>
        <time>2017-12-17T10:00:15Z</time>
      </trkpt>
      <trkpt lat="48.95686" lon="1.03711">
        <ele>146.600006</ele>
        <time>2017-12-17T10:00:17Z</time>
      </trkpt>
      <trkpt lat="48.95698" lon="1.037">
        <ele>145.899994</ele>
        <time>2017-12-17T10:00:19Z</time>
      </trkpt>
      <trkpt lat="48.95709" lon="1.0369">
        <ele>145.5</ele>
        <time>2017-12-17T10:00:21Z</time>
      </trkpt>
      <trkpt lat="48.95718" lon="1.03678">
        <ele>145</ele>
        <time>2017-12-17T10:00:23Z</time>
      </trkpt>
      <trkpt lat="48.95728" lon="1.03666">
        <ele>144.600006</ele>
        <time>2017-12-17T10:00:25Z</time>
      </trkpt>
      <trkpt lat="48.95736" lon="1.03658">
        <ele>144.199997</ele>
        <time>2017-12-17T10:00:27Z</time>
      </trkpt>
      <trkpt lat="48.95744" lon="1.03645">
        <ele>144.100006</ele>
        <time>2017-12-17T10:00:29Z</time>
      </trkpt>
      <trkpt lat="48.95753" lon="1.03634">
        <ele>144</ele>
        <time>2017-12-17T10:00:31Z</time>
      </trkpt>
      <trkpt lat="48.95761" lon="1.03623">
        <ele>143.800003</ele>
        <time>2017-12-17T10:00:33Z</time>
      </trkpt>
      <trkpt lat="48.95768" lon="1.03611">
        <ele>143.800003</ele>
        <time>2017-12-17T10:00:35Z</time>
      </trkpt>
      <trkpt lat="48.95775" lon="1.03601">
        <ele>143.899994</ele>
        <time>2017-12-17T10:00:37Z</time>
      </trkpt>
      <trkpt lat="48.95783" lon="1.03592">
        <ele>143.800003</ele>
        <time>2017-12-17T10:00:39Z</time>
      </trkpt>
      <trkpt lat="48.9579" lon="1.03582">
        <ele>143.699997</ele>
        <time>2017-12-17T10:00:41Z</time>
      </trkpt>
      <trkpt lat="48.95798" lon="1.0357">
        <ele>143.5</ele>
        <time>2017-12-17T10:00:43Z</time>
      </trkpt>
      <trkpt lat="48.95807" lon="1.03558">
        <ele>143.5</ele>
        <time>2017-12-17T10:00:45Z</time>
      </trkpt>
      <trkpt lat="48.95814" lon="1.03548">
        <ele>143.399994</ele>
        <time>2017-12-17T10:00:47Z</time>
      </trkpt>
      <trkpt lat="48.95822" lon="1.03536">
        <ele>143.199997</ele>
        <time>2017-12-17T10:00:49Z</time>
      </trkpt>
      <trkpt lat="48.9583" lon="1.03526">
        <ele>143.199997</ele>
        <time>2017-12-17T10:00:51Z</time>
      </trkpt>
      <trkpt lat="48.95837" lon="1.03517">
        <ele>143.100006</ele>
        <time>2017-12-17T10:00:53Z</time>
      </trkpt>
      <trkpt lat="48.95844" lon="1.03508">
        <ele>142.899994</ele>
        <time>2017-12-17T10:00:55Z</time>
      </trkpt>
      <trkpt lat="48.95852" lon="1.03497">
        <ele>142.699997</ele>
        <time>2017-12-17T10:00:58Z</time>
      </trkpt>
      <trkpt lat="48.95861" lon="1.03492">
        <ele>142.399994</ele>
        <time>2017-12-17T10:01:03Z</time>
      </trkpt>
      <trkpt lat="48.95864" lon="1.03505">
        <ele>141.899994</ele>
        <time>2017-12-17T10:01:50Z</time>
      </trkpt>
      <trkpt lat="48.95872" lon="1.03517">
        <ele>141.699997</ele>
        <time>2017-12-17T10:01:54Z</time>
      </trkpt>
      <trkpt lat="48.95882" lon="1.0353">
        <ele>141.399994</ele>
        <time>2017-12-17T10:01:57Z</time>
      </trkpt>
      <trkpt lat="48.95891" lon="1.03543">
        <ele>141.399994</ele>
        <time>2017-12-17T10:02:00Z</time>
      </trkpt>
      <trkpt lat="48.959" lon="1.03557">
        <ele>141.399994</ele>
        <time>2017-12-17T10:02:03Z</time>
      </trkpt>
      <trkpt lat="48.95908" lon="1.03572">
        <ele>141.300003</ele>
        <time>2017-12-17T10:02:06Z</time>
      </trkpt>
      <trkpt lat="48.95913" lon="1.03584">
        <ele>141.100006</ele>
        <time>2017-12-17T10:02:08Z</time>
      </trkpt>
      <trkpt lat="48.95918" lon="1.03596">
        <ele>141</ele>
        <time>2017-12-17T10:02:10Z</time>
      </trkpt>
      <trkpt lat="48.95923" lon="1.03608">
        <ele>141</ele>
        <time>2017-12-17T10:02:12Z</time>
      </trkpt>
      <trkpt lat="48.9593" lon="1.03617">
        <ele>141</ele>
        <time>2017-12-17T10:02:14Z</time>
      </trkpt>
      <trkpt lat="48.9594" lon="1.03626">
        <ele>140.899994</ele>
        <time>2017-12-17T10:02:17Z</time>
      </trkpt>
      <trkpt lat="48.95948" lon="1.03638">
        <ele>140.899994</ele>
        <time>2017-12-17T10:02:20Z</time>
      </trkpt>
      <trkpt lat="48.95953" lon="1.03656">
        <ele>140.800003</ele>
        <time>2017-12-17T10:02:23Z</time>
      </trkpt>
      <trkpt lat="48.95958" lon="1.03669">
        <ele>140.5</ele>
        <time>2017-12-17T10:02:25Z</time>
      </trkpt>
      <trkpt lat="48.95962" lon="1.03682">
        <ele>140.699997</ele>
        <time>2017-12-17T10:02:27Z</time>
      </trkpt>
      <trkpt lat="48.95964" lon="1.03702">
        <ele>140.199997</ele>
        <time>2017-12-17T10:02:30Z</time>
      </trkpt>
      <trkpt lat="48.95964" lon="1.03722">
        <ele>139.699997</ele>
        <time>2017-12-17T10:02:33Z</time>
      </trkpt>
      <trkpt lat="48.95966" lon="1.03742">
        <ele>140</ele>
        <time>2017-12-17T10:02:36Z</time>
      </trkpt>
      <trkpt lat="48.95968" lon="1.03757">
        <ele>139.300003</ele>
        <time>2017-12-17T10:02:38Z</time>
      </trkpt>
      <trkpt lat="48.95971" lon="1.03771">
        <ele>139</ele>
        <time>2017-12-17T10:02:40Z</time>
      </trkpt>
      <trkpt lat="48.95977" lon="1.03782">
        <ele>138.399994</ele>
        <time>2017-12-17T10:02:42Z</time>
      </trkpt>
      <trkpt lat="48.95983" lon="1.03795">
        <ele>138.199997</ele>
        <time>2017-12-17T10:02:44Z</time>
      </trkpt>
      <trkpt lat="48.9599" lon="1.03809">
        <ele>137.800003</ele>
        <time>2017-12-17T10:02:46Z</time>
      </trkpt>
      <trkpt lat="48.95995" lon="1.03825">
        <ele>137.699997</ele>
        <time>2017-12-17T10:02:48Z</time>
      </trkpt>
      <trkpt lat="48.96001" lon="1.03841">
        <ele>137.300003</ele>
        <time>2017-12-17T10:02:50Z</time>
      </trkpt>
      <trkpt lat="48.96006" lon="1.03858">
        <ele>136.699997</ele>
        <time>2017-12-17T10:02:52Z</time>
      </trkpt>
      <trkpt lat="48.96012" lon="1.03876">
        <ele>136.5</ele>
        <time>2017-12-17T10:02:54Z</time>
      </trkpt>
      <trkpt lat="48.96019" lon="1.03895">
        <ele>136.100006</ele>
        <time>2017-12-17T10:02:56Z</time>
      </trkpt>
      <trkpt lat="48.96026" lon="1.03913">
        <ele>135.399994</ele>
        <time>2017-12-17T10:02:58Z</time>
      </trkpt>
      <trkpt lat="48.96035" lon="1.03931">
        <ele>134.899994</ele>
        <time>2017-12-17T10:03:00Z</time>
      </trkpt>
      <trkpt lat="48.96045" lon="1.03949">
        <ele>134.199997</ele>
        <time>2017-12-17T10:03:02Z</time>
      </trkpt>
      <trkpt lat="48.96057" lon="1.03963">
        <ele>133.800003</ele>
        <time>2017-12-17T10:03:04Z</time>
      </trkpt>
      <trkpt lat="48.96072" lon="1.03967">
        <ele>132.800003</ele>
        <time>2017-12-17T10:03:06Z</time>
      </trkpt>
      <trkpt lat="48.96088" lon="1.03967">
        <ele>132</ele>
        <time>2017-12-17T10:03:08Z</time>
      </trkpt>
      <trkpt lat="48.96105" lon="1.03968">
        <ele>131</ele>
        <time>2017-12-17T10:03:10Z</time>
      </trkpt>
      <trkpt lat="48.96121" lon="1.03969">
        <ele>129.600006</ele>
        <time>2017-12-17T10:03:12Z</time>
      </trkpt>
      <trkpt lat="48.96137" lon="1.03971">
        <ele>128.100006</ele>
        <time>2017-12-17T10:03:14Z</time>
      </trkpt>
      <trkpt lat="48.96154" lon="1.03973">
        <ele>127.199997</ele>
        <time>2017-12-17T10:03:16Z</time>
      </trkpt>
      <trkpt lat="48.96171" lon="1.03975">
        <ele>125.900002</ele>
        <time>2017-12-17T10:03:18Z</time>
      </trkpt>
      <trkpt lat="48.96188" lon="1.03977">
        <ele>125.199997</ele>
        <time>2017-12-17T10:03:20Z</time>
      </trkpt>
      <trkpt lat="48.96203" lon="1.03979">
        <ele>123.900002</ele>
        <time>2017-12-17T10:03:22Z</time>
      </trkpt>
      <trkpt lat="48.96214" lon="1.03985">
        <ele>122.5</ele>
        <time>2017-12-17T10:03:24Z</time>
      </trkpt>
      <trkpt lat="48.96221" lon="1.03999">
        <ele>121.300003</ele>
        <time>2017-12-17T10:03:26Z</time>
      </trkpt>
      <trkpt lat="48.96224" lon="1.04016">
        <ele>120.099998</ele>
        <time>2017-12-17T10:03:28Z</time>
      </trkpt>
      <trkpt lat="48.96226" lon="1.04034">
        <ele>118.599998</ele>
        <time>2017-12-17T10:03:30Z</time>
      </trkpt>
      <trkpt lat="48.96227" lon="1.04053">
        <ele>117.599998</ele>
        <time>2017-12-17T10:03:32Z</time>
      </trkpt>
      <trkpt lat="48.96227" lon="1.04071">
        <ele>117.900002</ele>
        <time>2017-12-17T10:03:34Z</time>
      </trkpt>
      <trkpt lat="48.96228" lon="1.04089">
        <ele>117.800003</ele>
        <time>2017-12-17T10:03:36Z</time>
      </trkpt>
      <trkpt lat="48.9623" lon="1.04108">
        <ele>117.400002</ele>
        <time>2017-12-17T10:03:38Z</time>
      </trkpt>
      <trkpt lat="48.96235" lon="1.04126">
        <ele>117.099998</ele>
        <time>2017-12-17T10:03:40Z</time>
      </trkpt>
      <trkpt lat="48.9624" lon="1.04145">
        <ele>116.800003</ele>
        <time>2017-12-17T10:03:42Z</time>
      </trkpt>
      <trkpt lat="48.96246" lon="1.04163">
        <ele>115.900002</ele>
        <time>2017-12-17T10:03:44Z</time>
      </trkpt>
      <trkpt lat="48.96248" lon="1.04177">
        <ele>115.300003</ele>
        <time>2017-12-17T10:03:45Z</time>
      </trkpt>
      <trkpt lat="48.96253" lon="1.042">
        <ele>113.199997</ele>
        <time>2017-12-17T10:03:47Z</time>
      </trkpt>
      <trkpt lat="48.96258" lon="1.04221">
        <ele>111.900002</ele>
        <time>2017-12-17T10:03:49Z</time>
      </trkpt>
      <trkpt lat="48.96262" lon="1.04243">
        <ele>110.599998</ele>
        <time>2017-12-17T10:03:51Z</time>
      </trkpt>
      <trkpt lat="48.96265" lon="1.04268">
        <ele>108</ele>
        <time>2017-12-17T10:03:53Z</time>
      </trkpt>
      <trkpt lat="48.96267" lon="1.04289">
        <ele>107.099998</ele>
        <time>2017-12-17T10:03:55Z</time>
      </trkpt>
      <trkpt lat="48.96268" lon="1.0431">
        <ele>105.599998</ele>
        <time>2017-12-17T10:03:57Z</time>
      </trkpt>
      <trkpt lat="48.96269" lon="1.04324">
        <ele>105.099998</ele>
        <time>2017-12-17T10:03:58Z</time>
      </trkpt>
      <trkpt lat="48.9627" lon="1.04346">
        <ele>103</ele>
        <time>2017-12-17T10:04:00Z</time>
      </trkpt>
      <trkpt lat="48.96275" lon="1.04363">
        <ele>101.900002</ele>
        <time>2017-12-17T10:04:02Z</time>
      </trkpt>
      <trkpt lat="48.96284" lon="1.0437">
        <ele>100.199997</ele>
        <time>2017-12-17T10:04:05Z</time>
      </trkpt>
      <trkpt lat="48.96295" lon="1.04366">
        <ele>99.099998</ele>
        <time>2017-12-17T10:04:09Z</time>
      </trkpt>
      <trkpt lat="48.96305" lon="1.04361">
        <ele>98.5</ele>
        <time>2017-12-17T10:04:13Z</time>
      </trkpt>
      <trkpt lat="48.96316" lon="1.04355">
        <ele>98.199997</ele>
        <time>2017-12-17T10:04:17Z</time>
      </trkpt>
      <trkpt lat="48.96327" lon="1.04348">
        <ele>98.099998</ele>
        <time>2017-12-17T10:04:21Z</time>
      </trkpt>
      <trkpt lat="48.96336" lon="1.04343">
        <ele>97.900002</ele>
        <time>2017-12-17T10:04:24Z</time>
      </trkpt>
      <trkpt lat="48.96345" lon="1.04337">
        <ele>97.900002</ele>
        <time>2017-12-17T10:04:27Z</time>
      </trkpt>
      <trkpt lat="48.96355" lon="1.04329">
        <ele>97.900002</ele>
        <time>2017-12-17T10:04:30Z</time>
      </trkpt>
      <trkpt lat="48.96366" lon="1.0432">
        <ele>98</ele>
        <time>2017-12-17T10:04:33Z</time>
      </trkpt>
      <trkpt lat="48.96374" lon="1.04313">
        <ele>97.900002</ele>
        <time>2017-12-17T10:04:35Z</time>
      </trkpt>
      <trkpt lat="48.96382" lon="1.04305">
        <ele>97.5</ele>
        <time>2017-12-17T10:04:37Z</time>
      </trkpt>
      <trkpt lat="48.96393" lon="1.04294">
        <ele>97.199997</ele>
        <time>2017-12-17T10:04:40Z</time>
      </trkpt>
      <trkpt lat="48.96401" lon="1.04282">
        <ele>97.099998</ele>
        <time>2017-12-17T10:04:43Z</time>
      </trkpt>
      <trkpt lat="48.96408" lon="1.0427">
        <ele>96.800003</ele>
        <time>2017-12-17T10:04:46Z</time>
      </trkpt>
      <trkpt lat="48.96415" lon="1.04257">
        <ele>96.599998</ele>
        <time>2017-12-17T10:04:49Z</time>
      </trkpt>
      <trkpt lat="48.9642" lon="1.04241">
        <ele>96.5</ele>
        <time>2017-12-17T10:04:52Z</time>
      </trkpt>
      <trkpt lat="48.96425" lon="1.04226">
        <ele>96.599998</ele>
        <time>2017-12-17T10:04:55Z</time>
      </trkpt>
      <trkpt lat="48.9643" lon="1.04208">
        <ele>96.5</ele>
        <time>2017-12-17T10:04:58Z</time>
      </trkpt>
      <trkpt lat="48.96434" lon="1.04194">
        <ele>96.400002</ele>
        <time>2017-12-17T10:05:00Z</time>
      </trkpt>
      <trkpt lat="48.96438" lon="1.0418">
        <ele>96.5</ele>
        <time>2017-12-17T10:05:02Z</time>
      </trkpt>
      <trkpt lat="48.96442" lon="1.04166">
        <ele>96.5</ele>
        <time>2017-12-17T10:05:04Z</time>
      </trkpt>
      <trkpt lat="48.96447" lon="1.04152">
        <ele>96.400002</ele>
        <time>2017-12-17T10:05:06Z</time>
      </trkpt>
      <trkpt lat="48.96451" lon="1.04138">
        <ele>96.300003</ele>
        <time>2017-12-17T10:05:08Z</time>
      </trkpt>
      <trkpt lat="48.96455" lon="1.04123">
        <ele>96.199997</ele>
        <time>2017-12-17T10:05:10Z</time>
      </trkpt>
      <trkpt lat="48.96458" lon="1.04108">
        <ele>96.199997</ele>
        <time>2017-12-17T10:05:12Z</time>
      </trkpt>
      <trkpt lat="48.96462" lon="1.04093">
        <ele>96</ele>
        <time>2017-12-17T10:05:14Z</time>
      </trkpt>
      <trkpt lat="48.96465" lon="1.04077">
        <ele>95.900002</ele>
        <time>2017-12-17T10:05:16Z</time>
      </trkpt>
      <trkpt lat="48.96468" lon="1.04061">
        <ele>95.800003</ele>
        <time>2017-12-17T10:05:18Z</time>
      </trkpt>
      <trkpt lat="48.96472" lon="1.04045">
        <ele>95.699997</ele>
        <time>2017-12-17T10:05:20Z</time>
      </trkpt>
      <trkpt lat="48.96475" lon="1.0403">
        <ele>95.5</ele>
        <time>2017-12-17T10:05:22Z</time>
      </trkpt>
      <trkpt lat="48.96478" lon="1.04014">
        <ele>95.5</ele>
        <time>2017-12-17T10:05:24Z</time>
      </trkpt>
      <trkpt lat="48.9648" lon="1.03997">
        <ele>95.400002</ele>
        <time>2017-12-17T10:05:26Z</time>
      </trkpt>
      <trkpt lat="48.96482" lon="1.03981">
        <ele>95.300003</ele>
        <time>2017-12-17T10:05:28Z</time>
      </trkpt>
      <trkpt lat="48.96484" lon="1.03965">
        <ele>95.199997</ele>
        <time>2017-12-17T10:05:30Z</time>
      </trkpt>
      <trkpt lat="48.96485" lon="1.03949">
        <ele>95.199997</ele>
        <time>2017-12-17T10:05:32Z</time>
      </trkpt>
      <trkpt lat="48.96486" lon="1.03933">
        <ele>95.099998</ele>
        <time>2017-12-17T10:05:34Z</time>
      </trkpt>
      <trkpt lat="48.96487" lon="1.03916">
        <ele>94.699997</ele>
        <time>2017-12-17T10:05:36Z</time>
      </trkpt>
      <trkpt lat="48.96488" lon="1.039">
        <ele>94.699997</ele>
        <time>2017-12-17T10:05:38Z</time>
      </trkpt>
      <trkpt lat="48.96489" lon="1.03885">
        <ele>94.800003</ele>
        <time>2017-12-17T10:05:40Z</time>
      </trkpt>
      <trkpt lat="48.96491" lon="1.03869">
        <ele>94.699997</ele>
        <time>2017-12-17T10:05:43Z</time>
      </trkpt>
      <trkpt lat="48.96499" lon="1.03861">
        <ele>94.900002</ele>
        <time>2017-12-17T10:06:09Z</time>
      </trkpt>
      <trkpt lat="48.96506" lon="1.03852">
        <ele>95.5</ele>
        <time>2017-12-17T10:06:35Z</time>
      </trkpt>
      <trkpt lat="48.96513" lon="1.03843">
        <ele>95.699997</ele>
        <time>2017-12-17T10:06:48Z</time>
      </trkpt>
      <trkpt lat="48.96515" lon="1.03829">
        <ele>95.099998</ele>
        <time>2017-12-17T10:06:55Z</time>
      </trkpt>
      <trkpt lat="48.96526" lon="1.0382">
        <ele>94.599998</ele>
        <time>2017-12-17T10:06:59Z</time>
      </trkpt>
      <trkpt lat="48.96537" lon="1.03814">
        <ele>94.400002</ele>
        <time>2017-12-17T10:07:02Z</time>
      </trkpt>
      <trkpt lat="48.9655" lon="1.03807">
        <ele>94.599998</ele>
        <time>2017-12-17T10:07:05Z</time>
      </trkpt>
      <trkpt lat="48.96559" lon="1.03802">
        <ele>94.699997</ele>
        <time>2017-12-17T10:07:07Z</time>
      </trkpt>
      <trkpt lat="48.96569" lon="1.03797">
        <ele>94.800003</ele>
        <time>2017-12-17T10:07:09Z</time>
      </trkpt>
      <trkpt lat="48.96578" lon="1.03791">
        <ele>95</ele>
        <time>2017-12-17T10:07:11Z</time>
      </trkpt>
      <trkpt lat="48.96587" lon="1.03783">
        <ele>95.300003</ele>
        <time>2017-12-17T10:07:13Z</time>
      </trkpt>
      <trkpt lat="48.96595" lon="1.03772">
        <ele>95.5</ele>
        <time>2017-12-17T10:07:15Z</time>
      </trkpt>
      <trkpt lat="48.96603" lon="1.0376">
        <ele>95.699997</ele>
        <time>2017-12-17T10:07:17Z</time>
      </trkpt>
      <trkpt lat="48.9661" lon="1.03747">
        <ele>95.900002</ele>
        <time>2017-12-17T10:07:19Z</time>
      </trkpt>
      <trkpt lat="48.96617" lon="1.03734">
        <ele>95.900002</ele>
        <time>2017-12-17T10:07:21Z</time>
      </trkpt>
      <trkpt lat="48.96622" lon="1.0372">
        <ele>96</ele>
        <time>2017-12-17T10:07:23Z</time>
      </trkpt>
      <trkpt lat="48.96626" lon="1.03705">
        <ele>95.900002</ele>
        <time>2017-12-17T10:07:25Z</time>
      </trkpt>
      <trkpt lat="48.9663" lon="1.0369">
        <ele>96</ele>
        <time>2017-12-17T10:07:27Z</time>
      </trkpt>
      <trkpt lat="48.96633" lon="1.03674">
        <ele>95.900002</ele>
        <time>2017-12-17T10:07:29Z</time>
      </trkpt>
      <trkpt lat="48.96637" lon="1.03658">
        <ele>95.900002</ele>
        <time>2017-12-17T10:07:31Z</time>
      </trkpt>
      <trkpt lat="48.9664" lon="1.03645">
        <ele>95.900002</ele>
        <time>2017-12-17T10:07:33Z</time>
      </trkpt>
      <trkpt lat="48.96643" lon="1.0363">
        <ele>96.199997</ele>
        <time>2017-12-17T10:07:37Z</time>
      </trkpt>
      <trkpt lat="48.96649" lon="1.03614">
        <ele>96.599998</ele>
        <time>2017-12-17T10:07:42Z</time>
      </trkpt>
      <trkpt lat="48.96655" lon="1.03597">
        <ele>96.900002</ele>
        <time>2017-12-17T10:07:45Z</time>
      </trkpt>
      <trkpt lat="48.96658" lon="1.03582">
        <ele>96.599998</ele>
        <time>2017-12-17T10:07:47Z</time>
      </trkpt>
      <trkpt lat="48.96661" lon="1.03565">
        <ele>96.400002</ele>
        <time>2017-12-17T10:07:49Z</time>
      </trkpt>
      <trkpt lat="48.96664" lon="1.03549">
        <ele>96.099998</ele>
        <time>2017-12-17T10:07:51Z</time>
      </trkpt>
      <trkpt lat="48.96667" lon="1.03532">
        <ele>95.599998</ele>
        <time>2017-12-17T10:07:53Z</time>
      </trkpt>
      <trkpt lat="48.9667" lon="1.03515">
        <ele>95.199997</ele>
        <time>2017-12-17T10:07:55Z</time>
      </trkpt>
      <trkpt lat="48.96673" lon="1.03498">
        <ele>94.900002</ele>
        <time>2017-12-17T10:07:57Z</time>
      </trkpt>
      <trkpt lat="48.96676" lon="1.03481">
        <ele>94.599998</ele>
        <time>2017-12-17T10:07:59Z</time>
      </trkpt>
      <trkpt lat="48.96678" lon="1.03463">
        <ele>94.599998</ele>
        <time>2017-12-17T10:08:01Z</time>
      </trkpt>
      <trkpt lat="48.96681" lon="1.03446">
        <ele>94.400002</ele>
        <time>2017-12-17T10:08:03Z</time>
      </trkpt>
      <trkpt lat="48.96684" lon="1.03429">
        <ele>94.199997</ele>
        <time>2017-12-17T10:08:05Z</time>
      </trkpt>
      <trkpt lat="48.96686" lon="1.03412">
        <ele>94.199997</ele>
        <time>2017-12-17T10:08:07Z</time>
      </trkpt>
      <trkpt lat="48.96689" lon="1.03395">
        <ele>94.199997</ele>
        <time>2017-12-17T10:08:09Z</time>
      </trkpt>
      <trkpt lat="48.96692" lon="1.03378">
        <ele>94.199997</ele>
        <time>2017-12-17T10:08:11Z</time>
      </trkpt>
      <trkpt lat="48.96694" lon="1.03361">
        <ele>94.199997</ele>
        <time>2017-12-17T10:08:13Z</time>
      </trkpt>
      <trkpt lat="48.96697" lon="1.03344">
        <ele>94.099998</ele>
        <time>2017-12-17T10:08:15Z</time>
      </trkpt>
      <trkpt lat="48.967" lon="1.03328">
        <ele>94.199997</ele>
        <time>2017-12-17T10:08:17Z</time>
      </trkpt>
      <trkpt lat="48.96702" lon="1.03312">
        <ele>94.099998</ele>
        <time>2017-12-17T10:08:19Z</time>
      </trkpt>
      <trkpt lat="48.96705" lon="1.03295">
        <ele>94.099998</ele>
        <time>2017-12-17T10:08:21Z</time>
      </trkpt>
      <trkpt lat="48.96707" lon="1.03279">
        <ele>94.199997</ele>
        <time>2017-12-17T10:08:23Z</time>
      </trkpt>
      <trkpt lat="48.9671" lon="1.03263">
        <ele>94.199997</ele>
        <time>2017-12-17T10:08:25Z</time>
      </trkpt>
      <trkpt lat="48.96713" lon="1.03247">
        <ele>94</ele>
        <time>2017-12-17T10:08:27Z</time>
      </trkpt>
      <trkpt lat="48.96715" lon="1.03231">
        <ele>94</ele>
        <time>2017-12-17T10:08:29Z</time>
      </trkpt>
      <trkpt lat="48.96717" lon="1.03216">
        <ele>93.900002</ele>
        <time>2017-12-17T10:08:31Z</time>
      </trkpt>
      <trkpt lat="48.9672" lon="1.03203">
        <ele>93.900002</ele>
        <time>2017-12-17T10:08:33Z</time>
      </trkpt>
      <trkpt lat="48.96727" lon="1.03188">
        <ele>93.900002</ele>
        <time>2017-12-17T10:08:36Z</time>
      </trkpt>
      <trkpt lat="48.96737" lon="1.03192">
        <ele>94.300003</ele>
        <time>2017-12-17T10:08:55Z</time>
      </trkpt>
      <trkpt lat="48.96746" lon="1.032">
        <ele>94.099998</ele>
        <time>2017-12-17T10:08:59Z</time>
      </trkpt>
      <trkpt lat="48.96753" lon="1.03211">
        <ele>94.300003</ele>
        <time>2017-12-17T10:09:03Z</time>
      </trkpt>
      <trkpt lat="48.96761" lon="1.03221">
        <ele>94.599998</ele>
        <time>2017-12-17T10:09:07Z</time>
      </trkpt>
      <trkpt lat="48.96768" lon="1.03233">
        <ele>94.800003</ele>
        <time>2017-12-17T10:09:12Z</time>
      </trkpt>
      <trkpt lat="48.96772" lon="1.03246">
        <ele>94.900002</ele>
        <time>2017-12-17T10:09:16Z</time>
      </trkpt>
      <trkpt lat="48.96776" lon="1.0326">
        <ele>95.400002</ele>
        <time>2017-12-17T10:09:20Z</time>
      </trkpt>
      <trkpt lat="48.96778" lon="1.03274">
        <ele>95.699997</ele>
        <time>2017-12-17T10:09:24Z</time>
      </trkpt>
      <trkpt lat="48.9678" lon="1.03288">
        <ele>96.400002</ele>
        <time>2017-12-17T10:09:28Z</time>
      </trkpt>
      <trkpt lat="48.96781" lon="1.03304">
        <ele>97.300003</ele>
        <time>2017-12-17T10:09:34Z</time>
      </trkpt>
      <trkpt lat="48.96779" lon="1.03319">
        <ele>97.900002</ele>
        <time>2017-12-17T10:09:38Z</time>
      </trkpt>
      <trkpt lat="48.96777" lon="1.03333">
        <ele>98.900002</ele>
        <time>2017-12-17T10:09:43Z</time>
      </trkpt>
      <trkpt lat="48.96776" lon="1.03349">
        <ele>100</ele>
        <time>2017-12-17T10:09:48Z</time>
      </trkpt>
      <trkpt lat="48.96774" lon="1.03366">
        <ele>100.699997</ele>
        <time>2017-12-17T10:09:52Z</time>
      </trkpt>
      <trkpt lat="48.96772" lon="1.03384">
        <ele>101.599998</ele>
        <time>2017-12-17T10:09:57Z</time>
      </trkpt>
      <trkpt lat="48.96773" lon="1.03399">
        <ele>102.5</ele>
        <time>2017-12-17T10:10:01Z</time>
      </trkpt>
      <trkpt lat="48.96775" lon="1.03416">
        <ele>103.400002</ele>
        <time>2017-12-17T10:10:05Z</time>
      </trkpt>
      <trkpt lat="48.96778" lon="1.03432">
        <ele>104.900002</ele>
        <time>2017-12-17T10:10:10Z</time>
      </trkpt>
      <trkpt lat="48.96782" lon="1.03446">
        <ele>106.199997</ele>
        <time>2017-12-17T10:10:15Z</time>
      </trkpt>
      <trkpt lat="48.96784" lon="1.03462">
        <ele>106.900002</ele>
        <time>2017-12-17T10:10:20Z</time>
      </trkpt>
      <trkpt lat="48.96785" lon="1.03478">
        <ele>108</ele>
        <time>2017-12-17T10:10:25Z</time>
      </trkpt>
      <trkpt lat="48.96787" lon="1.03493">
        <ele>108.900002</ele>
        <time>2017-12-17T10:10:30Z</time>
      </trkpt>
      <trkpt lat="48.96791" lon="1.03507">
        <ele>109.599998</ele>
        <time>2017-12-17T10:10:35Z</time>
      </trkpt>
      <trkpt lat="48.96796" lon="1.0352">
        <ele>110.300003</ele>
        <time>2017-12-17T10:10:41Z</time>
      </trkpt>
      <trkpt lat="48.96801" lon="1.03531">
        <ele>110.5</ele>
        <time>2017-12-17T10:10:45Z</time>
      </trkpt>
      <trkpt lat="48.96807" lon="1.03544">
        <ele>111.199997</ele>
        <time>2017-12-17T10:10:50Z</time>
      </trkpt>
      <trkpt lat="48.96814" lon="1.03553">
        <ele>111.400002</ele>
        <time>2017-12-17T10:10:54Z</time>
      </trkpt>
      <trkpt lat="48.96822" lon="1.03562">
        <ele>112.300003</ele>
        <time>2017-12-17T10:11:00Z</time>
      </trkpt>
      <trkpt lat="48.96831" lon="1.03568">
        <ele>113.300003</ele>
        <time>2017-12-17T10:11:06Z</time>
      </trkpt>
      <trkpt lat="48.9684" lon="1.03572">
        <ele>114.699997</ele>
        <time>2017-12-17T10:11:12Z</time>
      </trkpt>
      <trkpt lat="48.9685" lon="1.03574">
        <ele>116.199997</ele>
        <time>2017-12-17T10:11:18Z</time>
      </trkpt>
      <trkpt lat="48.96859" lon="1.03577">
        <ele>117.400002</ele>
        <time>2017-12-17T10:11:23Z</time>
      </trkpt>
      <trkpt lat="48.96869" lon="1.03579">
        <ele>118.400002</ele>
        <time>2017-12-17T10:11:29Z</time>
      </trkpt>
      <trkpt lat="48.96878" lon="1.03579">
        <ele>119.5</ele>
        <time>2017-12-17T10:11:35Z</time>
      </trkpt>
      <trkpt lat="48.96887" lon="1.03578">
        <ele>120.400002</ele>
        <time>2017-12-17T10:11:40Z</time>
      </trkpt>
      <trkpt lat="48.96896" lon="1.03576">
        <ele>121</ele>
        <time>2017-12-17T10:11:45Z</time>
      </trkpt>
      <trkpt lat="48.96907" lon="1.03573">
        <ele>121.699997</ele>
        <time>2017-12-17T10:11:51Z</time>
      </trkpt>
      <trkpt lat="48.96917" lon="1.03568">
        <ele>122.400002</ele>
        <time>2017-12-17T10:11:57Z</time>
      </trkpt>
      <trkpt lat="48.96927" lon="1.03566">
        <ele>123.300003</ele>
        <time>2017-12-17T10:12:03Z</time>
      </trkpt>
      <trkpt lat="48.96938" lon="1.03562">
        <ele>124</ele>
        <time>2017-12-17T10:12:09Z</time>
      </trkpt>
      <trkpt lat="48.96947" lon="1.03557">
        <ele>124.599998</ele>
        <time>2017-12-17T10:12:13Z</time>
      </trkpt>
      <trkpt lat="48.96956" lon="1.03552">
        <ele>125.300003</ele>
        <time>2017-12-17T10:12:18Z</time>
      </trkpt>
      <trkpt lat="48.96966" lon="1.03549">
        <ele>126.199997</ele>
        <time>2017-12-17T10:12:23Z</time>
      </trkpt>
      <trkpt lat="48.96976" lon="1.03545">
        <ele>127</ele>
        <time>2017-12-17T10:12:29Z</time>
      </trkpt>
      <trkpt lat="48.96985" lon="1.0354">
        <ele>127.5</ele>
        <time>2017-12-17T10:12:33Z</time>
      </trkpt>
      <trkpt lat="48.96993" lon="1.03535">
        <ele>128.399994</ele>
        <time>2017-12-17T10:12:37Z</time>
      </trkpt>
      <trkpt lat="48.97003" lon="1.0353">
        <ele>129.699997</ele>
        <time>2017-12-17T10:12:43Z</time>
      </trkpt>
      <trkpt lat="48.97013" lon="1.03525">
        <ele>130.800003</ele>
        <time>2017-12-17T10:12:48Z</time>
      </trkpt>
      <trkpt lat="48.97024" lon="1.0352">
        <ele>131.5</ele>
        <time>2017-12-17T10:12:53Z</time>
      </trkpt>
      <trkpt lat="48.97033" lon="1.03512">
        <ele>132.399994</ele>
        <time>2017-12-17T10:12:58Z</time>
      </trkpt>
      <trkpt lat="48.97043" lon="1.03507">
        <ele>133.300003</ele>
        <time>2017-12-17T10:13:04Z</time>
      </trkpt>
      <trkpt lat="48.97051" lon="1.035">
        <ele>133.899994</ele>
        <time>2017-12-17T10:13:08Z</time>
      </trkpt>
      <trkpt lat="48.97061" lon="1.03491">
        <ele>134.399994</ele>
        <time>2017-12-17T10:13:12Z</time>
      </trkpt>
      <trkpt lat="48.9707" lon="1.03482">
        <ele>134.800003</ele>
        <time>2017-12-17T10:13:16Z</time>
      </trkpt>
      <trkpt lat="48.9708" lon="1.03474">
        <ele>135.399994</ele>
        <time>2017-12-17T10:13:21Z</time>
      </trkpt>
      <trkpt lat="48.97089" lon="1.03469">
        <ele>135.899994</ele>
        <time>2017-12-17T10:13:25Z</time>
      </trkpt>
      <trkpt lat="48.97097" lon="1.03461">
        <ele>136.399994</ele>
        <time>2017-12-17T10:13:29Z</time>
      </trkpt>
      <trkpt lat="48.97107" lon="1.03456">
        <ele>136.600006</ele>
        <time>2017-12-17T10:13:35Z</time>
      </trkpt>
      <trkpt lat="48.97115" lon="1.03451">
        <ele>136.899994</ele>
        <time>2017-12-17T10:13:40Z</time>
      </trkpt>
      <trkpt lat="48.97126" lon="1.03447">
        <ele>137.699997</ele>
        <time>2017-12-17T10:13:46Z</time>
      </trkpt>
      <trkpt lat="48.97136" lon="1.03441">
        <ele>138.100006</ele>
        <time>2017-12-17T10:13:51Z</time>
      </trkpt>
      <trkpt lat="48.97146" lon="1.03437">
        <ele>138.5</ele>
        <time>2017-12-17T10:13:55Z</time>
      </trkpt>
      <trkpt lat="48.97156" lon="1.03432">
        <ele>138.300003</ele>
        <time>2017-12-17T10:13:59Z</time>
      </trkpt>
      <trkpt lat="48.97167" lon="1.03427">
        <ele>138.199997</ele>
        <time>2017-12-17T10:14:03Z</time>
      </trkpt>
      <trkpt lat="48.97177" lon="1.03419">
        <ele>138.5</ele>
        <time>2017-12-17T10:14:07Z</time>
      </trkpt>
      <trkpt lat="48.97185" lon="1.03412">
        <ele>138.600006</ele>
        <time>2017-12-17T10:14:10Z</time>
      </trkpt>
      <trkpt lat="48.97194" lon="1.03408">
        <ele>138.600006</ele>
        <time>2017-12-17T10:14:16Z</time>
      </trkpt>
      <trkpt lat="48.972" lon="1.03398">
        <ele>138.600006</ele>
        <time>2017-12-17T10:15:27Z</time>
      </trkpt>
      <trkpt lat="48.9721" lon="1.03395">
        <ele>138.899994</ele>
        <time>2017-12-17T10:19:08Z</time>
      </trkpt>
      <trkpt lat="48.97218" lon="1.03401">
        <ele>139.100006</ele>
        <time>2017-12-17T10:19:18Z</time>
      </trkpt>
      <trkpt lat="48.97227" lon="1.034">
        <ele>139.5</ele>
        <time>2017-12-17T10:19:26Z</time>
      </trkpt>
      <trkpt lat="48.97237" lon="1.03401">
        <ele>139.699997</ele>
        <time>2017-12-17T10:19:37Z</time>
      </trkpt>
      <trkpt lat="48.97248" lon="1.034">
        <ele>139.899994</ele>
        <time>2017-12-17T10:19:43Z</time>
      </trkpt>
      <trkpt lat="48.97258" lon="1.03399">
        <ele>140</ele>
        <time>2017-12-17T10:19:48Z</time>
      </trkpt>
      <trkpt lat="48.97267" lon="1.03403">
        <ele>140</ele>
        <time>2017-12-17T10:19:53Z</time>
      </trkpt>
      <trkpt lat="48.97276" lon="1.03407">
        <ele>139.800003</ele>
        <time>2017-12-17T10:19:57Z</time>
      </trkpt>
      <trkpt lat="48.97286" lon="1.0341">
        <ele>139.600006</ele>
        <time>2017-12-17T10:20:04Z</time>
      </trkpt>
      <trkpt lat="48.97296" lon="1.03414">
        <ele>140.100006</ele>
        <time>2017-12-17T10:20:10Z</time>
      </trkpt>
      <trkpt lat="48.97302" lon="1.03423">
        <ele>140.100006</ele>
        <time>2017-12-17T10:20:15Z</time>
      </trkpt>
      <trkpt lat="48.9731" lon="1.03432">
        <ele>140.300003</ele>
        <time>2017-12-17T10:20:19Z</time>
      </trkpt>
      <trkpt lat="48.9732" lon="1.03442">
        <ele>140.5</ele>
        <time>2017-12-17T10:20:23Z</time>
      </trkpt>
      <trkpt lat="48.97326" lon="1.03453">
        <ele>140.699997</ele>
        <time>2017-12-17T10:20:27Z</time>
      </trkpt>
      <trkpt lat="48.97333" lon="1.03463">
        <ele>140.899994</ele>
        <time>2017-12-17T10:20:30Z</time>
      </trkpt>
      <trkpt lat="48.9734" lon="1.03473">
        <ele>141.100006</ele>
        <time>2017-12-17T10:20:34Z</time>
      </trkpt>
      <trkpt lat="48.97348" lon="1.03481">
        <ele>141</ele>
        <time>2017-12-17T10:20:37Z</time>
      </trkpt>
      <trkpt lat="48.97355" lon="1.03493">
        <ele>141.100006</ele>
        <time>2017-12-17T10:20:41Z</time>
      </trkpt>
      <trkpt lat="48.97363" lon="1.03505">
        <ele>141.199997</ele>
        <time>2017-12-17T10:20:45Z</time>
      </trkpt>
      <trkpt lat="48.97373" lon="1.03514">
        <ele>141.199997</ele>
        <time>2017-12-17T10:20:49Z</time>
      </trkpt>
      <trkpt lat="48.9738" lon="1.03522">
        <ele>141.399994</ele>
        <time>2017-12-17T10:20:52Z</time>
      </trkpt>
      <trkpt lat="48.97388" lon="1.03531">
        <ele>141.800003</ele>
        <time>2017-12-17T10:20:55Z</time>
      </trkpt>
      <trkpt lat="48.97392" lon="1.03545">
        <ele>142.199997</ele>
        <time>2017-12-17T10:20:59Z</time>
      </trkpt>
      <trkpt lat="48.974" lon="1.03558">
        <ele>142.399994</ele>
        <time>2017-12-17T10:21:03Z</time>
      </trkpt>
      <trkpt lat="48.97408" lon="1.03566">
        <ele>142.199997</ele>
        <time>2017-12-17T10:21:06Z</time>
      </trkpt>
      <trkpt lat="48.97416" lon="1.03575">
        <ele>142.300003</ele>
        <time>2017-12-17T10:21:09Z</time>
      </trkpt>
      <trkpt lat="48.97425" lon="1.03582">
        <ele>142.600006</ele>
        <time>2017-12-17T10:21:12Z</time>
      </trkpt>
      <trkpt lat="48.97434" lon="1.03589">
        <ele>142.699997</ele>
        <time>2017-12-17T10:21:15Z</time>
      </trkpt>
      <trkpt lat="48.97442" lon="1.03597">
        <ele>142.699997</ele>
        <time>2017-12-17T10:21:18Z</time>
      </trkpt>
      <trkpt lat="48.9745" lon="1.03605">
        <ele>143</ele>
        <time>2017-12-17T10:21:21Z</time>
      </trkpt>
      <trkpt lat="48.97461" lon="1.03613">
        <ele>143.100006</ele>
        <time>2017-12-17T10:21:24Z</time>
      </trkpt>
      <trkpt lat="48.97469" lon="1.03622">
        <ele>143.199997</ele>
        <time>2017-12-17T10:21:27Z</time>
      </trkpt>
      <trkpt lat="48.97477" lon="1.0363">
        <ele>143.199997</ele>
        <time>2017-12-17T10:21:30Z</time>
      </trkpt>
      <trkpt lat="48.97487" lon="1.03637">
        <ele>143.199997</ele>
        <time>2017-12-17T10:21:33Z</time>
      </trkpt>
      <trkpt lat="48.97496" lon="1.03643">
        <ele>143.5</ele>
        <time>2017-12-17T10:21:36Z</time>
      </trkpt>
      <trkpt lat="48.97505" lon="1.0365">
        <ele>143.5</ele>
        <time>2017-12-17T10:21:40Z</time>
      </trkpt>
      <trkpt lat="48.97514" lon="1.03658">
        <ele>143.699997</ele>
        <time>2017-12-17T10:21:44Z</time>
      </trkpt>
      <trkpt lat="48.97523" lon="1.03664">
        <ele>143.600006</ele>
        <time>2017-12-17T10:21:47Z</time>
      </trkpt>
      <trkpt lat="48.97532" lon="1.03671">
        <ele>143.600006</ele>
        <time>2017-12-17T10:21:50Z</time>
      </trkpt>
      <trkpt lat="48.9754" lon="1.0368">
        <ele>143.899994</ele>
        <time>2017-12-17T10:21:53Z</time>
      </trkpt>
      <trkpt lat="48.97549" lon="1.03686">
        <ele>144.100006</ele>
        <time>2017-12-17T10:21:56Z</time>
      </trkpt>
      <trkpt lat="48.97559" lon="1.03692">
        <ele>144.300003</ele>
        <time>2017-12-17T10:21:59Z</time>
      </trkpt>
      <trkpt lat="48.97568" lon="1.037">
        <ele>144.300003</ele>
        <time>2017-12-17T10:22:02Z</time>
      </trkpt>
      <trkpt lat="48.97576" lon="1.03708">
        <ele>144.5</ele>
        <time>2017-12-17T10:22:04Z</time>
      </trkpt>
      <trkpt lat="48.97588" lon="1.03719">
        <ele>144.300003</ele>
        <time>2017-12-17T10:22:07Z</time>
      </trkpt>
      <trkpt lat="48.97599" lon="1.0373">
        <ele>144.199997</ele>
        <time>2017-12-17T10:22:10Z</time>
      </trkpt>
      <trkpt lat="48.97605" lon="1.03742">
        <ele>144.100006</ele>
        <time>2017-12-17T10:22:13Z</time>
      </trkpt>
      <trkpt lat="48.97614" lon="1.03752">
        <ele>144</ele>
        <time>2017-12-17T10:22:16Z</time>
      </trkpt>
      <trkpt lat="48.97623" lon="1.03758">
        <ele>144.199997</ele>
        <time>2017-12-17T10:22:18Z</time>
      </trkpt>
      <trkpt lat="48.97633" lon="1.03768">
        <ele>144.800003</ele>
        <time>2017-12-17T10:22:21Z</time>
      </trkpt>
      <trkpt lat="48.97644" lon="1.03777">
        <ele>144.899994</ele>
        <time>2017-12-17T10:22:24Z</time>
      </trkpt>
      <trkpt lat="48.97656" lon="1.03787">
        <ele>144.5</ele>
        <time>2017-12-17T10:22:27Z</time>
      </trkpt>
      <trkpt lat="48.97664" lon="1.03794">
        <ele>144.399994</ele>
        <time>2017-12-17T10:22:29Z</time>
      </trkpt>
      <trkpt lat="48.97675" lon="1.03803">
        <ele>144.199997</ele>
        <time>2017-12-17T10:22:32Z</time>
      </trkpt>
      <trkpt lat="48.97684" lon="1.03809">
        <ele>144.199997</ele>
        <time>2017-12-17T10:22:34Z</time>
      </trkpt>
      <trkpt lat="48.97694" lon="1.03821">
        <ele>144.100006</ele>
        <time>2017-12-17T10:22:37Z</time>
      </trkpt>
      <trkpt lat="48.97703" lon="1.03828">
        <ele>144.100006</ele>
        <time>2017-12-17T10:22:40Z</time>
      </trkpt>
      <trkpt lat="48.97715" lon="1.03837">
        <ele>144</ele>
        <time>2017-12-17T10:22:43Z</time>
      </trkpt>
      <trkpt lat="48.97723" lon="1.03844">
        <ele>143.800003</ele>
        <time>2017-12-17T10:22:47Z</time>
      </trkpt>
      <trkpt lat="48.97731" lon="1.03854">
        <ele>144.100006</ele>
        <time>2017-12-17T10:22:52Z</time>
      </trkpt>
      <trkpt lat="48.9774" lon="1.0386">
        <ele>144.199997</ele>
        <time>2017-12-17T10:22:56Z</time>
      </trkpt>
      <trkpt lat="48.9775" lon="1.03868">
        <ele>144.300003</ele>
        <time>2017-12-17T10:23:01Z</time>
      </trkpt>
      <trkpt lat="48.97759" lon="1.03875">
        <ele>144</ele>
        <time>2017-12-17T10:23:05Z</time>
      </trkpt>
      <trkpt lat="48.97768" lon="1.0388">
        <ele>143.899994</ele>
        <time>2017-12-17T10:23:08Z</time>
      </trkpt>
      <trkpt lat="48.97777" lon="1.03884">
        <ele>143.699997</ele>
        <time>2017-12-17T10:23:11Z</time>
      </trkpt>
      <trkpt lat="48.97786" lon="1.03888">
        <ele>143.899994</ele>
        <time>2017-12-17T10:23:15Z</time>
      </trkpt>
      <trkpt lat="48.97795" lon="1.03892">
        <ele>143.899994</ele>
        <time>2017-12-17T10:23:20Z</time>
      </trkpt>
      <trkpt lat="48.97806" lon="1.0389">
        <ele>144.199997</ele>
        <time>2017-12-17T10:23:24Z</time>
      </trkpt>
      <trkpt lat="48.97817" lon="1.03887">
        <ele>143.899994</ele>
        <time>2017-12-17T10:23:28Z</time>
      </trkpt>
      <trkpt lat="48.97829" lon="1.03885">
        <ele>143.899994</ele>
        <time>2017-12-17T10:23:31Z</time>
      </trkpt>
      <trkpt lat="48.97844" lon="1.03878">
        <ele>143.600006</ele>
        <time>2017-12-17T10:23:34Z</time>
      </trkpt>
      <trkpt lat="48.97854" lon="1.03873">
        <ele>143.800003</ele>
        <time>2017-12-17T10:23:36Z</time>
      </trkpt>
      <trkpt lat="48.97864" lon="1.03868">
        <ele>144</ele>
        <time>2017-12-17T10:23:38Z</time>
      </trkpt>
      <trkpt lat="48.97876" lon="1.03863">
        <ele>143.899994</ele>
        <time>2017-12-17T10:23:41Z</time>
      </trkpt>
      <trkpt lat="48.97886" lon="1.03857">
        <ele>143.300003</ele>
        <time>2017-12-17T10:23:44Z</time>
      </trkpt>
      <trkpt lat="48.97895" lon="1.03851">
        <ele>143.199997</ele>
        <time>2017-12-17T10:23:46Z</time>
      </trkpt>
      <trkpt lat="48.97906" lon="1.0384">
        <ele>143.199997</ele>
        <time>2017-12-17T10:23:49Z</time>
      </trkpt>
      <trkpt lat="48.97914" lon="1.03832">
        <ele>143.100006</ele>
        <time>2017-12-17T10:23:51Z</time>
      </trkpt>
      <trkpt lat="48.97922" lon="1.03824">
        <ele>143</ele>
        <time>2017-12-17T10:23:53Z</time>
      </trkpt>
      <trkpt lat="48.9793" lon="1.03816">
        <ele>142.5</ele>
        <time>2017-12-17T10:23:55Z</time>
      </trkpt>
      <trkpt lat="48.97938" lon="1.03809">
        <ele>142.600006</ele>
        <time>2017-12-17T10:23:57Z</time>
      </trkpt>
      <trkpt lat="48.97945" lon="1.03802">
        <ele>142.699997</ele>
        <time>2017-12-17T10:23:59Z</time>
      </trkpt>
      <trkpt lat="48.97954" lon="1.03795">
        <ele>142.699997</ele>
        <time>2017-12-17T10:24:01Z</time>
      </trkpt>
      <trkpt lat="48.97962" lon="1.0379">
        <ele>142.199997</ele>
        <time>2017-12-17T10:24:03Z</time>
      </trkpt>
      <trkpt lat="48.97973" lon="1.03784">
        <ele>142.5</ele>
        <time>2017-12-17T10:24:06Z</time>
      </trkpt>
      <trkpt lat="48.97981" lon="1.0378">
        <ele>142.600006</ele>
        <time>2017-12-17T10:24:09Z</time>
      </trkpt>
      <trkpt lat="48.97991" lon="1.03773">
        <ele>142.300003</ele>
        <time>2017-12-17T10:24:12Z</time>
      </trkpt>
      <trkpt lat="48.98001" lon="1.03768">
        <ele>142.100006</ele>
        <time>2017-12-17T10:24:15Z</time>
      </trkpt>
      <trkpt lat="48.98012" lon="1.03763">
        <ele>142</ele>
        <time>2017-12-17T10:24:18Z</time>
      </trkpt>
      <trkpt lat="48.98024" lon="1.03756">
        <ele>142.100006</ele>
        <time>2017-12-17T10:24:21Z</time>
      </trkpt>
      <trkpt lat="48.98034" lon="1.03751">
        <ele>141.899994</ele>
        <time>2017-12-17T10:24:24Z</time>
      </trkpt>
      <trkpt lat="48.98045" lon="1.03745">
        <ele>141.800003</ele>
        <time>2017-12-17T10:24:27Z</time>
      </trkpt>
      <trkpt lat="48.98055" lon="1.03742">
        <ele>141.800003</ele>
        <time>2017-12-17T10:24:30Z</time>
      </trkpt>
      <trkpt lat="48.98065" lon="1.03737">
        <ele>141.699997</ele>
        <time>2017-12-17T10:24:33Z</time>
      </trkpt>
      <trkpt lat="48.98075" lon="1.03729">
        <ele>141.5</ele>
        <time>2017-12-17T10:24:36Z</time>
      </trkpt>
      <trkpt lat="48.98087" lon="1.03724">
        <ele>141.300003</ele>
        <time>2017-12-17T10:24:39Z</time>
      </trkpt>
      <trkpt lat="48.98096" lon="1.03714">
        <ele>141.100006</ele>
        <time>2017-12-17T10:24:43Z</time>
      </trkpt>
      <trkpt lat="48.98105" lon="1.03712">
        <ele>140.800003</ele>
        <time>2017-12-17T10:24:45Z</time>
      </trkpt>
      <trkpt lat="48.98115" lon="1.03709">
        <ele>140.800003</ele>
        <time>2017-12-17T10:24:48Z</time>
      </trkpt>
      <trkpt lat="48.98123" lon="1.03706">
        <ele>140.600006</ele>
        <time>2017-12-17T10:24:51Z</time>
      </trkpt>
      <trkpt lat="48.98132" lon="1.03701">
        <ele>140.600006</ele>
        <time>2017-12-17T10:24:54Z</time>
      </trkpt>
      <trkpt lat="48.98142" lon="1.03697">
        <ele>140.800003</ele>
        <time>2017-12-17T10:24:59Z</time>
      </trkpt>
      <trkpt lat="48.98151" lon="1.03691">
        <ele>140.5</ele>
        <time>2017-12-17T10:25:05Z</time>
      </trkpt>
      <trkpt lat="48.98162" lon="1.03686">
        <ele>140.5</ele>
        <time>2017-12-17T10:25:10Z</time>
      </trkpt>
      <trkpt lat="48.98173" lon="1.03679">
        <ele>140.600006</ele>
        <time>2017-12-17T10:25:14Z</time>
      </trkpt>
      <trkpt lat="48.98184" lon="1.03674">
        <ele>140.5</ele>
        <time>2017-12-17T10:25:17Z</time>
      </trkpt>
      <trkpt lat="48.98196" lon="1.03669">
        <ele>140.399994</ele>
        <time>2017-12-17T10:25:21Z</time>
      </trkpt>
      <trkpt lat="48.98208" lon="1.03664">
        <ele>140.300003</ele>
        <time>2017-12-17T10:25:24Z</time>
      </trkpt>
      <trkpt lat="48.98222" lon="1.03664">
        <ele>140</ele>
        <time>2017-12-17T10:25:26Z</time>
      </trkpt>
      <trkpt lat="48.98231" lon="1.03665">
        <ele>139.699997</ele>
        <time>2017-12-17T10:25:28Z</time>
      </trkpt>
      <trkpt lat="48.98243" lon="1.03663">
        <ele>139.899994</ele>
        <time>2017-12-17T10:25:31Z</time>
      </trkpt>
      <trkpt lat="48.98253" lon="1.0366">
        <ele>139.899994</ele>
        <time>2017-12-17T10:25:33Z</time>
      </trkpt>
      <trkpt lat="48.98265" lon="1.0366">
        <ele>139.800003</ele>
        <time>2017-12-17T10:25:36Z</time>
      </trkpt>
      <trkpt lat="48.98275" lon="1.03658">
        <ele>140</ele>
        <time>2017-12-17T10:25:38Z</time>
      </trkpt>
      <trkpt lat="48.98284" lon="1.0366">
        <ele>139.699997</ele>
        <time>2017-12-17T10:25:42Z</time>
      </trkpt>
      <trkpt lat="48.98293" lon="1.03659">
        <ele>139.699997</ele>
        <time>2017-12-17T10:25:54Z</time>
      </trkpt>
      <trkpt lat="48.98301" lon="1.03649">
        <ele>140</ele>
        <time>2017-12-17T10:26:51Z</time>
      </trkpt>
      <trkpt lat="48.98312" lon="1.03647">
        <ele>140.100006</ele>
        <time>2017-12-17T10:26:55Z</time>
      </trkpt>
      <trkpt lat="48.98322" lon="1.03646">
        <ele>139.699997</ele>
        <time>2017-12-17T10:26:58Z</time>
      </trkpt>
      <trkpt lat="48.98331" lon="1.03643">
        <ele>139.399994</ele>
        <time>2017-12-17T10:27:01Z</time>
      </trkpt>
      <trkpt lat="48.98341" lon="1.03641">
        <ele>139.199997</ele>
        <time>2017-12-17T10:27:04Z</time>
      </trkpt>
      <trkpt lat="48.98353" lon="1.03635">
        <ele>138.699997</ele>
        <time>2017-12-17T10:27:07Z</time>
      </trkpt>
      <trkpt lat="48.98363" lon="1.03631">
        <ele>138</ele>
        <time>2017-12-17T10:27:09Z</time>
      </trkpt>
      <trkpt lat="48.98375" lon="1.03625">
        <ele>137.600006</ele>
        <time>2017-12-17T10:27:12Z</time>
      </trkpt>
      <trkpt lat="48.98387" lon="1.03624">
        <ele>136.199997</ele>
        <time>2017-12-17T10:27:15Z</time>
      </trkpt>
      <trkpt lat="48.98401" lon="1.03625">
        <ele>135.399994</ele>
        <time>2017-12-17T10:27:17Z</time>
      </trkpt>
      <trkpt lat="48.98413" lon="1.03631">
        <ele>135.199997</ele>
        <time>2017-12-17T10:27:19Z</time>
      </trkpt>
      <trkpt lat="48.98427" lon="1.03637">
        <ele>134.5</ele>
        <time>2017-12-17T10:27:21Z</time>
      </trkpt>
      <trkpt lat="48.98441" lon="1.03644">
        <ele>132.300003</ele>
        <time>2017-12-17T10:27:23Z</time>
      </trkpt>
      <trkpt lat="48.98454" lon="1.03651">
        <ele>130.5</ele>
        <time>2017-12-17T10:27:25Z</time>
      </trkpt>
      <trkpt lat="48.98469" lon="1.03657">
        <ele>128.899994</ele>
        <time>2017-12-17T10:27:27Z</time>
      </trkpt>
      <trkpt lat="48.98484" lon="1.03664">
        <ele>127.300003</ele>
        <time>2017-12-17T10:27:29Z</time>
      </trkpt>
      <trkpt lat="48.985" lon="1.03673">
        <ele>126.199997</ele>
        <time>2017-12-17T10:27:31Z</time>
      </trkpt>
      <trkpt lat="48.98509" lon="1.03676">
        <ele>125.5</ele>
        <time>2017-12-17T10:27:32Z</time>
      </trkpt>
      <trkpt lat="48.98526" lon="1.03681">
        <ele>124.099998</ele>
        <time>2017-12-17T10:27:34Z</time>
      </trkpt>
      <trkpt lat="48.98542" lon="1.03686">
        <ele>121</ele>
        <time>2017-12-17T10:27:36Z</time>
      </trkpt>
      <trkpt lat="48.98558" lon="1.03692">
        <ele>118.300003</ele>
        <time>2017-12-17T10:27:38Z</time>
      </trkpt>
      <trkpt lat="48.98568" lon="1.03694">
        <ele>117.300003</ele>
        <time>2017-12-17T10:27:39Z</time>
      </trkpt>
      <trkpt lat="48.98577" lon="1.03697">
        <ele>116.300003</ele>
        <time>2017-12-17T10:27:40Z</time>
      </trkpt>
      <trkpt lat="48.98587" lon="1.037">
        <ele>115.099998</ele>
        <time>2017-12-17T10:27:41Z</time>
      </trkpt>
      <trkpt lat="48.98596" lon="1.03703">
        <ele>114.099998</ele>
        <time>2017-12-17T10:27:42Z</time>
      </trkpt>
      <trkpt lat="48.98612" lon="1.03709">
        <ele>111.800003</ele>
        <time>2017-12-17T10:27:44Z</time>
      </trkpt>
      <trkpt lat="48.98623" lon="1.03713">
        <ele>111.099998</ele>
        <time>2017-12-17T10:27:45Z</time>
      </trkpt>
      <trkpt lat="48.98642" lon="1.03721">
        <ele>110.199997</ele>
        <time>2017-12-17T10:27:47Z</time>
      </trkpt>
      <trkpt lat="48.98653" lon="1.03723">
        <ele>109.5</ele>
        <time>2017-12-17T10:27:48Z</time>
      </trkpt>
      <trkpt lat="48.98663" lon="1.03726">
        <ele>108</ele>
        <time>2017-12-17T10:27:49Z</time>
      </trkpt>
      <trkpt lat="48.98673" lon="1.03729">
        <ele>106.800003</ele>
        <time>2017-12-17T10:27:50Z</time>
      </trkpt>
      <trkpt lat="48.98682" lon="1.03731">
        <ele>106.099998</ele>
        <time>2017-12-17T10:27:51Z</time>
      </trkpt>
      <trkpt lat="48.98698" lon="1.03737">
        <ele>104.900002</ele>
        <time>2017-12-17T10:27:53Z</time>
      </trkpt>
      <trkpt lat="48.98713" lon="1.03746">
        <ele>103.400002</ele>
        <time>2017-12-17T10:27:55Z</time>
      </trkpt>
      <trkpt lat="48.98728" lon="1.03761">
        <ele>101.599998</ele>
        <time>2017-12-17T10:27:57Z</time>
      </trkpt>
      <trkpt lat="48.98735" lon="1.03769">
        <ele>100.599998</ele>
        <time>2017-12-17T10:27:58Z</time>
      </trkpt>
      <trkpt lat="48.98742" lon="1.03778">
        <ele>99.099998</ele>
        <time>2017-12-17T10:27:59Z</time>
      </trkpt>
      <trkpt lat="48.98754" lon="1.03798">
        <ele>96.699997</ele>
        <time>2017-12-17T10:28:01Z</time>
      </trkpt>
      <trkpt lat="48.98761" lon="1.0381">
        <ele>96</ele>
        <time>2017-12-17T10:28:02Z</time>
      </trkpt>
      <trkpt lat="48.98768" lon="1.03821">
        <ele>94.800003</ele>
        <time>2017-12-17T10:28:03Z</time>
      </trkpt>
      <trkpt lat="48.98775" lon="1.03831">
        <ele>92.900002</ele>
        <time>2017-12-17T10:28:04Z</time>
      </trkpt>
      <trkpt lat="48.98787" lon="1.03846">
        <ele>90.400002</ele>
        <time>2017-12-17T10:28:06Z</time>
      </trkpt>
      <trkpt lat="48.98797" lon="1.03858">
        <ele>89.099998</ele>
        <time>2017-12-17T10:28:08Z</time>
      </trkpt>
      <trkpt lat="48.98805" lon="1.0387">
        <ele>88.300003</ele>
        <time>2017-12-17T10:28:10Z</time>
      </trkpt>
      <trkpt lat="48.98812" lon="1.03883">
        <ele>87.5</ele>
        <time>2017-12-17T10:28:12Z</time>
      </trkpt>
      <trkpt lat="48.98819" lon="1.03895">
        <ele>87</ele>
        <time>2017-12-17T10:28:14Z</time>
      </trkpt>
      <trkpt lat="48.98825" lon="1.03909">
        <ele>86.800003</ele>
        <time>2017-12-17T10:28:16Z</time>
      </trkpt>
      <trkpt lat="48.98832" lon="1.03921">
        <ele>86.699997</ele>
        <time>2017-12-17T10:28:18Z</time>
      </trkpt>
      <trkpt lat="48.98839" lon="1.03933">
        <ele>86.699997</ele>
        <time>2017-12-17T10:28:20Z</time>
      </trkpt>
      <trkpt lat="48.98846" lon="1.03944">
        <ele>86.400002</ele>
        <time>2017-12-17T10:28:22Z</time>
      </trkpt>
      <trkpt lat="48.98853" lon="1.03954">
        <ele>86.099998</ele>
        <time>2017-12-17T10:28:24Z</time>
      </trkpt>
      <trkpt lat="48.98861" lon="1.03969">
        <ele>85.699997</ele>
        <time>2017-12-17T10:28:27Z</time>
      </trkpt>
      <trkpt lat="48.9887" lon="1.03983">
        <ele>85.400002</ele>
        <time>2017-12-17T10:28:30Z</time>
      </trkpt>
      <trkpt lat="48.98878" lon="1.03994">
        <ele>85.199997</ele>
        <time>2017-12-17T10:28:33Z</time>
      </trkpt>
      <trkpt lat="48.98885" lon="1.04004">
        <ele>85.099998</ele>
        <time>2017-12-17T10:28:37Z</time>
      </trkpt>
      <trkpt lat="48.98892" lon="1.04016">
        <ele>85.199997</ele>
        <time>2017-12-17T10:28:40Z</time>
      </trkpt>
      <trkpt lat="48.98899" lon="1.04026">
        <ele>85.099998</ele>
        <time>2017-12-17T10:28:43Z</time>
      </trkpt>
      <trkpt lat="48.98906" lon="1.04038">
        <ele>84.900002</ele>
        <time>2017-12-17T10:28:46Z</time>
      </trkpt>
      <trkpt lat="48.98914" lon="1.04053">
        <ele>84.599998</ele>
        <time>2017-12-17T10:28:49Z</time>
      </trkpt>
      <trkpt lat="48.9892" lon="1.04065">
        <ele>84.300003</ele>
        <time>2017-12-17T10:28:51Z</time>
      </trkpt>
      <trkpt lat="48.98925" lon="1.04078">
        <ele>83.900002</ele>
        <time>2017-12-17T10:28:53Z</time>
      </trkpt>
      <trkpt lat="48.98931" lon="1.04092">
        <ele>83.5</ele>
        <time>2017-12-17T10:28:55Z</time>
      </trkpt>
      <trkpt lat="48.98937" lon="1.04105">
        <ele>83.099998</ele>
        <time>2017-12-17T10:28:57Z</time>
      </trkpt>
      <trkpt lat="48.98943" lon="1.04119">
        <ele>82.900002</ele>
        <time>2017-12-17T10:28:59Z</time>
      </trkpt>
      <trkpt lat="48.98949" lon="1.04133">
        <ele>82.5</ele>
        <time>2017-12-17T10:29:01Z</time>
      </trkpt>
      <trkpt lat="48.98956" lon="1.04146">
        <ele>82.300003</ele>
        <time>2017-12-17T10:29:03Z</time>
      </trkpt>
      <trkpt lat="48.98964" lon="1.04156">
        <ele>82.199997</ele>
        <time>2017-12-17T10:29:05Z</time>
      </trkpt>
      <trkpt lat="48.98973" lon="1.04163">
        <ele>82.199997</ele>
        <time>2017-12-17T10:29:07Z</time>
      </trkpt>
      <trkpt lat="48.98982" lon="1.04168">
        <ele>82.099998</ele>
        <time>2017-12-17T10:29:09Z</time>
      </trkpt>
      <trkpt lat="48.9899" lon="1.04174">
        <ele>82.099998</ele>
        <time>2017-12-17T10:29:11Z</time>
      </trkpt>
      <trkpt lat="48.98999" lon="1.04179">
        <ele>82</ele>
        <time>2017-12-17T10:29:13Z</time>
      </trkpt>
      <trkpt lat="48.99008" lon="1.04183">
        <ele>82</ele>
        <time>2017-12-17T10:29:15Z</time>
      </trkpt>
      <trkpt lat="48.99017" lon="1.04186">
        <ele>81.800003</ele>
        <time>2017-12-17T10:29:17Z</time>
      </trkpt>
      <trkpt lat="48.99031" lon="1.04187">
        <ele>81.699997</ele>
        <time>2017-12-17T10:29:20Z</time>
      </trkpt>
      <trkpt lat="48.99042" lon="1.04188">
        <ele>81.599998</ele>
        <time>2017-12-17T10:29:23Z</time>
      </trkpt>
      <trkpt lat="48.99053" lon="1.04191">
        <ele>81.800003</ele>
        <time>2017-12-17T10:29:26Z</time>
      </trkpt>
      <trkpt lat="48.99063" lon="1.04196">
        <ele>81.800003</ele>
        <time>2017-12-17T10:29:29Z</time>
      </trkpt>
      <trkpt lat="48.99072" lon="1.04205">
        <ele>81.400002</ele>
        <time>2017-12-17T10:29:32Z</time>
      </trkpt>
      <trkpt lat="48.99079" lon="1.04217">
        <ele>81.300003</ele>
        <time>2017-12-17T10:29:35Z</time>
      </trkpt>
      <trkpt lat="48.99087" lon="1.04229">
        <ele>81.5</ele>
        <time>2017-12-17T10:29:38Z</time>
      </trkpt>
      <trkpt lat="48.99095" lon="1.04241">
        <ele>81.599998</ele>
        <time>2017-12-17T10:29:41Z</time>
      </trkpt>
      <trkpt lat="48.99104" lon="1.04254">
        <ele>81.599998</ele>
        <time>2017-12-17T10:29:44Z</time>
      </trkpt>
      <trkpt lat="48.99113" lon="1.04266">
        <ele>81.699997</ele>
        <time>2017-12-17T10:29:47Z</time>
      </trkpt>
      <trkpt lat="48.99123" lon="1.0428">
        <ele>81.800003</ele>
        <time>2017-12-17T10:29:50Z</time>
      </trkpt>
      <trkpt lat="48.99131" lon="1.04286">
        <ele>81.800003</ele>
        <time>2017-12-17T10:29:52Z</time>
      </trkpt>
      <trkpt lat="48.9914" lon="1.04293">
        <ele>81.900002</ele>
        <time>2017-12-17T10:29:54Z</time>
      </trkpt>
      <trkpt lat="48.9915" lon="1.04301">
        <ele>81.800003</ele>
        <time>2017-12-17T10:29:57Z</time>
      </trkpt>
      <trkpt lat="48.99159" lon="1.04305">
        <ele>81.900002</ele>
        <time>2017-12-17T10:30:03Z</time>
      </trkpt>
      <trkpt lat="48.99169" lon="1.04307">
        <ele>81.800003</ele>
        <time>2017-12-17T10:30:19Z</time>
      </trkpt>
      <trkpt lat="48.99178" lon="1.04309">
        <ele>81.800003</ele>
        <time>2017-12-17T10:30:22Z</time>
      </trkpt>
      <trkpt lat="48.99189" lon="1.04313">
        <ele>81.800003</ele>
        <time>2017-12-17T10:30:25Z</time>
      </trkpt>
      <trkpt lat="48.992" lon="1.04319">
        <ele>81.699997</ele>
        <time>2017-12-17T10:30:28Z</time>
      </trkpt>
      <trkpt lat="48.99209" lon="1.04328">
        <ele>81.800003</ele>
        <time>2017-12-17T10:30:31Z</time>
      </trkpt>
      <trkpt lat="48.9921" lon="1.04343">
        <ele>81.900002</ele>
        <time>2017-12-17T10:30:34Z</time>
      </trkpt>
      <trkpt lat="48.99205" lon="1.04361">
        <ele>81.699997</ele>
        <time>2017-12-17T10:30:37Z</time>
      </trkpt>
      <trkpt lat="48.99201" lon="1.04374">
        <ele>81.400002</ele>
        <time>2017-12-17T10:30:39Z</time>
      </trkpt>
      <trkpt lat="48.99197" lon="1.04389">
        <ele>81.300003</ele>
        <time>2017-12-17T10:30:41Z</time>
      </trkpt>
      <trkpt lat="48.99193" lon="1.04403">
        <ele>80.900002</ele>
        <time>2017-12-17T10:30:43Z</time>
      </trkpt>
      <trkpt lat="48.99189" lon="1.04417">
        <ele>80.900002</ele>
        <time>2017-12-17T10:30:45Z</time>
      </trkpt>
      <trkpt lat="48.99185" lon="1.04431">
        <ele>80.699997</ele>
        <time>2017-12-17T10:30:47Z</time>
      </trkpt>
      <trkpt lat="48.99181" lon="1.04445">
        <ele>80.599998</ele>
        <time>2017-12-17T10:30:49Z</time>
      </trkpt>
      <trkpt lat="48.99178" lon="1.0446">
        <ele>80.5</ele>
        <time>2017-12-17T10:30:51Z</time>
      </trkpt>
      <trkpt lat="48.99176" lon="1.04475">
        <ele>80.699997</ele>
        <time>2017-12-17T10:30:53Z</time>
      </trkpt>
      <trkpt lat="48.99174" lon="1.0449">
        <ele>80.699997</ele>
        <time>2017-12-17T10:30:55Z</time>
      </trkpt>
      <trkpt lat="48.99173" lon="1.04504">
        <ele>80.5</ele>
        <time>2017-12-17T10:30:57Z</time>
      </trkpt>
      <trkpt lat="48.99172" lon="1.04518">
        <ele>80.199997</ele>
        <time>2017-12-17T10:30:59Z</time>
      </trkpt>
      <trkpt lat="48.99171" lon="1.04532">
        <ele>80.300003</ele>
        <time>2017-12-17T10:31:01Z</time>
      </trkpt>
      <trkpt lat="48.99169" lon="1.04546">
        <ele>80.199997</ele>
        <time>2017-12-17T10:31:03Z</time>
      </trkpt>
      <trkpt lat="48.99167" lon="1.0456">
        <ele>80.300003</ele>
        <time>2017-12-17T10:31:05Z</time>
      </trkpt>
      <trkpt lat="48.99165" lon="1.04574">
        <ele>80.199997</ele>
        <time>2017-12-17T10:31:07Z</time>
      </trkpt>
      <trkpt lat="48.99163" lon="1.04588">
        <ele>80.199997</ele>
        <time>2017-12-17T10:31:09Z</time>
      </trkpt>
      <trkpt lat="48.9916" lon="1.04602">
        <ele>80</ele>
        <time>2017-12-17T10:31:11Z</time>
      </trkpt>
      <trkpt lat="48.99159" lon="1.04615">
        <ele>80.099998</ele>
        <time>2017-12-17T10:31:13Z</time>
      </trkpt>
      <trkpt lat="48.99157" lon="1.04629">
        <ele>80.199997</ele>
        <time>2017-12-17T10:31:15Z</time>
      </trkpt>
      <trkpt lat="48.99158" lon="1.04649">
        <ele>80.300003</ele>
        <time>2017-12-17T10:31:18Z</time>
      </trkpt>
      <trkpt lat="48.9916" lon="1.04668">
        <ele>80.599998</ele>
        <time>2017-12-17T10:31:21Z</time>
      </trkpt>
      <trkpt lat="48.99162" lon="1.04686">
        <ele>80.900002</ele>
        <time>2017-12-17T10:31:24Z</time>
      </trkpt>
      <trkpt lat="48.99164" lon="1.04703">
        <ele>81.199997</ele>
        <time>2017-12-17T10:31:27Z</time>
      </trkpt>
      <trkpt lat="48.99165" lon="1.04719">
        <ele>81.5</ele>
        <time>2017-12-17T10:31:30Z</time>
      </trkpt>
      <trkpt lat="48.99167" lon="1.04736">
        <ele>82</ele>
        <time>2017-12-17T10:31:33Z</time>
      </trkpt>
      <trkpt lat="48.99168" lon="1.04753">
        <ele>82.099998</ele>
        <time>2017-12-17T10:31:36Z</time>
      </trkpt>
      <trkpt lat="48.99168" lon="1.04769">
        <ele>82.300003</ele>
        <time>2017-12-17T10:31:39Z</time>
      </trkpt>
      <trkpt lat="48.9917" lon="1.04786">
        <ele>82.199997</ele>
        <time>2017-12-17T10:31:42Z</time>
      </trkpt>
      <trkpt lat="48.99175" lon="1.04804">
        <ele>82.300003</ele>
        <time>2017-12-17T10:31:45Z</time>
      </trkpt>
      <trkpt lat="48.99179" lon="1.04822">
        <ele>82.199997</ele>
        <time>2017-12-17T10:31:48Z</time>
      </trkpt>
      <trkpt lat="48.99183" lon="1.04841">
        <ele>82</ele>
        <time>2017-12-17T10:31:51Z</time>
      </trkpt>
      <trkpt lat="48.99188" lon="1.04858">
        <ele>81.800003</ele>
        <time>2017-12-17T10:31:54Z</time>
      </trkpt>
      <trkpt lat="48.99194" lon="1.04876">
        <ele>81.900002</ele>
        <time>2017-12-17T10:31:57Z</time>
      </trkpt>
      <trkpt lat="48.992" lon="1.04893">
        <ele>82</ele>
        <time>2017-12-17T10:32:00Z</time>
      </trkpt>
      <trkpt lat="48.99205" lon="1.0491">
        <ele>82</ele>
        <time>2017-12-17T10:32:03Z</time>
      </trkpt>
      <trkpt lat="48.99209" lon="1.04928">
        <ele>82.300003</ele>
        <time>2017-12-17T10:32:06Z</time>
      </trkpt>
      <trkpt lat="48.99212" lon="1.04946">
        <ele>82.699997</ele>
        <time>2017-12-17T10:32:09Z</time>
      </trkpt>
      <trkpt lat="48.99217" lon="1.04963">
        <ele>82.800003</ele>
        <time>2017-12-17T10:32:12Z</time>
      </trkpt>
      <trkpt lat="48.99221" lon="1.0498">
        <ele>83</ele>
        <time>2017-12-17T10:32:15Z</time>
      </trkpt>
      <trkpt lat="48.99225" lon="1.04997">
        <ele>83.400002</ele>
        <time>2017-12-17T10:32:18Z</time>
      </trkpt>
      <trkpt lat="48.99229" lon="1.05012">
        <ele>83.900002</ele>
        <time>2017-12-17T10:32:21Z</time>
      </trkpt>
      <trkpt lat="48.99235" lon="1.05027">
        <ele>84.400002</ele>
        <time>2017-12-17T10:32:24Z</time>
      </trkpt>
      <trkpt lat="48.9924" lon="1.05041">
        <ele>84.900002</ele>
        <time>2017-12-17T10:32:27Z</time>
      </trkpt>
      <trkpt lat="48.99245" lon="1.05055">
        <ele>85.199997</ele>
        <time>2017-12-17T10:32:30Z</time>
      </trkpt>
      <trkpt lat="48.99249" lon="1.0507">
        <ele>85.5</ele>
        <time>2017-12-17T10:32:33Z</time>
      </trkpt>
      <trkpt lat="48.99256" lon="1.05083">
        <ele>85.800003</ele>
        <time>2017-12-17T10:32:36Z</time>
      </trkpt>
      <trkpt lat="48.99262" lon="1.05099">
        <ele>85.900002</ele>
        <time>2017-12-17T10:32:39Z</time>
      </trkpt>
      <trkpt lat="48.99267" lon="1.05116">
        <ele>85.900002</ele>
        <time>2017-12-17T10:32:42Z</time>
      </trkpt>
      <trkpt lat="48.99272" lon="1.05133">
        <ele>85.900002</ele>
        <time>2017-12-17T10:32:45Z</time>
      </trkpt>
      <trkpt lat="48.99277" lon="1.05151">
        <ele>85.900002</ele>
        <time>2017-12-17T10:32:48Z</time>
      </trkpt>
      <trkpt lat="48.9928" lon="1.05169">
        <ele>86</ele>
        <time>2017-12-17T10:32:51Z</time>
      </trkpt>
      <trkpt lat="48.99283" lon="1.05188">
        <ele>86.099998</ele>
        <time>2017-12-17T10:32:54Z</time>
      </trkpt>
      <trkpt lat="48.99285" lon="1.05208">
        <ele>86</ele>
        <time>2017-12-17T10:32:57Z</time>
      </trkpt>
      <trkpt lat="48.99287" lon="1.05227">
        <ele>86.099998</ele>
        <time>2017-12-17T10:33:00Z</time>
      </trkpt>
      <trkpt lat="48.99289" lon="1.05247">
        <ele>86.099998</ele>
        <time>2017-12-17T10:33:03Z</time>
      </trkpt>
      <trkpt lat="48.99291" lon="1.05266">
        <ele>86.199997</ele>
        <time>2017-12-17T10:33:06Z</time>
      </trkpt>
      <trkpt lat="48.99293" lon="1.05284">
        <ele>86.400002</ele>
        <time>2017-12-17T10:33:09Z</time>
      </trkpt>
      <trkpt lat="48.99295" lon="1.05303">
        <ele>86.599998</ele>
        <time>2017-12-17T10:33:12Z</time>
      </trkpt>
      <trkpt lat="48.99296" lon="1.05323">
        <ele>86.800003</ele>
        <time>2017-12-17T10:33:15Z</time>
      </trkpt>
      <trkpt lat="48.99297" lon="1.05342">
        <ele>87.099998</ele>
        <time>2017-12-17T10:33:18Z</time>
      </trkpt>
      <trkpt lat="48.99298" lon="1.05361">
        <ele>87.300003</ele>
        <time>2017-12-17T10:33:21Z</time>
      </trkpt>
      <trkpt lat="48.99297" lon="1.0538">
        <ele>87.300003</ele>
        <time>2017-12-17T10:33:24Z</time>
      </trkpt>
      <trkpt lat="48.99297" lon="1.05399">
        <ele>87.300003</ele>
        <time>2017-12-17T10:33:27Z</time>
      </trkpt>
      <trkpt lat="48.99296" lon="1.05418">
        <ele>87.400002</ele>
        <time>2017-12-17T10:33:30Z</time>
      </trkpt>
      <trkpt lat="48.99295" lon="1.05437">
        <ele>87.599998</ele>
        <time>2017-12-17T10:33:33Z</time>
      </trkpt>
      <trkpt lat="48.99294" lon="1.05456">
        <ele>87.800003</ele>
        <time>2017-12-17T10:33:36Z</time>
      </trkpt>
      <trkpt lat="48.99293" lon="1.05476">
        <ele>88</ele>
        <time>2017-12-17T10:33:39Z</time>
      </trkpt>
      <trkpt lat="48.99292" lon="1.05495">
        <ele>88.400002</ele>
        <time>2017-12-17T10:33:42Z</time>
      </trkpt>
      <trkpt lat="48.99291" lon="1.05515">
        <ele>88.400002</ele>
        <time>2017-12-17T10:33:45Z</time>
      </trkpt>
      <trkpt lat="48.9929" lon="1.05534">
        <ele>88.300003</ele>
        <time>2017-12-17T10:33:48Z</time>
      </trkpt>
      <trkpt lat="48.99289" lon="1.05554">
        <ele>88.300003</ele>
        <time>2017-12-17T10:33:51Z</time>
      </trkpt>
      <trkpt lat="48.99287" lon="1.05573">
        <ele>88.5</ele>
        <time>2017-12-17T10:33:54Z</time>
      </trkpt>
      <trkpt lat="48.99285" lon="1.05593">
        <ele>88.400002</ele>
        <time>2017-12-17T10:33:57Z</time>
      </trkpt>
      <trkpt lat="48.99283" lon="1.05607">
        <ele>88.300003</ele>
        <time>2017-12-17T10:33:59Z</time>
      </trkpt>
      <trkpt lat="48.99281" lon="1.05622">
        <ele>88</ele>
        <time>2017-12-17T10:34:01Z</time>
      </trkpt>
      <trkpt lat="48.99278" lon="1.05636">
        <ele>87.900002</ele>
        <time>2017-12-17T10:34:03Z</time>
      </trkpt>
      <trkpt lat="48.99275" lon="1.05656">
        <ele>87.900002</ele>
        <time>2017-12-17T10:34:06Z</time>
      </trkpt>
      <trkpt lat="48.99273" lon="1.05676">
        <ele>87.800003</ele>
        <time>2017-12-17T10:34:09Z</time>
      </trkpt>
      <trkpt lat="48.99271" lon="1.0569">
        <ele>87.599998</ele>
        <time>2017-12-17T10:34:11Z</time>
      </trkpt>
      <trkpt lat="48.99269" lon="1.05705">
        <ele>87.400002</ele>
        <time>2017-12-17T10:34:13Z</time>
      </trkpt>
      <trkpt lat="48.99268" lon="1.0572">
        <ele>87.400002</ele>
        <time>2017-12-17T10:34:15Z</time>
      </trkpt>
      <trkpt lat="48.99267" lon="1.05734">
        <ele>87.099998</ele>
        <time>2017-12-17T10:34:17Z</time>
      </trkpt>
      <trkpt lat="48.99265" lon="1.05749">
        <ele>87</ele>
        <time>2017-12-17T10:34:19Z</time>
      </trkpt>
      <trkpt lat="48.99264" lon="1.05764">
        <ele>86.699997</ele>
        <time>2017-12-17T10:34:21Z</time>
      </trkpt>
      <trkpt lat="48.99263" lon="1.05779">
        <ele>86.400002</ele>
        <time>2017-12-17T10:34:23Z</time>
      </trkpt>
      <trkpt lat="48.99263" lon="1.05793">
        <ele>86.099998</ele>
        <time>2017-12-17T10:34:25Z</time>
      </trkpt>
      <trkpt lat="48.99262" lon="1.05807">
        <ele>85.800003</ele>
        <time>2017-12-17T10:34:27Z</time>
      </trkpt>
      <trkpt lat="48.99261" lon="1.05822">
        <ele>85.699997</ele>
        <time>2017-12-17T10:34:29Z</time>
      </trkpt>
      <trkpt lat="48.9926" lon="1.05836">
        <ele>85.599998</ele>
        <time>2017-12-17T10:34:31Z</time>
      </trkpt>
      <trkpt lat="48.99259" lon="1.05851">
        <ele>85.599998</ele>
        <time>2017-12-17T10:34:33Z</time>
      </trkpt>
      <trkpt lat="48.99258" lon="1.05865">
        <ele>85.5</ele>
        <time>2017-12-17T10:34:35Z</time>
      </trkpt>
      <trkpt lat="48.99257" lon="1.05879">
        <ele>85.400002</ele>
        <time>2017-12-17T10:34:37Z</time>
      </trkpt>
      <trkpt lat="48.99256" lon="1.05893">
        <ele>85.300003</ele>
        <time>2017-12-17T10:34:39Z</time>
      </trkpt>
      <trkpt lat="48.99256" lon="1.05907">
        <ele>85.300003</ele>
        <time>2017-12-17T10:34:41Z</time>
      </trkpt>
      <trkpt lat="48.99256" lon="1.05921">
        <ele>85.400002</ele>
        <time>2017-12-17T10:34:43Z</time>
      </trkpt>
      <trkpt lat="48.99256" lon="1.05935">
        <ele>85.300003</ele>
        <time>2017-12-17T10:34:45Z</time>
      </trkpt>
      <trkpt lat="48.99257" lon="1.05949">
        <ele>85.199997</ele>
        <time>2017-12-17T10:34:47Z</time>
      </trkpt>
      <trkpt lat="48.99258" lon="1.05963">
        <ele>85.099998</ele>
        <time>2017-12-17T10:34:49Z</time>
      </trkpt>
      <trkpt lat="48.99259" lon="1.05978">
        <ele>85.099998</ele>
        <time>2017-12-17T10:34:51Z</time>
      </trkpt>
      <trkpt lat="48.99261" lon="1.05992">
        <ele>85</ele>
        <time>2017-12-17T10:34:53Z</time>
      </trkpt>
      <trkpt lat="48.99262" lon="1.06007">
        <ele>84.800003</ele>
        <time>2017-12-17T10:34:55Z</time>
      </trkpt>
      <trkpt lat="48.99263" lon="1.06023">
        <ele>84.699997</ele>
        <time>2017-12-17T10:34:57Z</time>
      </trkpt>
      <trkpt lat="48.99265" lon="1.0604">
        <ele>84.300003</ele>
        <time>2017-12-17T10:34:59Z</time>
      </trkpt>
      <trkpt lat="48.99267" lon="1.06056">
        <ele>83.900002</ele>
        <time>2017-12-17T10:35:01Z</time>
      </trkpt>
      <trkpt lat="48.99269" lon="1.06071">
        <ele>83.699997</ele>
        <time>2017-12-17T10:35:03Z</time>
      </trkpt>
      <trkpt lat="48.99272" lon="1.06085">
        <ele>83.5</ele>
        <time>2017-12-17T10:35:05Z</time>
      </trkpt>
      <trkpt lat="48.99275" lon="1.06099">
        <ele>83.599998</ele>
        <time>2017-12-17T10:35:07Z</time>
      </trkpt>
      <trkpt lat="48.99277" lon="1.06113">
        <ele>83.599998</ele>
        <time>2017-12-17T10:35:09Z</time>
      </trkpt>
      <trkpt lat="48.9928" lon="1.06127">
        <ele>83.5</ele>
        <time>2017-12-17T10:35:11Z</time>
      </trkpt>
      <trkpt lat="48.99282" lon="1.06141">
        <ele>83.5</ele>
        <time>2017-12-17T10:35:13Z</time>
      </trkpt>
      <trkpt lat="48.99284" lon="1.06155">
        <ele>83.599998</ele>
        <time>2017-12-17T10:35:15Z</time>
      </trkpt>
      <trkpt lat="48.99286" lon="1.06169">
        <ele>83.599998</ele>
        <time>2017-12-17T10:35:17Z</time>
      </trkpt>
      <trkpt lat="48.99288" lon="1.06184">
        <ele>83.5</ele>
        <time>2017-12-17T10:35:19Z</time>
      </trkpt>
      <trkpt lat="48.99289" lon="1.06198">
        <ele>83.5</ele>
        <time>2017-12-17T10:35:21Z</time>
      </trkpt>
      <trkpt lat="48.9929" lon="1.06212">
        <ele>83.5</ele>
        <time>2017-12-17T10:35:23Z</time>
      </trkpt>
      <trkpt lat="48.99292" lon="1.06232">
        <ele>83.900002</ele>
        <time>2017-12-17T10:35:26Z</time>
      </trkpt>
      <trkpt lat="48.99293" lon="1.06246">
        <ele>84</ele>
        <time>2017-12-17T10:35:28Z</time>
      </trkpt>
      <trkpt lat="48.99294" lon="1.0626">
        <ele>84.099998</ele>
        <time>2017-12-17T10:35:30Z</time>
      </trkpt>
      <trkpt lat="48.99296" lon="1.06274">
        <ele>84.099998</ele>
        <time>2017-12-17T10:35:32Z</time>
      </trkpt>
      <trkpt lat="48.99297" lon="1.06289">
        <ele>84.099998</ele>
        <time>2017-12-17T10:35:34Z</time>
      </trkpt>
      <trkpt lat="48.99299" lon="1.06304">
        <ele>84.199997</ele>
        <time>2017-12-17T10:35:36Z</time>
      </trkpt>
      <trkpt lat="48.99302" lon="1.06319">
        <ele>84.199997</ele>
        <time>2017-12-17T10:35:38Z</time>
      </trkpt>
      <trkpt lat="48.99304" lon="1.06334">
        <ele>84.300003</ele>
        <time>2017-12-17T10:35:40Z</time>
      </trkpt>
      <trkpt lat="48.99306" lon="1.06349">
        <ele>84.400002</ele>
        <time>2017-12-17T10:35:42Z</time>
      </trkpt>
      <trkpt lat="48.99308" lon="1.06363">
        <ele>84.300003</ele>
        <time>2017-12-17T10:35:44Z</time>
      </trkpt>
      <trkpt lat="48.9931" lon="1.06377">
        <ele>84.300003</ele>
        <time>2017-12-17T10:35:46Z</time>
      </trkpt>
      <trkpt lat="48.99312" lon="1.06391">
        <ele>84.199997</ele>
        <time>2017-12-17T10:35:48Z</time>
      </trkpt>
      <trkpt lat="48.99314" lon="1.06405">
        <ele>84.199997</ele>
        <time>2017-12-17T10:35:50Z</time>
      </trkpt>
      <trkpt lat="48.99316" lon="1.06418">
        <ele>83.900002</ele>
        <time>2017-12-17T10:35:52Z</time>
      </trkpt>
      <trkpt lat="48.99318" lon="1.06432">
        <ele>83.900002</ele>
        <time>2017-12-17T10:35:54Z</time>
      </trkpt>
      <trkpt lat="48.9932" lon="1.06446">
        <ele>83.599998</ele>
        <time>2017-12-17T10:35:56Z</time>
      </trkpt>
      <trkpt lat="48.99322" lon="1.0646">
        <ele>83.099998</ele>
        <time>2017-12-17T10:35:58Z</time>
      </trkpt>
      <trkpt lat="48.99323" lon="1.06475">
        <ele>83.199997</ele>
        <time>2017-12-17T10:36:00Z</time>
      </trkpt>
      <trkpt lat="48.99325" lon="1.0649">
        <ele>83.400002</ele>
        <time>2017-12-17T10:36:02Z</time>
      </trkpt>
      <trkpt lat="48.99327" lon="1.06505">
        <ele>83.5</ele>
        <time>2017-12-17T10:36:04Z</time>
      </trkpt>
      <trkpt lat="48.99328" lon="1.0652">
        <ele>83</ele>
        <time>2017-12-17T10:36:06Z</time>
      </trkpt>
      <trkpt lat="48.9933" lon="1.06535">
        <ele>82.699997</ele>
        <time>2017-12-17T10:36:08Z</time>
      </trkpt>
      <trkpt lat="48.99332" lon="1.0655">
        <ele>82.800003</ele>
        <time>2017-12-17T10:36:10Z</time>
      </trkpt>
      <trkpt lat="48.99334" lon="1.06565">
        <ele>82.699997</ele>
        <time>2017-12-17T10:36:12Z</time>
      </trkpt>
      <trkpt lat="48.99336" lon="1.0658">
        <ele>82.300003</ele>
        <time>2017-12-17T10:36:14Z</time>
      </trkpt>
      <trkpt lat="48.99339" lon="1.06596">
        <ele>82.199997</ele>
        <time>2017-12-17T10:36:16Z</time>
      </trkpt>
      <trkpt lat="48.99343" lon="1.06611">
        <ele>82.099998</ele>
        <time>2017-12-17T10:36:18Z</time>
      </trkpt>
      <trkpt lat="48.99346" lon="1.06627">
        <ele>82.099998</ele>
        <time>2017-12-17T10:36:20Z</time>
      </trkpt>
      <trkpt lat="48.9935" lon="1.06641">
        <ele>81.599998</ele>
        <time>2017-12-17T10:36:22Z</time>
      </trkpt>
      <trkpt lat="48.99354" lon="1.06655">
        <ele>81</ele>
        <time>2017-12-17T10:36:24Z</time>
      </trkpt>
      <trkpt lat="48.99355" lon="1.06671">
        <ele>80.900002</ele>
        <time>2017-12-17T10:36:26Z</time>
      </trkpt>
      <trkpt lat="48.99355" lon="1.06688">
        <ele>80.800003</ele>
        <time>2017-12-17T10:36:28Z</time>
      </trkpt>
      <trkpt lat="48.99354" lon="1.06704">
        <ele>80.300003</ele>
        <time>2017-12-17T10:36:30Z</time>
      </trkpt>
      <trkpt lat="48.99352" lon="1.06719">
        <ele>80</ele>
        <time>2017-12-17T10:36:32Z</time>
      </trkpt>
      <trkpt lat="48.9935" lon="1.06734">
        <ele>79.900002</ele>
        <time>2017-12-17T10:36:34Z</time>
      </trkpt>
      <trkpt lat="48.99348" lon="1.06749">
        <ele>79.800003</ele>
        <time>2017-12-17T10:36:36Z</time>
      </trkpt>
      <trkpt lat="48.99347" lon="1.06764">
        <ele>79.699997</ele>
        <time>2017-12-17T10:36:38Z</time>
      </trkpt>
      <trkpt lat="48.99345" lon="1.06779">
        <ele>79.300003</ele>
        <time>2017-12-17T10:36:40Z</time>
      </trkpt>
      <trkpt lat="48.99344" lon="1.06795">
        <ele>79.5</ele>
        <time>2017-12-17T10:36:42Z</time>
      </trkpt>
      <trkpt lat="48.99344" lon="1.0681">
        <ele>79.699997</ele>
        <time>2017-12-17T10:36:44Z</time>
      </trkpt>
      <trkpt lat="48.99343" lon="1.06826">
        <ele>79.300003</ele>
        <time>2017-12-17T10:36:46Z</time>
      </trkpt>
      <trkpt lat="48.99343" lon="1.06842">
        <ele>79.199997</ele>
        <time>2017-12-17T10:36:48Z</time>
      </trkpt>
      <trkpt lat="48.99343" lon="1.06857">
        <ele>79</ele>
        <time>2017-12-17T10:36:50Z</time>
      </trkpt>
      <trkpt lat="48.99343" lon="1.06874">
        <ele>79.5</ele>
        <time>2017-12-17T10:36:52Z</time>
      </trkpt>
      <trkpt lat="48.99343" lon="1.0689">
        <ele>79</ele>
        <time>2017-12-17T10:36:54Z</time>
      </trkpt>
      <trkpt lat="48.99343" lon="1.06906">
        <ele>78.800003</ele>
        <time>2017-12-17T10:36:56Z</time>
      </trkpt>
      <trkpt lat="48.99343" lon="1.06922">
        <ele>78.800003</ele>
        <time>2017-12-17T10:36:58Z</time>
      </trkpt>
      <trkpt lat="48.99343" lon="1.06938">
        <ele>78.699997</ele>
        <time>2017-12-17T10:37:00Z</time>
      </trkpt>
      <trkpt lat="48.99342" lon="1.06953">
        <ele>78.699997</ele>
        <time>2017-12-17T10:37:02Z</time>
      </trkpt>
      <trkpt lat="48.99341" lon="1.06969">
        <ele>78.5</ele>
        <time>2017-12-17T10:37:04Z</time>
      </trkpt>
      <trkpt lat="48.9934" lon="1.06985">
        <ele>78.099998</ele>
        <time>2017-12-17T10:37:06Z</time>
      </trkpt>
      <trkpt lat="48.9934" lon="1.07">
        <ele>78.099998</ele>
        <time>2017-12-17T10:37:08Z</time>
      </trkpt>
      <trkpt lat="48.99338" lon="1.07014">
        <ele>77.599998</ele>
        <time>2017-12-17T10:37:10Z</time>
      </trkpt>
      <trkpt lat="48.99338" lon="1.0703">
        <ele>77.699997</ele>
        <time>2017-12-17T10:37:12Z</time>
      </trkpt>
      <trkpt lat="48.99337" lon="1.07046">
        <ele>77.599998</ele>
        <time>2017-12-17T10:37:14Z</time>
      </trkpt>
      <trkpt lat="48.99336" lon="1.07062">
        <ele>77.5</ele>
        <time>2017-12-17T10:37:16Z</time>
      </trkpt>
      <trkpt lat="48.99335" lon="1.07078">
        <ele>77.099998</ele>
        <time>2017-12-17T10:37:18Z</time>
      </trkpt>
      <trkpt lat="48.99334" lon="1.07092">
        <ele>76.699997</ele>
        <time>2017-12-17T10:37:20Z</time>
      </trkpt>
      <trkpt lat="48.99332" lon="1.07107">
        <ele>76.199997</ele>
        <time>2017-12-17T10:37:22Z</time>
      </trkpt>
      <trkpt lat="48.99332" lon="1.07122">
        <ele>76.800003</ele>
        <time>2017-12-17T10:37:24Z</time>
      </trkpt>
      <trkpt lat="48.9933" lon="1.07137">
        <ele>76.699997</ele>
        <time>2017-12-17T10:37:26Z</time>
      </trkpt>
      <trkpt lat="48.9933" lon="1.07153">
        <ele>76.800003</ele>
        <time>2017-12-17T10:37:28Z</time>
      </trkpt>
      <trkpt lat="48.99329" lon="1.07168">
        <ele>76.300003</ele>
        <time>2017-12-17T10:37:30Z</time>
      </trkpt>
      <trkpt lat="48.99328" lon="1.07184">
        <ele>76.300003</ele>
        <time>2017-12-17T10:37:32Z</time>
      </trkpt>
      <trkpt lat="48.99326" lon="1.07198">
        <ele>76.5</ele>
        <time>2017-12-17T10:37:34Z</time>
      </trkpt>
      <trkpt lat="48.99326" lon="1.07213">
        <ele>77</ele>
        <time>2017-12-17T10:37:36Z</time>
      </trkpt>
      <trkpt lat="48.99325" lon="1.07228">
        <ele>76.900002</ele>
        <time>2017-12-17T10:37:38Z</time>
      </trkpt>
      <trkpt lat="48.99325" lon="1.07243">
        <ele>76.900002</ele>
        <time>2017-12-17T10:37:40Z</time>
      </trkpt>
      <trkpt lat="48.99325" lon="1.07257">
        <ele>76.5</ele>
        <time>2017-12-17T10:37:42Z</time>
      </trkpt>
      <trkpt lat="48.99326" lon="1.07272">
        <ele>76.599998</ele>
        <time>2017-12-17T10:37:44Z</time>
      </trkpt>
      <trkpt lat="48.99327" lon="1.07286">
        <ele>76.400002</ele>
        <time>2017-12-17T10:37:46Z</time>
      </trkpt>
      <trkpt lat="48.99329" lon="1.07301">
        <ele>76.599998</ele>
        <time>2017-12-17T10:37:48Z</time>
      </trkpt>
      <trkpt lat="48.99333" lon="1.07315">
        <ele>76.599998</ele>
        <time>2017-12-17T10:37:50Z</time>
      </trkpt>
      <trkpt lat="48.99337" lon="1.07329">
        <ele>76.599998</ele>
        <time>2017-12-17T10:37:52Z</time>
      </trkpt>
      <trkpt lat="48.99343" lon="1.07342">
        <ele>76.5</ele>
        <time>2017-12-17T10:37:54Z</time>
      </trkpt>
      <trkpt lat="48.9935" lon="1.0735">
        <ele>76.199997</ele>
        <time>2017-12-17T10:37:56Z</time>
      </trkpt>
      <trkpt lat="48.99359" lon="1.07356">
        <ele>76.199997</ele>
        <time>2017-12-17T10:37:58Z</time>
      </trkpt>
      <trkpt lat="48.99368" lon="1.07362">
        <ele>76</ele>
        <time>2017-12-17T10:38:00Z</time>
      </trkpt>
      <trkpt lat="48.99378" lon="1.07367">
        <ele>75.900002</ele>
        <time>2017-12-17T10:38:02Z</time>
      </trkpt>
      <trkpt lat="48.99386" lon="1.07374">
        <ele>75.599998</ele>
        <time>2017-12-17T10:38:04Z</time>
      </trkpt>
      <trkpt lat="48.99392" lon="1.07384">
        <ele>75.599998</ele>
        <time>2017-12-17T10:38:06Z</time>
      </trkpt>
      <trkpt lat="48.99396" lon="1.07397">
        <ele>75.599998</ele>
        <time>2017-12-17T10:38:08Z</time>
      </trkpt>
      <trkpt lat="48.99397" lon="1.07411">
        <ele>75.5</ele>
        <time>2017-12-17T10:38:10Z</time>
      </trkpt>
      <trkpt lat="48.99398" lon="1.07426">
        <ele>75.400002</ele>
        <time>2017-12-17T10:38:12Z</time>
      </trkpt>
      <trkpt lat="48.99397" lon="1.0744">
        <ele>75.599998</ele>
        <time>2017-12-17T10:38:14Z</time>
      </trkpt>
      <trkpt lat="48.99397" lon="1.07455">
        <ele>75.400002</ele>
        <time>2017-12-17T10:38:16Z</time>
      </trkpt>
      <trkpt lat="48.99397" lon="1.07469">
        <ele>75</ele>
        <time>2017-12-17T10:38:18Z</time>
      </trkpt>
      <trkpt lat="48.99397" lon="1.07484">
        <ele>75.5</ele>
        <time>2017-12-17T10:38:20Z</time>
      </trkpt>
      <trkpt lat="48.99397" lon="1.07499">
        <ele>75.599998</ele>
        <time>2017-12-17T10:38:22Z</time>
      </trkpt>
      <trkpt lat="48.99398" lon="1.07514">
        <ele>75.400002</ele>
        <time>2017-12-17T10:38:24Z</time>
      </trkpt>
      <trkpt lat="48.99398" lon="1.07528">
        <ele>75.400002</ele>
        <time>2017-12-17T10:38:26Z</time>
      </trkpt>
      <trkpt lat="48.994" lon="1.07542">
        <ele>75.099998</ele>
        <time>2017-12-17T10:38:28Z</time>
      </trkpt>
      <trkpt lat="48.99401" lon="1.07558">
        <ele>75.099998</ele>
        <time>2017-12-17T10:38:30Z</time>
      </trkpt>
      <trkpt lat="48.99401" lon="1.07574">
        <ele>75</ele>
        <time>2017-12-17T10:38:32Z</time>
      </trkpt>
      <trkpt lat="48.99402" lon="1.0759">
        <ele>75.099998</ele>
        <time>2017-12-17T10:38:34Z</time>
      </trkpt>
      <trkpt lat="48.99402" lon="1.07607">
        <ele>75.099998</ele>
        <time>2017-12-17T10:38:36Z</time>
      </trkpt>
      <trkpt lat="48.99402" lon="1.07624">
        <ele>75.099998</ele>
        <time>2017-12-17T10:38:38Z</time>
      </trkpt>
      <trkpt lat="48.99403" lon="1.07641">
        <ele>75.300003</ele>
        <time>2017-12-17T10:38:40Z</time>
      </trkpt>
      <trkpt lat="48.99403" lon="1.07659">
        <ele>75.300003</ele>
        <time>2017-12-17T10:38:42Z</time>
      </trkpt>
      <trkpt lat="48.99404" lon="1.07676">
        <ele>75.099998</ele>
        <time>2017-12-17T10:38:44Z</time>
      </trkpt>
      <trkpt lat="48.99404" lon="1.07693">
        <ele>74.900002</ele>
        <time>2017-12-17T10:38:46Z</time>
      </trkpt>
      <trkpt lat="48.99405" lon="1.07711">
        <ele>74.800003</ele>
        <time>2017-12-17T10:38:48Z</time>
      </trkpt>
      <trkpt lat="48.99405" lon="1.07728">
        <ele>75</ele>
        <time>2017-12-17T10:38:50Z</time>
      </trkpt>
      <trkpt lat="48.99403" lon="1.07745">
        <ele>74.699997</ele>
        <time>2017-12-17T10:38:52Z</time>
      </trkpt>
      <trkpt lat="48.99401" lon="1.07762">
        <ele>74.599998</ele>
        <time>2017-12-17T10:38:54Z</time>
      </trkpt>
      <trkpt lat="48.99399" lon="1.07779">
        <ele>74.699997</ele>
        <time>2017-12-17T10:38:56Z</time>
      </trkpt>
      <trkpt lat="48.99399" lon="1.07797">
        <ele>74.699997</ele>
        <time>2017-12-17T10:38:58Z</time>
      </trkpt>
      <trkpt lat="48.994" lon="1.07813">
        <ele>74.699997</ele>
        <time>2017-12-17T10:39:00Z</time>
      </trkpt>
      <trkpt lat="48.99401" lon="1.0783">
        <ele>74.599998</ele>
        <time>2017-12-17T10:39:02Z</time>
      </trkpt>
      <trkpt lat="48.99403" lon="1.07846">
        <ele>74.599998</ele>
        <time>2017-12-17T10:39:04Z</time>
      </trkpt>
      <trkpt lat="48.99405" lon="1.07862">
        <ele>74.599998</ele>
        <time>2017-12-17T10:39:06Z</time>
      </trkpt>
      <trkpt lat="48.99407" lon="1.07878">
        <ele>74.599998</ele>
        <time>2017-12-17T10:39:08Z</time>
      </trkpt>
      <trkpt lat="48.99408" lon="1.07894">
        <ele>74.800003</ele>
        <time>2017-12-17T10:39:10Z</time>
      </trkpt>
      <trkpt lat="48.99408" lon="1.07911">
        <ele>74.800003</ele>
        <time>2017-12-17T10:39:12Z</time>
      </trkpt>
      <trkpt lat="48.99407" lon="1.07928">
        <ele>74.699997</ele>
        <time>2017-12-17T10:39:14Z</time>
      </trkpt>
      <trkpt lat="48.99406" lon="1.07944">
        <ele>74.699997</ele>
        <time>2017-12-17T10:39:16Z</time>
      </trkpt>
      <trkpt lat="48.99406" lon="1.0796">
        <ele>74.800003</ele>
        <time>2017-12-17T10:39:18Z</time>
      </trkpt>
      <trkpt lat="48.99406" lon="1.07977">
        <ele>74.900002</ele>
        <time>2017-12-17T10:39:20Z</time>
      </trkpt>
      <trkpt lat="48.99406" lon="1.07993">
        <ele>75</ele>
        <time>2017-12-17T10:39:22Z</time>
      </trkpt>
      <trkpt lat="48.99407" lon="1.08009">
        <ele>75.099998</ele>
        <time>2017-12-17T10:39:24Z</time>
      </trkpt>
      <trkpt lat="48.99408" lon="1.08025">
        <ele>75</ele>
        <time>2017-12-17T10:39:26Z</time>
      </trkpt>
      <trkpt lat="48.99409" lon="1.08041">
        <ele>75</ele>
        <time>2017-12-17T10:39:28Z</time>
      </trkpt>
      <trkpt lat="48.9941" lon="1.08057">
        <ele>75</ele>
        <time>2017-12-17T10:39:30Z</time>
      </trkpt>
      <trkpt lat="48.99411" lon="1.08072">
        <ele>75</ele>
        <time>2017-12-17T10:39:32Z</time>
      </trkpt>
      <trkpt lat="48.99413" lon="1.08089">
        <ele>75.099998</ele>
        <time>2017-12-17T10:39:34Z</time>
      </trkpt>
      <trkpt lat="48.99415" lon="1.08105">
        <ele>74.900002</ele>
        <time>2017-12-17T10:39:36Z</time>
      </trkpt>
      <trkpt lat="48.99418" lon="1.08122">
        <ele>74.900002</ele>
        <time>2017-12-17T10:39:38Z</time>
      </trkpt>
      <trkpt lat="48.99421" lon="1.08138">
        <ele>74.900002</ele>
        <time>2017-12-17T10:39:40Z</time>
      </trkpt>
      <trkpt lat="48.99422" lon="1.08155">
        <ele>75</ele>
        <time>2017-12-17T10:39:42Z</time>
      </trkpt>
      <trkpt lat="48.99423" lon="1.08171">
        <ele>74.900002</ele>
        <time>2017-12-17T10:39:44Z</time>
      </trkpt>
      <trkpt lat="48.99423" lon="1.08187">
        <ele>74.599998</ele>
        <time>2017-12-17T10:39:46Z</time>
      </trkpt>
      <trkpt lat="48.99423" lon="1.08204">
        <ele>74.5</ele>
        <time>2017-12-17T10:39:48Z</time>
      </trkpt>
      <trkpt lat="48.99423" lon="1.0822">
        <ele>74.5</ele>
        <time>2017-12-17T10:39:50Z</time>
      </trkpt>
      <trkpt lat="48.99423" lon="1.08237">
        <ele>74.5</ele>
        <time>2017-12-17T10:39:52Z</time>
      </trkpt>
      <trkpt lat="48.99423" lon="1.08253">
        <ele>74.599998</ele>
        <time>2017-12-17T10:39:54Z</time>
      </trkpt>
      <trkpt lat="48.99423" lon="1.0827">
        <ele>74.599998</ele>
        <time>2017-12-17T10:39:56Z</time>
      </trkpt>
      <trkpt lat="48.99423" lon="1.08287">
        <ele>74.599998</ele>
        <time>2017-12-17T10:39:58Z</time>
      </trkpt>
      <trkpt lat="48.99423" lon="1.08303">
        <ele>74.599998</ele>
        <time>2017-12-17T10:40:00Z</time>
      </trkpt>
      <trkpt lat="48.99423" lon="1.0832">
        <ele>74.5</ele>
        <time>2017-12-17T10:40:02Z</time>
      </trkpt>
      <trkpt lat="48.99423" lon="1.08337">
        <ele>74.599998</ele>
        <time>2017-12-17T10:40:04Z</time>
      </trkpt>
      <trkpt lat="48.99423" lon="1.08353">
        <ele>74.599998</ele>
        <time>2017-12-17T10:40:06Z</time>
      </trkpt>
      <trkpt lat="48.99423" lon="1.0837">
        <ele>74.5</ele>
        <time>2017-12-17T10:40:08Z</time>
      </trkpt>
      <trkpt lat="48.99423" lon="1.08387">
        <ele>74.199997</ele>
        <time>2017-12-17T10:40:10Z</time>
      </trkpt>
      <trkpt lat="48.99423" lon="1.08404">
        <ele>74.099998</ele>
        <time>2017-12-17T10:40:12Z</time>
      </trkpt>
      <trkpt lat="48.99423" lon="1.0842">
        <ele>74.199997</ele>
        <time>2017-12-17T10:40:14Z</time>
      </trkpt>
      <trkpt lat="48.99422" lon="1.08436">
        <ele>74.199997</ele>
        <time>2017-12-17T10:40:16Z</time>
      </trkpt>
      <trkpt lat="48.99423" lon="1.08452">
        <ele>74.199997</ele>
        <time>2017-12-17T10:40:18Z</time>
      </trkpt>
      <trkpt lat="48.99423" lon="1.08468">
        <ele>74.199997</ele>
        <time>2017-12-17T10:40:20Z</time>
      </trkpt>
      <trkpt lat="48.99422" lon="1.08484">
        <ele>74.199997</ele>
        <time>2017-12-17T10:40:22Z</time>
      </trkpt>
      <trkpt lat="48.99422" lon="1.08501">
        <ele>74.300003</ele>
        <time>2017-12-17T10:40:24Z</time>
      </trkpt>
      <trkpt lat="48.99422" lon="1.08517">
        <ele>74.199997</ele>
        <time>2017-12-17T10:40:26Z</time>
      </trkpt>
      <trkpt lat="48.99422" lon="1.08534">
        <ele>74.199997</ele>
        <time>2017-12-17T10:40:28Z</time>
      </trkpt>
      <trkpt lat="48.99423" lon="1.08551">
        <ele>74.199997</ele>
        <time>2017-12-17T10:40:30Z</time>
      </trkpt>
      <trkpt lat="48.99423" lon="1.08567">
        <ele>74.099998</ele>
        <time>2017-12-17T10:40:32Z</time>
      </trkpt>
      <trkpt lat="48.99423" lon="1.08584">
        <ele>74.099998</ele>
        <time>2017-12-17T10:40:34Z</time>
      </trkpt>
      <trkpt lat="48.99422" lon="1.086">
        <ele>74.099998</ele>
        <time>2017-12-17T10:40:36Z</time>
      </trkpt>
      <trkpt lat="48.99423" lon="1.08618">
        <ele>73.900002</ele>
        <time>2017-12-17T10:40:38Z</time>
      </trkpt>
      <trkpt lat="48.99422" lon="1.08634">
        <ele>73.800003</ele>
        <time>2017-12-17T10:40:40Z</time>
      </trkpt>
      <trkpt lat="48.99422" lon="1.08651">
        <ele>73.900002</ele>
        <time>2017-12-17T10:40:42Z</time>
      </trkpt>
      <trkpt lat="48.99423" lon="1.08668">
        <ele>73.900002</ele>
        <time>2017-12-17T10:40:44Z</time>
      </trkpt>
      <trkpt lat="48.99422" lon="1.08685">
        <ele>73.900002</ele>
        <time>2017-12-17T10:40:46Z</time>
      </trkpt>
      <trkpt lat="48.99422" lon="1.08702">
        <ele>73.900002</ele>
        <time>2017-12-17T10:40:48Z</time>
      </trkpt>
      <trkpt lat="48.99422" lon="1.08719">
        <ele>74</ele>
        <time>2017-12-17T10:40:50Z</time>
      </trkpt>
      <trkpt lat="48.99422" lon="1.08737">
        <ele>74</ele>
        <time>2017-12-17T10:40:52Z</time>
      </trkpt>
      <trkpt lat="48.99422" lon="1.08755">
        <ele>73.900002</ele>
        <time>2017-12-17T10:40:54Z</time>
      </trkpt>
      <trkpt lat="48.99422" lon="1.08771">
        <ele>73.800003</ele>
        <time>2017-12-17T10:40:56Z</time>
      </trkpt>
      <trkpt lat="48.99422" lon="1.08788">
        <ele>73.699997</ele>
        <time>2017-12-17T10:40:58Z</time>
      </trkpt>
      <trkpt lat="48.99422" lon="1.08804">
        <ele>73.800003</ele>
        <time>2017-12-17T10:41:00Z</time>
      </trkpt>
      <trkpt lat="48.99422" lon="1.08821">
        <ele>73.699997</ele>
        <time>2017-12-17T10:41:02Z</time>
      </trkpt>
      <trkpt lat="48.99422" lon="1.08837">
        <ele>73.699997</ele>
        <time>2017-12-17T10:41:04Z</time>
      </trkpt>
      <trkpt lat="48.99423" lon="1.08854">
        <ele>73.800003</ele>
        <time>2017-12-17T10:41:06Z</time>
      </trkpt>
      <trkpt lat="48.99423" lon="1.0887">
        <ele>74</ele>
        <time>2017-12-17T10:41:08Z</time>
      </trkpt>
      <trkpt lat="48.99424" lon="1.08886">
        <ele>74.300003</ele>
        <time>2017-12-17T10:41:10Z</time>
      </trkpt>
      <trkpt lat="48.99425" lon="1.08902">
        <ele>74.5</ele>
        <time>2017-12-17T10:41:12Z</time>
      </trkpt>
      <trkpt lat="48.99425" lon="1.08919">
        <ele>74.599998</ele>
        <time>2017-12-17T10:41:14Z</time>
      </trkpt>
      <trkpt lat="48.99426" lon="1.08935">
        <ele>74.599998</ele>
        <time>2017-12-17T10:41:16Z</time>
      </trkpt>
      <trkpt lat="48.99427" lon="1.0895">
        <ele>74.5</ele>
        <time>2017-12-17T10:41:18Z</time>
      </trkpt>
      <trkpt lat="48.99428" lon="1.08964">
        <ele>74.400002</ele>
        <time>2017-12-17T10:41:20Z</time>
      </trkpt>
      <trkpt lat="48.99429" lon="1.08978">
        <ele>74.400002</ele>
        <time>2017-12-17T10:41:22Z</time>
      </trkpt>
      <trkpt lat="48.9943" lon="1.08994">
        <ele>74.5</ele>
        <time>2017-12-17T10:41:24Z</time>
      </trkpt>
      <trkpt lat="48.99431" lon="1.0901">
        <ele>74.5</ele>
        <time>2017-12-17T10:41:26Z</time>
      </trkpt>
      <trkpt lat="48.99432" lon="1.09026">
        <ele>74.5</ele>
        <time>2017-12-17T10:41:28Z</time>
      </trkpt>
      <trkpt lat="48.99432" lon="1.09041">
        <ele>74.900002</ele>
        <time>2017-12-17T10:41:30Z</time>
      </trkpt>
      <trkpt lat="48.99432" lon="1.09057">
        <ele>75</ele>
        <time>2017-12-17T10:41:32Z</time>
      </trkpt>
      <trkpt lat="48.99431" lon="1.09074">
        <ele>75</ele>
        <time>2017-12-17T10:41:34Z</time>
      </trkpt>
      <trkpt lat="48.99428" lon="1.09092">
        <ele>74.800003</ele>
        <time>2017-12-17T10:41:36Z</time>
      </trkpt>
      <trkpt lat="48.99426" lon="1.09111">
        <ele>74.199997</ele>
        <time>2017-12-17T10:41:38Z</time>
      </trkpt>
      <trkpt lat="48.99425" lon="1.09129">
        <ele>73.800003</ele>
        <time>2017-12-17T10:41:40Z</time>
      </trkpt>
      <trkpt lat="48.99424" lon="1.09147">
        <ele>73.5</ele>
        <time>2017-12-17T10:41:42Z</time>
      </trkpt>
      <trkpt lat="48.99424" lon="1.09164">
        <ele>73.400002</ele>
        <time>2017-12-17T10:41:44Z</time>
      </trkpt>
      <trkpt lat="48.99424" lon="1.09182">
        <ele>73.300003</ele>
        <time>2017-12-17T10:41:46Z</time>
      </trkpt>
      <trkpt lat="48.99425" lon="1.09198">
        <ele>73.199997</ele>
        <time>2017-12-17T10:41:48Z</time>
      </trkpt>
      <trkpt lat="48.99423" lon="1.09217">
        <ele>73.900002</ele>
        <time>2017-12-17T10:41:51Z</time>
      </trkpt>
      <trkpt lat="48.99415" lon="1.09232">
        <ele>75.099998</ele>
        <time>2017-12-17T10:41:54Z</time>
      </trkpt>
      <trkpt lat="48.99404" lon="1.09244">
        <ele>75.599998</ele>
        <time>2017-12-17T10:41:57Z</time>
      </trkpt>
      <trkpt lat="48.99397" lon="1.09251">
        <ele>75.599998</ele>
        <time>2017-12-17T10:41:59Z</time>
      </trkpt>
      <trkpt lat="48.99389" lon="1.09259">
        <ele>75.900002</ele>
        <time>2017-12-17T10:42:01Z</time>
      </trkpt>
      <trkpt lat="48.99382" lon="1.09268">
        <ele>75.900002</ele>
        <time>2017-12-17T10:42:03Z</time>
      </trkpt>
      <trkpt lat="48.99377" lon="1.09279">
        <ele>76.199997</ele>
        <time>2017-12-17T10:42:05Z</time>
      </trkpt>
      <trkpt lat="48.99372" lon="1.09298">
        <ele>76.599998</ele>
        <time>2017-12-17T10:42:08Z</time>
      </trkpt>
      <trkpt lat="48.99369" lon="1.09316">
        <ele>77.400002</ele>
        <time>2017-12-17T10:42:11Z</time>
      </trkpt>
      <trkpt lat="48.99368" lon="1.09333">
        <ele>78.199997</ele>
        <time>2017-12-17T10:42:14Z</time>
      </trkpt>
      <trkpt lat="48.99367" lon="1.09351">
        <ele>78.800003</ele>
        <time>2017-12-17T10:42:17Z</time>
      </trkpt>
      <trkpt lat="48.99366" lon="1.0937">
        <ele>79.5</ele>
        <time>2017-12-17T10:42:20Z</time>
      </trkpt>
      <trkpt lat="48.99364" lon="1.09388">
        <ele>79.900002</ele>
        <time>2017-12-17T10:42:23Z</time>
      </trkpt>
      <trkpt lat="48.99363" lon="1.09406">
        <ele>80.099998</ele>
        <time>2017-12-17T10:42:26Z</time>
      </trkpt>
      <trkpt lat="48.99362" lon="1.09424">
        <ele>80.599998</ele>
        <time>2017-12-17T10:42:29Z</time>
      </trkpt>
      <trkpt lat="48.99361" lon="1.09442">
        <ele>81.199997</ele>
        <time>2017-12-17T10:42:32Z</time>
      </trkpt>
      <trkpt lat="48.99361" lon="1.0946">
        <ele>82</ele>
        <time>2017-12-17T10:42:35Z</time>
      </trkpt>
      <trkpt lat="48.99362" lon="1.09477">
        <ele>82.800003</ele>
        <time>2017-12-17T10:42:38Z</time>
      </trkpt>
      <trkpt lat="48.99364" lon="1.09494">
        <ele>83.599998</ele>
        <time>2017-12-17T10:42:41Z</time>
      </trkpt>
      <trkpt lat="48.99367" lon="1.09508">
        <ele>84.400002</ele>
        <time>2017-12-17T10:42:44Z</time>
      </trkpt>
      <trkpt lat="48.9937" lon="1.09522">
        <ele>85</ele>
        <time>2017-12-17T10:42:47Z</time>
      </trkpt>
      <trkpt lat="48.99373" lon="1.09536">
        <ele>85.599998</ele>
        <time>2017-12-17T10:42:50Z</time>
      </trkpt>
      <trkpt lat="48.99377" lon="1.09552">
        <ele>86.199997</ele>
        <time>2017-12-17T10:42:54Z</time>
      </trkpt>
      <trkpt lat="48.99381" lon="1.09567">
        <ele>86.5</ele>
        <time>2017-12-17T10:42:57Z</time>
      </trkpt>
      <trkpt lat="48.99386" lon="1.09582">
        <ele>86.599998</ele>
        <time>2017-12-17T10:43:00Z</time>
      </trkpt>
      <trkpt lat="48.9939" lon="1.096">
        <ele>86.699997</ele>
        <time>2017-12-17T10:43:03Z</time>
      </trkpt>
      <trkpt lat="48.99395" lon="1.09618">
        <ele>87</ele>
        <time>2017-12-17T10:43:06Z</time>
      </trkpt>
      <trkpt lat="48.994" lon="1.09637">
        <ele>86.900002</ele>
        <time>2017-12-17T10:43:09Z</time>
      </trkpt>
      <trkpt lat="48.99404" lon="1.0965">
        <ele>86.699997</ele>
        <time>2017-12-17T10:43:11Z</time>
      </trkpt>
      <trkpt lat="48.99408" lon="1.09663">
        <ele>86.599998</ele>
        <time>2017-12-17T10:43:13Z</time>
      </trkpt>
      <trkpt lat="48.99411" lon="1.09677">
        <ele>86.5</ele>
        <time>2017-12-17T10:43:15Z</time>
      </trkpt>
      <trkpt lat="48.99415" lon="1.09691">
        <ele>86.199997</ele>
        <time>2017-12-17T10:43:17Z</time>
      </trkpt>
      <trkpt lat="48.99419" lon="1.09705">
        <ele>85.900002</ele>
        <time>2017-12-17T10:43:19Z</time>
      </trkpt>
      <trkpt lat="48.99422" lon="1.09719">
        <ele>85.599998</ele>
        <time>2017-12-17T10:43:21Z</time>
      </trkpt>
      <trkpt lat="48.99426" lon="1.09734">
        <ele>85.5</ele>
        <time>2017-12-17T10:43:23Z</time>
      </trkpt>
      <trkpt lat="48.9943" lon="1.09748">
        <ele>85.300003</ele>
        <time>2017-12-17T10:43:25Z</time>
      </trkpt>
      <trkpt lat="48.99434" lon="1.09762">
        <ele>85.099998</ele>
        <time>2017-12-17T10:43:27Z</time>
      </trkpt>
      <trkpt lat="48.99437" lon="1.09776">
        <ele>85</ele>
        <time>2017-12-17T10:43:29Z</time>
      </trkpt>
      <trkpt lat="48.99441" lon="1.09789">
        <ele>85</ele>
        <time>2017-12-17T10:43:31Z</time>
      </trkpt>
      <trkpt lat="48.99444" lon="1.09802">
        <ele>84.900002</ele>
        <time>2017-12-17T10:43:33Z</time>
      </trkpt>
      <trkpt lat="48.99449" lon="1.0982">
        <ele>84.800003</ele>
        <time>2017-12-17T10:43:36Z</time>
      </trkpt>
      <trkpt lat="48.99453" lon="1.09837">
        <ele>84.900002</ele>
        <time>2017-12-17T10:43:39Z</time>
      </trkpt>
      <trkpt lat="48.99458" lon="1.09852">
        <ele>85</ele>
        <time>2017-12-17T10:43:42Z</time>
      </trkpt>
      <trkpt lat="48.99464" lon="1.09864">
        <ele>85</ele>
        <time>2017-12-17T10:43:48Z</time>
      </trkpt>
      <trkpt lat="48.99458" lon="1.09876">
        <ele>85.199997</ele>
        <time>2017-12-17T10:45:37Z</time>
      </trkpt>
      <trkpt lat="48.99451" lon="1.09889">
        <ele>85.300003</ele>
        <time>2017-12-17T10:45:40Z</time>
      </trkpt>
      <trkpt lat="48.99443" lon="1.09901">
        <ele>85.300003</ele>
        <time>2017-12-17T10:45:43Z</time>
      </trkpt>
      <trkpt lat="48.99432" lon="1.09912">
        <ele>85.400002</ele>
        <time>2017-12-17T10:45:46Z</time>
      </trkpt>
      <trkpt lat="48.9942" lon="1.09917">
        <ele>85.900002</ele>
        <time>2017-12-17T10:45:49Z</time>
      </trkpt>
      <trkpt lat="48.99409" lon="1.09923">
        <ele>86.400002</ele>
        <time>2017-12-17T10:45:52Z</time>
      </trkpt>
      <trkpt lat="48.99397" lon="1.09928">
        <ele>87.099998</ele>
        <time>2017-12-17T10:45:55Z</time>
      </trkpt>
      <trkpt lat="48.99385" lon="1.09932">
        <ele>87.800003</ele>
        <time>2017-12-17T10:45:58Z</time>
      </trkpt>
      <trkpt lat="48.99374" lon="1.09937">
        <ele>88.5</ele>
        <time>2017-12-17T10:46:01Z</time>
      </trkpt>
      <trkpt lat="48.99364" lon="1.09941">
        <ele>89.300003</ele>
        <time>2017-12-17T10:46:04Z</time>
      </trkpt>
      <trkpt lat="48.99354" lon="1.09946">
        <ele>89.900002</ele>
        <time>2017-12-17T10:46:07Z</time>
      </trkpt>
      <trkpt lat="48.99344" lon="1.0995">
        <ele>90.5</ele>
        <time>2017-12-17T10:46:10Z</time>
      </trkpt>
      <trkpt lat="48.99334" lon="1.09955">
        <ele>91.199997</ele>
        <time>2017-12-17T10:46:13Z</time>
      </trkpt>
      <trkpt lat="48.99324" lon="1.09959">
        <ele>91.900002</ele>
        <time>2017-12-17T10:46:16Z</time>
      </trkpt>
      <trkpt lat="48.99315" lon="1.09964">
        <ele>92.5</ele>
        <time>2017-12-17T10:46:19Z</time>
      </trkpt>
      <trkpt lat="48.99304" lon="1.09968">
        <ele>93.199997</ele>
        <time>2017-12-17T10:46:22Z</time>
      </trkpt>
      <trkpt lat="48.99294" lon="1.09973">
        <ele>93.800003</ele>
        <time>2017-12-17T10:46:25Z</time>
      </trkpt>
      <trkpt lat="48.99284" lon="1.09978">
        <ele>94.599998</ele>
        <time>2017-12-17T10:46:28Z</time>
      </trkpt>
      <trkpt lat="48.99276" lon="1.09987">
        <ele>95.400002</ele>
        <time>2017-12-17T10:46:31Z</time>
      </trkpt>
      <trkpt lat="48.99274" lon="1.10002">
        <ele>96.199997</ele>
        <time>2017-12-17T10:46:34Z</time>
      </trkpt>
      <trkpt lat="48.9928" lon="1.10019">
        <ele>96.800003</ele>
        <time>2017-12-17T10:46:37Z</time>
      </trkpt>
      <trkpt lat="48.99285" lon="1.10038">
        <ele>97.199997</ele>
        <time>2017-12-17T10:46:40Z</time>
      </trkpt>
      <trkpt lat="48.99287" lon="1.10052">
        <ele>97.400002</ele>
        <time>2017-12-17T10:46:42Z</time>
      </trkpt>
      <trkpt lat="48.99287" lon="1.10065">
        <ele>97.5</ele>
        <time>2017-12-17T10:46:44Z</time>
      </trkpt>
      <trkpt lat="48.99282" lon="1.10082">
        <ele>97.800003</ele>
        <time>2017-12-17T10:46:47Z</time>
      </trkpt>
      <trkpt lat="48.99274" lon="1.10094">
        <ele>98.5</ele>
        <time>2017-12-17T10:46:50Z</time>
      </trkpt>
      <trkpt lat="48.99265" lon="1.10104">
        <ele>99.5</ele>
        <time>2017-12-17T10:46:53Z</time>
      </trkpt>
      <trkpt lat="48.99261" lon="1.10119">
        <ele>100.400002</ele>
        <time>2017-12-17T10:46:56Z</time>
      </trkpt>
      <trkpt lat="48.99262" lon="1.10136">
        <ele>101.099998</ele>
        <time>2017-12-17T10:46:59Z</time>
      </trkpt>
      <trkpt lat="48.99267" lon="1.10155">
        <ele>101.5</ele>
        <time>2017-12-17T10:47:02Z</time>
      </trkpt>
      <trkpt lat="48.9927" lon="1.10169">
        <ele>101.699997</ele>
        <time>2017-12-17T10:47:04Z</time>
      </trkpt>
      <trkpt lat="48.99273" lon="1.10183">
        <ele>101.5</ele>
        <time>2017-12-17T10:47:06Z</time>
      </trkpt>
      <trkpt lat="48.99276" lon="1.10198">
        <ele>101.599998</ele>
        <time>2017-12-17T10:47:08Z</time>
      </trkpt>
      <trkpt lat="48.99279" lon="1.10215">
        <ele>101.599998</ele>
        <time>2017-12-17T10:47:10Z</time>
      </trkpt>
      <trkpt lat="48.99283" lon="1.10232">
        <ele>101.300003</ele>
        <time>2017-12-17T10:47:12Z</time>
      </trkpt>
      <trkpt lat="48.99286" lon="1.10249">
        <ele>101.199997</ele>
        <time>2017-12-17T10:47:14Z</time>
      </trkpt>
      <trkpt lat="48.99289" lon="1.10265">
        <ele>101.199997</ele>
        <time>2017-12-17T10:47:16Z</time>
      </trkpt>
      <trkpt lat="48.99292" lon="1.10279">
        <ele>101.599998</ele>
        <time>2017-12-17T10:47:18Z</time>
      </trkpt>
      <trkpt lat="48.99296" lon="1.10298">
        <ele>102.599998</ele>
        <time>2017-12-17T10:47:21Z</time>
      </trkpt>
      <trkpt lat="48.993" lon="1.10315">
        <ele>103.199997</ele>
        <time>2017-12-17T10:47:24Z</time>
      </trkpt>
      <trkpt lat="48.99302" lon="1.10331">
        <ele>103.5</ele>
        <time>2017-12-17T10:47:27Z</time>
      </trkpt>
      <trkpt lat="48.99301" lon="1.10349">
        <ele>103.400002</ele>
        <time>2017-12-17T10:47:30Z</time>
      </trkpt>
      <trkpt lat="48.99297" lon="1.10364">
        <ele>103.099998</ele>
        <time>2017-12-17T10:47:33Z</time>
      </trkpt>
      <trkpt lat="48.99291" lon="1.10376">
        <ele>103.400002</ele>
        <time>2017-12-17T10:47:36Z</time>
      </trkpt>
      <trkpt lat="48.99285" lon="1.10388">
        <ele>104.099998</ele>
        <time>2017-12-17T10:47:39Z</time>
      </trkpt>
      <trkpt lat="48.9928" lon="1.10402">
        <ele>105.099998</ele>
        <time>2017-12-17T10:47:42Z</time>
      </trkpt>
      <trkpt lat="48.99274" lon="1.10415">
        <ele>105.900002</ele>
        <time>2017-12-17T10:47:45Z</time>
      </trkpt>
      <trkpt lat="48.99438" lon="1.10542">
        <ele>93.449448</ele>
        <time>2017-12-17T10:51:29Z</time>
      </trkpt>
      <trkpt lat="48.99555" lon="1.10645">
        <ele>88.016602</ele>
        <time>2017-12-17T10:51:29Z</time>
      </trkpt>
      <trkpt lat="48.99654" lon="1.10721">
        <ele>82.482292</ele>
        <time>2017-12-17T10:51:29Z</time>
      </trkpt>
      <trkpt lat="48.9976" lon="1.10718">
        <ele>78.634521</ele>
        <time>2017-12-17T10:51:29Z</time>
      </trkpt>
      <trkpt lat="48.99853" lon="1.10767">
        <ele>76.60498</ele>
        <time>2017-12-17T10:51:29Z</time>
      </trkpt>
      <trkpt lat="48.99871" lon="1.10818">
        <ele>78.436035</ele>
        <time>2017-12-17T10:51:29Z</time>
      </trkpt>
      <trkpt lat="48.99939" lon="1.10805">
        <ele>77.592529</ele>
        <time>2017-12-17T10:51:29Z</time>
      </trkpt>
      <trkpt lat="48.99989" lon="1.10859">
        <ele>78.154785</ele>
        <time>2017-12-17T10:51:29Z</time>
      </trkpt>
      <trkpt lat="49.00065" lon="1.10991">
        <ele>79.416222</ele>
        <time>2017-12-17T10:51:29Z</time>
      </trkpt>
      <trkpt lat="49.00169" lon="1.11103">
        <ele>78.614502</ele>
        <time>2017-12-17T10:51:29Z</time>
      </trkpt>
      <trkpt lat="49.00264" lon="1.11203">
        <ele>80.096878</ele>
        <time>2017-12-17T10:51:29Z</time>
      </trkpt>
      <trkpt lat="49.00433" lon="1.11302">
        <ele>80.440964</ele>
        <time>2017-12-17T10:51:29Z</time>
      </trkpt>
      <trkpt lat="49.00624" lon="1.11421">
        <ele>77.508324</ele>
        <time>2017-12-17T10:51:29Z</time>
      </trkpt>
      <trkpt lat="49.00738" lon="1.11489">
        <ele>73.777695</ele>
        <time>2017-12-17T10:51:29Z</time>
      </trkpt>
      <trkpt lat="49.00819" lon="1.11604">
        <ele>75.123619</ele>
        <time>2017-12-17T10:51:29Z</time>
      </trkpt>
      <trkpt lat="49.00998" lon="1.11717">
        <ele>73.691658</ele>
        <time>2017-12-17T10:51:29Z</time>
      </trkpt>
      <trkpt lat="49.01178" lon="1.11832">
        <ele>72.393105</ele>
        <time>2017-12-17T10:51:29Z</time>
      </trkpt>
      <trkpt lat="49.01363" lon="1.11938">
        <ele>70.45372</ele>
        <time>2017-12-17T10:51:29Z</time>
      </trkpt>
      <trkpt lat="49.01474" lon="1.11987">
        <ele>69.693848</ele>
        <time>2017-12-17T10:51:29Z</time>
      </trkpt>
      <trkpt lat="49.01658" lon="1.12283">
        <ele>69</ele>
        <time>2017-12-17T10:51:29Z</time>
      </trkpt>
      <trkpt lat="49.01741" lon="1.12406">
        <ele>67.117516</ele>
        <time>2017-12-17T10:51:29Z</time>
      </trkpt>
      <trkpt lat="49.01803" lon="1.12498">
        <ele>68.596825</ele>
        <time>2017-12-17T10:51:29Z</time>
      </trkpt>
      <trkpt lat="49.01859" lon="1.12645">
        <ele>69.296112</ele>
        <time>2017-12-17T10:51:29Z</time>
      </trkpt>
      <trkpt lat="49.01908" lon="1.12891">
        <ele>71.152313</ele>
        <time>2017-12-17T10:51:29Z</time>
      </trkpt>
      <trkpt lat="49.01929" lon="1.13044">
        <ele>65.409592</ele>
        <time>2017-12-17T10:51:29Z</time>
      </trkpt>
      <trkpt lat="49.01991" lon="1.13194">
        <ele>64.765106</ele>
        <time>2017-12-17T10:51:29Z</time>
      </trkpt>
      <trkpt lat="49.02054" lon="1.1336">
        <ele>66.097946</ele>
        <time>2017-12-17T10:51:29Z</time>
      </trkpt>
      <trkpt lat="49.02102" lon="1.13575">
        <ele>65.684074</ele>
        <time>2017-12-17T10:51:29Z</time>
      </trkpt>
      <trkpt lat="49.02257" lon="1.14059">
        <ele>65.975075</ele>
        <time>2017-12-17T10:51:29Z</time>
      </trkpt>
    </trkseg>
  </trk>
</gpx>